<?xml version='1.0' encoding='UTF-8'?><gpx version="1.1" creator="JPX - https://github.com/jenetics/jpx" xmlns="http://www.topografix.com/GPX/1/1"><trk><trkseg><trkpt lat="41.878876722998086" lon="12.4845167498437"><ele>41.8</ele><time>2026-04-09T13:12:04.002Z</time></trkpt><trkpt lat="41.878918204695" lon="12.484652605648341"><ele>41.6</ele><time>2026-04-09T13:12:05.002Z</time></trkpt><trkpt lat="41.87896633536283" lon="12.484754110709627"><ele>41.4</ele><time>2026-04-09T13:12:06.002Z</time></trkpt><trkpt lat="41.8790008228214" lon="12.484840477944418"><ele>41.199999999999996</ele><time>2026-04-09T13:12:07.002Z</time></trkpt><trkpt lat="41.879056573388446" lon="12.484980048569733"><ele>41.0</ele><time>2026-04-09T13:12:09.002Z</time></trkpt><trkpt lat="41.87909527912299" lon="12.485079315735138"><ele>41.0</ele><time>2026-04-09T13:12:11.001Z</time></trkpt><trkpt lat="41.879254444853984" lon="12.485073465819202"><ele>41.0</ele><time>2026-04-09T13:12:19.001Z</time></trkpt><trkpt lat="41.87933180071812" lon="12.485037189342732"><ele>41.0</ele><time>2026-04-09T13:12:20.001Z</time></trkpt><trkpt lat="41.879411605789215" lon="12.484995231522621"><ele>41.0</ele><time>2026-04-09T13:12:21.001Z</time></trkpt><trkpt lat="41.87948260963033" lon="12.484978145991255"><ele>41.0</ele><time>2026-04-09T13:12:22.001Z</time></trkpt><trkpt lat="41.87956119095622" lon="12.484918833326244"><ele>41.0</ele><time>2026-04-09T13:12:23Z</time></trkpt><trkpt lat="41.879639466888975" lon="12.484888098168911"><ele>41.0</ele><time>2026-04-09T13:12:24Z</time></trkpt><trkpt lat="41.87971976389262" lon="12.484849173423369"><ele>41.0</ele><time>2026-04-09T13:12:25Z</time></trkpt><trkpt lat="41.87979011064106" lon="12.48482462974303"><ele>41.0</ele><time>2026-04-09T13:12:26Z</time></trkpt><trkpt lat="41.87986235812198" lon="12.484792093535104"><ele>41.0</ele><time>2026-04-09T13:12:27Z</time></trkpt><trkpt lat="41.87993165046727" lon="12.484762069243645"><ele>41.0</ele><time>2026-04-09T13:12:28Z</time></trkpt><trkpt lat="41.87999745718667" lon="12.48473510462648"><ele>41.0</ele><time>2026-04-09T13:12:29Z</time></trkpt><trkpt lat="41.880066620668636" lon="12.484708645677813"><ele>41.0</ele><time>2026-04-09T13:12:30Z</time></trkpt><trkpt lat="41.88012638005991" lon="12.484673670822744"><ele>41.0</ele><time>2026-04-09T13:12:31Z</time></trkpt><trkpt lat="41.88023267981072" lon="12.484622863129044"><ele>41.0</ele><time>2026-04-09T13:12:33Z</time></trkpt><trkpt lat="41.880307575246505" lon="12.484587712916863"><ele>41.0</ele><time>2026-04-09T13:12:35Z</time></trkpt><trkpt lat="41.88038514600548" lon="12.484549165180407"><ele>41.0</ele><time>2026-04-09T13:12:37Z</time></trkpt><trkpt lat="41.88044486923198" lon="12.484512579465648"><ele>40.4</ele><time>2026-04-09T13:12:38Z</time></trkpt><trkpt lat="41.88052827567468" lon="12.484481975487823"><ele>39.8</ele><time>2026-04-09T13:12:39Z</time></trkpt><trkpt lat="41.88066894413816" lon="12.484564699098728"><ele>39.199999999999996</ele><time>2026-04-09T13:12:41Z</time></trkpt><trkpt lat="41.88072912645402" lon="12.484661303840872"><ele>38.599999999999994</ele><time>2026-04-09T13:12:42Z</time></trkpt><trkpt lat="41.88079805858904" lon="12.484766904827547"><ele>38.0</ele><time>2026-04-09T13:12:43Z</time></trkpt><trkpt lat="41.88089386066535" lon="12.484874121022592"><ele>37.25</ele><time>2026-04-09T13:12:44Z</time></trkpt><trkpt lat="41.88099063125137" lon="12.484983879623968"><ele>36.5</ele><time>2026-04-09T13:12:45Z</time></trkpt><trkpt lat="41.88107890057092" lon="12.485104683727489"><ele>35.75</ele><time>2026-04-09T13:12:46Z</time></trkpt><trkpt lat="41.881157679834885" lon="12.485209984531673"><ele>35.0</ele><time>2026-04-09T13:12:47Z</time></trkpt><trkpt lat="41.8812472350524" lon="12.485316707035691"><ele>34.25</ele><time>2026-04-09T13:12:48Z</time></trkpt><trkpt lat="41.881341190138855" lon="12.485432058456139"><ele>33.5</ele><time>2026-04-09T13:12:49Z</time></trkpt><trkpt lat="41.88143073716299" lon="12.485554678470326"><ele>32.75</ele><time>2026-04-09T13:12:50Z</time></trkpt><trkpt lat="41.8815336602118" lon="12.485691655964926"><ele>32.0</ele><time>2026-04-09T13:12:51Z</time></trkpt><trkpt lat="41.88163731526742" lon="12.485824069772296"><ele>32.0</ele><time>2026-04-09T13:12:52Z</time></trkpt><trkpt lat="41.88174412024234" lon="12.485955648451407"><ele>32.0</ele><time>2026-04-09T13:12:53Z</time></trkpt><trkpt lat="41.88185028107175" lon="12.486090043388199"><ele>32.0</ele><time>2026-04-09T13:12:54Z</time></trkpt><trkpt lat="41.8819489360765" lon="12.486228332699906"><ele>32.0</ele><time>2026-04-09T13:12:55Z</time></trkpt><trkpt lat="41.88205775694121" lon="12.486370214234059"><ele>31.333333333333332</ele><time>2026-04-09T13:12:56Z</time></trkpt><trkpt lat="41.88217935811823" lon="12.486514456135787"><ele>30.666666666666664</ele><time>2026-04-09T13:12:57Z</time></trkpt><trkpt lat="41.88230350029036" lon="12.486685351626392"><ele>30.0</ele><time>2026-04-09T13:12:58Z</time></trkpt><trkpt lat="41.882418941788735" lon="12.486833414187569"><ele>30.0</ele><time>2026-04-09T13:12:59Z</time></trkpt><trkpt lat="41.88252322059452" lon="12.486968905297836"><ele>30.0</ele><time>2026-04-09T13:13:00Z</time></trkpt><trkpt lat="41.88263480353558" lon="12.487106091687533"><ele>30.0</ele><time>2026-04-09T13:13:01Z</time></trkpt><trkpt lat="41.8827477642351" lon="12.487242953104166"><ele>30.0</ele><time>2026-04-09T13:13:02Z</time></trkpt><trkpt lat="41.882865107254176" lon="12.487388120088061"><ele>29.75</ele><time>2026-04-09T13:13:03Z</time></trkpt><trkpt lat="41.88297124207698" lon="12.487520428298163"><ele>29.5</ele><time>2026-04-09T13:13:04Z</time></trkpt><trkpt lat="41.88308096632674" lon="12.487653806926385"><ele>29.25</ele><time>2026-04-09T13:13:05Z</time></trkpt><trkpt lat="41.883190479352855" lon="12.487797476272219"><ele>29.0</ele><time>2026-04-09T13:13:06Z</time></trkpt><trkpt lat="41.88330614879754" lon="12.487944812768797"><ele>29.0</ele><time>2026-04-09T13:13:07Z</time></trkpt><trkpt lat="41.88341272564588" lon="12.488080632195347"><ele>29.0</ele><time>2026-04-09T13:13:08Z</time></trkpt><trkpt lat="41.88350901607211" lon="12.488199878130134"><ele>29.0</ele><time>2026-04-09T13:13:09Z</time></trkpt><trkpt lat="41.883592350533924" lon="12.488317936474333"><ele>29.0</ele><time>2026-04-09T13:13:10Z</time></trkpt><trkpt lat="41.88367410084013" lon="12.488471368378164"><ele>27.75</ele><time>2026-04-09T13:13:11Z</time></trkpt><trkpt lat="41.88377614074085" lon="12.488616278879242"><ele>26.5</ele><time>2026-04-09T13:13:12Z</time></trkpt><trkpt lat="41.88387418603477" lon="12.488734170698654"><ele>25.25</ele><time>2026-04-09T13:13:13Z</time></trkpt><trkpt lat="41.88397112346614" lon="12.488854115749259"><ele>24.0</ele><time>2026-04-09T13:13:14Z</time></trkpt><trkpt lat="41.88407952199135" lon="12.488999681932619"><ele>24.0</ele><time>2026-04-09T13:13:15Z</time></trkpt><trkpt lat="41.884203248799395" lon="12.489133663854602"><ele>24.0</ele><time>2026-04-09T13:13:16Z</time></trkpt><trkpt lat="41.884306293575484" lon="12.489215328133362"><ele>24.0</ele><time>2026-04-09T13:13:17Z</time></trkpt><trkpt lat="41.884380520674355" lon="12.489263668143517"><ele>24.0</ele><time>2026-04-09T13:13:18Z</time></trkpt><trkpt lat="41.88444272779362" lon="12.489281038192425"><ele>24.0</ele><time>2026-04-09T13:13:20Z</time></trkpt><trkpt lat="41.884520814058" lon="12.489317646283148"><ele>24.2</ele><time>2026-04-09T13:13:23Z</time></trkpt><trkpt lat="41.884583963584866" lon="12.489343987984677"><ele>24.4</ele><time>2026-04-09T13:13:28Z</time></trkpt><trkpt lat="41.88474684158616" lon="12.489385355961026"><ele>24.6</ele><time>2026-04-09T13:13:35Z</time></trkpt><trkpt lat="41.8848550142482" lon="12.489403575505717"><ele>24.8</ele><time>2026-04-09T13:13:36Z</time></trkpt><trkpt lat="41.8849620142742" lon="12.489422494686446"><ele>25.0</ele><time>2026-04-09T13:13:37Z</time></trkpt><trkpt lat="41.88508591976172" lon="12.489442424366793"><ele>26.25</ele><time>2026-04-09T13:13:38Z</time></trkpt><trkpt lat="41.88521010701763" lon="12.48945961352787"><ele>27.5</ele><time>2026-04-09T13:13:39Z</time></trkpt><trkpt lat="41.88534525995953" lon="12.489480815785132"><ele>28.75</ele><time>2026-04-09T13:13:40Z</time></trkpt><trkpt lat="41.885476249686384" lon="12.48952038087596"><ele>30.0</ele><time>2026-04-09T13:13:41Z</time></trkpt><trkpt lat="41.885596737469704" lon="12.489575706098789"><ele>30.333333333333336</ele><time>2026-04-09T13:13:42Z</time></trkpt><trkpt lat="41.8857500740817" lon="12.48961097685873"><ele>30.666666666666668</ele><time>2026-04-09T13:13:43Z</time></trkpt><trkpt lat="41.885910856769186" lon="12.489648147556052"><ele>31.0</ele><time>2026-04-09T13:13:44Z</time></trkpt><trkpt lat="41.886087580803974" lon="12.48969062906461"><ele>31.0</ele><time>2026-04-09T13:13:45Z</time></trkpt><trkpt lat="41.8862558402017" lon="12.489729708441415"><ele>31.0</ele><time>2026-04-09T13:13:46Z</time></trkpt><trkpt lat="41.88642569174493" lon="12.489778374301737"><ele>31.0</ele><time>2026-04-09T13:13:47Z</time></trkpt><trkpt lat="41.88661415832506" lon="12.489829296049814"><ele>31.333333333333336</ele><time>2026-04-09T13:13:48Z</time></trkpt><trkpt lat="41.88678079512301" lon="12.489882848528275"><ele>31.666666666666664</ele><time>2026-04-09T13:13:49Z</time></trkpt><trkpt lat="41.88695371700547" lon="12.489932124922303"><ele>32.0</ele><time>2026-04-09T13:13:50Z</time></trkpt><trkpt lat="41.8871172846129" lon="12.489972250845076"><ele>32.0</ele><time>2026-04-09T13:13:51Z</time></trkpt><trkpt lat="41.88729091285106" lon="12.490028604396798"><ele>32.0</ele><time>2026-04-09T13:13:51.999Z</time></trkpt><trkpt lat="41.88745552352185" lon="12.490093302532754"><ele>32.0</ele><time>2026-04-09T13:13:52.999Z</time></trkpt><trkpt lat="41.887643213558334" lon="12.490138272287739"><ele>30.666666666666664</ele><time>2026-04-09T13:13:53.999Z</time></trkpt><trkpt lat="41.88781937046019" lon="12.490180524083344"><ele>29.333333333333336</ele><time>2026-04-09T13:13:54.999Z</time></trkpt><trkpt lat="41.888000324971465" lon="12.490225468481228"><ele>28.0</ele><time>2026-04-09T13:13:55.999Z</time></trkpt><trkpt lat="41.888171319789244" lon="12.490280296881405"><ele>28.0</ele><time>2026-04-09T13:13:56.999Z</time></trkpt><trkpt lat="41.888324780638214" lon="12.490328398260964"><ele>28.0</ele><time>2026-04-09T13:13:57.999Z</time></trkpt><trkpt lat="41.888470526174665" lon="12.49037155634176"><ele>28.0</ele><time>2026-04-09T13:13:58.999Z</time></trkpt><trkpt lat="41.88859691283466" lon="12.490433076607156"><ele>28.0</ele><time>2026-04-09T13:13:59.999Z</time></trkpt><trkpt lat="41.88871079970367" lon="12.490557181161885"><ele>28.0</ele><time>2026-04-09T13:14:00.999Z</time></trkpt><trkpt lat="41.88882245782398" lon="12.490739568547218"><ele>28.0</ele><time>2026-04-09T13:14:01.999Z</time></trkpt><trkpt lat="41.88895540967768" lon="12.490942033400575"><ele>28.0</ele><time>2026-04-09T13:14:02.999Z</time></trkpt><trkpt lat="41.88905359424677" lon="12.49111509432355"><ele>29.5</ele><time>2026-04-09T13:14:03.999Z</time></trkpt><trkpt lat="41.88911992989113" lon="12.491295720008742"><ele>31.0</ele><time>2026-04-09T13:14:04.999Z</time></trkpt><trkpt lat="41.88916483786372" lon="12.491482891208388"><ele>32.5</ele><time>2026-04-09T13:14:05.999Z</time></trkpt><trkpt lat="41.88919678639152" lon="12.491666386084683"><ele>34.0</ele><time>2026-04-09T13:14:06.999Z</time></trkpt><trkpt lat="41.88920258857546" lon="12.491853726323212"><ele>34.0</ele><time>2026-04-09T13:14:07.999Z</time></trkpt><trkpt lat="41.889189889635546" lon="12.492080286687795"><ele>34.0</ele><time>2026-04-09T13:14:08.999Z</time></trkpt><trkpt lat="41.889185425544206" lon="12.49235596097644"><ele>34.0</ele><time>2026-04-09T13:14:09.999Z</time></trkpt><trkpt lat="41.88917819081385" lon="12.492596783836214"><ele>34.333333333333336</ele><time>2026-04-09T13:14:10.999Z</time></trkpt><trkpt lat="41.889182111032206" lon="12.492821737688006"><ele>34.666666666666664</ele><time>2026-04-09T13:14:11.999Z</time></trkpt><trkpt lat="41.88918525577689" lon="12.493035311494491"><ele>35.0</ele><time>2026-04-09T13:14:12.999Z</time></trkpt><trkpt lat="41.88922385099337" lon="12.493218975174425"><ele>34.8</ele><time>2026-04-09T13:14:13.999Z</time></trkpt><trkpt lat="41.88926325763429" lon="12.493403527118495"><ele>34.6</ele><time>2026-04-09T13:14:14.999Z</time></trkpt><trkpt lat="41.889317061400234" lon="12.493565314003398"><ele>34.4</ele><time>2026-04-09T13:14:15.999Z</time></trkpt><trkpt lat="41.889385087960335" lon="12.49364040293446"><ele>34.2</ele><time>2026-04-09T13:14:16.999Z</time></trkpt><trkpt lat="41.88945496562255" lon="12.493694442177341"><ele>34.0</ele><time>2026-04-09T13:14:17.999Z</time></trkpt><trkpt lat="41.88952610172831" lon="12.493756290127255"><ele>34.0</ele><time>2026-04-09T13:14:18.999Z</time></trkpt><trkpt lat="41.889642443665316" lon="12.49385265494786"><ele>34.0</ele><time>2026-04-09T13:14:20.999Z</time></trkpt><trkpt lat="41.88974257741716" lon="12.49389217512735"><ele>34.0</ele><time>2026-04-09T13:14:22.999Z</time></trkpt><trkpt lat="41.889810329959126" lon="12.493944465279272"><ele>34.0</ele><time>2026-04-09T13:14:24.999Z</time></trkpt><trkpt lat="41.88991591954482" lon="12.493959577697165"><ele>34.0</ele><time>2026-04-09T13:14:27Z</time></trkpt><trkpt lat="41.889991348594705" lon="12.494002284435611"><ele>34.0</ele><time>2026-04-09T13:14:29Z</time></trkpt><trkpt lat="41.8900702253119" lon="12.49405149946366"><ele>34.0</ele><time>2026-04-09T13:14:31Z</time></trkpt><trkpt lat="41.89012577000727" lon="12.494097538951966"><ele>34.0</ele><time>2026-04-09T13:14:32Z</time></trkpt><trkpt lat="41.89017706721083" lon="12.494163294342348"><ele>34.0</ele><time>2026-04-09T13:14:33Z</time></trkpt><trkpt lat="41.890235763908485" lon="12.494217072608569"><ele>34.0</ele><time>2026-04-09T13:14:34Z</time></trkpt><trkpt lat="41.8902980795114" lon="12.494261438768934"><ele>34.0</ele><time>2026-04-09T13:14:35Z</time></trkpt><trkpt lat="41.89037705346296" lon="12.494313785061625"><ele>34.2</ele><time>2026-04-09T13:14:36Z</time></trkpt><trkpt lat="41.89042916991813" lon="12.494372356728677"><ele>34.4</ele><time>2026-04-09T13:14:37Z</time></trkpt><trkpt lat="41.890477353646304" lon="12.494533461741899"><ele>34.6</ele><time>2026-04-09T13:14:39Z</time></trkpt><trkpt lat="41.890474593403084" lon="12.494645810850706"><ele>34.8</ele><time>2026-04-09T13:14:40Z</time></trkpt><trkpt lat="41.8904471236722" lon="12.494779516534607"><ele>35.0</ele><time>2026-04-09T13:14:41Z</time></trkpt><trkpt lat="41.89040763087901" lon="12.494967291095053"><ele>35.25</ele><time>2026-04-09T13:14:42Z</time></trkpt><trkpt lat="41.890371706113896" lon="12.495144937098333"><ele>35.5</ele><time>2026-04-09T13:14:43Z</time></trkpt><trkpt lat="41.890335461141824" lon="12.495323772433895"><ele>35.75</ele><time>2026-04-09T13:14:44Z</time></trkpt><trkpt lat="41.89030728605334" lon="12.495462534518502"><ele>36.0</ele><time>2026-04-09T13:14:45Z</time></trkpt><trkpt lat="41.89028376751997" lon="12.49557501911239"><ele>36.8</ele><time>2026-04-09T13:14:46Z</time></trkpt><trkpt lat="41.890265107874086" lon="12.495666192382966"><ele>37.6</ele><time>2026-04-09T13:14:47Z</time></trkpt><trkpt lat="41.8902388607031" lon="12.495815157320253"><ele>38.4</ele><time>2026-04-09T13:14:49Z</time></trkpt><trkpt lat="41.89022162260089" lon="12.495903927237435"><ele>39.2</ele><time>2026-04-09T13:14:50Z</time></trkpt><trkpt lat="41.89019563191076" lon="12.49604244690926"><ele>40.0</ele><time>2026-04-09T13:14:52Z</time></trkpt><trkpt lat="41.89017065106855" lon="12.496159890767427"><ele>39.8</ele><time>2026-04-09T13:14:54Z</time></trkpt><trkpt lat="41.890146262153756" lon="12.496262268361479"><ele>39.6</ele><time>2026-04-09T13:14:56Z</time></trkpt><trkpt lat="41.890102093806114" lon="12.496377873868331"><ele>39.4</ele><time>2026-04-09T13:14:58Z</time></trkpt><trkpt lat="41.89008438270348" lon="12.49647267559534"><ele>39.2</ele><time>2026-04-09T13:15:02Z</time></trkpt><trkpt lat="41.890073225795255" lon="12.496594179031272"><ele>39.0</ele><time>2026-04-09T13:15:34Z</time></trkpt><trkpt lat="41.890045995824686" lon="12.496743590372391"><ele>39.0</ele><time>2026-04-09T13:15:36Z</time></trkpt><trkpt lat="41.89005499440945" lon="12.496833799024007"><ele>39.0</ele><time>2026-04-09T13:15:37Z</time></trkpt><trkpt lat="41.8901254467023" lon="12.496976377421255"><ele>39.0</ele><time>2026-04-09T13:15:39Z</time></trkpt><trkpt lat="41.89017866085058" lon="12.497082274307267"><ele>39.0</ele><time>2026-04-09T13:15:40Z</time></trkpt><trkpt lat="41.89021779058098" lon="12.497239415379163"><ele>39.0</ele><time>2026-04-09T13:15:41.001Z</time></trkpt><trkpt lat="41.89028575213758" lon="12.49730157728463"><ele>40.6</ele><time>2026-04-09T13:15:42.001Z</time></trkpt><trkpt lat="41.89035001569527" lon="12.497335432307"><ele>42.2</ele><time>2026-04-09T13:15:43.001Z</time></trkpt><trkpt lat="41.89037966775124" lon="12.497556440988724"><ele>43.800000000000004</ele><time>2026-04-09T13:15:44.001Z</time></trkpt><trkpt lat="41.890439540126216" lon="12.497685535667772"><ele>45.4</ele><time>2026-04-09T13:15:45.001Z</time></trkpt><trkpt lat="41.890493082900676" lon="12.49779253462294"><ele>47.0</ele><time>2026-04-09T13:15:46.001Z</time></trkpt><trkpt lat="41.8905853169227" lon="12.497921027925697"><ele>39.0</ele><time>2026-04-09T13:15:47.001Z</time></trkpt><trkpt lat="41.889873501108696" lon="12.497592887801133"><ele>39.0</ele><time>2026-04-09T13:15:48.001Z</time></trkpt><trkpt lat="41.88985056040156" lon="12.497684574012041"><ele>39.0</ele><time>2026-04-09T13:15:50.001Z</time></trkpt><trkpt lat="41.88994987185252" lon="12.497826376362365"><ele>39.0</ele><time>2026-04-09T13:15:53.001Z</time></trkpt><trkpt lat="41.88992927394922" lon="12.497933573787364"><ele>39.0</ele><time>2026-04-09T13:15:55.001Z</time></trkpt><trkpt lat="41.88990779249918" lon="12.498045363399758"><ele>39.0</ele><time>2026-04-09T13:15:57.999Z</time></trkpt><trkpt lat="41.889890086814916" lon="12.498140007505096"><ele>40.0</ele><time>2026-04-09T13:15:58.999Z</time></trkpt><trkpt lat="41.88987182915056" lon="12.498238553125754"><ele>41.0</ele><time>2026-04-09T13:16:35Z</time></trkpt><trkpt lat="41.889784410376755" lon="12.498302124309353"><ele>42.0</ele><time>2026-04-09T13:16:36Z</time></trkpt><trkpt lat="41.8897543200289" lon="12.498474605223365"><ele>43.0</ele><time>2026-04-09T13:16:37Z</time></trkpt><trkpt lat="41.8897249064162" lon="12.498613934551162"><ele>44.0</ele><time>2026-04-09T13:16:38Z</time></trkpt><trkpt lat="41.8897025804694" lon="12.498752140461482"><ele>44.0</ele><time>2026-04-09T13:16:39Z</time></trkpt><trkpt lat="41.88966751748104" lon="12.498975500856707"><ele>44.0</ele><time>2026-04-09T13:16:40Z</time></trkpt><trkpt lat="41.889615563094026" lon="12.49921540510606"><ele>44.0</ele><time>2026-04-09T13:16:41Z</time></trkpt><trkpt lat="41.88958345776052" lon="12.499408111626632"><ele>46.33333333333333</ele><time>2026-04-09T13:16:42Z</time></trkpt><trkpt lat="41.88954557445236" lon="12.499612753530863"><ele>48.666666666666664</ele><time>2026-04-09T13:16:43Z</time></trkpt><trkpt lat="41.88950955817359" lon="12.499828607368153"><ele>51.0</ele><time>2026-04-09T13:16:44Z</time></trkpt><trkpt lat="41.88947306285888" lon="12.500027990765444"><ele>51.0</ele><time>2026-04-09T13:16:45Z</time></trkpt><trkpt lat="41.889438194588394" lon="12.500206352735693"><ele>51.0</ele><time>2026-04-09T13:16:46Z</time></trkpt><trkpt lat="41.88940485305591" lon="12.500374096954825"><ele>51.0</ele><time>2026-04-09T13:16:47Z</time></trkpt><trkpt lat="41.88937458633611" lon="12.500542346940751"><ele>51.0</ele><time>2026-04-09T13:16:48Z</time></trkpt><trkpt lat="41.88935098865421" lon="12.500689467194446"><ele>51.4</ele><time>2026-04-09T13:16:49Z</time></trkpt><trkpt lat="41.889324545851295" lon="12.50080866460471"><ele>51.8</ele><time>2026-04-09T13:16:50Z</time></trkpt><trkpt lat="41.88935876619094" lon="12.500956565679346"><ele>52.199999999999996</ele><time>2026-04-09T13:16:51Z</time></trkpt><trkpt lat="41.889334119027154" lon="12.50108631955997"><ele>52.599999999999994</ele><time>2026-04-09T13:16:52Z</time></trkpt><trkpt lat="41.889310020730036" lon="12.501213013130123"><ele>53.0</ele><time>2026-04-09T13:16:53Z</time></trkpt><trkpt lat="41.889284377866886" lon="12.501347827186759"><ele>53.16666666666667</ele><time>2026-04-09T13:16:54Z</time></trkpt><trkpt lat="41.8892627818774" lon="12.501461365029265"><ele>53.333333333333336</ele><time>2026-04-09T13:16:55Z</time></trkpt><trkpt lat="41.88924332716792" lon="12.501569968855407"><ele>53.5</ele><time>2026-04-09T13:16:56Z</time></trkpt><trkpt lat="41.889227519074915" lon="12.501667407798177"><ele>53.66666666666667</ele><time>2026-04-09T13:16:57Z</time></trkpt><trkpt lat="41.88915428335447" lon="12.501737699585885"><ele>53.833333333333336</ele><time>2026-04-09T13:16:58Z</time></trkpt><trkpt lat="41.889144463737125" lon="12.501826653929825"><ele>54.0</ele><time>2026-04-09T13:16:59Z</time></trkpt><trkpt lat="41.88913499294708" lon="12.50193649682229"><ele>52.400000000000006</ele><time>2026-04-09T13:17:00Z</time></trkpt><trkpt lat="41.88913070920753" lon="12.502063779184631"><ele>50.800000000000004</ele><time>2026-04-09T13:17:01Z</time></trkpt><trkpt lat="41.889133351904235" lon="12.502188910540728"><ele>49.2</ele><time>2026-04-09T13:17:02Z</time></trkpt><trkpt lat="41.889133871488816" lon="12.502325025363685"><ele>47.599999999999994</ele><time>2026-04-09T13:17:03Z</time></trkpt><trkpt lat="41.88914071634486" lon="12.502450738721262"><ele>46.0</ele><time>2026-04-09T13:17:04Z</time></trkpt><trkpt lat="41.88915491192576" lon="12.502563299861622"><ele>46.0</ele><time>2026-04-09T13:17:05Z</time></trkpt><trkpt lat="41.88917426990461" lon="12.502658992976201"><ele>46.0</ele><time>2026-04-09T13:17:06Z</time></trkpt><trkpt lat="41.889195556000125" lon="12.502753521163688"><ele>46.0</ele><time>2026-04-09T13:17:07Z</time></trkpt><trkpt lat="41.889218071819315" lon="12.502840615922462"><ele>46.0</ele><time>2026-04-09T13:17:08Z</time></trkpt><trkpt lat="41.88925005116672" lon="12.502973967689696"><ele>46.0</ele><time>2026-04-09T13:17:10Z</time></trkpt><trkpt lat="41.88928602107659" lon="12.503101310470587"><ele>46.0</ele><time>2026-04-09T13:17:13Z</time></trkpt><trkpt lat="41.88934617943663" lon="12.503253442221764"><ele>45.8</ele><time>2026-04-09T13:17:15Z</time></trkpt><trkpt lat="41.889359288028636" lon="12.503341363124319"><ele>45.599999999999994</ele><time>2026-04-09T13:17:16Z</time></trkpt><trkpt lat="41.88939049908603" lon="12.503437120161333"><ele>45.4</ele><time>2026-04-09T13:17:17Z</time></trkpt><trkpt lat="41.889436587343546" lon="12.50358753134133"><ele>45.2</ele><time>2026-04-09T13:17:19Z</time></trkpt><trkpt lat="41.889475659079196" lon="12.503727854170092"><ele>45.0</ele><time>2026-04-09T13:17:21Z</time></trkpt><trkpt lat="41.88950977349469" lon="12.5038533148201"><ele>45.0</ele><time>2026-04-09T13:17:23Z</time></trkpt><trkpt lat="41.88953375694707" lon="12.503954168343082"><ele>45.0</ele><time>2026-04-09T13:17:25Z</time></trkpt><trkpt lat="41.88956749818003" lon="12.504063723886127"><ele>45.0</ele><time>2026-04-09T13:17:26Z</time></trkpt><trkpt lat="41.88961414056915" lon="12.504209205143402"><ele>45.0</ele><time>2026-04-09T13:17:27Z</time></trkpt><trkpt lat="41.88964284064455" lon="12.504315467254475"><ele>45.0</ele><time>2026-04-09T13:17:28Z</time></trkpt><trkpt lat="41.889677401726246" lon="12.504405659339474"><ele>45.0</ele><time>2026-04-09T13:17:30Z</time></trkpt><trkpt lat="41.88971709031352" lon="12.504499872407235"><ele>45.5</ele><time>2026-04-09T13:17:32Z</time></trkpt><trkpt lat="41.889751176216656" lon="12.504594986565882"><ele>46.0</ele><time>2026-04-09T13:17:33Z</time></trkpt><trkpt lat="41.889788469234105" lon="12.50468811786838"><ele>46.5</ele><time>2026-04-09T13:17:34Z</time></trkpt><trkpt lat="41.88981636738905" lon="12.504779739579389"><ele>47.0</ele><time>2026-04-09T13:17:35Z</time></trkpt><trkpt lat="41.88986615767115" lon="12.504942377825154"><ele>47.5</ele><time>2026-04-09T13:17:37Z</time></trkpt><trkpt lat="41.889900804682966" lon="12.50504704182179"><ele>48.0</ele><time>2026-04-09T13:17:38Z</time></trkpt><trkpt lat="41.889928169343165" lon="12.50513391133834"><ele>48.0</ele><time>2026-04-09T13:17:39Z</time></trkpt><trkpt lat="41.88996738601121" lon="12.505264693857898"><ele>48.0</ele><time>2026-04-09T13:17:41.001Z</time></trkpt><trkpt lat="41.89001165772745" lon="12.505407039822554"><ele>48.0</ele><time>2026-04-09T13:17:43.001Z</time></trkpt><trkpt lat="41.89006001814745" lon="12.505565518959228"><ele>48.0</ele><time>2026-04-09T13:17:45.001Z</time></trkpt><trkpt lat="41.890095042607015" lon="12.505690324392152"><ele>48.0</ele><time>2026-04-09T13:17:47.001Z</time></trkpt><trkpt lat="41.890131601502674" lon="12.505795193114137"><ele>48.166666666666664</ele><time>2026-04-09T13:17:49.001Z</time></trkpt><trkpt lat="41.89015770233865" lon="12.505899065877612"><ele>48.33333333333333</ele><time>2026-04-09T13:17:51.001Z</time></trkpt><trkpt lat="41.8901725146465" lon="12.505982803693804"><ele>48.5</ele><time>2026-04-09T13:17:59.001Z</time></trkpt><trkpt lat="41.89015979537801" lon="12.506095345398942"><ele>48.666666666666664</ele><time>2026-04-09T13:18:03.999Z</time></trkpt><trkpt lat="41.89019814234372" lon="12.506207122210617"><ele>48.83333333333333</ele><time>2026-04-09T13:18:04.999Z</time></trkpt><trkpt lat="41.8902499176321" lon="12.506325863806776"><ele>49.0</ele><time>2026-04-09T13:18:05.999Z</time></trkpt><trkpt lat="41.890270838510624" lon="12.506416184559539"><ele>48.666666666666664</ele><time>2026-04-09T13:18:07.999Z</time></trkpt><trkpt lat="41.890310589417474" lon="12.506527407812271"><ele>48.33333333333333</ele><time>2026-04-09T13:18:40Z</time></trkpt><trkpt lat="41.890325393227954" lon="12.506615960101541"><ele>48.0</ele><time>2026-04-09T13:18:42Z</time></trkpt><trkpt lat="41.89032386195115" lon="12.506708413435964"><ele>47.666666666666664</ele><time>2026-04-09T13:18:43Z</time></trkpt><trkpt lat="41.89041870680561" lon="12.506744112615703"><ele>47.33333333333333</ele><time>2026-04-09T13:18:44Z</time></trkpt><trkpt lat="41.89034106404597" lon="12.506868444745844"><ele>47.0</ele><time>2026-04-09T13:18:45Z</time></trkpt><trkpt lat="41.89036237510998" lon="12.506957722236107"><ele>47.0</ele><time>2026-04-09T13:18:46Z</time></trkpt><trkpt lat="41.89039010518122" lon="12.507053151856955"><ele>47.0</ele><time>2026-04-09T13:18:47Z</time></trkpt><trkpt lat="41.89046346855483" lon="12.507137008680697"><ele>47.0</ele><time>2026-04-09T13:18:48Z</time></trkpt><trkpt lat="41.89056871474817" lon="12.507229867166975"><ele>47.0</ele><time>2026-04-09T13:18:49Z</time></trkpt><trkpt lat="41.8906666128546" lon="12.50731660542767"><ele>47.0</ele><time>2026-04-09T13:18:50Z</time></trkpt><trkpt lat="41.89075635633759" lon="12.507395215424953"><ele>47.0</ele><time>2026-04-09T13:18:51Z</time></trkpt><trkpt lat="41.89089443553137" lon="12.507530526319018"><ele>47.0</ele><time>2026-04-09T13:18:52Z</time></trkpt><trkpt lat="41.89103382761183" lon="12.50768865228097"><ele>47.0</ele><time>2026-04-09T13:18:53Z</time></trkpt><trkpt lat="41.89116259523117" lon="12.507797698079402"><ele>47.75</ele><time>2026-04-09T13:18:54Z</time></trkpt><trkpt lat="41.89129599434345" lon="12.50790906992535"><ele>48.5</ele><time>2026-04-09T13:18:55Z</time></trkpt><trkpt lat="41.891406225493355" lon="12.508017861536398"><ele>49.25</ele><time>2026-04-09T13:18:56Z</time></trkpt><trkpt lat="41.891497061176615" lon="12.508103263025092"><ele>50.0</ele><time>2026-04-09T13:18:57Z</time></trkpt><trkpt lat="41.89155968054751" lon="12.508169104151856"><ele>51.5</ele><time>2026-04-09T13:18:58Z</time></trkpt><trkpt lat="41.89162431303012" lon="12.508223061370513"><ele>53.0</ele><time>2026-04-09T13:18:59Z</time></trkpt><trkpt lat="41.89172989714214" lon="12.508326023679103"><ele>54.5</ele><time>2026-04-09T13:19:00Z</time></trkpt><trkpt lat="41.891832822872956" lon="12.508422974056849"><ele>56.0</ele><time>2026-04-09T13:19:01Z</time></trkpt><trkpt lat="41.891926716666106" lon="12.508531316421081"><ele>56.0</ele><time>2026-04-09T13:19:02Z</time></trkpt><trkpt lat="41.89203497108529" lon="12.508652501583207"><ele>56.0</ele><time>2026-04-09T13:19:03Z</time></trkpt><trkpt lat="41.892126242277385" lon="12.50875039831396"><ele>56.0</ele><time>2026-04-09T13:19:04Z</time></trkpt><trkpt lat="41.892209628043716" lon="12.508835653029607"><ele>56.0</ele><time>2026-04-09T13:19:05Z</time></trkpt><trkpt lat="41.89228241455777" lon="12.508900228860663"><ele>56.199999999999996</ele><time>2026-04-09T13:19:06Z</time></trkpt><trkpt lat="41.892346956586714" lon="12.50895118569248"><ele>56.39999999999999</ele><time>2026-04-09T13:19:07Z</time></trkpt><trkpt lat="41.89242738304766" lon="12.509024505177207"><ele>56.6</ele><time>2026-04-09T13:19:08Z</time></trkpt><trkpt lat="41.89250608890647" lon="12.509098320318284"><ele>56.8</ele><time>2026-04-09T13:19:09Z</time></trkpt><trkpt lat="41.89258162264455" lon="12.509167416340013"><ele>57.0</ele><time>2026-04-09T13:19:10Z</time></trkpt><trkpt lat="41.892690293085344" lon="12.50927565221137"><ele>57.0</ele><time>2026-04-09T13:19:11Z</time></trkpt><trkpt lat="41.89277768101507" lon="12.509365711111085"><ele>57.0</ele><time>2026-04-09T13:19:12Z</time></trkpt><trkpt lat="41.89286062336507" lon="12.509441112432883"><ele>57.0</ele><time>2026-04-09T13:19:13Z</time></trkpt><trkpt lat="41.89292777814635" lon="12.50952882248732"><ele>57.0</ele><time>2026-04-09T13:19:14Z</time></trkpt><trkpt lat="41.893007928316756" lon="12.509616487358857"><ele>57.0</ele><time>2026-04-09T13:19:15Z</time></trkpt><trkpt lat="41.8930939216752" lon="12.509701486231712"><ele>57.2</ele><time>2026-04-09T13:19:16Z</time></trkpt><trkpt lat="41.89318270661786" lon="12.509786249571874"><ele>57.400000000000006</ele><time>2026-04-09T13:19:17Z</time></trkpt><trkpt lat="41.8932391593045" lon="12.509844866958607"><ele>57.599999999999994</ele><time>2026-04-09T13:19:18Z</time></trkpt><trkpt lat="41.89331375196436" lon="12.509926979245837"><ele>57.8</ele><time>2026-04-09T13:19:20Z</time></trkpt><trkpt lat="41.89338758807163" lon="12.510017355217725"><ele>58.0</ele><time>2026-04-09T13:19:21Z</time></trkpt><trkpt lat="41.893465156824234" lon="12.510092698541149"><ele>58.599999999999994</ele><time>2026-04-09T13:19:22Z</time></trkpt><trkpt lat="41.893538928316474" lon="12.510160027690207"><ele>59.199999999999996</ele><time>2026-04-09T13:19:23Z</time></trkpt><trkpt lat="41.89361725118382" lon="12.510234874226727"><ele>59.8</ele><time>2026-04-09T13:19:24Z</time></trkpt><trkpt lat="41.89370809734288" lon="12.510322366925832"><ele>60.4</ele><time>2026-04-09T13:19:25Z</time></trkpt><trkpt lat="41.89383626912023" lon="12.510418701023317"><ele>61.0</ele><time>2026-04-09T13:19:26Z</time></trkpt><trkpt lat="41.893947529420736" lon="12.510521606335551"><ele>61.0</ele><time>2026-04-09T13:19:27Z</time></trkpt><trkpt lat="41.8940373205334" lon="12.510614861650737"><ele>60.99999999999999</ele><time>2026-04-09T13:19:28Z</time></trkpt><trkpt lat="41.894114392816775" lon="12.510689633336881"><ele>60.99999999999999</ele><time>2026-04-09T13:19:29Z</time></trkpt><trkpt lat="41.894172070996454" lon="12.510741796094827"><ele>61.0</ele><time>2026-04-09T13:19:30Z</time></trkpt><trkpt lat="41.894243952419984" lon="12.510796979974428"><ele>61.0</ele><time>2026-04-09T13:19:32Z</time></trkpt><trkpt lat="41.89434935909783" lon="12.510733748886386"><ele>60.8</ele><time>2026-04-09T13:19:34.001Z</time></trkpt><trkpt lat="41.894396819894936" lon="12.51064227328215"><ele>60.599999999999994</ele><time>2026-04-09T13:19:35.001Z</time></trkpt><trkpt lat="41.894475932120415" lon="12.510521385005733"><ele>60.4</ele><time>2026-04-09T13:19:36.001Z</time></trkpt><trkpt lat="41.89455210668603" lon="12.510398406651051"><ele>60.2</ele><time>2026-04-09T13:19:37.001Z</time></trkpt><trkpt lat="41.894612950647144" lon="12.510298214065733"><ele>60.0</ele><time>2026-04-09T13:19:38.001Z</time></trkpt><trkpt lat="41.89464524063962" lon="12.51022145521997"><ele>60.8</ele><time>2026-04-09T13:19:39.001Z</time></trkpt><trkpt lat="41.894712071225975" lon="12.51009303578138"><ele>61.6</ele><time>2026-04-09T13:19:41.001Z</time></trkpt><trkpt lat="41.89477588277815" lon="12.509999154130936"><ele>62.400000000000006</ele><time>2026-04-09T13:19:43.001Z</time></trkpt><trkpt lat="41.89484431749318" lon="12.509889567199409"><ele>63.2</ele><time>2026-04-09T13:19:45.001Z</time></trkpt><trkpt lat="41.89488673087777" lon="12.50982054376413"><ele>64.0</ele><time>2026-04-09T13:19:46.001Z</time></trkpt><trkpt lat="41.89492554784166" lon="12.50974695339227"><ele>64.0</ele><time>2026-04-09T13:19:47.001Z</time></trkpt><trkpt lat="41.894975566959225" lon="12.509648811331125"><ele>64.0</ele><time>2026-04-09T13:19:48.001Z</time></trkpt><trkpt lat="41.895045126767144" lon="12.509541932418987"><ele>64.0</ele><time>2026-04-09T13:19:50.001Z</time></trkpt><trkpt lat="41.89509010631824" lon="12.509461719414343"><ele>64.0</ele><time>2026-04-09T13:19:52.001Z</time></trkpt><trkpt lat="41.895142289848934" lon="12.509402191379156"><ele>64.0</ele><time>2026-04-09T13:19:55.001Z</time></trkpt><trkpt lat="41.895240622859994" lon="12.509500036233582"><ele>62.75</ele><time>2026-04-09T13:19:56.001Z</time></trkpt><trkpt lat="41.895314263621415" lon="12.50959326705014"><ele>61.5</ele><time>2026-04-09T13:19:57.001Z</time></trkpt><trkpt lat="41.895424840830216" lon="12.509708912241114"><ele>60.25</ele><time>2026-04-09T13:19:58.001Z</time></trkpt><trkpt lat="41.89551712011575" lon="12.509810911680844"><ele>59.0</ele><time>2026-04-09T13:19:59.001Z</time></trkpt><trkpt lat="41.89562369490848" lon="12.509934217419044"><ele>59.0</ele><time>2026-04-09T13:20:00.001Z</time></trkpt><trkpt lat="41.895730461014175" lon="12.510039946363701"><ele>59.0</ele><time>2026-04-09T13:20:01.001Z</time></trkpt><trkpt lat="41.89584040962454" lon="12.510138244950276"><ele>59.0</ele><time>2026-04-09T13:20:02.001Z</time></trkpt><trkpt lat="41.89594850045611" lon="12.510249777786042"><ele>59.0</ele><time>2026-04-09T13:20:03.001Z</time></trkpt><trkpt lat="41.89604705477411" lon="12.510358219056728"><ele>58.25</ele><time>2026-04-09T13:20:04.001Z</time></trkpt><trkpt lat="41.89614824557561" lon="12.510474169074053"><ele>57.5</ele><time>2026-04-09T13:20:05.001Z</time></trkpt><trkpt lat="41.89624691603508" lon="12.510576858296771"><ele>56.75</ele><time>2026-04-09T13:20:06.001Z</time></trkpt><trkpt lat="41.89632313833358" lon="12.510656076833092"><ele>56.0</ele><time>2026-04-09T13:20:07.001Z</time></trkpt><trkpt lat="41.89643784145973" lon="12.510781247837723"><ele>56.00000000000001</ele><time>2026-04-09T13:20:08.001Z</time></trkpt><trkpt lat="41.89648626573327" lon="12.510861585364234"><ele>56.0</ele><time>2026-04-09T13:20:09.999Z</time></trkpt><trkpt lat="41.89657969358619" lon="12.510971305065658"><ele>56.0</ele><time>2026-04-09T13:20:12.999Z</time></trkpt><trkpt lat="41.896635536442595" lon="12.511030899885851"><ele>56.0</ele><time>2026-04-09T13:20:13.999Z</time></trkpt><trkpt lat="41.89669159113827" lon="12.511102423703948"><ele>56.00000000000001</ele><time>2026-04-09T13:20:14.999Z</time></trkpt><trkpt lat="41.896729777842346" lon="12.511218572742427"><ele>56.0</ele><time>2026-04-09T13:20:15.999Z</time></trkpt><trkpt lat="41.89679374649839" lon="12.511326444585231"><ele>56.75</ele><time>2026-04-09T13:20:16.999Z</time></trkpt><trkpt lat="41.89687669793113" lon="12.511475267296813"><ele>57.5</ele><time>2026-04-09T13:20:17.999Z</time></trkpt><trkpt lat="41.896961572947" lon="12.511633027009516"><ele>58.25</ele><time>2026-04-09T13:20:18.999Z</time></trkpt><trkpt lat="41.89703281781764" lon="12.511765345484452"><ele>59.0</ele><time>2026-04-09T13:20:19.999Z</time></trkpt><trkpt lat="41.89710101657091" lon="12.511892836153164"><ele>59.0</ele><time>2026-04-09T13:20:20.999Z</time></trkpt><trkpt lat="41.897175165119044" lon="12.51203239636689"><ele>59.00000000000001</ele><time>2026-04-09T13:20:21.999Z</time></trkpt><trkpt lat="41.89723987160614" lon="12.512154184957943"><ele>59.00000000000001</ele><time>2026-04-09T13:20:22.999Z</time></trkpt><trkpt lat="41.89729739669278" lon="12.512262456870749"><ele>59.0</ele><time>2026-04-09T13:20:23.999Z</time></trkpt><trkpt lat="41.897357496097236" lon="12.512380369908298"><ele>59.0</ele><time>2026-04-09T13:20:24.999Z</time></trkpt><trkpt lat="41.89740419776661" lon="12.512468817531138"><ele>58.66666666666667</ele><time>2026-04-09T13:20:25.999Z</time></trkpt><trkpt lat="41.89745287099159" lon="12.512561834663813"><ele>58.333333333333336</ele><time>2026-04-09T13:20:26.999Z</time></trkpt><trkpt lat="41.89749555714098" lon="12.512643994232421"><ele>58.0</ele><time>2026-04-09T13:20:27.999Z</time></trkpt><trkpt lat="41.89754229263664" lon="12.512734006405545"><ele>57.66666666666667</ele><time>2026-04-09T13:20:29Z</time></trkpt><trkpt lat="41.89759585927501" lon="12.512837175099856"><ele>57.333333333333336</ele><time>2026-04-09T13:20:30Z</time></trkpt><trkpt lat="41.8976569351992" lon="12.512920419972572"><ele>57.0</ele><time>2026-04-09T13:20:31Z</time></trkpt><trkpt lat="41.89769427924651" lon="12.513005031739533"><ele>56.333333333333336</ele><time>2026-04-09T13:20:32Z</time></trkpt><trkpt lat="41.89774256258979" lon="12.513082448577325"><ele>55.66666666666667</ele><time>2026-04-09T13:20:33Z</time></trkpt><trkpt lat="41.897780560251135" lon="12.513177255636485"><ele>55.0</ele><time>2026-04-09T13:20:34Z</time></trkpt><trkpt lat="41.8978250732538" lon="12.513272788844546"><ele>54.333333333333336</ele><time>2026-04-09T13:20:35Z</time></trkpt><trkpt lat="41.89785524141683" lon="12.513348843664508"><ele>53.66666666666667</ele><time>2026-04-09T13:20:36Z</time></trkpt><trkpt lat="41.897894151823856" lon="12.5134364619903"><ele>53.0</ele><time>2026-04-09T13:20:38Z</time></trkpt><trkpt lat="41.89797269623542" lon="12.513593748902514"><ele>53.0</ele><time>2026-04-09T13:20:41Z</time></trkpt><trkpt lat="41.898040527041665" lon="12.513716341114455"><ele>53.0</ele><time>2026-04-09T13:20:42Z</time></trkpt><trkpt lat="41.898093332765626" lon="12.51382958071452"><ele>53.0</ele><time>2026-04-09T13:20:43Z</time></trkpt><trkpt lat="41.898141235484836" lon="12.5139204190828"><ele>53.0</ele><time>2026-04-09T13:20:44Z</time></trkpt><trkpt lat="41.898184225205696" lon="12.514010163331255"><ele>53.0</ele><time>2026-04-09T13:20:45Z</time></trkpt><trkpt lat="41.8982141344792" lon="12.51411101230356"><ele>53.00000000000001</ele><time>2026-04-09T13:20:46Z</time></trkpt><trkpt lat="41.89825595084234" lon="12.514200955446626"><ele>53.0</ele><time>2026-04-09T13:20:47Z</time></trkpt><trkpt lat="41.89830277952791" lon="12.514295749691142"><ele>53.0</ele><time>2026-04-09T13:20:48Z</time></trkpt><trkpt lat="41.898351637236075" lon="12.514389096765647"><ele>53.0</ele><time>2026-04-09T13:20:49Z</time></trkpt><trkpt lat="41.89840372309029" lon="12.514466938094412"><ele>53.00000000000001</ele><time>2026-04-09T13:20:50Z</time></trkpt><trkpt lat="41.89845883765453" lon="12.514584842303309"><ele>53.0</ele><time>2026-04-09T13:20:52Z</time></trkpt><trkpt lat="41.89850423265827" lon="12.514659078202868"><ele>53.00000000000001</ele><time>2026-04-09T13:20:54Z</time></trkpt><trkpt lat="41.89856091737185" lon="12.51472178099481"><ele>53.0</ele><time>2026-04-09T13:21:19Z</time></trkpt><trkpt lat="41.89861282496497" lon="12.514810157281762"><ele>53.0</ele><time>2026-04-09T13:21:22Z</time></trkpt><trkpt lat="41.89867198466465" lon="12.514949556784497"><ele>53.0</ele><time>2026-04-09T13:21:24Z</time></trkpt><trkpt lat="41.89871387293777" lon="12.515030797941966"><ele>53.00000000000001</ele><time>2026-04-09T13:21:25Z</time></trkpt><trkpt lat="41.898752943111866" lon="12.515099455436168"><ele>53.0</ele><time>2026-04-09T13:21:26.001Z</time></trkpt><trkpt lat="41.89881524610186" lon="12.515233015732349"><ele>53.00000000000001</ele><time>2026-04-09T13:21:28.001Z</time></trkpt><trkpt lat="41.898854464316955" lon="12.515308624418877"><ele>53.0</ele><time>2026-04-09T13:21:29.001Z</time></trkpt><trkpt lat="41.898897558109105" lon="12.515388913237773"><ele>53.0</ele><time>2026-04-09T13:21:30.001Z</time></trkpt><trkpt lat="41.89894484610612" lon="12.515466805241664"><ele>53.0</ele><time>2026-04-09T13:21:31.001Z</time></trkpt><trkpt lat="41.89901308752619" lon="12.515590203710566"><ele>53.00000000000001</ele><time>2026-04-09T13:21:33.001Z</time></trkpt><trkpt lat="41.89907063045174" lon="12.515686370539951"><ele>53.0</ele><time>2026-04-09T13:21:35.001Z</time></trkpt><trkpt lat="41.899130855415066" lon="12.515782500979405"><ele>52.4</ele><time>2026-04-09T13:21:37.001Z</time></trkpt><trkpt lat="41.89919232043262" lon="12.515889834157095"><ele>51.8</ele><time>2026-04-09T13:21:39.001Z</time></trkpt><trkpt lat="41.899263777725665" lon="12.51600375359828"><ele>51.2</ele><time>2026-04-09T13:21:41.001Z</time></trkpt><trkpt lat="41.89931382145265" lon="12.516108923740038"><ele>50.6</ele><time>2026-04-09T13:21:42.001Z</time></trkpt><trkpt lat="41.89936412805271" lon="12.5162062293603"><ele>50.0</ele><time>2026-04-09T13:21:43.001Z</time></trkpt><trkpt lat="41.89942447664152" lon="12.516323487501833"><ele>49.25</ele><time>2026-04-09T13:21:44.001Z</time></trkpt><trkpt lat="41.899489139668376" lon="12.516451130215474"><ele>48.5</ele><time>2026-04-09T13:21:45.001Z</time></trkpt><trkpt lat="41.89955844295091" lon="12.516587932482889"><ele>47.75</ele><time>2026-04-09T13:21:46.001Z</time></trkpt><trkpt lat="41.8996235101739" lon="12.516716836034524"><ele>47.0</ele><time>2026-04-09T13:21:47.001Z</time></trkpt><trkpt lat="41.89967718135944" lon="12.516823678748935"><ele>47.0</ele><time>2026-04-09T13:21:48.001Z</time></trkpt><trkpt lat="41.89972398630214" lon="12.516912891508753"><ele>47.0</ele><time>2026-04-09T13:21:49.001Z</time></trkpt><trkpt lat="41.89976492031079" lon="12.516990630254401"><ele>47.0</ele><time>2026-04-09T13:21:50.001Z</time></trkpt><trkpt lat="41.899803011890015" lon="12.517064176214706"><ele>47.0</ele><time>2026-04-09T13:21:51.001Z</time></trkpt><trkpt lat="41.899902583560284" lon="12.517233606936355"><ele>47.0</ele><time>2026-04-09T13:21:53.001Z</time></trkpt><trkpt lat="41.90008595290956" lon="12.517417567044378"><ele>46.75</ele><time>2026-04-09T13:21:54.001Z</time></trkpt><trkpt lat="41.90018247519337" lon="12.517496787919665"><ele>46.5</ele><time>2026-04-09T13:21:55.001Z</time></trkpt><trkpt lat="41.90029601793455" lon="12.517596143995734"><ele>46.25</ele><time>2026-04-09T13:21:56.001Z</time></trkpt><trkpt lat="41.900441711001356" lon="12.517723748951102"><ele>46.0</ele><time>2026-04-09T13:21:57.001Z</time></trkpt><trkpt lat="41.90059565536746" lon="12.517859965168313"><ele>44.333333333333336</ele><time>2026-04-09T13:21:58.001Z</time></trkpt><trkpt lat="41.90074298995329" lon="12.518079983799892"><ele>42.666666666666664</ele><time>2026-04-09T13:21:59.001Z</time></trkpt><trkpt lat="41.900614055176405" lon="12.517988920350062"><ele>41.0</ele><time>2026-04-09T13:22:00.001Z</time></trkpt><trkpt lat="41.90076166868178" lon="12.518124101696428"><ele>41.666666666666664</ele><time>2026-04-09T13:22:01.001Z</time></trkpt><trkpt lat="41.900938696624074" lon="12.518298479281087"><ele>42.333333333333336</ele><time>2026-04-09T13:22:02.001Z</time></trkpt><trkpt lat="41.90111112089259" lon="12.518432967318924"><ele>43.0</ele><time>2026-04-09T13:22:03.001Z</time></trkpt><trkpt lat="41.90127337189859" lon="12.518572070891077"><ele>43.0</ele><time>2026-04-09T13:22:04.001Z</time></trkpt><trkpt lat="41.90142259199545" lon="12.51870887692866"><ele>43.0</ele><time>2026-04-09T13:22:05.001Z</time></trkpt><trkpt lat="41.90156288802987" lon="12.518822568369036"><ele>43.0</ele><time>2026-04-09T13:22:06.001Z</time></trkpt><trkpt lat="41.90169723665393" lon="12.518921286258507"><ele>42.0</ele><time>2026-04-09T13:22:07.001Z</time></trkpt><trkpt lat="41.90181857753573" lon="12.51902029793701"><ele>41.0</ele><time>2026-04-09T13:22:08.001Z</time></trkpt><trkpt lat="41.90193929371047" lon="12.519123801194194"><ele>40.0</ele><time>2026-04-09T13:22:09.001Z</time></trkpt><trkpt lat="41.902064128988606" lon="12.519222486016963"><ele>39.0</ele><time>2026-04-09T13:22:10.001Z</time></trkpt><trkpt lat="41.902183360459624" lon="12.519308395008347"><ele>39.0</ele><time>2026-04-09T13:22:11.001Z</time></trkpt><trkpt lat="41.902295305189114" lon="12.5193946642192"><ele>39.0</ele><time>2026-04-09T13:22:12.001Z</time></trkpt><trkpt lat="41.90239681939557" lon="12.51948230523262"><ele>39.0</ele><time>2026-04-09T13:22:13.001Z</time></trkpt><trkpt lat="41.90248490760491" lon="12.519560699554086"><ele>39.0</ele><time>2026-04-09T13:22:14.001Z</time></trkpt><trkpt lat="41.90256720758312" lon="12.519636578334088"><ele>39.0</ele><time>2026-04-09T13:22:15.001Z</time></trkpt><trkpt lat="41.90265188519873" lon="12.519685190732575"><ele>39.0</ele><time>2026-04-09T13:22:16Z</time></trkpt><trkpt lat="41.90271462321337" lon="12.519746876658154"><ele>39.0</ele><time>2026-04-09T13:22:17Z</time></trkpt><trkpt lat="41.902802018416104" lon="12.519838420294748"><ele>39.0</ele><time>2026-04-09T13:22:19Z</time></trkpt><trkpt lat="41.90286767189849" lon="12.519844092648764"><ele>39.0</ele><time>2026-04-09T13:22:24Z</time></trkpt><trkpt lat="41.90296746981123" lon="12.51990474619764"><ele>39.0</ele><time>2026-04-09T13:23:02Z</time></trkpt><trkpt lat="41.90306803909113" lon="12.51999517298124"><ele>39.0</ele><time>2026-04-09T13:23:03Z</time></trkpt><trkpt lat="41.903181553435985" lon="12.520070248357221"><ele>39.0</ele><time>2026-04-09T13:23:04Z</time></trkpt><trkpt lat="41.90328680039736" lon="12.520152347554665"><ele>39.0</ele><time>2026-04-09T13:23:05Z</time></trkpt><trkpt lat="41.90341894142258" lon="12.52024042246697"><ele>39.5</ele><time>2026-04-09T13:23:06Z</time></trkpt><trkpt lat="41.90354244469116" lon="12.520321872868804"><ele>40.0</ele><time>2026-04-09T13:23:07Z</time></trkpt><trkpt lat="41.90366979814009" lon="12.52040851361183"><ele>40.5</ele><time>2026-04-09T13:23:08Z</time></trkpt><trkpt lat="41.903789781980784" lon="12.520492030258708"><ele>41.0</ele><time>2026-04-09T13:23:09Z</time></trkpt><trkpt lat="41.90391378851735" lon="12.520579734850706"><ele>41.75</ele><time>2026-04-09T13:23:10Z</time></trkpt><trkpt lat="41.904033649485065" lon="12.520677481414626"><ele>42.5</ele><time>2026-04-09T13:23:11Z</time></trkpt><trkpt lat="41.90414077587828" lon="12.520758048089398"><ele>43.25</ele><time>2026-04-09T13:23:12Z</time></trkpt><trkpt lat="41.90424024669078" lon="12.520839467771907"><ele>44.0</ele><time>2026-04-09T13:23:13Z</time></trkpt><trkpt lat="41.90432502743671" lon="12.520925919114957"><ele>43.0</ele><time>2026-04-09T13:23:14Z</time></trkpt><trkpt lat="41.9044047834982" lon="12.52100305869978"><ele>42.0</ele><time>2026-04-09T13:23:15Z</time></trkpt><trkpt lat="41.90447438857488" lon="12.521071587107171"><ele>41.0</ele><time>2026-04-09T13:23:16Z</time></trkpt><trkpt lat="41.904540095598485" lon="12.52113468373596"><ele>40.0</ele><time>2026-04-09T13:23:17Z</time></trkpt><trkpt lat="41.90460266243339" lon="12.521192321044698"><ele>39.0</ele><time>2026-04-09T13:23:18.001Z</time></trkpt><trkpt lat="41.904664406934096" lon="12.521245795628651"><ele>38.0</ele><time>2026-04-09T13:23:19.001Z</time></trkpt><trkpt lat="41.90473285235039" lon="12.521306861464552"><ele>37.199999999999996</ele><time>2026-04-09T13:23:20.001Z</time></trkpt><trkpt lat="41.90483296327433" lon="12.521395661249164"><ele>36.4</ele><time>2026-04-09T13:23:21.001Z</time></trkpt><trkpt lat="41.904929291648216" lon="12.521497943060469"><ele>35.599999999999994</ele><time>2026-04-09T13:23:22.001Z</time></trkpt><trkpt lat="41.90501027209928" lon="12.521594446183869"><ele>34.8</ele><time>2026-04-09T13:23:23.001Z</time></trkpt><trkpt lat="41.90508655560752" lon="12.521675356134212"><ele>34.0</ele><time>2026-04-09T13:23:24.001Z</time></trkpt><trkpt lat="41.905159605292916" lon="12.521749530925652"><ele>34.0</ele><time>2026-04-09T13:23:25.001Z</time></trkpt><trkpt lat="41.90523817431128" lon="12.521828305221444"><ele>34.0</ele><time>2026-04-09T13:23:26.001Z</time></trkpt><trkpt lat="41.905323796137864" lon="12.521920616596839"><ele>34.0</ele><time>2026-04-09T13:23:27.001Z</time></trkpt><trkpt lat="41.905416460233724" lon="12.522019037245668"><ele>34.0</ele><time>2026-04-09T13:23:28.001Z</time></trkpt><trkpt lat="41.90550466921636" lon="12.522115648232425"><ele>34.0</ele><time>2026-04-09T13:23:29.001Z</time></trkpt><trkpt lat="41.90560219811088" lon="12.522216356093844"><ele>34.0</ele><time>2026-04-09T13:23:30.001Z</time></trkpt><trkpt lat="41.9057023289927" lon="12.522318120605538"><ele>34.0</ele><time>2026-04-09T13:23:31.001Z</time></trkpt><trkpt lat="41.905801102150825" lon="12.522417549015167"><ele>34.0</ele><time>2026-04-09T13:23:32.001Z</time></trkpt><trkpt lat="41.90590273162868" lon="12.52252459470401"><ele>34.0</ele><time>2026-04-09T13:23:33.001Z</time></trkpt><trkpt lat="41.906005158559125" lon="12.522631630638028"><ele>34.0</ele><time>2026-04-09T13:23:34.001Z</time></trkpt><trkpt lat="41.906118124870076" lon="12.522761735732727"><ele>34.0</ele><time>2026-04-09T13:23:35.001Z</time></trkpt><trkpt lat="41.9062272248433" lon="12.522878255010417"><ele>34.0</ele><time>2026-04-09T13:23:36.001Z</time></trkpt><trkpt lat="41.906333810143714" lon="12.522991547829982"><ele>34.0</ele><time>2026-04-09T13:23:37.001Z</time></trkpt><trkpt lat="41.90647009007048" lon="12.523145520407349"><ele>34.0</ele><time>2026-04-09T13:23:38.001Z</time></trkpt><trkpt lat="41.90662112213397" lon="12.523334564744914"><ele>34.0</ele><time>2026-04-09T13:23:39.001Z</time></trkpt><trkpt lat="41.90675054766723" lon="12.523482705857562"><ele>34.0</ele><time>2026-04-09T13:23:40.001Z</time></trkpt><trkpt lat="41.90686975365479" lon="12.523631382087403"><ele>33.75</ele><time>2026-04-09T13:23:41.001Z</time></trkpt><trkpt lat="41.90697929149873" lon="12.52376683347235"><ele>33.5</ele><time>2026-04-09T13:23:42.001Z</time></trkpt><trkpt lat="41.90707603202243" lon="12.52389260638519"><ele>33.25</ele><time>2026-04-09T13:23:43.001Z</time></trkpt><trkpt lat="41.90715574273637" lon="12.524012249796964"><ele>33.0</ele><time>2026-04-09T13:23:44.001Z</time></trkpt><trkpt lat="41.90722545362321" lon="12.524121355373907"><ele>33.0</ele><time>2026-04-09T13:23:45.001Z</time></trkpt><trkpt lat="41.90728168362636" lon="12.524220260074985"><ele>33.0</ele><time>2026-04-09T13:23:46.001Z</time></trkpt><trkpt lat="41.90732720350864" lon="12.524303973851998"><ele>33.0</ele><time>2026-04-09T13:23:47.001Z</time></trkpt><trkpt lat="41.90739678014211" lon="12.524443061991462"><ele>33.0</ele><time>2026-04-09T13:23:49.001Z</time></trkpt><trkpt lat="41.907447704012476" lon="12.524538312180947"><ele>33.0</ele><time>2026-04-09T13:23:50.001Z</time></trkpt><trkpt lat="41.907500950055294" lon="12.524635018075132"><ele>33.0</ele><time>2026-04-09T13:23:51.001Z</time></trkpt><trkpt lat="41.9075395239112" lon="12.524739514931081"><ele>33.0</ele><time>2026-04-09T13:23:52.001Z</time></trkpt><trkpt lat="41.90758279794119" lon="12.524836818156235"><ele>33.0</ele><time>2026-04-09T13:23:53.001Z</time></trkpt><trkpt lat="41.90762658698081" lon="12.524925454148024"><ele>33.0</ele><time>2026-04-09T13:23:54.001Z</time></trkpt><trkpt lat="41.907666343099244" lon="12.52502989381689"><ele>33.0</ele><time>2026-04-09T13:23:55.001Z</time></trkpt><trkpt lat="41.90772017610614" lon="12.525158352973905"><ele>33.0</ele><time>2026-04-09T13:23:56.001Z</time></trkpt><trkpt lat="41.90778140105913" lon="12.525320553519732"><ele>31.5</ele><time>2026-04-09T13:23:57.001Z</time></trkpt><trkpt lat="41.907835873677506" lon="12.525480915165643"><ele>30.0</ele><time>2026-04-09T13:23:58.001Z</time></trkpt><trkpt lat="41.90787186775648" lon="12.52563378997387"><ele>28.5</ele><time>2026-04-09T13:23:59.001Z</time></trkpt><trkpt lat="41.907908473553896" lon="12.525779769426684"><ele>27.0</ele><time>2026-04-09T13:24:00.001Z</time></trkpt><trkpt lat="41.907947995855764" lon="12.525940743324327"><ele>27.0</ele><time>2026-04-09T13:24:01.001Z</time></trkpt><trkpt lat="41.90799770148346" lon="12.526141539739212"><ele>27.0</ele><time>2026-04-09T13:24:02.001Z</time></trkpt><trkpt lat="41.90804337404778" lon="12.526348792192689"><ele>27.0</ele><time>2026-04-09T13:24:03.001Z</time></trkpt><trkpt lat="41.90808538730291" lon="12.526587669872674"><ele>27.0</ele><time>2026-04-09T13:24:04.001Z</time></trkpt><trkpt lat="41.908123277220916" lon="12.526870818830098"><ele>27.0</ele><time>2026-04-09T13:24:05.001Z</time></trkpt><trkpt lat="41.90814267353686" lon="12.527132448088661"><ele>27.0</ele><time>2026-04-09T13:24:06.001Z</time></trkpt><trkpt lat="41.90815448207908" lon="12.52736368126837"><ele>27.0</ele><time>2026-04-09T13:24:07.001Z</time></trkpt><trkpt lat="41.90817275482623" lon="12.52761756848245"><ele>27.0</ele><time>2026-04-09T13:24:08.001Z</time></trkpt><trkpt lat="41.9081730973084" lon="12.527864425094718"><ele>27.0</ele><time>2026-04-09T13:24:09.001Z</time></trkpt><trkpt lat="41.90817626670805" lon="12.52811847624039"><ele>27.0</ele><time>2026-04-09T13:24:10.001Z</time></trkpt><trkpt lat="41.90817528595908" lon="12.528354156329984"><ele>27.0</ele><time>2026-04-09T13:24:11.001Z</time></trkpt><trkpt lat="41.908172735813224" lon="12.528577005284603"><ele>27.0</ele><time>2026-04-09T13:24:12.001Z</time></trkpt><trkpt lat="41.90817478813173" lon="12.528807205888617"><ele>26.666666666666664</ele><time>2026-04-09T13:24:13.001Z</time></trkpt><trkpt lat="41.90818309843926" lon="12.529026777734778"><ele>26.333333333333332</ele><time>2026-04-09T13:24:14.001Z</time></trkpt><trkpt lat="41.908167541024106" lon="12.529268921189756"><ele>26.0</ele><time>2026-04-09T13:24:15.001Z</time></trkpt><trkpt lat="41.90816702793874" lon="12.529509445388065"><ele>26.333333333333332</ele><time>2026-04-09T13:24:16.001Z</time></trkpt><trkpt lat="41.90816702793826" lon="12.52974142247093"><ele>26.666666666666664</ele><time>2026-04-09T13:24:17.001Z</time></trkpt><trkpt lat="41.908163981096855" lon="12.52996368814988"><ele>27.0</ele><time>2026-04-09T13:24:18.001Z</time></trkpt><trkpt lat="41.908152376326655" lon="12.530172805689388"><ele>27.0</ele><time>2026-04-09T13:24:19.001Z</time></trkpt><trkpt lat="41.90814214963506" lon="12.530377585696122"><ele>27.0</ele><time>2026-04-09T13:24:20.001Z</time></trkpt><trkpt lat="41.90813912234223" lon="12.530567919248423"><ele>27.0</ele><time>2026-04-09T13:24:21.002Z</time></trkpt><trkpt lat="41.90816903139542" lon="12.530766827094444"><ele>27.0</ele><time>2026-04-09T13:24:22Z</time></trkpt><trkpt lat="41.908170853165096" lon="12.530969453372782"><ele>27.75</ele><time>2026-04-09T13:24:23Z</time></trkpt><trkpt lat="41.908172872897445" lon="12.531177636828104"><ele>28.5</ele><time>2026-04-09T13:24:24Z</time></trkpt><trkpt lat="41.90817060519422" lon="12.531378057269272"><ele>29.25</ele><time>2026-04-09T13:24:25Z</time></trkpt><trkpt lat="41.908156367750735" lon="12.531540497277172"><ele>30.0</ele><time>2026-04-09T13:24:26Z</time></trkpt><trkpt lat="41.90814569752192" lon="12.531701655671428"><ele>30.0</ele><time>2026-04-09T13:24:27Z</time></trkpt><trkpt lat="41.9081450179129" lon="12.53187890661383"><ele>30.0</ele><time>2026-04-09T13:24:28Z</time></trkpt><trkpt lat="41.90815151367903" lon="12.532069581218057"><ele>30.0</ele><time>2026-04-09T13:24:29Z</time></trkpt><trkpt lat="41.90815934554835" lon="12.532308075485677"><ele>28.5</ele><time>2026-04-09T13:24:30Z</time></trkpt><trkpt lat="41.90816350192109" lon="12.532529004858858"><ele>27.0</ele><time>2026-04-09T13:24:31Z</time></trkpt><trkpt lat="41.908164568770616" lon="12.532727955760352"><ele>25.5</ele><time>2026-04-09T13:24:32Z</time></trkpt><trkpt lat="41.9081703581298" lon="12.532904638633886"><ele>24.0</ele><time>2026-04-09T13:24:33Z</time></trkpt><trkpt lat="41.90817502636527" lon="12.53305759017325"><ele>24.0</ele><time>2026-04-09T13:24:34Z</time></trkpt><trkpt lat="41.90817596577393" lon="12.53318188900897"><ele>24.0</ele><time>2026-04-09T13:24:35Z</time></trkpt><trkpt lat="41.908177529759456" lon="12.533303208769878"><ele>24.0</ele><time>2026-04-09T13:24:36Z</time></trkpt><trkpt lat="41.90818041456688" lon="12.53343362721908"><ele>24.0</ele><time>2026-04-09T13:24:37Z</time></trkpt><trkpt lat="41.90816977291391" lon="12.533585811010154"><ele>24.0</ele><time>2026-04-09T13:24:39Z</time></trkpt><trkpt lat="41.90816920282335" lon="12.53374016591737"><ele>24.2</ele><time>2026-04-09T13:24:41Z</time></trkpt><trkpt lat="41.90816856665391" lon="12.533840640162262"><ele>24.4</ele><time>2026-04-09T13:24:42Z</time></trkpt><trkpt lat="41.908168058893686" lon="12.533975611311114"><ele>24.6</ele><time>2026-04-09T13:24:43Z</time></trkpt><trkpt lat="41.90816855777058" lon="12.534127578668192"><ele>24.8</ele><time>2026-04-09T13:24:44Z</time></trkpt><trkpt lat="41.908161270471226" lon="12.53426182015607"><ele>25.0</ele><time>2026-04-09T13:24:45Z</time></trkpt><trkpt lat="41.90815614764701" lon="12.5343854379203"><ele>25.000000000000004</ele><time>2026-04-09T13:24:46Z</time></trkpt><trkpt lat="41.90814449384879" lon="12.534499673004497"><ele>25.0</ele><time>2026-04-09T13:24:47Z</time></trkpt><trkpt lat="41.908135159251586" lon="12.534621363699744"><ele>25.0</ele><time>2026-04-09T13:24:48Z</time></trkpt><trkpt lat="41.9081355723216" lon="12.534741305769279"><ele>25.0</ele><time>2026-04-09T13:24:49Z</time></trkpt><trkpt lat="41.90813358122894" lon="12.534844119649602"><ele>25.000000000000004</ele><time>2026-04-09T13:24:50Z</time></trkpt><trkpt lat="41.90814006446989" lon="12.534937255097828"><ele>25.0</ele><time>2026-04-09T13:24:51Z</time></trkpt><trkpt lat="41.90814991149626" lon="12.535037921785525"><ele>25.833333333333336</ele><time>2026-04-09T13:24:52Z</time></trkpt><trkpt lat="41.908162397352086" lon="12.53514336836118"><ele>26.666666666666668</ele><time>2026-04-09T13:24:53Z</time></trkpt><trkpt lat="41.908170189748205" lon="12.535257593199784"><ele>27.5</ele><time>2026-04-09T13:24:54Z</time></trkpt><trkpt lat="41.90818734019354" lon="12.535372570340716"><ele>28.333333333333336</ele><time>2026-04-09T13:24:55Z</time></trkpt><trkpt lat="41.908209013017306" lon="12.535491101013156"><ele>29.166666666666668</ele><time>2026-04-09T13:24:56Z</time></trkpt><trkpt lat="41.90817546656241" lon="12.53560014228927"><ele>30.0</ele><time>2026-04-09T13:24:57Z</time></trkpt><trkpt lat="41.908189091893114" lon="12.535730946885122"><ele>31.6</ele><time>2026-04-09T13:24:58Z</time></trkpt><trkpt lat="41.9082009437198" lon="12.535837835188593"><ele>33.2</ele><time>2026-04-09T13:24:59Z</time></trkpt><trkpt lat="41.908209958141356" lon="12.53593951391624"><ele>34.8</ele><time>2026-04-09T13:25:00Z</time></trkpt><trkpt lat="41.90821902566163" lon="12.536072770488387"><ele>36.4</ele><time>2026-04-09T13:25:01Z</time></trkpt><trkpt lat="41.90823076407476" lon="12.536236875653055"><ele>38.0</ele><time>2026-04-09T13:25:02Z</time></trkpt><trkpt lat="41.90824270556664" lon="12.536377868779047"><ele>38.0</ele><time>2026-04-09T13:25:03Z</time></trkpt><trkpt lat="41.90825639743629" lon="12.536509027726494"><ele>38.0</ele><time>2026-04-09T13:25:04Z</time></trkpt><trkpt lat="41.90826702327864" lon="12.536638373717407"><ele>38.0</ele><time>2026-04-09T13:25:05Z</time></trkpt><trkpt lat="41.90827941661411" lon="12.536766246117296"><ele>38.0</ele><time>2026-04-09T13:25:06Z</time></trkpt><trkpt lat="41.90829203782362" lon="12.53689668313393"><ele>38.0</ele><time>2026-04-09T13:25:07Z</time></trkpt><trkpt lat="41.90830596958985" lon="12.537043734206765"><ele>37.0</ele><time>2026-04-09T13:25:08Z</time></trkpt><trkpt lat="41.90832629056329" lon="12.537235384927442"><ele>36.0</ele><time>2026-04-09T13:25:09Z</time></trkpt><trkpt lat="41.908342597744564" lon="12.537419337610721"><ele>35.0</ele><time>2026-04-09T13:25:10Z</time></trkpt><trkpt lat="41.90835412932833" lon="12.537590579019119"><ele>34.0</ele><time>2026-04-09T13:25:11Z</time></trkpt><trkpt lat="41.90835927213747" lon="12.537757717021133"><ele>34.0</ele><time>2026-04-09T13:25:12Z</time></trkpt><trkpt lat="41.90836572951958" lon="12.537908408694287"><ele>34.0</ele><time>2026-04-09T13:25:13Z</time></trkpt><trkpt lat="41.90837021826321" lon="12.538052994770675"><ele>34.0</ele><time>2026-04-09T13:25:14Z</time></trkpt><trkpt lat="41.90837920671382" lon="12.538192466513447"><ele>34.0</ele><time>2026-04-09T13:25:15Z</time></trkpt><trkpt lat="41.908381390655634" lon="12.538315945716803"><ele>34.0</ele><time>2026-04-09T13:25:16Z</time></trkpt><trkpt lat="41.90837962436335" lon="12.538424598313764"><ele>34.0</ele><time>2026-04-09T13:25:17Z</time></trkpt><trkpt lat="41.90839316090854" lon="12.538551924021613"><ele>34.0</ele><time>2026-04-09T13:25:18Z</time></trkpt><trkpt lat="41.90836775646197" lon="12.538696465949812"><ele>34.0</ele><time>2026-04-09T13:25:19Z</time></trkpt><trkpt lat="41.90837141496603" lon="12.538801493562431"><ele>34.0</ele><time>2026-04-09T13:25:20.001Z</time></trkpt><trkpt lat="41.90838074543521" lon="12.538925424852028"><ele>34.0</ele><time>2026-04-09T13:25:21.001Z</time></trkpt><trkpt lat="41.90837554076546" lon="12.539012725495606"><ele>34.0</ele><time>2026-04-09T13:25:22.001Z</time></trkpt><trkpt lat="41.90838511979295" lon="12.539100342617434"><ele>34.0</ele><time>2026-04-09T13:25:23.001Z</time></trkpt><trkpt lat="41.90839532782373" lon="12.539219009411266"><ele>34.0</ele><time>2026-04-09T13:25:25.001Z</time></trkpt><trkpt lat="41.90840437436581" lon="12.539314054650617"><ele>34.0</ele><time>2026-04-09T13:25:27.001Z</time></trkpt><trkpt lat="41.908405853471756" lon="12.539399363110936"><ele>34.0</ele><time>2026-04-09T13:25:29.001Z</time></trkpt><trkpt lat="41.90841377781778" lon="12.539521442171246"><ele>34.0</ele><time>2026-04-09T13:25:31.001Z</time></trkpt><trkpt lat="41.908414885105636" lon="12.539608986823424"><ele>34.0</ele><time>2026-04-09T13:25:32.001Z</time></trkpt><trkpt lat="41.90842207052681" lon="12.53978308308728"><ele>34.0</ele><time>2026-04-09T13:25:34.001Z</time></trkpt><trkpt lat="41.9084232670147" lon="12.539888790875391"><ele>34.0</ele><time>2026-04-09T13:25:35.001Z</time></trkpt><trkpt lat="41.908434481014694" lon="12.539997475727876"><ele>34.0</ele><time>2026-04-09T13:25:36.001Z</time></trkpt><trkpt lat="41.90844025257682" lon="12.54012238350499"><ele>34.0</ele><time>2026-04-09T13:25:37.001Z</time></trkpt><trkpt lat="41.90845871431327" lon="12.540265995754188"><ele>34.0</ele><time>2026-04-09T13:25:38.001Z</time></trkpt><trkpt lat="41.90847525343299" lon="12.540403712418147"><ele>33.0</ele><time>2026-04-09T13:25:39.001Z</time></trkpt><trkpt lat="41.908481866254796" lon="12.540539696272234"><ele>32.0</ele><time>2026-04-09T13:25:40.001Z</time></trkpt><trkpt lat="41.90848353977059" lon="12.54066331249705"><ele>31.0</ele><time>2026-04-09T13:25:41.001Z</time></trkpt><trkpt lat="41.908487226817975" lon="12.540808024681928"><ele>30.0</ele><time>2026-04-09T13:25:42.001Z</time></trkpt><trkpt lat="41.908492723063425" lon="12.540957916141036"><ele>29.0</ele><time>2026-04-09T13:25:43.001Z</time></trkpt><trkpt lat="41.90849820801509" lon="12.541117655397096"><ele>29.0</ele><time>2026-04-09T13:25:44.001Z</time></trkpt><trkpt lat="41.90850368862097" lon="12.541305730418198"><ele>29.0</ele><time>2026-04-09T13:25:45.001Z</time></trkpt><trkpt lat="41.90850772292787" lon="12.541463948503804"><ele>29.0</ele><time>2026-04-09T13:25:46.001Z</time></trkpt><trkpt lat="41.90851426294982" lon="12.54160403096104"><ele>29.0</ele><time>2026-04-09T13:25:47.001Z</time></trkpt><trkpt lat="41.90851546308232" lon="12.541703548689682"><ele>29.0</ele><time>2026-04-09T13:25:48.001Z</time></trkpt><trkpt lat="41.908512252019506" lon="12.541829984201815"><ele>28.999999999999996</ele><time>2026-04-09T13:25:50.001Z</time></trkpt><trkpt lat="41.90848937680663" lon="12.541937042713954"><ele>29.0</ele><time>2026-04-09T13:25:53.001Z</time></trkpt><trkpt lat="41.90849715511359" lon="12.54204265458827"><ele>29.0</ele><time>2026-04-09T13:25:55.001Z</time></trkpt><trkpt lat="41.90850858236906" lon="12.542150647921448"><ele>29.0</ele><time>2026-04-09T13:25:57.001Z</time></trkpt><trkpt lat="41.90850677960591" lon="12.54224530238064"><ele>28.999999999999996</ele><time>2026-04-09T13:26:02.001Z</time></trkpt><trkpt lat="41.90851399538136" lon="12.54235183978408"><ele>29.0</ele><time>2026-04-09T13:26:04.001Z</time></trkpt><trkpt lat="41.908522168714505" lon="12.5425389829466"><ele>30.0</ele><time>2026-04-09T13:26:06.001Z</time></trkpt><trkpt lat="41.90856607743195" lon="12.542689309343393"><ele>31.0</ele><time>2026-04-09T13:26:07.001Z</time></trkpt><trkpt lat="41.908565157922226" lon="12.542842446015861"><ele>32.0</ele><time>2026-04-09T13:26:08.001Z</time></trkpt><trkpt lat="41.908576305260446" lon="12.543033448682854"><ele>33.0</ele><time>2026-04-09T13:26:09.001Z</time></trkpt><trkpt lat="41.90858598561295" lon="12.54324250423743"><ele>34.666666666666664</ele><time>2026-04-09T13:26:10.001Z</time></trkpt><trkpt lat="41.90859686781507" lon="12.543463728505666"><ele>36.33333333333333</ele><time>2026-04-09T13:26:11.001Z</time></trkpt><trkpt lat="41.90860497916573" lon="12.543673566899416"><ele>38.0</ele><time>2026-04-09T13:26:12.001Z</time></trkpt><trkpt lat="41.90861328697919" lon="12.543860697161652"><ele>39.0</ele><time>2026-04-09T13:26:13.001Z</time></trkpt><trkpt lat="41.90861712842397" lon="12.544037286540135"><ele>40.0</ele><time>2026-04-09T13:26:14.001Z</time></trkpt><trkpt lat="41.90862087020832" lon="12.544192950450308"><ele>41.0</ele><time>2026-04-09T13:26:15.001Z</time></trkpt><trkpt lat="41.90862341532067" lon="12.544337628286907"><ele>42.0</ele><time>2026-04-09T13:26:16.001Z</time></trkpt><trkpt lat="41.90862994745677" lon="12.544462827273367"><ele>43.0</ele><time>2026-04-09T13:26:17.001Z</time></trkpt><trkpt lat="41.90862255911344" lon="12.54456955540381"><ele>43.0</ele><time>2026-04-09T13:26:19.001Z</time></trkpt><trkpt lat="41.90861136826222" lon="12.54467257577474"><ele>43.0</ele><time>2026-04-09T13:26:23.001Z</time></trkpt><trkpt lat="41.9086180046021" lon="12.544774219898075"><ele>43.0</ele><time>2026-04-09T13:26:26.002Z</time></trkpt><trkpt lat="41.908628946268266" lon="12.54492648925315"><ele>43.0</ele><time>2026-04-09T13:26:28Z</time></trkpt><trkpt lat="41.908642826939555" lon="12.545020335961562"><ele>43.0</ele><time>2026-04-09T13:26:29Z</time></trkpt><trkpt lat="41.908669222535984" lon="12.545147527402756"><ele>43.0</ele><time>2026-04-09T13:26:31Z</time></trkpt><trkpt lat="41.908699704987185" lon="12.545257997349669"><ele>41.8</ele><time>2026-04-09T13:26:33Z</time></trkpt><trkpt lat="41.90873332593067" lon="12.5454019915688"><ele>40.599999999999994</ele><time>2026-04-09T13:26:35Z</time></trkpt><trkpt lat="41.908781183078226" lon="12.545554107326314"><ele>39.400000000000006</ele><time>2026-04-09T13:26:37Z</time></trkpt><trkpt lat="41.90882011983609" lon="12.545654097641352"><ele>38.2</ele><time>2026-04-09T13:26:38Z</time></trkpt><trkpt lat="41.90886501556513" lon="12.545789976764985"><ele>37.0</ele><time>2026-04-09T13:26:40Z</time></trkpt><trkpt lat="41.90890801552491" lon="12.545879132073278"><ele>37.0</ele><time>2026-04-09T13:26:42Z</time></trkpt><trkpt lat="41.9089437742735" lon="12.545957055149833"><ele>37.0</ele><time>2026-04-09T13:26:45Z</time></trkpt><trkpt lat="41.90899769973137" lon="12.546121960306982"><ele>37.0</ele><time>2026-04-09T13:26:47Z</time></trkpt><trkpt lat="41.90904789605819" lon="12.54620224163732"><ele>37.0</ele><time>2026-04-09T13:26:48Z</time></trkpt><trkpt lat="41.909089299255086" lon="12.54628662343267"><ele>37.0</ele><time>2026-04-09T13:26:49Z</time></trkpt><trkpt lat="41.90912770946584" lon="12.546404048169395"><ele>36.25</ele><time>2026-04-09T13:26:50Z</time></trkpt><trkpt lat="41.90919157216229" lon="12.546527629810788"><ele>35.5</ele><time>2026-04-09T13:26:51Z</time></trkpt><trkpt lat="41.90927915473424" lon="12.546688542379762"><ele>34.75</ele><time>2026-04-09T13:26:52Z</time></trkpt><trkpt lat="41.909355865883214" lon="12.54683059835578"><ele>34.0</ele><time>2026-04-09T13:26:53Z</time></trkpt><trkpt lat="41.90942673330131" lon="12.546968568595522"><ele>33.4</ele><time>2026-04-09T13:26:54Z</time></trkpt><trkpt lat="41.909494955814075" lon="12.547095417169349"><ele>32.8</ele><time>2026-04-09T13:26:55Z</time></trkpt><trkpt lat="41.90955453686614" lon="12.54720778778273"><ele>32.2</ele><time>2026-04-09T13:26:56Z</time></trkpt><trkpt lat="41.90960503967918" lon="12.547310406007496"><ele>31.6</ele><time>2026-04-09T13:26:57Z</time></trkpt><trkpt lat="41.90965066786381" lon="12.547397517245379"><ele>31.0</ele><time>2026-04-09T13:26:58Z</time></trkpt><trkpt lat="41.90969727899602" lon="12.547475866178955"><ele>31.0</ele><time>2026-04-09T13:26:59Z</time></trkpt><trkpt lat="41.909745222517444" lon="12.547555408414398"><ele>31.0</ele><time>2026-04-09T13:27:00Z</time></trkpt><trkpt lat="41.90979673851195" lon="12.54765326561134"><ele>31.0</ele><time>2026-04-09T13:27:01Z</time></trkpt><trkpt lat="41.90987296404695" lon="12.547782164254096"><ele>31.0</ele><time>2026-04-09T13:27:02Z</time></trkpt><trkpt lat="41.90996802523033" lon="12.547944721823743"><ele>31.0</ele><time>2026-04-09T13:27:03Z</time></trkpt><trkpt lat="41.910032838943316" lon="12.548103307748708"><ele>30.8</ele><time>2026-04-09T13:27:04Z</time></trkpt><trkpt lat="41.91009057096339" lon="12.548241243367917"><ele>30.6</ele><time>2026-04-09T13:27:05Z</time></trkpt><trkpt lat="41.9101480970365" lon="12.548364606338152"><ele>30.4</ele><time>2026-04-09T13:27:06Z</time></trkpt><trkpt lat="41.9101988871627" lon="12.548477717122779"><ele>30.2</ele><time>2026-04-09T13:27:07Z</time></trkpt><trkpt lat="41.910243924844636" lon="12.548577917449203"><ele>30.0</ele><time>2026-04-09T13:27:08Z</time></trkpt><trkpt lat="41.9102853083355" lon="12.548660519532378"><ele>30.2</ele><time>2026-04-09T13:27:09Z</time></trkpt><trkpt lat="41.91032398206446" lon="12.548741357415853"><ele>30.4</ele><time>2026-04-09T13:27:10Z</time></trkpt><trkpt lat="41.91037798911473" lon="12.548864148349141"><ele>30.6</ele><time>2026-04-09T13:27:12Z</time></trkpt><trkpt lat="41.91041741635456" lon="12.548958630351994"><ele>30.8</ele><time>2026-04-09T13:27:14Z</time></trkpt><trkpt lat="41.91046814871094" lon="12.549063461798461"><ele>31.0</ele><time>2026-04-09T13:27:27.001Z</time></trkpt><trkpt lat="41.91052348101392" lon="12.549183949061739"><ele>31.0</ele><time>2026-04-09T13:27:29.001Z</time></trkpt><trkpt lat="41.91055922875602" lon="12.54927156509321"><ele>31.0</ele><time>2026-04-09T13:27:30.001Z</time></trkpt><trkpt lat="41.910606172353276" lon="12.549396085672383"><ele>31.0</ele><time>2026-04-09T13:27:31.001Z</time></trkpt><trkpt lat="41.91066265560352" lon="12.54950993753799"><ele>31.0</ele><time>2026-04-09T13:27:32.001Z</time></trkpt><trkpt lat="41.91074965588498" lon="12.549692677131809"><ele>31.0</ele><time>2026-04-09T13:27:33.001Z</time></trkpt><trkpt lat="41.9108275850201" lon="12.549890281127398"><ele>30.666666666666668</ele><time>2026-04-09T13:27:34.001Z</time></trkpt><trkpt lat="41.910911853388065" lon="12.550141612589893"><ele>30.333333333333336</ele><time>2026-04-09T13:27:35.001Z</time></trkpt><trkpt lat="41.91097648661165" lon="12.5503487150206"><ele>30.0</ele><time>2026-04-09T13:27:36.001Z</time></trkpt><trkpt lat="41.911066276188336" lon="12.550539987659567"><ele>30.0</ele><time>2026-04-09T13:27:37.001Z</time></trkpt><trkpt lat="41.911148240235626" lon="12.55075541784394"><ele>30.0</ele><time>2026-04-09T13:27:38.001Z</time></trkpt><trkpt lat="41.91123899990133" lon="12.551006506227132"><ele>30.0</ele><time>2026-04-09T13:27:39.001Z</time></trkpt><trkpt lat="41.911331196106005" lon="12.551243308100727"><ele>30.333333333333336</ele><time>2026-04-09T13:27:40.001Z</time></trkpt><trkpt lat="41.911407880682894" lon="12.551454300281408"><ele>30.666666666666668</ele><time>2026-04-09T13:27:41.001Z</time></trkpt><trkpt lat="41.911464631116516" lon="12.551665670559549"><ele>31.0</ele><time>2026-04-09T13:27:42.001Z</time></trkpt><trkpt lat="41.911522904820984" lon="12.551892248867677"><ele>30.666666666666668</ele><time>2026-04-09T13:27:43.001Z</time></trkpt><trkpt lat="41.911563161420204" lon="12.552139576685997"><ele>30.333333333333336</ele><time>2026-04-09T13:27:44.001Z</time></trkpt><trkpt lat="41.911587579776075" lon="12.552375649337561"><ele>30.0</ele><time>2026-04-09T13:27:45.001Z</time></trkpt><trkpt lat="41.91160323532416" lon="12.552575157905977"><ele>30.0</ele><time>2026-04-09T13:27:46.001Z</time></trkpt><trkpt lat="41.91165050997283" lon="12.552758969665229"><ele>30.0</ele><time>2026-04-09T13:27:47.001Z</time></trkpt><trkpt lat="41.91171460382227" lon="12.552933416434827"><ele>30.0</ele><time>2026-04-09T13:27:48.001Z</time></trkpt><trkpt lat="41.91178386804674" lon="12.553096600885306"><ele>30.0</ele><time>2026-04-09T13:27:49.001Z</time></trkpt><trkpt lat="41.91185843740649" lon="12.55326048384322"><ele>30.25</ele><time>2026-04-09T13:27:50.001Z</time></trkpt><trkpt lat="41.911932822763674" lon="12.553414488093523"><ele>30.5</ele><time>2026-04-09T13:27:51.001Z</time></trkpt><trkpt lat="41.91199716622853" lon="12.553575197784186"><ele>30.75</ele><time>2026-04-09T13:27:52.001Z</time></trkpt><trkpt lat="41.91206672744492" lon="12.553733825989786"><ele>31.0</ele><time>2026-04-09T13:27:53.001Z</time></trkpt><trkpt lat="41.91212442404445" lon="12.553898537395444"><ele>30.5</ele><time>2026-04-09T13:27:54.001Z</time></trkpt><trkpt lat="41.91218787293856" lon="12.554067087700908"><ele>30.0</ele><time>2026-04-09T13:27:55.001Z</time></trkpt><trkpt lat="41.91225400576863" lon="12.55423793539944"><ele>29.5</ele><time>2026-04-09T13:27:56.001Z</time></trkpt><trkpt lat="41.91232172024546" lon="12.554418930572842"><ele>29.0</ele><time>2026-04-09T13:27:57.001Z</time></trkpt><trkpt lat="41.912395403187205" lon="12.554576582374526"><ele>28.75</ele><time>2026-04-09T13:27:58.001Z</time></trkpt><trkpt lat="41.912459496006186" lon="12.554734202403688"><ele>28.5</ele><time>2026-04-09T13:27:59.001Z</time></trkpt><trkpt lat="41.91253601549798" lon="12.554895130690802"><ele>28.25</ele><time>2026-04-09T13:28:00.001Z</time></trkpt><trkpt lat="41.91260488710386" lon="12.555045644984784"><ele>28.0</ele><time>2026-04-09T13:28:01.001Z</time></trkpt><trkpt lat="41.91267599781816" lon="12.555181574521875"><ele>28.0</ele><time>2026-04-09T13:28:02.001Z</time></trkpt><trkpt lat="41.912757584091466" lon="12.555298364907623"><ele>28.0</ele><time>2026-04-09T13:28:03.001Z</time></trkpt><trkpt lat="41.91286003886864" lon="12.555437435955707"><ele>28.0</ele><time>2026-04-09T13:28:04.001Z</time></trkpt><trkpt lat="41.912956694827145" lon="12.555586214294879"><ele>28.0</ele><time>2026-04-09T13:28:05.001Z</time></trkpt><trkpt lat="41.91302449712297" lon="12.55575444123286"><ele>28.0</ele><time>2026-04-09T13:28:06.001Z</time></trkpt><trkpt lat="41.91312780406252" lon="12.555939338034428"><ele>28.0</ele><time>2026-04-09T13:28:07.001Z</time></trkpt><trkpt lat="41.91319526834046" lon="12.556112763561819"><ele>28.0</ele><time>2026-04-09T13:28:08.001Z</time></trkpt><trkpt lat="41.91326687799701" lon="12.556294919368048"><ele>28.0</ele><time>2026-04-09T13:28:09.001Z</time></trkpt><trkpt lat="41.91335479102182" lon="12.556478920531104"><ele>28.0</ele><time>2026-04-09T13:28:10.001Z</time></trkpt><trkpt lat="41.91344275972806" lon="12.556674696874891"><ele>28.0</ele><time>2026-04-09T13:28:11.001Z</time></trkpt><trkpt lat="41.91351734437353" lon="12.556850247681615"><ele>27.666666666666668</ele><time>2026-04-09T13:28:12.001Z</time></trkpt><trkpt lat="41.913580902543444" lon="12.557037296881118"><ele>27.333333333333336</ele><time>2026-04-09T13:28:13.001Z</time></trkpt><trkpt lat="41.91363508566712" lon="12.557249196017347"><ele>27.0</ele><time>2026-04-09T13:28:14.001Z</time></trkpt><trkpt lat="41.91364076745457" lon="12.55748226649329"><ele>27.0</ele><time>2026-04-09T13:28:15.001Z</time></trkpt><trkpt lat="41.91369762998442" lon="12.557699722397565"><ele>27.0</ele><time>2026-04-09T13:28:16.001Z</time></trkpt><trkpt lat="41.91373845205479" lon="12.557917331273803"><ele>27.0</ele><time>2026-04-09T13:28:17.001Z</time></trkpt><trkpt lat="41.91379017858201" lon="12.558113212082503"><ele>27.0</ele><time>2026-04-09T13:28:18.001Z</time></trkpt><trkpt lat="41.913847613804506" lon="12.558296581350497"><ele>27.0</ele><time>2026-04-09T13:28:19.001Z</time></trkpt><trkpt lat="41.91389838504866" lon="12.558464005271073"><ele>27.0</ele><time>2026-04-09T13:28:20.001Z</time></trkpt><trkpt lat="41.91394783015903" lon="12.55862269042221"><ele>27.0</ele><time>2026-04-09T13:28:21.001Z</time></trkpt><trkpt lat="41.91400392200386" lon="12.558770777142541"><ele>27.0</ele><time>2026-04-09T13:28:22.001Z</time></trkpt><trkpt lat="41.91406106517559" lon="12.558901709376736"><ele>27.0</ele><time>2026-04-09T13:28:23.001Z</time></trkpt><trkpt lat="41.91409139246994" lon="12.559011045852694"><ele>27.0</ele><time>2026-04-09T13:28:24.001Z</time></trkpt><trkpt lat="41.9141189034969" lon="12.55909344206351"><ele>27.0</ele><time>2026-04-09T13:28:25.001Z</time></trkpt><trkpt lat="41.91416333023665" lon="12.55917040617963"><ele>27.0</ele><time>2026-04-09T13:28:27.001Z</time></trkpt><trkpt lat="41.91417859421276" lon="12.559259669135134"><ele>27.0</ele><time>2026-04-09T13:28:30.001Z</time></trkpt><trkpt lat="41.914246206145094" lon="12.559418686378505"><ele>27.25</ele><time>2026-04-09T13:28:31.001Z</time></trkpt><trkpt lat="41.914283963645325" lon="12.559530855868122"><ele>27.5</ele><time>2026-04-09T13:28:32.002Z</time></trkpt><trkpt lat="41.91433492242719" lon="12.559680256310202"><ele>27.75</ele><time>2026-04-09T13:28:33.002Z</time></trkpt><trkpt lat="41.91440753942477" lon="12.559838546761561"><ele>28.0</ele><time>2026-04-09T13:28:34Z</time></trkpt><trkpt lat="41.91447190500307" lon="12.559956700683248"><ele>28.0</ele><time>2026-04-09T13:28:35Z</time></trkpt><trkpt lat="41.91453141474214" lon="12.560061209296778"><ele>27.999999999999996</ele><time>2026-04-09T13:28:36Z</time></trkpt><trkpt lat="41.91459582178351" lon="12.56014565673713"><ele>27.999999999999996</ele><time>2026-04-09T13:28:37Z</time></trkpt><trkpt lat="41.914642860725856" lon="12.560246397186576"><ele>28.0</ele><time>2026-04-09T13:28:38Z</time></trkpt><trkpt lat="41.9146992388823" lon="12.560325250323885"><ele>28.0</ele><time>2026-04-09T13:28:39Z</time></trkpt><trkpt lat="41.91477562525981" lon="12.560426308145903"><ele>27.75</ele><time>2026-04-09T13:28:40Z</time></trkpt><trkpt lat="41.91486151235095" lon="12.56054472534131"><ele>27.5</ele><time>2026-04-09T13:28:41Z</time></trkpt><trkpt lat="41.914953471010314" lon="12.56063881494041"><ele>27.25</ele><time>2026-04-09T13:28:42Z</time></trkpt><trkpt lat="41.915029117143106" lon="12.560731683658757"><ele>27.0</ele><time>2026-04-09T13:28:43Z</time></trkpt><trkpt lat="41.91509482872741" lon="12.560847977439602"><ele>27.0</ele><time>2026-04-09T13:28:44Z</time></trkpt><trkpt lat="41.91517446058455" lon="12.560923786079785"><ele>27.0</ele><time>2026-04-09T13:28:45Z</time></trkpt><trkpt lat="41.915231099444675" lon="12.560999371040062"><ele>27.0</ele><time>2026-04-09T13:28:46Z</time></trkpt><trkpt lat="41.915284343033626" lon="12.561070252858222"><ele>27.0</ele><time>2026-04-09T13:28:47Z</time></trkpt><trkpt lat="41.91533167045209" lon="12.56114013192421"><ele>27.0</ele><time>2026-04-09T13:28:48Z</time></trkpt><trkpt lat="41.91539620076005" lon="12.56121941099716"><ele>27.0</ele><time>2026-04-09T13:28:49Z</time></trkpt><trkpt lat="41.91547024251625" lon="12.561312337659956"><ele>26.25</ele><time>2026-04-09T13:28:50Z</time></trkpt><trkpt lat="41.915557736222794" lon="12.561429769487681"><ele>25.5</ele><time>2026-04-09T13:28:51Z</time></trkpt><trkpt lat="41.91563315032503" lon="12.561528278096686"><ele>24.75</ele><time>2026-04-09T13:28:52Z</time></trkpt><trkpt lat="41.91571127845" lon="12.561629159687904"><ele>24.0</ele><time>2026-04-09T13:28:53Z</time></trkpt><trkpt lat="41.915799152700444" lon="12.561734244939453"><ele>24.0</ele><time>2026-04-09T13:28:54Z</time></trkpt><trkpt lat="41.91589009801584" lon="12.561850602646114"><ele>24.0</ele><time>2026-04-09T13:28:55Z</time></trkpt><trkpt lat="41.915976176294805" lon="12.561959199613737"><ele>24.0</ele><time>2026-04-09T13:28:56Z</time></trkpt><trkpt lat="41.91605898891977" lon="12.562056501598915"><ele>24.0</ele><time>2026-04-09T13:28:57Z</time></trkpt><trkpt lat="41.91614084029766" lon="12.562142647527779"><ele>24.0</ele><time>2026-04-09T13:28:58Z</time></trkpt><trkpt lat="41.916214282849865" lon="12.562230008415812"><ele>24.0</ele><time>2026-04-09T13:28:59Z</time></trkpt><trkpt lat="41.91628467845358" lon="12.562306975820901"><ele>24.0</ele><time>2026-04-09T13:29:00Z</time></trkpt><trkpt lat="41.91635063291511" lon="12.56238129731616"><ele>24.0</ele><time>2026-04-09T13:29:01Z</time></trkpt><trkpt lat="41.91641499297102" lon="12.562450806082849"><ele>24.0</ele><time>2026-04-09T13:29:02Z</time></trkpt><trkpt lat="41.91647367743057" lon="12.56251537318096"><ele>24.0</ele><time>2026-04-09T13:29:03Z</time></trkpt><trkpt lat="41.916530017523016" lon="12.562580475231291"><ele>24.0</ele><time>2026-04-09T13:29:04Z</time></trkpt><trkpt lat="41.91658327898075" lon="12.562641011137243"><ele>24.0</ele><time>2026-04-09T13:29:05Z</time></trkpt><trkpt lat="41.916641479174025" lon="12.562708593210866"><ele>24.0</ele><time>2026-04-09T13:29:06Z</time></trkpt><trkpt lat="41.91671599392123" lon="12.56279383684655"><ele>24.0</ele><time>2026-04-09T13:29:07Z</time></trkpt><trkpt lat="41.9167980600207" lon="12.562883274327566"><ele>24.0</ele><time>2026-04-09T13:29:08Z</time></trkpt><trkpt lat="41.9168662516716" lon="12.562959782433472"><ele>24.0</ele><time>2026-04-09T13:29:09Z</time></trkpt><trkpt lat="41.9169322492143" lon="12.563031613058124"><ele>24.5</ele><time>2026-04-09T13:29:10Z</time></trkpt><trkpt lat="41.91701607522462" lon="12.563111275469097"><ele>25.0</ele><time>2026-04-09T13:29:11Z</time></trkpt><trkpt lat="41.91713565529584" lon="12.563215878461843"><ele>25.5</ele><time>2026-04-09T13:29:12Z</time></trkpt><trkpt lat="41.917280291332084" lon="12.563342579540027"><ele>26.0</ele><time>2026-04-09T13:29:13Z</time></trkpt><trkpt lat="41.91742222095653" lon="12.563459923177989"><ele>26.0</ele><time>2026-04-09T13:29:14Z</time></trkpt><trkpt lat="41.917594191186836" lon="12.56360428928146"><ele>26.0</ele><time>2026-04-09T13:29:15Z</time></trkpt><trkpt lat="41.917757380604606" lon="12.563755613698193"><ele>26.0</ele><time>2026-04-09T13:29:16Z</time></trkpt><trkpt lat="41.9179017652043" lon="12.563892491177981"><ele>26.0</ele><time>2026-04-09T13:29:17Z</time></trkpt><trkpt lat="41.91803987127143" lon="12.564017183766097"><ele>26.0</ele><time>2026-04-09T13:29:18Z</time></trkpt><trkpt lat="41.91816811210093" lon="12.564139979827633"><ele>26.0</ele><time>2026-04-09T13:29:19Z</time></trkpt><trkpt lat="41.91830948759308" lon="12.564267745370403"><ele>26.0</ele><time>2026-04-09T13:29:20Z</time></trkpt><trkpt lat="41.918445050215325" lon="12.564379203293775"><ele>26.0</ele><time>2026-04-09T13:29:21Z</time></trkpt><trkpt lat="41.91859702212863" lon="12.564499729227808"><ele>26.0</ele><time>2026-04-09T13:29:22Z</time></trkpt><trkpt lat="41.9187347948777" lon="12.564619142238525"><ele>26.0</ele><time>2026-04-09T13:29:23Z</time></trkpt><trkpt lat="41.91885510359305" lon="12.564725380333805"><ele>26.0</ele><time>2026-04-09T13:29:24Z</time></trkpt><trkpt lat="41.9189684292794" lon="12.564817969300167"><ele>26.0</ele><time>2026-04-09T13:29:25Z</time></trkpt><trkpt lat="41.91907547550791" lon="12.56490747675535"><ele>26.0</ele><time>2026-04-09T13:29:26Z</time></trkpt><trkpt lat="41.91917414974785" lon="12.564995435656604"><ele>25.25</ele><time>2026-04-09T13:29:27Z</time></trkpt><trkpt lat="41.91926330903131" lon="12.565079157653273"><ele>24.5</ele><time>2026-04-09T13:29:28Z</time></trkpt><trkpt lat="41.919344146359684" lon="12.56515617458064"><ele>23.75</ele><time>2026-04-09T13:29:29Z</time></trkpt><trkpt lat="41.919445215469885" lon="12.565234550816825"><ele>23.0</ele><time>2026-04-09T13:29:30Z</time></trkpt><trkpt lat="41.91956366925917" lon="12.56533869816501"><ele>23.599999999999998</ele><time>2026-04-09T13:29:31Z</time></trkpt><trkpt lat="41.91967606716354" lon="12.565437916068683"><ele>24.2</ele><time>2026-04-09T13:29:32Z</time></trkpt><trkpt lat="41.919771439946985" lon="12.565515382080667"><ele>24.8</ele><time>2026-04-09T13:29:33Z</time></trkpt><trkpt lat="41.919853574730645" lon="12.565584664485344"><ele>25.4</ele><time>2026-04-09T13:29:34Z</time></trkpt><trkpt lat="41.91992239204984" lon="12.56564246841976"><ele>26.0</ele><time>2026-04-09T13:29:35Z</time></trkpt><trkpt lat="41.91998090219459" lon="12.565689803785043"><ele>25.4</ele><time>2026-04-09T13:29:36Z</time></trkpt><trkpt lat="41.92006741190346" lon="12.565759156227681"><ele>24.8</ele><time>2026-04-09T13:29:38.001Z</time></trkpt><trkpt lat="41.920138021196216" lon="12.565820202351912"><ele>24.2</ele><time>2026-04-09T13:29:40.001Z</time></trkpt><trkpt lat="41.92019261084736" lon="12.56587115619131"><ele>23.599999999999998</ele><time>2026-04-09T13:29:43.001Z</time></trkpt><trkpt lat="41.92030703105" lon="12.56596529903564"><ele>23.0</ele><time>2026-04-09T13:29:45.001Z</time></trkpt><trkpt lat="41.92039074415937" lon="12.566043897515065"><ele>23.0</ele><time>2026-04-09T13:29:46.001Z</time></trkpt><trkpt lat="41.920477506487074" lon="12.566120453489127"><ele>23.0</ele><time>2026-04-09T13:29:47.001Z</time></trkpt><trkpt lat="41.92059552540482" lon="12.566200369856869"><ele>23.0</ele><time>2026-04-09T13:29:48.001Z</time></trkpt><trkpt lat="41.92073892418044" lon="12.566301955262944"><ele>23.0</ele><time>2026-04-09T13:29:49.001Z</time></trkpt><trkpt lat="41.920899333729714" lon="12.566434557739612"><ele>22.333333333333336</ele><time>2026-04-09T13:29:50.001Z</time></trkpt><trkpt lat="41.92105319526846" lon="12.566575694971402"><ele>21.666666666666668</ele><time>2026-04-09T13:29:51.001Z</time></trkpt><trkpt lat="41.921217073604915" lon="12.566723534229816"><ele>21.0</ele><time>2026-04-09T13:29:52.001Z</time></trkpt><trkpt lat="41.921369271100446" lon="12.566857923619356"><ele>21.0</ele><time>2026-04-09T13:29:53.001Z</time></trkpt><trkpt lat="41.92151852703361" lon="12.56698397004912"><ele>21.0</ele><time>2026-04-09T13:29:54.001Z</time></trkpt><trkpt lat="41.92167226727156" lon="12.567112448555589"><ele>21.0</ele><time>2026-04-09T13:29:55.001Z</time></trkpt><trkpt lat="41.9218658408656" lon="12.567276851336661"><ele>20.666666666666668</ele><time>2026-04-09T13:29:56.001Z</time></trkpt><trkpt lat="41.92205061371266" lon="12.567435608387711"><ele>20.333333333333336</ele><time>2026-04-09T13:29:57.001Z</time></trkpt><trkpt lat="41.9222118533549" lon="12.567576184140911"><ele>20.0</ele><time>2026-04-09T13:29:58.001Z</time></trkpt><trkpt lat="41.92235383392685" lon="12.56769555142922"><ele>20.0</ele><time>2026-04-09T13:29:59.001Z</time></trkpt><trkpt lat="41.922497373391295" lon="12.567807109098252"><ele>20.0</ele><time>2026-04-09T13:30:00.001Z</time></trkpt><trkpt lat="41.92264011930208" lon="12.567928894549587"><ele>20.0</ele><time>2026-04-09T13:30:01.001Z</time></trkpt><trkpt lat="41.92276972712196" lon="12.568055170554631"><ele>20.25</ele><time>2026-04-09T13:30:02.001Z</time></trkpt><trkpt lat="41.92289085860188" lon="12.568154682586712"><ele>20.5</ele><time>2026-04-09T13:30:03.001Z</time></trkpt><trkpt lat="41.923002613142806" lon="12.568252785334392"><ele>20.75</ele><time>2026-04-09T13:30:04.001Z</time></trkpt><trkpt lat="41.92313204986534" lon="12.568359828670557"><ele>21.0</ele><time>2026-04-09T13:30:05.001Z</time></trkpt><trkpt lat="41.92330681526747" lon="12.568496191710127"><ele>22.666666666666664</ele><time>2026-04-09T13:30:06.001Z</time></trkpt><trkpt lat="41.92348437440489" lon="12.568649487008702"><ele>24.333333333333332</ele><time>2026-04-09T13:30:07.001Z</time></trkpt><trkpt lat="41.92361378167075" lon="12.568822909569521"><ele>26.0</ele><time>2026-04-09T13:30:08.001Z</time></trkpt><trkpt lat="41.9237213520453" lon="12.568997236961565"><ele>27.0</ele><time>2026-04-09T13:30:09.001Z</time></trkpt><trkpt lat="41.923814276737076" lon="12.569181390139732"><ele>28.0</ele><time>2026-04-09T13:30:10.001Z</time></trkpt><trkpt lat="41.92388780821543" lon="12.569406798505016"><ele>29.0</ele><time>2026-04-09T13:30:11.001Z</time></trkpt><trkpt lat="41.9239640231857" lon="12.569658358484581"><ele>29.666666666666664</ele><time>2026-04-09T13:30:12.001Z</time></trkpt><trkpt lat="41.92405162144095" lon="12.569906795856735"><ele>30.333333333333336</ele><time>2026-04-09T13:30:13.001Z</time></trkpt><trkpt lat="41.92410799220127" lon="12.570131853552486"><ele>31.0</ele><time>2026-04-09T13:30:14.001Z</time></trkpt><trkpt lat="41.92416021161588" lon="12.57031783654087"><ele>31.200000000000003</ele><time>2026-04-09T13:30:15.001Z</time></trkpt><trkpt lat="41.92421264861915" lon="12.57049037195124"><ele>31.400000000000002</ele><time>2026-04-09T13:30:16.001Z</time></trkpt><trkpt lat="41.92425787903573" lon="12.570642691652981"><ele>31.6</ele><time>2026-04-09T13:30:17.001Z</time></trkpt><trkpt lat="41.92428811116201" lon="12.570762932597495"><ele>31.8</ele><time>2026-04-09T13:30:18.001Z</time></trkpt><trkpt lat="41.924320546352995" lon="12.570865170395667"><ele>32.0</ele><time>2026-04-09T13:30:19.001Z</time></trkpt><trkpt lat="41.924352470431266" lon="12.570963430067062"><ele>32.5</ele><time>2026-04-09T13:30:20.001Z</time></trkpt><trkpt lat="41.92437477759301" lon="12.571046143297647"><ele>33.0</ele><time>2026-04-09T13:30:21.001Z</time></trkpt><trkpt lat="41.92442021721862" lon="12.571184988054416"><ele>33.5</ele><time>2026-04-09T13:30:23.001Z</time></trkpt><trkpt lat="41.92444680954143" lon="12.571281971310123"><ele>34.0</ele><time>2026-04-09T13:30:25.001Z</time></trkpt><trkpt lat="41.924478416310706" lon="12.571411921235244"><ele>34.5</ele><time>2026-04-09T13:30:51Z</time></trkpt><trkpt lat="41.92450406957332" lon="12.571524803582243"><ele>35.0</ele><time>2026-04-09T13:30:52Z</time></trkpt><trkpt lat="41.924534178704334" lon="12.571673917598885"><ele>35.0</ele><time>2026-04-09T13:30:53Z</time></trkpt><trkpt lat="41.924570118794996" lon="12.571820749749763"><ele>35.0</ele><time>2026-04-09T13:30:54Z</time></trkpt><trkpt lat="41.92461561976023" lon="12.571993902239743"><ele>35.0</ele><time>2026-04-09T13:30:55Z</time></trkpt><trkpt lat="41.92466874616338" lon="12.572204187877125"><ele>35.0</ele><time>2026-04-09T13:30:56Z</time></trkpt><trkpt lat="41.9247203719397" lon="12.572410352051191"><ele>34.33333333333333</ele><time>2026-04-09T13:30:57Z</time></trkpt><trkpt lat="41.924791005427856" lon="12.572602752056325"><ele>33.666666666666664</ele><time>2026-04-09T13:30:58Z</time></trkpt><trkpt lat="41.92487631659644" lon="12.572790145375304"><ele>33.0</ele><time>2026-04-09T13:30:59Z</time></trkpt><trkpt lat="41.92496702853113" lon="12.572963919570904"><ele>31.666666666666664</ele><time>2026-04-09T13:31:00Z</time></trkpt><trkpt lat="41.925080386443156" lon="12.573164114252425"><ele>30.333333333333332</ele><time>2026-04-09T13:31:01Z</time></trkpt><trkpt lat="41.92519488462643" lon="12.573328820732085"><ele>29.0</ele><time>2026-04-09T13:31:02Z</time></trkpt><trkpt lat="41.92531535196627" lon="12.573481781034134"><ele>29.0</ele><time>2026-04-09T13:31:03Z</time></trkpt><trkpt lat="41.92544967722453" lon="12.573623843678138"><ele>29.0</ele><time>2026-04-09T13:31:04Z</time></trkpt><trkpt lat="41.92560162948699" lon="12.573767794508218"><ele>29.0</ele><time>2026-04-09T13:31:05Z</time></trkpt><trkpt lat="41.925749848162035" lon="12.573891241495428"><ele>29.0</ele><time>2026-04-09T13:31:06Z</time></trkpt><trkpt lat="41.92588013232577" lon="12.573985467656417"><ele>29.0</ele><time>2026-04-09T13:31:07Z</time></trkpt><trkpt lat="41.92599896245871" lon="12.574058866765736"><ele>29.0</ele><time>2026-04-09T13:31:08Z</time></trkpt><trkpt lat="41.92610247072716" lon="12.574157266282212"><ele>29.0</ele><time>2026-04-09T13:31:09Z</time></trkpt><trkpt lat="41.92620355538736" lon="12.57422966106572"><ele>28.799999999999997</ele><time>2026-04-09T13:31:10Z</time></trkpt><trkpt lat="41.92628971196332" lon="12.57429134816107"><ele>28.599999999999998</ele><time>2026-04-09T13:31:11Z</time></trkpt><trkpt lat="41.92637092886332" lon="12.574348997528741"><ele>28.4</ele><time>2026-04-09T13:31:13Z</time></trkpt><trkpt lat="41.92648357010011" lon="12.574409737089548"><ele>28.2</ele><time>2026-04-09T13:31:46.001Z</time></trkpt><trkpt lat="41.926561225066834" lon="12.574485092546798"><ele>28.0</ele><time>2026-04-09T13:31:47.001Z</time></trkpt><trkpt lat="41.926655361444716" lon="12.574551622856035"><ele>28.666666666666668</ele><time>2026-04-09T13:31:48.001Z</time></trkpt><trkpt lat="41.92677354435516" lon="12.574612379041683"><ele>29.333333333333336</ele><time>2026-04-09T13:31:49.001Z</time></trkpt><trkpt lat="41.92690614713636" lon="12.574751521878136"><ele>30.0</ele><time>2026-04-09T13:31:50.001Z</time></trkpt><trkpt lat="41.92707134711334" lon="12.574918134961822"><ele>30.0</ele><time>2026-04-09T13:31:51.001Z</time></trkpt><trkpt lat="41.92721014367036" lon="12.575060388489279"><ele>30.0</ele><time>2026-04-09T13:31:52.001Z</time></trkpt><trkpt lat="41.92739307833011" lon="12.575234757036117"><ele>30.0</ele><time>2026-04-09T13:31:53.001Z</time></trkpt><trkpt lat="41.92757270449605" lon="12.575410673737274"><ele>31.333333333333336</ele><time>2026-04-09T13:31:54.001Z</time></trkpt><trkpt lat="41.92768428918911" lon="12.575531044880224"><ele>32.66666666666667</ele><time>2026-04-09T13:31:55.001Z</time></trkpt><trkpt lat="41.92784181058814" lon="12.575702515362634"><ele>34.0</ele><time>2026-04-09T13:31:56.001Z</time></trkpt><trkpt lat="41.92797831538072" lon="12.575857046492896"><ele>34.0</ele><time>2026-04-09T13:31:57.001Z</time></trkpt><trkpt lat="41.92809917772302" lon="12.57600314719917"><ele>34.0</ele><time>2026-04-09T13:31:58.001Z</time></trkpt><trkpt lat="41.928217928469806" lon="12.57614434062303"><ele>34.0</ele><time>2026-04-09T13:31:59.001Z</time></trkpt><trkpt lat="41.9283374670448" lon="12.57629387040255"><ele>34.0</ele><time>2026-04-09T13:32:00.001Z</time></trkpt><trkpt lat="41.92845132241947" lon="12.576439205089596"><ele>34.0</ele><time>2026-04-09T13:32:01.001Z</time></trkpt><trkpt lat="41.928554570536406" lon="12.576564618249662"><ele>34.0</ele><time>2026-04-09T13:32:02.001Z</time></trkpt><trkpt lat="41.92866220101" lon="12.576701619728157"><ele>34.0</ele><time>2026-04-09T13:32:03.001Z</time></trkpt><trkpt lat="41.92878932018923" lon="12.57684039427312"><ele>34.0</ele><time>2026-04-09T13:32:04.001Z</time></trkpt><trkpt lat="41.92893125097147" lon="12.576972503992437"><ele>34.0</ele><time>2026-04-09T13:32:05.001Z</time></trkpt><trkpt lat="41.92908560721178" lon="12.577089660021153"><ele>34.0</ele><time>2026-04-09T13:32:06.001Z</time></trkpt><trkpt lat="41.92925437226656" lon="12.577193877493446"><ele>34.333333333333336</ele><time>2026-04-09T13:32:07.001Z</time></trkpt><trkpt lat="41.92943512264942" lon="12.577285270335434"><ele>34.666666666666664</ele><time>2026-04-09T13:32:08.001Z</time></trkpt><trkpt lat="41.92963224877788" lon="12.577377125644485"><ele>35.0</ele><time>2026-04-09T13:32:09.001Z</time></trkpt><trkpt lat="41.929843312203374" lon="12.57745436224709"><ele>35.0</ele><time>2026-04-09T13:32:10.001Z</time></trkpt><trkpt lat="41.930020645781234" lon="12.577516710710492"><ele>35.0</ele><time>2026-04-09T13:32:11.001Z</time></trkpt><trkpt lat="41.93019211507893" lon="12.577606132291061"><ele>35.0</ele><time>2026-04-09T13:32:12.001Z</time></trkpt><trkpt lat="41.93035222264139" lon="12.577717539132374"><ele>35.0</ele><time>2026-04-09T13:32:13.001Z</time></trkpt><trkpt lat="41.93052948216824" lon="12.577815886199568"><ele>35.0</ele><time>2026-04-09T13:32:14.001Z</time></trkpt><trkpt lat="41.93068575316475" lon="12.577973245325824"><ele>35.0</ele><time>2026-04-09T13:32:15.001Z</time></trkpt><trkpt lat="41.930828048360844" lon="12.578135210058228"><ele>34.666666666666664</ele><time>2026-04-09T13:32:16.001Z</time></trkpt><trkpt lat="41.930943382626886" lon="12.578272328840114"><ele>34.333333333333336</ele><time>2026-04-09T13:32:17.001Z</time></trkpt><trkpt lat="41.93107876404887" lon="12.57841736238313"><ele>34.0</ele><time>2026-04-09T13:32:18.001Z</time></trkpt><trkpt lat="41.93118527589161" lon="12.57859306129634"><ele>34.66666666666667</ele><time>2026-04-09T13:32:19.001Z</time></trkpt><trkpt lat="41.93128745211794" lon="12.578794175020267"><ele>35.333333333333336</ele><time>2026-04-09T13:32:20.001Z</time></trkpt><trkpt lat="41.93135549425648" lon="12.579019682396433"><ele>36.0</ele><time>2026-04-09T13:32:21.001Z</time></trkpt><trkpt lat="41.93145620281925" lon="12.579259495681328"><ele>36.0</ele><time>2026-04-09T13:32:22.001Z</time></trkpt><trkpt lat="41.93153215455784" lon="12.579493464613691"><ele>36.0</ele><time>2026-04-09T13:32:23.001Z</time></trkpt><trkpt lat="41.93161503127405" lon="12.57973717941798"><ele>36.0</ele><time>2026-04-09T13:32:24.001Z</time></trkpt><trkpt lat="41.93169400992493" lon="12.579977936465376"><ele>36.0</ele><time>2026-04-09T13:32:25.001Z</time></trkpt><trkpt lat="41.93175484307793" lon="12.580239640178549"><ele>36.0</ele><time>2026-04-09T13:32:26.001Z</time></trkpt><trkpt lat="41.931817371477464" lon="12.580501574299255"><ele>36.0</ele><time>2026-04-09T13:32:27.001Z</time></trkpt><trkpt lat="41.93188249724642" lon="12.580789401331714"><ele>36.0</ele><time>2026-04-09T13:32:28.001Z</time></trkpt><trkpt lat="41.93194835423643" lon="12.581081705500054"><ele>36.0</ele><time>2026-04-09T13:32:29.001Z</time></trkpt><trkpt lat="41.93201232427054" lon="12.5813740723958"><ele>36.0</ele><time>2026-04-09T13:32:30.001Z</time></trkpt><trkpt lat="41.93207604679976" lon="12.581662590289449"><ele>36.0</ele><time>2026-04-09T13:32:31.001Z</time></trkpt><trkpt lat="41.93213719460292" lon="12.581922539528483"><ele>36.0</ele><time>2026-04-09T13:32:32.001Z</time></trkpt><trkpt lat="41.932219623708384" lon="12.582179723487492"><ele>35.0</ele><time>2026-04-09T13:32:33.001Z</time></trkpt><trkpt lat="41.932277640074616" lon="12.582449294770205"><ele>34.0</ele><time>2026-04-09T13:32:34.001Z</time></trkpt><trkpt lat="41.932332392418644" lon="12.582698927098495"><ele>33.0</ele><time>2026-04-09T13:32:35.001Z</time></trkpt><trkpt lat="41.93238368115394" lon="12.5829600179712"><ele>33.0</ele><time>2026-04-09T13:32:36.001Z</time></trkpt><trkpt lat="41.93242144353539" lon="12.583194859940035"><ele>33.0</ele><time>2026-04-09T13:32:37.001Z</time></trkpt><trkpt lat="41.93244606122271" lon="12.583429844298195"><ele>33.0</ele><time>2026-04-09T13:32:38.001Z</time></trkpt><trkpt lat="41.93246753334822" lon="12.583668545030648"><ele>32.333333333333336</ele><time>2026-04-09T13:32:39.001Z</time></trkpt><trkpt lat="41.93248338084414" lon="12.583912485866174"><ele>31.666666666666668</ele><time>2026-04-09T13:32:40.001Z</time></trkpt><trkpt lat="41.932495257410544" lon="12.584149031013993"><ele>31.0</ele><time>2026-04-09T13:32:41.001Z</time></trkpt><trkpt lat="41.932504824459215" lon="12.584395621630524"><ele>29.666666666666668</ele><time>2026-04-09T13:32:42.001Z</time></trkpt><trkpt lat="41.93251779187801" lon="12.584624966746173"><ele>28.333333333333336</ele><time>2026-04-09T13:32:43.001Z</time></trkpt><trkpt lat="41.93253482790189" lon="12.584886968775423"><ele>27.0</ele><time>2026-04-09T13:32:44.001Z</time></trkpt><trkpt lat="41.93255066906757" lon="12.585136411835313"><ele>27.0</ele><time>2026-04-09T13:32:45.001Z</time></trkpt><trkpt lat="41.93255165834205" lon="12.585344196025892"><ele>27.0</ele><time>2026-04-09T13:32:46Z</time></trkpt><trkpt lat="41.93256362196202" lon="12.585579385156047"><ele>27.0</ele><time>2026-04-09T13:32:47Z</time></trkpt><trkpt lat="41.93257514953136" lon="12.585791597543965"><ele>27.0</ele><time>2026-04-09T13:32:48Z</time></trkpt><trkpt lat="41.93258592230143" lon="12.585976603745168"><ele>27.0</ele><time>2026-04-09T13:32:49Z</time></trkpt><trkpt lat="41.932593940535874" lon="12.586143818826127"><ele>27.0</ele><time>2026-04-09T13:32:50Z</time></trkpt><trkpt lat="41.932597960628584" lon="12.58630056412093"><ele>27.0</ele><time>2026-04-09T13:32:51Z</time></trkpt><trkpt lat="41.932594677955926" lon="12.586415519952661"><ele>27.0</ele><time>2026-04-09T13:32:52Z</time></trkpt><trkpt lat="41.9326125676001" lon="12.586500313804525"><ele>27.0</ele><time>2026-04-09T13:32:54Z</time></trkpt><trkpt lat="41.93261862201268" lon="12.586590636536043"><ele>27.0</ele><time>2026-04-09T13:32:58Z</time></trkpt><trkpt lat="41.93260877652425" lon="12.586706554804067"><ele>27.0</ele><time>2026-04-09T13:33:49.001Z</time></trkpt><trkpt lat="41.93261594293158" lon="12.586805149156575"><ele>27.0</ele><time>2026-04-09T13:33:50.001Z</time></trkpt><trkpt lat="41.93262249232358" lon="12.586890862356816"><ele>27.0</ele><time>2026-04-09T13:33:51.001Z</time></trkpt><trkpt lat="41.93263190410248" lon="12.58701044708439"><ele>27.0</ele><time>2026-04-09T13:33:53.001Z</time></trkpt><trkpt lat="41.932646513709145" lon="12.587189237411177"><ele>27.0</ele><time>2026-04-09T13:33:55.001Z</time></trkpt><trkpt lat="41.932655775099974" lon="12.587298184772893"><ele>27.000000000000004</ele><time>2026-04-09T13:33:56.001Z</time></trkpt><trkpt lat="41.93266339807158" lon="12.587387856326327"><ele>27.000000000000004</ele><time>2026-04-09T13:33:57.001Z</time></trkpt><trkpt lat="41.93267556899654" lon="12.58750391899167"><ele>27.0</ele><time>2026-04-09T13:33:58.001Z</time></trkpt><trkpt lat="41.93268999103683" lon="12.58764630566335"><ele>27.0</ele><time>2026-04-09T13:33:59.001Z</time></trkpt><trkpt lat="41.932705252945944" lon="12.58779698224099"><ele>26.666666666666664</ele><time>2026-04-09T13:34:00.001Z</time></trkpt><trkpt lat="41.93273376211939" lon="12.58795555328143"><ele>26.333333333333332</ele><time>2026-04-09T13:34:01.001Z</time></trkpt><trkpt lat="41.93278660641726" lon="12.588181875550966"><ele>26.0</ele><time>2026-04-09T13:34:02.001Z</time></trkpt><trkpt lat="41.93282909969972" lon="12.588389848554264"><ele>26.0</ele><time>2026-04-09T13:34:03.001Z</time></trkpt><trkpt lat="41.932875248581375" lon="12.588655388161566"><ele>26.0</ele><time>2026-04-09T13:34:04.001Z</time></trkpt><trkpt lat="41.93290832128977" lon="12.588905185431935"><ele>26.0</ele><time>2026-04-09T13:34:05.001Z</time></trkpt><trkpt lat="41.932885785199154" lon="12.589133647251618"><ele>26.333333333333332</ele><time>2026-04-09T13:34:06.001Z</time></trkpt><trkpt lat="41.93290093446111" lon="12.589353159545272"><ele>26.666666666666664</ele><time>2026-04-09T13:34:07.001Z</time></trkpt><trkpt lat="41.93295402107338" lon="12.589549949920238"><ele>27.0</ele><time>2026-04-09T13:34:08.001Z</time></trkpt><trkpt lat="41.93296951553417" lon="12.589745725618734"><ele>27.0</ele><time>2026-04-09T13:34:09.001Z</time></trkpt><trkpt lat="41.932978571877406" lon="12.589926045456586"><ele>27.0</ele><time>2026-04-09T13:34:10.001Z</time></trkpt><trkpt lat="41.93299432804645" lon="12.590097940276427"><ele>27.0</ele><time>2026-04-09T13:34:11.001Z</time></trkpt><trkpt lat="41.93300385684783" lon="12.590258325775633"><ele>27.0</ele><time>2026-04-09T13:34:12.001Z</time></trkpt><trkpt lat="41.93301370541158" lon="12.590396346949642"><ele>27.0</ele><time>2026-04-09T13:34:13.001Z</time></trkpt><trkpt lat="41.933024803712385" lon="12.59051872788518"><ele>27.0</ele><time>2026-04-09T13:34:14.001Z</time></trkpt><trkpt lat="41.93303223517248" lon="12.590622546969147"><ele>27.0</ele><time>2026-04-09T13:34:15.001Z</time></trkpt><trkpt lat="41.93303935834421" lon="12.590761883914007"><ele>27.0</ele><time>2026-04-09T13:34:17.001Z</time></trkpt><trkpt lat="41.9330402591985" lon="12.590862507695874"><ele>27.0</ele><time>2026-04-09T13:34:19.001Z</time></trkpt><trkpt lat="41.93303999161061" lon="12.590965805432397"><ele>27.0</ele><time>2026-04-09T13:34:21.001Z</time></trkpt><trkpt lat="41.93304245100091" lon="12.591112626480871"><ele>26.6</ele><time>2026-04-09T13:34:24.001Z</time></trkpt><trkpt lat="41.93303558588676" lon="12.591267872187885"><ele>26.200000000000003</ele><time>2026-04-09T13:34:26.001Z</time></trkpt><trkpt lat="41.933021146238026" lon="12.591390627356034"><ele>25.8</ele><time>2026-04-09T13:34:27.001Z</time></trkpt><trkpt lat="41.93300424808728" lon="12.591504365614753"><ele>25.4</ele><time>2026-04-09T13:34:28.001Z</time></trkpt><trkpt lat="41.93298659967358" lon="12.591615758608087"><ele>25.0</ele><time>2026-04-09T13:34:29.001Z</time></trkpt><trkpt lat="41.932960007330855" lon="12.591734940808392"><ele>25.0</ele><time>2026-04-09T13:34:30.001Z</time></trkpt><trkpt lat="41.93294011007297" lon="12.59186575635594"><ele>25.0</ele><time>2026-04-09T13:34:31.001Z</time></trkpt><trkpt lat="41.932925620795" lon="12.591985998286646"><ele>25.0</ele><time>2026-04-09T13:34:32.001Z</time></trkpt><trkpt lat="41.93291407520133" lon="12.592120320845433"><ele>25.0</ele><time>2026-04-09T13:34:33.001Z</time></trkpt><trkpt lat="41.93288831565247" lon="12.592321260604487"><ele>25.0</ele><time>2026-04-09T13:34:34.001Z</time></trkpt><trkpt lat="41.93287893282107" lon="12.592482310790606"><ele>25.5</ele><time>2026-04-09T13:34:35.001Z</time></trkpt><trkpt lat="41.93283446481526" lon="12.592623065914308"><ele>26.0</ele><time>2026-04-09T13:34:36.001Z</time></trkpt><trkpt lat="41.93281195686421" lon="12.592760858676312"><ele>26.5</ele><time>2026-04-09T13:34:37.001Z</time></trkpt><trkpt lat="41.93285452165491" lon="12.592911690414024"><ele>27.0</ele><time>2026-04-09T13:34:38.001Z</time></trkpt><trkpt lat="41.932775724521925" lon="12.59307693801123"><ele>27.0</ele><time>2026-04-09T13:34:39.001Z</time></trkpt><trkpt lat="41.93275420604495" lon="12.593224438566171"><ele>27.0</ele><time>2026-04-09T13:34:40.001Z</time></trkpt><trkpt lat="41.93273428477533" lon="12.593401147499316"><ele>27.0</ele><time>2026-04-09T13:34:41.001Z</time></trkpt><trkpt lat="41.93271024686636" lon="12.59356268937763"><ele>27.0</ele><time>2026-04-09T13:34:42.001Z</time></trkpt><trkpt lat="41.93268379545239" lon="12.593719875814807"><ele>26.8</ele><time>2026-04-09T13:34:43.001Z</time></trkpt><trkpt lat="41.93266312197145" lon="12.593867682452728"><ele>26.6</ele><time>2026-04-09T13:34:44.001Z</time></trkpt><trkpt lat="41.93264248762876" lon="12.594007276491132"><ele>26.400000000000002</ele><time>2026-04-09T13:34:45.001Z</time></trkpt><trkpt lat="41.93262346916976" lon="12.594144257688114"><ele>26.200000000000003</ele><time>2026-04-09T13:34:46.001Z</time></trkpt><trkpt lat="41.93260779960096" lon="12.594277010887705"><ele>26.0</ele><time>2026-04-09T13:34:47.001Z</time></trkpt><trkpt lat="41.932592535359156" lon="12.594411330567961"><ele>26.200000000000003</ele><time>2026-04-09T13:34:48.001Z</time></trkpt><trkpt lat="41.93257376084197" lon="12.59456078167311"><ele>26.400000000000002</ele><time>2026-04-09T13:34:49.001Z</time></trkpt><trkpt lat="41.932566554969256" lon="12.594709558792676"><ele>26.6</ele><time>2026-04-09T13:34:50.001Z</time></trkpt><trkpt lat="41.93255652879918" lon="12.59484181983437"><ele>26.8</ele><time>2026-04-09T13:34:51.001Z</time></trkpt><trkpt lat="41.93255260005153" lon="12.594969045102255"><ele>27.0</ele><time>2026-04-09T13:34:52Z</time></trkpt><trkpt lat="41.93254953663011" lon="12.595100343604209"><ele>27.0</ele><time>2026-04-09T13:34:53Z</time></trkpt><trkpt lat="41.93255148724519" lon="12.595215861171763"><ele>27.0</ele><time>2026-04-09T13:34:54Z</time></trkpt><trkpt lat="41.93255659089121" lon="12.595309379056474"><ele>27.0</ele><time>2026-04-09T13:34:55Z</time></trkpt><trkpt lat="41.93256436966234" lon="12.59543217836183"><ele>27.0</ele><time>2026-04-09T13:34:57Z</time></trkpt><trkpt lat="41.93256481860526" lon="12.595525733362344"><ele>27.0</ele><time>2026-04-09T13:34:59Z</time></trkpt><trkpt lat="41.932570016598994" lon="12.595657424915059"><ele>27.0</ele><time>2026-04-09T13:35:01Z</time></trkpt><trkpt lat="41.9325584106944" lon="12.595785545869855"><ele>27.0</ele><time>2026-04-09T13:35:03Z</time></trkpt><trkpt lat="41.93256279215149" lon="12.595880403329247"><ele>27.000000000000004</ele><time>2026-04-09T13:35:04Z</time></trkpt><trkpt lat="41.932572393465676" lon="12.596051607478815"><ele>27.000000000000004</ele><time>2026-04-09T13:35:06Z</time></trkpt><trkpt lat="41.93258038288188" lon="12.596194069349854"><ele>27.0</ele><time>2026-04-09T13:35:07Z</time></trkpt><trkpt lat="41.932588226828614" lon="12.596333937598118"><ele>27.0</ele><time>2026-04-09T13:35:08Z</time></trkpt><trkpt lat="41.93261822456272" lon="12.59650437253845"><ele>27.0</ele><time>2026-04-09T13:35:09Z</time></trkpt><trkpt lat="41.93264792947231" lon="12.596631595876085"><ele>27.000000000000004</ele><time>2026-04-09T13:35:10Z</time></trkpt><trkpt lat="41.93266775324636" lon="12.596791283069654"><ele>27.000000000000004</ele><time>2026-04-09T13:35:12Z</time></trkpt><trkpt lat="41.93269420217247" lon="12.596898881973319"><ele>27.0</ele><time>2026-04-09T13:35:14Z</time></trkpt><trkpt lat="41.93268725573446" lon="12.597012145835388"><ele>27.0</ele><time>2026-04-09T13:35:22Z</time></trkpt><trkpt lat="41.932714260293984" lon="12.597108833538336"><ele>27.0</ele><time>2026-04-09T13:35:28Z</time></trkpt><trkpt lat="41.93272939230969" lon="12.597191728335774"><ele>27.000000000000004</ele><time>2026-04-09T13:35:37Z</time></trkpt><trkpt lat="41.93276965384227" lon="12.597348846725977"><ele>27.000000000000004</ele><time>2026-04-09T13:35:38Z</time></trkpt><trkpt lat="41.93279181738442" lon="12.597514904215101"><ele>27.0</ele><time>2026-04-09T13:35:39Z</time></trkpt><trkpt lat="41.932821083937924" lon="12.59766073754405"><ele>27.0</ele><time>2026-04-09T13:35:40Z</time></trkpt><trkpt lat="41.93285713550954" lon="12.597848569964224"><ele>27.0</ele><time>2026-04-09T13:35:41Z</time></trkpt><trkpt lat="41.932901279833935" lon="12.598064853580906"><ele>27.0</ele><time>2026-04-09T13:35:42Z</time></trkpt><trkpt lat="41.93293679242337" lon="12.598288453397736"><ele>27.0</ele><time>2026-04-09T13:35:43Z</time></trkpt><trkpt lat="41.93296484364154" lon="12.598480992244344"><ele>26.666666666666664</ele><time>2026-04-09T13:35:44Z</time></trkpt><trkpt lat="41.93299637727071" lon="12.598700033407765"><ele>26.333333333333332</ele><time>2026-04-09T13:35:45Z</time></trkpt><trkpt lat="41.93302707580785" lon="12.598929862964011"><ele>26.0</ele><time>2026-04-09T13:35:46Z</time></trkpt><trkpt lat="41.93306108977831" lon="12.599197508056191"><ele>26.0</ele><time>2026-04-09T13:35:47Z</time></trkpt><trkpt lat="41.93309510168643" lon="12.599449485795772"><ele>26.0</ele><time>2026-04-09T13:35:48Z</time></trkpt><trkpt lat="41.93312912691874" lon="12.59970433930983"><ele>26.0</ele><time>2026-04-09T13:35:49Z</time></trkpt><trkpt lat="41.93315772033216" lon="12.599998680470934"><ele>25.5</ele><time>2026-04-09T13:35:50Z</time></trkpt><trkpt lat="41.933201698546384" lon="12.600345143372923"><ele>25.0</ele><time>2026-04-09T13:35:51Z</time></trkpt><trkpt lat="41.933252418990286" lon="12.600677902125666"><ele>25.0</ele><time>2026-04-09T13:35:52Z</time></trkpt><trkpt lat="41.93330812584293" lon="12.600991100775376"><ele>25.0</ele><time>2026-04-09T13:35:53Z</time></trkpt><trkpt lat="41.93335444780847" lon="12.601319296602405"><ele>27.5</ele><time>2026-04-09T13:35:54Z</time></trkpt><trkpt lat="41.93339861130646" lon="12.601634504931722"><ele>30.0</ele><time>2026-04-09T13:35:55Z</time></trkpt><trkpt lat="41.93343870234213" lon="12.601965335165017"><ele>30.0</ele><time>2026-04-09T13:35:56Z</time></trkpt><trkpt lat="41.93349346540553" lon="12.602283541327255"><ele>30.0</ele><time>2026-04-09T13:35:57Z</time></trkpt><trkpt lat="41.93354474500333" lon="12.602604088612852"><ele>31.5</ele><time>2026-04-09T13:35:58Z</time></trkpt><trkpt lat="41.933606096889385" lon="12.602922415551015"><ele>33.0</ele><time>2026-04-09T13:35:59Z</time></trkpt><trkpt lat="41.9336550832533" lon="12.603199999778543"><ele>33.0</ele><time>2026-04-09T13:36:00Z</time></trkpt><trkpt lat="41.93369445925208" lon="12.603477039906846"><ele>33.0</ele><time>2026-04-09T13:36:01Z</time></trkpt><trkpt lat="41.93373865095659" lon="12.603756091894853"><ele>33.0</ele><time>2026-04-09T13:36:02Z</time></trkpt><trkpt lat="41.93378174149841" lon="12.604016111551758"><ele>33.0</ele><time>2026-04-09T13:36:03Z</time></trkpt><trkpt lat="41.93382566169076" lon="12.604281202635471"><ele>33.0</ele><time>2026-04-09T13:36:04.001Z</time></trkpt><trkpt lat="41.93386502530207" lon="12.604518530022196"><ele>33.0</ele><time>2026-04-09T13:36:05.001Z</time></trkpt><trkpt lat="41.933898280569814" lon="12.60472409693044"><ele>33.0</ele><time>2026-04-09T13:36:06.001Z</time></trkpt><trkpt lat="41.93392514487773" lon="12.604900767448155"><ele>33.0</ele><time>2026-04-09T13:36:07.001Z</time></trkpt><trkpt lat="41.93395086366799" lon="12.60505969722288"><ele>33.0</ele><time>2026-04-09T13:36:08.001Z</time></trkpt><trkpt lat="41.93397139518618" lon="12.605190445778314"><ele>33.0</ele><time>2026-04-09T13:36:09.001Z</time></trkpt><trkpt lat="41.933985721627856" lon="12.605288566997286"><ele>33.0</ele><time>2026-04-09T13:36:10.001Z</time></trkpt><trkpt lat="41.93400657765445" lon="12.6054241278482"><ele>33.0</ele><time>2026-04-09T13:36:12.001Z</time></trkpt><trkpt lat="41.93402304903593" lon="12.605505816014405"><ele>33.0</ele><time>2026-04-09T13:36:14.001Z</time></trkpt><trkpt lat="41.93403536400192" lon="12.605604457328065"><ele>33.0</ele><time>2026-04-09T13:36:43.001Z</time></trkpt><trkpt lat="41.9340564367894" lon="12.605709048142307"><ele>33.0</ele><time>2026-04-09T13:36:44.001Z</time></trkpt><trkpt lat="41.934084697277186" lon="12.605847237262672"><ele>33.0</ele><time>2026-04-09T13:36:45.001Z</time></trkpt><trkpt lat="41.93410542709676" lon="12.605980347476603"><ele>33.0</ele><time>2026-04-09T13:36:46.001Z</time></trkpt><trkpt lat="41.9341341204235" lon="12.606147558541254"><ele>33.0</ele><time>2026-04-09T13:36:47.001Z</time></trkpt><trkpt lat="41.93416880030259" lon="12.606351095590643"><ele>33.0</ele><time>2026-04-09T13:36:48.001Z</time></trkpt><trkpt lat="41.93420509241004" lon="12.606553001144611"><ele>33.0</ele><time>2026-04-09T13:36:49.001Z</time></trkpt><trkpt lat="41.9342395823761" lon="12.60675458947612"><ele>35.666666666666664</ele><time>2026-04-09T13:36:50.001Z</time></trkpt><trkpt lat="41.93428040890508" lon="12.606997561055532"><ele>38.33333333333333</ele><time>2026-04-09T13:36:51.001Z</time></trkpt><trkpt lat="41.93432447689518" lon="12.607256546743464"><ele>41.0</ele><time>2026-04-09T13:36:52.001Z</time></trkpt><trkpt lat="41.93436804668764" lon="12.607497114705629"><ele>41.0</ele><time>2026-04-09T13:36:53.001Z</time></trkpt><trkpt lat="41.93441640733083" lon="12.607749352804923"><ele>41.0</ele><time>2026-04-09T13:36:54.001Z</time></trkpt><trkpt lat="41.93447437588039" lon="12.608005542920305"><ele>41.0</ele><time>2026-04-09T13:36:55.001Z</time></trkpt><trkpt lat="41.93453955931737" lon="12.608257081697534"><ele>39.666666666666664</ele><time>2026-04-09T13:36:56.001Z</time></trkpt><trkpt lat="41.93460772818371" lon="12.60850590556772"><ele>38.333333333333336</ele><time>2026-04-09T13:36:57.001Z</time></trkpt><trkpt lat="41.934681350981954" lon="12.608752015088283"><ele>37.0</ele><time>2026-04-09T13:36:57.999Z</time></trkpt><trkpt lat="41.93475180289197" lon="12.608981331388591"><ele>36.66666666666667</ele><time>2026-04-09T13:36:58.999Z</time></trkpt><trkpt lat="41.93483017230268" lon="12.609229286848578"><ele>36.333333333333336</ele><time>2026-04-09T13:36:59.999Z</time></trkpt><trkpt lat="41.93490479647305" lon="12.609459615849515"><ele>36.0</ele><time>2026-04-09T13:37:00.999Z</time></trkpt><trkpt lat="41.93498283016642" lon="12.609694190895894"><ele>36.666666666666664</ele><time>2026-04-09T13:37:01.999Z</time></trkpt><trkpt lat="41.93505801765274" lon="12.609930663057504"><ele>37.33333333333333</ele><time>2026-04-09T13:37:03Z</time></trkpt><trkpt lat="41.93512233238838" lon="12.610144768420659"><ele>38.0</ele><time>2026-04-09T13:37:04Z</time></trkpt><trkpt lat="41.93518489651474" lon="12.610351347731529"><ele>38.0</ele><time>2026-04-09T13:37:05Z</time></trkpt><trkpt lat="41.93525009362528" lon="12.610560774228869"><ele>38.0</ele><time>2026-04-09T13:37:06Z</time></trkpt><trkpt lat="41.93531415675628" lon="12.610769720492813"><ele>38.0</ele><time>2026-04-09T13:37:07Z</time></trkpt><trkpt lat="41.93537334978769" lon="12.610966188046676"><ele>38.0</ele><time>2026-04-09T13:37:08Z</time></trkpt><trkpt lat="41.93542568976647" lon="12.611146180701947"><ele>38.0</ele><time>2026-04-09T13:37:09Z</time></trkpt><trkpt lat="41.93547366756471" lon="12.611309909112068"><ele>38.0</ele><time>2026-04-09T13:37:10Z</time></trkpt><trkpt lat="41.93551954114635" lon="12.611467981291325"><ele>38.0</ele><time>2026-04-09T13:37:11Z</time></trkpt><trkpt lat="41.93556146900875" lon="12.611619396951253"><ele>38.8</ele><time>2026-04-09T13:37:12Z</time></trkpt><trkpt lat="41.93560029362938" lon="12.61175605873865"><ele>39.599999999999994</ele><time>2026-04-09T13:37:13Z</time></trkpt><trkpt lat="41.93563455013253" lon="12.611882678126456"><ele>40.400000000000006</ele><time>2026-04-09T13:37:14Z</time></trkpt><trkpt lat="41.935664111983236" lon="12.611993802501928"><ele>41.2</ele><time>2026-04-09T13:37:15Z</time></trkpt><trkpt lat="41.93568752909854" lon="12.612086258841712"><ele>42.0</ele><time>2026-04-09T13:37:16Z</time></trkpt><trkpt lat="41.93571497866804" lon="12.61220602211207"><ele>42.6</ele><time>2026-04-09T13:37:18Z</time></trkpt><trkpt lat="41.93573787393929" lon="12.612293865720241"><ele>43.2</ele><time>2026-04-09T13:37:20Z</time></trkpt><trkpt lat="41.9357808027798" lon="12.6124366953997"><ele>43.8</ele><time>2026-04-09T13:37:45Z</time></trkpt><trkpt lat="41.93580770003184" lon="12.6125556172091"><ele>44.4</ele><time>2026-04-09T13:37:46Z</time></trkpt><trkpt lat="41.93583860352176" lon="12.61269270286701"><ele>45.0</ele><time>2026-04-09T13:37:47Z</time></trkpt><trkpt lat="41.93587159528114" lon="12.612830863888002"><ele>45.666666666666664</ele><time>2026-04-09T13:37:48Z</time></trkpt><trkpt lat="41.93591456737067" lon="12.612998070229084"><ele>46.33333333333333</ele><time>2026-04-09T13:37:49Z</time></trkpt><trkpt lat="41.93596584972141" lon="12.613210509711903"><ele>47.0</ele><time>2026-04-09T13:37:50Z</time></trkpt><trkpt lat="41.936014623894074" lon="12.613419136616743"><ele>47.0</ele><time>2026-04-09T13:37:51Z</time></trkpt><trkpt lat="41.936060243122576" lon="12.613617252233839"><ele>47.0</ele><time>2026-04-09T13:37:52Z</time></trkpt><trkpt lat="41.93611259871693" lon="12.613838581080811"><ele>47.0</ele><time>2026-04-09T13:37:53Z</time></trkpt><trkpt lat="41.93617245415697" lon="12.614090862027087"><ele>47.0</ele><time>2026-04-09T13:37:54Z</time></trkpt><trkpt lat="41.93624005751957" lon="12.614363121140965"><ele>47.0</ele><time>2026-04-09T13:37:55Z</time></trkpt><trkpt lat="41.93630319445203" lon="12.6146044850853"><ele>47.0</ele><time>2026-04-09T13:37:56Z</time></trkpt><trkpt lat="41.93637079784609" lon="12.614864792453762"><ele>47.0</ele><time>2026-04-09T13:37:57Z</time></trkpt><trkpt lat="41.93643966866344" lon="12.615121706138112"><ele>47.0</ele><time>2026-04-09T13:37:58Z</time></trkpt><trkpt lat="41.936508374415396" lon="12.615382813822865"><ele>47.0</ele><time>2026-04-09T13:37:59Z</time></trkpt><trkpt lat="41.93657928189244" lon="12.61566337075422"><ele>46.0</ele><time>2026-04-09T13:38:00Z</time></trkpt><trkpt lat="41.93665365778025" lon="12.615948659583612"><ele>45.0</ele><time>2026-04-09T13:38:01Z</time></trkpt><trkpt lat="41.93672399274054" lon="12.616224958396954"><ele>44.0</ele><time>2026-04-09T13:38:02Z</time></trkpt><trkpt lat="41.936786139519235" lon="12.61647398835762"><ele>44.0</ele><time>2026-04-09T13:38:03Z</time></trkpt><trkpt lat="41.93684919836456" lon="12.616732035493714"><ele>44.0</ele><time>2026-04-09T13:38:04Z</time></trkpt><trkpt lat="41.93691077182571" lon="12.616993969043046"><ele>44.0</ele><time>2026-04-09T13:38:05Z</time></trkpt><trkpt lat="41.936979632598074" lon="12.617305081564263"><ele>44.0</ele><time>2026-04-09T13:38:06Z</time></trkpt><trkpt lat="41.937049721932304" lon="12.617580816880725"><ele>44.0</ele><time>2026-04-09T13:38:07Z</time></trkpt><trkpt lat="41.93712312704021" lon="12.617836504788231"><ele>44.0</ele><time>2026-04-09T13:38:08Z</time></trkpt><trkpt lat="41.937216570967706" lon="12.618097301374405"><ele>43.666666666666664</ele><time>2026-04-09T13:38:09Z</time></trkpt><trkpt lat="41.93732071762082" lon="12.618370680054024"><ele>43.333333333333336</ele><time>2026-04-09T13:38:10Z</time></trkpt><trkpt lat="41.93740421967663" lon="12.618624956655179"><ele>43.0</ele><time>2026-04-09T13:38:11Z</time></trkpt><trkpt lat="41.937477043316015" lon="12.618878294440236"><ele>44.333333333333336</ele><time>2026-04-09T13:38:12Z</time></trkpt><trkpt lat="41.93755254893944" lon="12.619136982405918"><ele>45.666666666666664</ele><time>2026-04-09T13:38:13Z</time></trkpt><trkpt lat="41.93763074531189" lon="12.619410580133184"><ele>47.0</ele><time>2026-04-09T13:38:14Z</time></trkpt><trkpt lat="41.93770730614308" lon="12.619673796693519"><ele>47.0</ele><time>2026-04-09T13:38:15Z</time></trkpt><trkpt lat="41.93778820522244" lon="12.619939911666426"><ele>47.0</ele><time>2026-04-09T13:38:16Z</time></trkpt><trkpt lat="41.937859537871205" lon="12.620194176273625"><ele>47.0</ele><time>2026-04-09T13:38:17Z</time></trkpt><trkpt lat="41.93790745726276" lon="12.620416561791622"><ele>47.5</ele><time>2026-04-09T13:38:18Z</time></trkpt><trkpt lat="41.93792632163796" lon="12.620629946986258"><ele>48.0</ele><time>2026-04-09T13:38:19.001Z</time></trkpt><trkpt lat="41.93792012923714" lon="12.620824004806087"><ele>48.5</ele><time>2026-04-09T13:38:20.001Z</time></trkpt><trkpt lat="41.93790695290189" lon="12.620993723664272"><ele>49.0</ele><time>2026-04-09T13:38:21.001Z</time></trkpt><trkpt lat="41.93790253648832" lon="12.621156788386784"><ele>49.25</ele><time>2026-04-09T13:38:22.001Z</time></trkpt><trkpt lat="41.9378998810312" lon="12.621324496173777"><ele>49.5</ele><time>2026-04-09T13:38:23.001Z</time></trkpt><trkpt lat="41.93789504721805" lon="12.62150810671206"><ele>49.75</ele><time>2026-04-09T13:38:24.001Z</time></trkpt><trkpt lat="41.937885548734386" lon="12.621753216815716"><ele>50.0</ele><time>2026-04-09T13:38:25.001Z</time></trkpt><trkpt lat="41.93789008151501" lon="12.621988102996088"><ele>50.0</ele><time>2026-04-09T13:38:26.001Z</time></trkpt><trkpt lat="41.93790976795448" lon="12.622183136199553"><ele>50.0</ele><time>2026-04-09T13:38:27.001Z</time></trkpt><trkpt lat="41.93792600128248" lon="12.622377970280164"><ele>50.0</ele><time>2026-04-09T13:38:28.001Z</time></trkpt><trkpt lat="41.93793180296647" lon="12.622571803886913"><ele>50.0</ele><time>2026-04-09T13:38:29.001Z</time></trkpt><trkpt lat="41.937935679391686" lon="12.622759959463288"><ele>50.75</ele><time>2026-04-09T13:38:30.001Z</time></trkpt><trkpt lat="41.937943209440384" lon="12.622945312632396"><ele>51.5</ele><time>2026-04-09T13:38:31.001Z</time></trkpt><trkpt lat="41.937949193491995" lon="12.623132393283498"><ele>52.25</ele><time>2026-04-09T13:38:32.001Z</time></trkpt><trkpt lat="41.93795284146289" lon="12.623324900877684"><ele>53.0</ele><time>2026-04-09T13:38:33.001Z</time></trkpt><trkpt lat="41.93795630205458" lon="12.623527494954564"><ele>53.66666666666667</ele><time>2026-04-09T13:38:34.001Z</time></trkpt><trkpt lat="41.93795889272999" lon="12.62373337167363"><ele>54.33333333333333</ele><time>2026-04-09T13:38:35.001Z</time></trkpt><trkpt lat="41.937958925741164" lon="12.623949862762291"><ele>55.0</ele><time>2026-04-09T13:38:36.001Z</time></trkpt><trkpt lat="41.93796530099816" lon="12.624150744623828"><ele>55.0</ele><time>2026-04-09T13:38:37.001Z</time></trkpt><trkpt lat="41.937996484464946" lon="12.62435056467568"><ele>55.0</ele><time>2026-04-09T13:38:38.001Z</time></trkpt><trkpt lat="41.93803104019624" lon="12.624544663884134"><ele>55.0</ele><time>2026-04-09T13:38:39.001Z</time></trkpt><trkpt lat="41.93806749030123" lon="12.624741079855266"><ele>55.0</ele><time>2026-04-09T13:38:40.001Z</time></trkpt><trkpt lat="41.938129127346514" lon="12.625060331218165"><ele>55.0</ele><time>2026-04-09T13:38:41.001Z</time></trkpt><trkpt lat="41.938206897318" lon="12.625269873594897"><ele>55.0</ele><time>2026-04-09T13:38:42.001Z</time></trkpt><trkpt lat="41.93825287893513" lon="12.625502750342513"><ele>54.33333333333333</ele><time>2026-04-09T13:38:43.001Z</time></trkpt><trkpt lat="41.93829618826056" lon="12.625741007956966"><ele>53.66666666666667</ele><time>2026-04-09T13:38:44.001Z</time></trkpt><trkpt lat="41.938336185772606" lon="12.625948773511222"><ele>53.0</ele><time>2026-04-09T13:38:45.001Z</time></trkpt><trkpt lat="41.93837795726675" lon="12.626152555522719"><ele>53.333333333333336</ele><time>2026-04-09T13:38:46.001Z</time></trkpt><trkpt lat="41.93841697046068" lon="12.626360950459738"><ele>53.66666666666667</ele><time>2026-04-09T13:38:47.001Z</time></trkpt><trkpt lat="41.938456775925175" lon="12.62656449009989"><ele>54.0</ele><time>2026-04-09T13:38:48.001Z</time></trkpt><trkpt lat="41.9384983810258" lon="12.626775141870592"><ele>54.33333333333333</ele><time>2026-04-09T13:38:49.001Z</time></trkpt><trkpt lat="41.938542517832474" lon="12.627003144525716"><ele>54.666666666666664</ele><time>2026-04-09T13:38:50.001Z</time></trkpt><trkpt lat="41.93858264625588" lon="12.627220310664717"><ele>55.0</ele><time>2026-04-09T13:38:51.001Z</time></trkpt><trkpt lat="41.938624696313205" lon="12.62745833707849"><ele>55.0</ele><time>2026-04-09T13:38:52.001Z</time></trkpt><trkpt lat="41.938683335760174" lon="12.627748907964406"><ele>55.0</ele><time>2026-04-09T13:38:53.001Z</time></trkpt><trkpt lat="41.93873704598176" lon="12.628029875139955"><ele>55.0</ele><time>2026-04-09T13:38:54.001Z</time></trkpt><trkpt lat="41.93875366945024" lon="12.62819562858941"><ele>55.25</ele><time>2026-04-09T13:38:55.001Z</time></trkpt><trkpt lat="41.93879251990422" lon="12.628402230999423"><ele>55.5</ele><time>2026-04-09T13:38:56.001Z</time></trkpt><trkpt lat="41.93883468875958" lon="12.628587827060702"><ele>55.75</ele><time>2026-04-09T13:38:57.001Z</time></trkpt><trkpt lat="41.93888985062319" lon="12.628756634021467"><ele>56.0</ele><time>2026-04-09T13:38:58.001Z</time></trkpt><trkpt lat="41.938963765546816" lon="12.628928684592625"><ele>56.25</ele><time>2026-04-09T13:38:59.001Z</time></trkpt><trkpt lat="41.93904238093223" lon="12.62908634094946"><ele>56.5</ele><time>2026-04-09T13:39:00.001Z</time></trkpt><trkpt lat="41.93912936229929" lon="12.629236461793388"><ele>56.75</ele><time>2026-04-09T13:39:01.001Z</time></trkpt><trkpt lat="41.93921419977096" lon="12.6293797596681"><ele>57.0</ele><time>2026-04-09T13:39:02.001Z</time></trkpt><trkpt lat="41.939303839681074" lon="12.629522519333964"><ele>57.33333333333333</ele><time>2026-04-09T13:39:03.001Z</time></trkpt><trkpt lat="41.93939981599485" lon="12.629673413563157"><ele>57.666666666666664</ele><time>2026-04-09T13:39:04Z</time></trkpt><trkpt lat="41.93950165766554" lon="12.629827596435222"><ele>58.0</ele><time>2026-04-09T13:39:05Z</time></trkpt><trkpt lat="41.939603614119" lon="12.629985538241295"><ele>58.0</ele><time>2026-04-09T13:39:06Z</time></trkpt><trkpt lat="41.939704567934115" lon="12.630156156851346"><ele>58.0</ele><time>2026-04-09T13:39:07Z</time></trkpt><trkpt lat="41.93980919404322" lon="12.6303250764874"><ele>58.0</ele><time>2026-04-09T13:39:08Z</time></trkpt><trkpt lat="41.9399073402134" lon="12.630487614475463"><ele>57.666666666666664</ele><time>2026-04-09T13:39:09Z</time></trkpt><trkpt lat="41.93999971234735" lon="12.630649809053695"><ele>57.33333333333333</ele><time>2026-04-09T13:39:10Z</time></trkpt><trkpt lat="41.940077975024614" lon="12.630824690699432"><ele>57.0</ele><time>2026-04-09T13:39:11Z</time></trkpt><trkpt lat="41.940136683990126" lon="12.631025874524818"><ele>56.0</ele><time>2026-04-09T13:39:12Z</time></trkpt><trkpt lat="41.94019142316867" lon="12.631274250486424"><ele>55.0</ele><time>2026-04-09T13:39:13Z</time></trkpt><trkpt lat="41.94023488038259" lon="12.631506237940187"><ele>54.0</ele><time>2026-04-09T13:39:14Z</time></trkpt><trkpt lat="41.94027107123618" lon="12.63169637550504"><ele>54.0</ele><time>2026-04-09T13:39:15Z</time></trkpt><trkpt lat="41.940293029982" lon="12.631864626220842"><ele>54.00000000000001</ele><time>2026-04-09T13:39:16Z</time></trkpt><trkpt lat="41.94032039809858" lon="12.632006863956267"><ele>54.00000000000001</ele><time>2026-04-09T13:39:17Z</time></trkpt><trkpt lat="41.94034681091228" lon="12.632120687139112"><ele>54.0</ele><time>2026-04-09T13:39:18Z</time></trkpt><trkpt lat="41.940363541538844" lon="12.632208297856932"><ele>54.0</ele><time>2026-04-09T13:39:19Z</time></trkpt><trkpt lat="41.94038185089207" lon="12.632328112907771"><ele>53.800000000000004</ele><time>2026-04-09T13:39:21Z</time></trkpt><trkpt lat="41.94038348431962" lon="12.63242719753782"><ele>53.60000000000001</ele><time>2026-04-09T13:39:25Z</time></trkpt><trkpt lat="41.940402242129586" lon="12.632533185218644"><ele>53.4</ele><time>2026-04-09T13:39:27Z</time></trkpt><trkpt lat="41.94042091001294" lon="12.63264441736684"><ele>53.2</ele><time>2026-04-09T13:39:28Z</time></trkpt><trkpt lat="41.94044359844928" lon="12.632804585633368"><ele>53.0</ele><time>2026-04-09T13:39:29Z</time></trkpt><trkpt lat="41.94046090914406" lon="12.632951267652796"><ele>53.0</ele><time>2026-04-09T13:39:30Z</time></trkpt><trkpt lat="41.940483176331455" lon="12.63313082289051"><ele>53.0</ele><time>2026-04-09T13:39:31Z</time></trkpt><trkpt lat="41.94051197854871" lon="12.633321304550542"><ele>53.0</ele><time>2026-04-09T13:39:32Z</time></trkpt><trkpt lat="41.94053730392912" lon="12.63352136666247"><ele>53.0</ele><time>2026-04-09T13:39:33Z</time></trkpt><trkpt lat="41.94055886117169" lon="12.633734848918474"><ele>54.0</ele><time>2026-04-09T13:39:34Z</time></trkpt><trkpt lat="41.9405748482966" lon="12.633987760500272"><ele>55.0</ele><time>2026-04-09T13:39:35Z</time></trkpt><trkpt lat="41.94057957563984" lon="12.634253990624947"><ele>56.0</ele><time>2026-04-09T13:39:36Z</time></trkpt><trkpt lat="41.940581825785024" lon="12.634508606940742"><ele>56.0</ele><time>2026-04-09T13:39:37Z</time></trkpt><trkpt lat="41.940584317492544" lon="12.634747895072014"><ele>56.0</ele><time>2026-04-09T13:39:38Z</time></trkpt><trkpt lat="41.940591113028745" lon="12.634973447290859"><ele>56.0</ele><time>2026-04-09T13:39:39Z</time></trkpt><trkpt lat="41.94059730690037" lon="12.635207196449898"><ele>55.66666666666667</ele><time>2026-04-09T13:39:40Z</time></trkpt><trkpt lat="41.94060331398259" lon="12.635424160216676"><ele>55.33333333333333</ele><time>2026-04-09T13:39:41Z</time></trkpt><trkpt lat="41.940620456895026" lon="12.635649959056316"><ele>55.0</ele><time>2026-04-09T13:39:42Z</time></trkpt><trkpt lat="41.94064316328" lon="12.635875432573913"><ele>55.0</ele><time>2026-04-09T13:39:43Z</time></trkpt><trkpt lat="41.940661236335316" lon="12.636112615320357"><ele>55.0</ele><time>2026-04-09T13:39:44Z</time></trkpt><trkpt lat="41.940687112962905" lon="12.636346545301118"><ele>55.0</ele><time>2026-04-09T13:39:45Z</time></trkpt><trkpt lat="41.940723628870494" lon="12.636626740645042"><ele>55.33333333333333</ele><time>2026-04-09T13:39:46Z</time></trkpt><trkpt lat="41.94076363565748" lon="12.636871660865793"><ele>55.66666666666667</ele><time>2026-04-09T13:39:47Z</time></trkpt><trkpt lat="41.94077545166678" lon="12.637096469231533"><ele>56.0</ele><time>2026-04-09T13:39:48Z</time></trkpt><trkpt lat="41.94081953115286" lon="12.637329847080778"><ele>56.0</ele><time>2026-04-09T13:39:49Z</time></trkpt><trkpt lat="41.94086912518614" lon="12.637556021296987"><ele>56.0</ele><time>2026-04-09T13:39:50Z</time></trkpt><trkpt lat="41.94094861802083" lon="12.637785816774068"><ele>56.0</ele><time>2026-04-09T13:39:51Z</time></trkpt><trkpt lat="41.940999522000794" lon="12.63803903408064"><ele>56.66666666666667</ele><time>2026-04-09T13:39:52Z</time></trkpt><trkpt lat="41.941051611527385" lon="12.638293825459206"><ele>57.33333333333333</ele><time>2026-04-09T13:39:53Z</time></trkpt><trkpt lat="41.941105082237435" lon="12.638563064889205"><ele>58.0</ele><time>2026-04-09T13:39:54Z</time></trkpt><trkpt lat="41.94115384144684" lon="12.638834505008907"><ele>58.666666666666664</ele><time>2026-04-09T13:39:55Z</time></trkpt><trkpt lat="41.94121549876782" lon="12.639098847604332"><ele>59.33333333333333</ele><time>2026-04-09T13:39:56Z</time></trkpt><trkpt lat="41.94127073011271" lon="12.639403299283526"><ele>60.0</ele><time>2026-04-09T13:39:57Z</time></trkpt><trkpt lat="41.94133434305861" lon="12.639742377458008"><ele>60.0</ele><time>2026-04-09T13:39:58Z</time></trkpt><trkpt lat="41.94139214706168" lon="12.640096714111237"><ele>60.0</ele><time>2026-04-09T13:39:59Z</time></trkpt><trkpt lat="41.9414306413019" lon="12.64043848126653"><ele>62.5</ele><time>2026-04-09T13:40:00Z</time></trkpt><trkpt lat="41.94146413615943" lon="12.640773105792311"><ele>65.0</ele><time>2026-04-09T13:40:01Z</time></trkpt><trkpt lat="41.94149012384148" lon="12.641090972757093"><ele>65.66666666666667</ele><time>2026-04-09T13:40:02Z</time></trkpt><trkpt lat="41.9415145320076" lon="12.641394656931936"><ele>66.33333333333333</ele><time>2026-04-09T13:40:03Z</time></trkpt><trkpt lat="41.94153431932334" lon="12.641685880501521"><ele>67.0</ele><time>2026-04-09T13:40:04Z</time></trkpt><trkpt lat="41.94155223484167" lon="12.641952148915111"><ele>67.33333333333333</ele><time>2026-04-09T13:40:05Z</time></trkpt><trkpt lat="41.94156234766413" lon="12.642202132914315"><ele>67.66666666666667</ele><time>2026-04-09T13:40:06Z</time></trkpt><trkpt lat="41.941567480050274" lon="12.642434745266321"><ele>68.0</ele><time>2026-04-09T13:40:07Z</time></trkpt><trkpt lat="41.94157554840489" lon="12.642658688581909"><ele>68.66666666666667</ele><time>2026-04-09T13:40:08Z</time></trkpt><trkpt lat="41.94158233540301" lon="12.64288990915143"><ele>69.33333333333333</ele><time>2026-04-09T13:40:09Z</time></trkpt><trkpt lat="41.941591132832805" lon="12.643110048516629"><ele>70.0</ele><time>2026-04-09T13:40:10Z</time></trkpt><trkpt lat="41.941605933232154" lon="12.643341939664552"><ele>70.0</ele><time>2026-04-09T13:40:11Z</time></trkpt><trkpt lat="41.9416282454642" lon="12.643567736967192"><ele>70.0</ele><time>2026-04-09T13:40:12Z</time></trkpt><trkpt lat="41.941645112054445" lon="12.643756874878845"><ele>70.0</ele><time>2026-04-09T13:40:13Z</time></trkpt><trkpt lat="41.941655520461886" lon="12.643962442737704"><ele>70.25</ele><time>2026-04-09T13:40:14Z</time></trkpt><trkpt lat="41.941664199219964" lon="12.644154760037596"><ele>70.5</ele><time>2026-04-09T13:40:15Z</time></trkpt><trkpt lat="41.94167226147078" lon="12.644332343592293"><ele>70.75</ele><time>2026-04-09T13:40:16Z</time></trkpt><trkpt lat="41.94170320680204" lon="12.644495407459093"><ele>71.0</ele><time>2026-04-09T13:40:17Z</time></trkpt><trkpt lat="41.9417695980724" lon="12.644639906676463"><ele>72.75</ele><time>2026-04-09T13:40:18.001Z</time></trkpt><trkpt lat="41.94185645029033" lon="12.644751288389228"><ele>74.5</ele><time>2026-04-09T13:40:19.001Z</time></trkpt><trkpt lat="41.94195078053001" lon="12.644813221294958"><ele>76.25</ele><time>2026-04-09T13:40:20.001Z</time></trkpt><trkpt lat="41.94205791064941" lon="12.644857160953357"><ele>78.0</ele><time>2026-04-09T13:40:21.001Z</time></trkpt><trkpt lat="41.9421797790316" lon="12.644888692070126"><ele>78.0</ele><time>2026-04-09T13:40:22.001Z</time></trkpt><trkpt lat="41.942294336794795" lon="12.644913163920203"><ele>78.0</ele><time>2026-04-09T13:40:23.001Z</time></trkpt><trkpt lat="41.942410358337206" lon="12.644943764654313"><ele>78.0</ele><time>2026-04-09T13:40:24.001Z</time></trkpt><trkpt lat="41.942537130066576" lon="12.645005722323553"><ele>78.0</ele><time>2026-04-09T13:40:25.001Z</time></trkpt><trkpt lat="41.942691026333605" lon="12.645065254989662"><ele>78.33333333333333</ele><time>2026-04-09T13:40:26.001Z</time></trkpt><trkpt lat="41.94288577561538" lon="12.644983296718706"><ele>78.66666666666666</ele><time>2026-04-09T13:40:27.001Z</time></trkpt><trkpt lat="41.943072979709804" lon="12.64496489149351"><ele>79.0</ele><time>2026-04-09T13:40:28.001Z</time></trkpt><trkpt lat="41.943249045281156" lon="12.644948059590106"><ele>79.0</ele><time>2026-04-09T13:40:29.001Z</time></trkpt><trkpt lat="41.94342867923309" lon="12.64493818268244"><ele>79.0</ele><time>2026-04-09T13:40:30.001Z</time></trkpt><trkpt lat="41.943608909511404" lon="12.64492493642598"><ele>79.0</ele><time>2026-04-09T13:40:31.001Z</time></trkpt><trkpt lat="41.94380751755733" lon="12.644903454074456"><ele>79.0</ele><time>2026-04-09T13:40:32.001Z</time></trkpt><trkpt lat="41.944011420656665" lon="12.644892021790515"><ele>79.0</ele><time>2026-04-09T13:40:33.001Z</time></trkpt><trkpt lat="41.94420732080545" lon="12.644874413846853"><ele>79.0</ele><time>2026-04-09T13:40:34.001Z</time></trkpt><trkpt lat="41.94440850385816" lon="12.644857426439916"><ele>79.0</ele><time>2026-04-09T13:40:35.001Z</time></trkpt><trkpt lat="41.9446182326352" lon="12.644842890408286"><ele>79.0</ele><time>2026-04-09T13:40:36.001Z</time></trkpt><trkpt lat="41.94483310946002" lon="12.644824069341695"><ele>79.0</ele><time>2026-04-09T13:40:37.001Z</time></trkpt><trkpt lat="41.94503575368548" lon="12.644813495621687"><ele>79.0</ele><time>2026-04-09T13:40:38.001Z</time></trkpt><trkpt lat="41.9452226532828" lon="12.64480592338668"><ele>79.0</ele><time>2026-04-09T13:40:39.001Z</time></trkpt><trkpt lat="41.94538667634934" lon="12.644820073488734"><ele>79.0</ele><time>2026-04-09T13:40:40.001Z</time></trkpt><trkpt lat="41.945542186141054" lon="12.644854770702983"><ele>79.0</ele><time>2026-04-09T13:40:41.001Z</time></trkpt><trkpt lat="41.9457039777915" lon="12.64489781235079"><ele>79.0</ele><time>2026-04-09T13:40:42.001Z</time></trkpt><trkpt lat="41.94584067967586" lon="12.644947777416576"><ele>79.0</ele><time>2026-04-09T13:40:43.001Z</time></trkpt><trkpt lat="41.94595357496102" lon="12.644999800370428"><ele>79.0</ele><time>2026-04-09T13:40:44.001Z</time></trkpt><trkpt lat="41.946039001992354" lon="12.645047557153827"><ele>78.60000000000001</ele><time>2026-04-09T13:40:45.001Z</time></trkpt><trkpt lat="41.946130475213224" lon="12.645099336901884"><ele>78.2</ele><time>2026-04-09T13:40:46.001Z</time></trkpt><trkpt lat="41.94623149821998" lon="12.645173581172052"><ele>77.80000000000001</ele><time>2026-04-09T13:40:47.001Z</time></trkpt><trkpt lat="41.94632900465471" lon="12.645261498440657"><ele>77.4</ele><time>2026-04-09T13:40:48.001Z</time></trkpt><trkpt lat="41.94639431958087" lon="12.645317462283899"><ele>77.0</ele><time>2026-04-09T13:40:49.001Z</time></trkpt><trkpt lat="41.94649043241297" lon="12.645384209996404"><ele>77.6</ele><time>2026-04-09T13:40:51.001Z</time></trkpt><trkpt lat="41.94658451670686" lon="12.645458848548358"><ele>78.2</ele><time>2026-04-09T13:40:53.001Z</time></trkpt><trkpt lat="41.94664949372235" lon="12.645514018045471"><ele>78.8</ele><time>2026-04-09T13:40:54.001Z</time></trkpt><trkpt lat="41.94670405414607" lon="12.645567041119058"><ele>79.4</ele><time>2026-04-09T13:40:55.001Z</time></trkpt><trkpt lat="41.94681591655381" lon="12.64567581416569"><ele>80.0</ele><time>2026-04-09T13:40:57.001Z</time></trkpt><trkpt lat="41.946886277911304" lon="12.645727001218448"><ele>80.0</ele><time>2026-04-09T13:40:58.001Z</time></trkpt><trkpt lat="41.94694576246831" lon="12.645779346956493"><ele>80.0</ele><time>2026-04-09T13:40:59.001Z</time></trkpt><trkpt lat="41.94700564104921" lon="12.64584455117433"><ele>80.0</ele><time>2026-04-09T13:41:00.001Z</time></trkpt><trkpt lat="41.9470611429059" lon="12.645920754333424"><ele>80.0</ele><time>2026-04-09T13:41:01.001Z</time></trkpt><trkpt lat="41.947101350825584" lon="12.646004033747197"><ele>80.0</ele><time>2026-04-09T13:41:02.001Z</time></trkpt><trkpt lat="41.94714289902345" lon="12.646106989684824"><ele>80.0</ele><time>2026-04-09T13:41:03.001Z</time></trkpt><trkpt lat="41.94718733309682" lon="12.646215547979725"><ele>81.25</ele><time>2026-04-09T13:41:04.001Z</time></trkpt><trkpt lat="41.947239187610954" lon="12.64632060722151"><ele>82.5</ele><time>2026-04-09T13:41:05.001Z</time></trkpt><trkpt lat="41.94729902842533" lon="12.646452789582014"><ele>83.75</ele><time>2026-04-09T13:41:06.001Z</time></trkpt><trkpt lat="41.947369625585246" lon="12.646608345749893"><ele>85.0</ele><time>2026-04-09T13:41:07.001Z</time></trkpt><trkpt lat="41.94745021636107" lon="12.646777338043595"><ele>85.0</ele><time>2026-04-09T13:41:08.001Z</time></trkpt><trkpt lat="41.94752818642813" lon="12.646937193359573"><ele>85.0</ele><time>2026-04-09T13:41:09.001Z</time></trkpt><trkpt lat="41.94760705191386" lon="12.647097716373896"><ele>85.0</ele><time>2026-04-09T13:41:10Z</time></trkpt><trkpt lat="41.94771650525038" lon="12.647285055792565"><ele>87.0</ele><time>2026-04-09T13:41:11Z</time></trkpt><trkpt lat="41.94784094236753" lon="12.647513912876196"><ele>89.0</ele><time>2026-04-09T13:41:12Z</time></trkpt><trkpt lat="41.947952076906795" lon="12.647711126287264"><ele>91.0</ele><time>2026-04-09T13:41:13Z</time></trkpt><trkpt lat="41.94804948722884" lon="12.647875614544228"><ele>91.66666666666666</ele><time>2026-04-09T13:41:14Z</time></trkpt><trkpt lat="41.9481437951758" lon="12.648044888005455"><ele>92.33333333333333</ele><time>2026-04-09T13:41:15Z</time></trkpt><trkpt lat="41.948239356766635" lon="12.648223461892826"><ele>93.0</ele><time>2026-04-09T13:41:16Z</time></trkpt><trkpt lat="41.94834075659741" lon="12.64840683190324"><ele>94.0</ele><time>2026-04-09T13:41:17Z</time></trkpt><trkpt lat="41.948452715405814" lon="12.648596637848863"><ele>95.0</ele><time>2026-04-09T13:41:18Z</time></trkpt><trkpt lat="41.94856254520633" lon="12.648793798302766"><ele>96.0</ele><time>2026-04-09T13:41:19Z</time></trkpt><trkpt lat="41.948673939961836" lon="12.648994724661696"><ele>96.33333333333334</ele><time>2026-04-09T13:41:20Z</time></trkpt><trkpt lat="41.94879524589048" lon="12.649207182034734"><ele>96.66666666666667</ele><time>2026-04-09T13:41:21Z</time></trkpt><trkpt lat="41.94892737228446" lon="12.649417897808203"><ele>97.0</ele><time>2026-04-09T13:41:22Z</time></trkpt><trkpt lat="41.949060054193694" lon="12.649631195603789"><ele>97.0</ele><time>2026-04-09T13:41:23Z</time></trkpt><trkpt lat="41.94917556834931" lon="12.649824501351807"><ele>97.0</ele><time>2026-04-09T13:41:24Z</time></trkpt><trkpt lat="41.94928479301736" lon="12.650014035270877"><ele>97.0</ele><time>2026-04-09T13:41:25Z</time></trkpt><trkpt lat="41.949396772926995" lon="12.650204543125541"><ele>95.66666666666667</ele><time>2026-04-09T13:41:26Z</time></trkpt><trkpt lat="41.94951306897705" lon="12.650400255721392"><ele>94.33333333333334</ele><time>2026-04-09T13:41:27Z</time></trkpt><trkpt lat="41.94961903715173" lon="12.650577581664603"><ele>93.0</ele><time>2026-04-09T13:41:28Z</time></trkpt><trkpt lat="41.94972771509117" lon="12.650762394630169"><ele>93.0</ele><time>2026-04-09T13:41:29Z</time></trkpt><trkpt lat="41.94983267797903" lon="12.650942698540462"><ele>93.0</ele><time>2026-04-09T13:41:30Z</time></trkpt><trkpt lat="41.94993588794277" lon="12.651114493886428"><ele>93.0</ele><time>2026-04-09T13:41:31Z</time></trkpt><trkpt lat="41.950037354140214" lon="12.65127822976978"><ele>92.0</ele><time>2026-04-09T13:41:32Z</time></trkpt><trkpt lat="41.95014139199112" lon="12.651434617074036"><ele>91.0</ele><time>2026-04-09T13:41:33Z</time></trkpt><trkpt lat="41.95026212546732" lon="12.651601798719696"><ele>90.0</ele><time>2026-04-09T13:41:34Z</time></trkpt><trkpt lat="41.9504042196199" lon="12.651772083669307"><ele>90.0</ele><time>2026-04-09T13:41:35Z</time></trkpt><trkpt lat="41.95053714210402" lon="12.651918117860399"><ele>90.0</ele><time>2026-04-09T13:41:36Z</time></trkpt><trkpt lat="41.950652004776494" lon="12.652049756913291"><ele>90.0</ele><time>2026-04-09T13:41:37Z</time></trkpt><trkpt lat="41.950766064440394" lon="12.652173082886463"><ele>89.25</ele><time>2026-04-09T13:41:38Z</time></trkpt><trkpt lat="41.950879764773084" lon="12.652287404505637"><ele>88.5</ele><time>2026-04-09T13:41:39Z</time></trkpt><trkpt lat="41.95099855181172" lon="12.652397356688182"><ele>87.75</ele><time>2026-04-09T13:41:40Z</time></trkpt><trkpt lat="41.95110677810861" lon="12.65249498448783"><ele>87.0</ele><time>2026-04-09T13:41:41Z</time></trkpt><trkpt lat="41.95120305873642" lon="12.652581644532379"><ele>87.0</ele><time>2026-04-09T13:41:42Z</time></trkpt><trkpt lat="41.951291443488095" lon="12.652655359742264"><ele>87.0</ele><time>2026-04-09T13:41:43Z</time></trkpt><trkpt lat="41.951367884733465" lon="12.652711595226206"><ele>87.0</ele><time>2026-04-09T13:41:44Z</time></trkpt><trkpt lat="41.95142746177359" lon="12.652764124926788"><ele>87.0</ele><time>2026-04-09T13:41:45Z</time></trkpt><trkpt lat="41.951515450613186" lon="12.652848942168879"><ele>87.0</ele><time>2026-04-09T13:41:47Z</time></trkpt><trkpt lat="41.95157046048379" lon="12.652979190181009"><ele>87.0</ele><time>2026-04-09T13:41:49Z</time></trkpt><trkpt lat="41.95159416750531" lon="12.65311586736481"><ele>87.0</ele><time>2026-04-09T13:41:51Z</time></trkpt><trkpt lat="41.95166828298103" lon="12.653181673329211"><ele>87.0</ele><time>2026-04-09T13:41:52Z</time></trkpt><trkpt lat="41.95173219521532" lon="12.65319092243892"><ele>87.0</ele><time>2026-04-09T13:41:53Z</time></trkpt><trkpt lat="41.95184890091655" lon="12.653261761900412"><ele>87.0</ele><time>2026-04-09T13:41:55Z</time></trkpt><trkpt lat="41.95192424984592" lon="12.653378878655369"><ele>87.0</ele><time>2026-04-09T13:41:56Z</time></trkpt><trkpt lat="41.95200128409784" lon="12.65351323158988"><ele>87.0</ele><time>2026-04-09T13:41:57Z</time></trkpt><trkpt lat="41.952085100527285" lon="12.653637384375605"><ele>87.0</ele><time>2026-04-09T13:41:58Z</time></trkpt><trkpt lat="41.952200027949125" lon="12.65381000447488"><ele>87.0</ele><time>2026-04-09T13:41:59Z</time></trkpt><trkpt lat="41.95231017139894" lon="12.653984193509313"><ele>88.33333333333333</ele><time>2026-04-09T13:42:00Z</time></trkpt><trkpt lat="41.952420396379694" lon="12.654156438876473"><ele>89.66666666666666</ele><time>2026-04-09T13:42:01Z</time></trkpt><trkpt lat="41.95255136912073" lon="12.654355140455172"><ele>91.0</ele><time>2026-04-09T13:42:02Z</time></trkpt><trkpt lat="41.95267987110595" lon="12.654543759860152"><ele>91.33333333333333</ele><time>2026-04-09T13:42:03Z</time></trkpt><trkpt lat="41.952808394416806" lon="12.65473242322669"><ele>91.66666666666667</ele><time>2026-04-09T13:42:04Z</time></trkpt><trkpt lat="41.95294000503568" lon="12.654930670922518"><ele>92.0</ele><time>2026-04-09T13:42:05Z</time></trkpt><trkpt lat="41.95305515700366" lon="12.655105384483496"><ele>92.0</ele><time>2026-04-09T13:42:06Z</time></trkpt><trkpt lat="41.95317791851952" lon="12.655284057146606"><ele>92.0</ele><time>2026-04-09T13:42:07Z</time></trkpt><trkpt lat="41.95330811758606" lon="12.655475050465595"><ele>92.0</ele><time>2026-04-09T13:42:08Z</time></trkpt><trkpt lat="41.953439935015" lon="12.655675822164701"><ele>94.5</ele><time>2026-04-09T13:42:09Z</time></trkpt><trkpt lat="41.953586188945216" lon="12.6559042189251"><ele>97.0</ele><time>2026-04-09T13:42:10Z</time></trkpt><trkpt lat="41.95375372038718" lon="12.656161784763942"><ele>97.0</ele><time>2026-04-09T13:42:11Z</time></trkpt><trkpt lat="41.95390676011083" lon="12.656386949946835"><ele>97.0</ele><time>2026-04-09T13:42:12Z</time></trkpt><trkpt lat="41.95405614415836" lon="12.656602023333614"><ele>97.0</ele><time>2026-04-09T13:42:13Z</time></trkpt><trkpt lat="41.95419202911917" lon="12.656805144477968"><ele>96.33333333333334</ele><time>2026-04-09T13:42:14Z</time></trkpt><trkpt lat="41.954327869911786" lon="12.657009550308937"><ele>95.66666666666667</ele><time>2026-04-09T13:42:15Z</time></trkpt><trkpt lat="41.9544678496186" lon="12.657226082259903"><ele>95.0</ele><time>2026-04-09T13:42:16Z</time></trkpt><trkpt lat="41.95460257037709" lon="12.657424074329178"><ele>95.0</ele><time>2026-04-09T13:42:17Z</time></trkpt><trkpt lat="41.954734171898586" lon="12.657624390382137"><ele>95.0</ele><time>2026-04-09T13:42:18Z</time></trkpt><trkpt lat="41.954864009991844" lon="12.65782563654433"><ele>95.0</ele><time>2026-04-09T13:42:19.001Z</time></trkpt><trkpt lat="41.95498165371206" lon="12.65803274729315"><ele>94.0</ele><time>2026-04-09T13:42:20.001Z</time></trkpt><trkpt lat="41.95510175662" lon="12.658293275583194"><ele>93.0</ele><time>2026-04-09T13:42:21.001Z</time></trkpt><trkpt lat="41.95521043608465" lon="12.658566489594945"><ele>92.0</ele><time>2026-04-09T13:42:22.001Z</time></trkpt><trkpt lat="41.95531668162706" lon="12.658801772915135"><ele>91.0</ele><time>2026-04-09T13:42:23.001Z</time></trkpt><trkpt lat="41.95543083712781" lon="12.659022469065713"><ele>90.0</ele><time>2026-04-09T13:42:24.001Z</time></trkpt><trkpt lat="41.95554975470094" lon="12.65923698501495"><ele>90.0</ele><time>2026-04-09T13:42:25.001Z</time></trkpt><trkpt lat="41.95568042540343" lon="12.659449601630746"><ele>90.0</ele><time>2026-04-09T13:42:26.001Z</time></trkpt><trkpt lat="41.95580853374317" lon="12.659647572456315"><ele>90.0</ele><time>2026-04-09T13:42:27.001Z</time></trkpt><trkpt lat="41.955927643571336" lon="12.659838694069292"><ele>89.66666666666667</ele><time>2026-04-09T13:42:28.001Z</time></trkpt><trkpt lat="41.95604417286719" lon="12.660020160362913"><ele>89.33333333333334</ele><time>2026-04-09T13:42:29.001Z</time></trkpt><trkpt lat="41.95617022595364" lon="12.660192149195268"><ele>89.0</ele><time>2026-04-09T13:42:30.001Z</time></trkpt><trkpt lat="41.95630888214019" lon="12.66035586523741"><ele>89.0</ele><time>2026-04-09T13:42:31.001Z</time></trkpt><trkpt lat="41.95644974691983" lon="12.660508170460536"><ele>89.0</ele><time>2026-04-09T13:42:32.001Z</time></trkpt><trkpt lat="41.95659142922414" lon="12.660661454842968"><ele>89.0</ele><time>2026-04-09T13:42:33.001Z</time></trkpt><trkpt lat="41.95673122867606" lon="12.660799110981232"><ele>89.33333333333334</ele><time>2026-04-09T13:42:34.001Z</time></trkpt><trkpt lat="41.95686476067447" lon="12.660921008604616"><ele>89.66666666666667</ele><time>2026-04-09T13:42:35.001Z</time></trkpt><trkpt lat="41.957002469436205" lon="12.661053531174238"><ele>90.0</ele><time>2026-04-09T13:42:36.001Z</time></trkpt><trkpt lat="41.957159214691444" lon="12.66119881590032"><ele>90.0</ele><time>2026-04-09T13:42:37.001Z</time></trkpt><trkpt lat="41.95731893296273" lon="12.661344369498966"><ele>90.0</ele><time>2026-04-09T13:42:38.001Z</time></trkpt><trkpt lat="41.95745771482368" lon="12.661485174771947"><ele>90.0</ele><time>2026-04-09T13:42:39.001Z</time></trkpt><trkpt lat="41.95758572122908" lon="12.661618124034657"><ele>90.0</ele><time>2026-04-09T13:42:40.001Z</time></trkpt><trkpt lat="41.95773081468417" lon="12.661754895414663"><ele>90.0</ele><time>2026-04-09T13:42:41.001Z</time></trkpt><trkpt lat="41.957889676807476" lon="12.661900588722803"><ele>90.0</ele><time>2026-04-09T13:42:42.001Z</time></trkpt><trkpt lat="41.958048476025" lon="12.662052101621816"><ele>90.66666666666667</ele><time>2026-04-09T13:42:43.001Z</time></trkpt><trkpt lat="41.95821213554787" lon="12.662211549937432"><ele>91.33333333333334</ele><time>2026-04-09T13:42:44.001Z</time></trkpt><trkpt lat="41.95837730286167" lon="12.662379104822083"><ele>92.0</ele><time>2026-04-09T13:42:45.001Z</time></trkpt><trkpt lat="41.95854189282825" lon="12.662543653922222"><ele>92.0</ele><time>2026-04-09T13:42:46.001Z</time></trkpt><trkpt lat="41.95870910061536" lon="12.662711539848585"><ele>92.0</ele><time>2026-04-09T13:42:47.001Z</time></trkpt><trkpt lat="41.958869722227654" lon="12.662871783851458"><ele>92.0</ele><time>2026-04-09T13:42:48.001Z</time></trkpt><trkpt lat="41.95903739294444" lon="12.663030984665564"><ele>93.33333333333334</ele><time>2026-04-09T13:42:49.001Z</time></trkpt><trkpt lat="41.959196294209754" lon="12.663182243389205"><ele>94.66666666666667</ele><time>2026-04-09T13:42:50.001Z</time></trkpt><trkpt lat="41.95936663138828" lon="12.663334315031031"><ele>96.0</ele><time>2026-04-09T13:42:51.001Z</time></trkpt><trkpt lat="41.959531757610065" lon="12.663476081149106"><ele>97.0</ele><time>2026-04-09T13:42:52.001Z</time></trkpt><trkpt lat="41.95970497875348" lon="12.663618196201377"><ele>98.0</ele><time>2026-04-09T13:42:53.001Z</time></trkpt><trkpt lat="41.959880367405816" lon="12.663761959435266"><ele>99.0</ele><time>2026-04-09T13:42:54.001Z</time></trkpt><trkpt lat="41.960053825994656" lon="12.663906014498327"><ele>99.0</ele><time>2026-04-09T13:42:55.001Z</time></trkpt><trkpt lat="41.960225626840334" lon="12.664051987778633"><ele>99.0</ele><time>2026-04-09T13:42:56.001Z</time></trkpt><trkpt lat="41.960403880706025" lon="12.66420716743951"><ele>99.0</ele><time>2026-04-09T13:42:57.001Z</time></trkpt><trkpt lat="41.96056734242067" lon="12.664364185300393"><ele>99.66666666666666</ele><time>2026-04-09T13:42:58.001Z</time></trkpt><trkpt lat="41.96072970493167" lon="12.664544918703454"><ele>100.33333333333333</ele><time>2026-04-09T13:42:59.001Z</time></trkpt><trkpt lat="41.96088261715049" lon="12.664746305622815"><ele>101.0</ele><time>2026-04-09T13:43:00.001Z</time></trkpt><trkpt lat="41.96101903729972" lon="12.664968043636707"><ele>101.0</ele><time>2026-04-09T13:43:01.001Z</time></trkpt><trkpt lat="41.96114606898066" lon="12.665195539656755"><ele>101.0</ele><time>2026-04-09T13:43:02.001Z</time></trkpt><trkpt lat="41.96125275808788" lon="12.665434649006889"><ele>101.0</ele><time>2026-04-09T13:43:03.001Z</time></trkpt><trkpt lat="41.961356714068344" lon="12.665679198214974"><ele>102.66666666666666</ele><time>2026-04-09T13:43:04.001Z</time></trkpt><trkpt lat="41.96145719767306" lon="12.665927459703378"><ele>104.33333333333334</ele><time>2026-04-09T13:43:05.001Z</time></trkpt><trkpt lat="41.9615529372531" lon="12.666168187667859"><ele>106.0</ele><time>2026-04-09T13:43:06.001Z</time></trkpt><trkpt lat="41.9616511962918" lon="12.666413123612477"><ele>107.66666666666667</ele><time>2026-04-09T13:43:07.001Z</time></trkpt><trkpt lat="41.961744646091574" lon="12.66665392077822"><ele>109.33333333333334</ele><time>2026-04-09T13:43:08.001Z</time></trkpt><trkpt lat="41.96185009602161" lon="12.666898536565379"><ele>111.0</ele><time>2026-04-09T13:43:09.001Z</time></trkpt><trkpt lat="41.96195174561005" lon="12.667137912709878"><ele>111.0</ele><time>2026-04-09T13:43:10.001Z</time></trkpt><trkpt lat="41.962050789506485" lon="12.667381421874843"><ele>111.0</ele><time>2026-04-09T13:43:11.001Z</time></trkpt><trkpt lat="41.962152956132485" lon="12.667632305033706"><ele>111.0</ele><time>2026-04-09T13:43:12.001Z</time></trkpt><trkpt lat="41.96224518590024" lon="12.66787411985375"><ele>110.66666666666666</ele><time>2026-04-09T13:43:13.001Z</time></trkpt><trkpt lat="41.962346779770364" lon="12.66811912406567"><ele>110.33333333333333</ele><time>2026-04-09T13:43:14.001Z</time></trkpt><trkpt lat="41.96244790297762" lon="12.66835433985894"><ele>110.0</ele><time>2026-04-09T13:43:15.001Z</time></trkpt><trkpt lat="41.96254970800043" lon="12.668598331553932"><ele>112.0</ele><time>2026-04-09T13:43:16Z</time></trkpt><trkpt lat="41.962646919682754" lon="12.668832214062125"><ele>114.0</ele><time>2026-04-09T13:43:17Z</time></trkpt><trkpt lat="41.962741282609784" lon="12.669057295163324"><ele>116.0</ele><time>2026-04-09T13:43:18Z</time></trkpt><trkpt lat="41.96283599211786" lon="12.66926154193542"><ele>114.66666666666666</ele><time>2026-04-09T13:43:19Z</time></trkpt><trkpt lat="41.96294283008145" lon="12.669449695375212"><ele>113.33333333333334</ele><time>2026-04-09T13:43:20Z</time></trkpt><trkpt lat="41.96306663076555" lon="12.669626014761038"><ele>112.0</ele><time>2026-04-09T13:43:21Z</time></trkpt><trkpt lat="41.963197784333744" lon="12.66979340067002"><ele>112.0</ele><time>2026-04-09T13:43:22Z</time></trkpt><trkpt lat="41.96333606962529" lon="12.669951281873482"><ele>112.0</ele><time>2026-04-09T13:43:23Z</time></trkpt><trkpt lat="41.96348070121976" lon="12.670101778522287"><ele>112.0</ele><time>2026-04-09T13:43:24Z</time></trkpt><trkpt lat="41.96363783876446" lon="12.670258103124606"><ele>112.33333333333334</ele><time>2026-04-09T13:43:25Z</time></trkpt><trkpt lat="41.963803039676996" lon="12.670395985210442"><ele>112.66666666666666</ele><time>2026-04-09T13:43:26Z</time></trkpt><trkpt lat="41.963979314502375" lon="12.670516960066873"><ele>113.0</ele><time>2026-04-09T13:43:27Z</time></trkpt><trkpt lat="41.96416078031615" lon="12.670637093626326"><ele>111.33333333333333</ele><time>2026-04-09T13:43:28Z</time></trkpt><trkpt lat="41.9643452417527" lon="12.670764392580029"><ele>109.66666666666666</ele><time>2026-04-09T13:43:29Z</time></trkpt><trkpt lat="41.964525104583636" lon="12.670891931096206"><ele>108.0</ele><time>2026-04-09T13:43:30Z</time></trkpt><trkpt lat="41.964712000405356" lon="12.671035914015764"><ele>110.33333333333334</ele><time>2026-04-09T13:43:31Z</time></trkpt><trkpt lat="41.96489718077477" lon="12.67117735580901"><ele>112.66666666666667</ele><time>2026-04-09T13:43:32Z</time></trkpt><trkpt lat="41.96508374783726" lon="12.671317307648458"><ele>115.0</ele><time>2026-04-09T13:43:33Z</time></trkpt><trkpt lat="41.96527117849476" lon="12.671449831585036"><ele>115.0</ele><time>2026-04-09T13:43:34Z</time></trkpt><trkpt lat="41.96546097428486" lon="12.671588741778502"><ele>115.0</ele><time>2026-04-09T13:43:35Z</time></trkpt><trkpt lat="41.965650334366956" lon="12.67172941371388"><ele>115.0</ele><time>2026-04-09T13:43:36Z</time></trkpt><trkpt lat="41.96585093853239" lon="12.671873030564873"><ele>115.0</ele><time>2026-04-09T13:43:37Z</time></trkpt><trkpt lat="41.96603898593605" lon="12.672016376816815"><ele>115.0</ele><time>2026-04-09T13:43:38Z</time></trkpt><trkpt lat="41.966213562505864" lon="12.672159896975757"><ele>115.0</ele><time>2026-04-09T13:43:39Z</time></trkpt><trkpt lat="41.96638086709836" lon="12.672330261708186"><ele>115.0</ele><time>2026-04-09T13:43:40Z</time></trkpt><trkpt lat="41.96652464317491" lon="12.672518660455244"><ele>115.0</ele><time>2026-04-09T13:43:41Z</time></trkpt><trkpt lat="41.96667096372313" lon="12.672713663235056"><ele>115.0</ele><time>2026-04-09T13:43:42Z</time></trkpt><trkpt lat="41.96682139169314" lon="12.672901502447592"><ele>115.33333333333334</ele><time>2026-04-09T13:43:43Z</time></trkpt><trkpt lat="41.96697328303469" lon="12.673099988403528"><ele>115.66666666666666</ele><time>2026-04-09T13:43:44Z</time></trkpt><trkpt lat="41.9671379113404" lon="12.673321874414777"><ele>116.0</ele><time>2026-04-09T13:43:45Z</time></trkpt><trkpt lat="41.96728271768982" lon="12.673515229701607"><ele>116.0</ele><time>2026-04-09T13:43:46Z</time></trkpt><trkpt lat="41.96743634317433" lon="12.673712441604392"><ele>116.0</ele><time>2026-04-09T13:43:47Z</time></trkpt><trkpt lat="41.967581697042235" lon="12.67389722712661"><ele>116.0</ele><time>2026-04-09T13:43:48Z</time></trkpt><trkpt lat="41.967723225519535" lon="12.67409623483704"><ele>116.0</ele><time>2026-04-09T13:43:49Z</time></trkpt><trkpt lat="41.96785296428159" lon="12.674314179030521"><ele>116.0</ele><time>2026-04-09T13:43:50Z</time></trkpt><trkpt lat="41.96797360632283" lon="12.674568346534617"><ele>116.0</ele><time>2026-04-09T13:43:51Z</time></trkpt><trkpt lat="41.96807728197653" lon="12.6748178862212"><ele>115.0</ele><time>2026-04-09T13:43:52Z</time></trkpt><trkpt lat="41.96816146259093" lon="12.675064504080805"><ele>114.0</ele><time>2026-04-09T13:43:53Z</time></trkpt><trkpt lat="41.968225654455686" lon="12.675321052186296"><ele>113.0</ele><time>2026-04-09T13:43:54Z</time></trkpt><trkpt lat="41.9682760910291" lon="12.67558515887186"><ele>113.0</ele><time>2026-04-09T13:43:55Z</time></trkpt><trkpt lat="41.968317006640056" lon="12.675859907924348"><ele>113.0</ele><time>2026-04-09T13:43:56Z</time></trkpt><trkpt lat="41.968343909592775" lon="12.676136407705508"><ele>113.0</ele><time>2026-04-09T13:43:57Z</time></trkpt><trkpt lat="41.96835799610246" lon="12.676421759015506"><ele>113.0</ele><time>2026-04-09T13:43:58Z</time></trkpt><trkpt lat="41.96835973026785" lon="12.67673854625683"><ele>113.0</ele><time>2026-04-09T13:43:59Z</time></trkpt><trkpt lat="41.9683469015229" lon="12.677056399205942"><ele>112.0</ele><time>2026-04-09T13:44:00Z</time></trkpt><trkpt lat="41.96833630059809" lon="12.67736358080804"><ele>111.0</ele><time>2026-04-09T13:44:01Z</time></trkpt><trkpt lat="41.96833344579465" lon="12.677656156539172"><ele>110.0</ele><time>2026-04-09T13:44:02Z</time></trkpt><trkpt lat="41.968329584746265" lon="12.677925282107042"><ele>108.66666666666666</ele><time>2026-04-09T13:44:03Z</time></trkpt><trkpt lat="41.968321937396354" lon="12.678180063603458"><ele>107.33333333333334</ele><time>2026-04-09T13:44:04Z</time></trkpt><trkpt lat="41.96831780632214" lon="12.678443518893866"><ele>106.0</ele><time>2026-04-09T13:44:05Z</time></trkpt><trkpt lat="41.96831393205185" lon="12.678707634319146"><ele>106.0</ele><time>2026-04-09T13:44:06Z</time></trkpt><trkpt lat="41.96830701375006" lon="12.678965016359298"><ele>106.0</ele><time>2026-04-09T13:44:07Z</time></trkpt><trkpt lat="41.968304492601305" lon="12.679220474226465"><ele>106.0</ele><time>2026-04-09T13:44:08Z</time></trkpt><trkpt lat="41.96831311330128" lon="12.679482151933247"><ele>106.0</ele><time>2026-04-09T13:44:09Z</time></trkpt><trkpt lat="41.96832470045405" lon="12.6797617909447"><ele>106.0</ele><time>2026-04-09T13:44:10Z</time></trkpt><trkpt lat="41.96835480499876" lon="12.68004137168531"><ele>106.0</ele><time>2026-04-09T13:44:11Z</time></trkpt><trkpt lat="41.96839657568973" lon="12.680326782985453"><ele>106.0</ele><time>2026-04-09T13:44:12Z</time></trkpt><trkpt lat="41.96844380088216" lon="12.680621300027303"><ele>106.0</ele><time>2026-04-09T13:44:13Z</time></trkpt><trkpt lat="41.96848933248029" lon="12.680928369290909"><ele>103.33333333333334</ele><time>2026-04-09T13:44:14Z</time></trkpt><trkpt lat="41.9685297502774" lon="12.68121085569534"><ele>100.66666666666666</ele><time>2026-04-09T13:44:15Z</time></trkpt><trkpt lat="41.96856579989927" lon="12.681478508381236"><ele>98.0</ele><time>2026-04-09T13:44:16Z</time></trkpt><trkpt lat="41.96860198047413" lon="12.681748344199885"><ele>97.66666666666666</ele><time>2026-04-09T13:44:17Z</time></trkpt><trkpt lat="41.9686391504936" lon="12.682020767666318"><ele>97.33333333333334</ele><time>2026-04-09T13:44:18Z</time></trkpt><trkpt lat="41.96867763797216" lon="12.682286489425746"><ele>97.0</ele><time>2026-04-09T13:44:19Z</time></trkpt><trkpt lat="41.968713920792574" lon="12.682557078293012"><ele>97.0</ele><time>2026-04-09T13:44:20Z</time></trkpt><trkpt lat="41.96875222887609" lon="12.682819549539973"><ele>97.0</ele><time>2026-04-09T13:44:21Z</time></trkpt><trkpt lat="41.96879213733221" lon="12.683063181549995"><ele>97.0</ele><time>2026-04-09T13:44:22Z</time></trkpt><trkpt lat="41.968826734247344" lon="12.683306939953646"><ele>97.0</ele><time>2026-04-09T13:44:23Z</time></trkpt><trkpt lat="41.968866995984314" lon="12.683538576017483"><ele>97.0</ele><time>2026-04-09T13:44:24Z</time></trkpt><trkpt lat="41.9689087942849" lon="12.68377777078088"><ele>97.0</ele><time>2026-04-09T13:44:25Z</time></trkpt><trkpt lat="41.968955816731814" lon="12.68400556009795"><ele>97.66666666666667</ele><time>2026-04-09T13:44:26Z</time></trkpt><trkpt lat="41.96900685337959" lon="12.684232920617522"><ele>98.33333333333334</ele><time>2026-04-09T13:44:27Z</time></trkpt><trkpt lat="41.96905807587732" lon="12.684479936572549"><ele>99.0</ele><time>2026-04-09T13:44:28Z</time></trkpt><trkpt lat="41.96911015270306" lon="12.684727057434763"><ele>99.0</ele><time>2026-04-09T13:44:29Z</time></trkpt><trkpt lat="41.969164494936074" lon="12.684982245393023"><ele>99.0</ele><time>2026-04-09T13:44:30Z</time></trkpt><trkpt lat="41.9692238214618" lon="12.685245741928652"><ele>99.0</ele><time>2026-04-09T13:44:31Z</time></trkpt><trkpt lat="41.969285843980984" lon="12.685484703777387"><ele>100.0</ele><time>2026-04-09T13:44:32.001Z</time></trkpt><trkpt lat="41.96934793245509" lon="12.685711444997956"><ele>101.0</ele><time>2026-04-09T13:44:33.001Z</time></trkpt><trkpt lat="41.96942181872659" lon="12.685908960133924"><ele>102.0</ele><time>2026-04-09T13:44:34.001Z</time></trkpt><trkpt lat="41.969503145838175" lon="12.686101297032938"><ele>102.0</ele><time>2026-04-09T13:44:35.001Z</time></trkpt><trkpt lat="41.969587751396766" lon="12.68629949926882"><ele>102.0</ele><time>2026-04-09T13:44:36.001Z</time></trkpt><trkpt lat="41.96968496569881" lon="12.686529095106728"><ele>102.0</ele><time>2026-04-09T13:44:37.001Z</time></trkpt><trkpt lat="41.969785096315704" lon="12.686786428970276"><ele>101.33333333333334</ele><time>2026-04-09T13:44:38.001Z</time></trkpt><trkpt lat="41.96986506125706" lon="12.687020330653349"><ele>100.66666666666667</ele><time>2026-04-09T13:44:39.001Z</time></trkpt><trkpt lat="41.96993010883734" lon="12.687206587175384"><ele>100.0</ele><time>2026-04-09T13:44:40.001Z</time></trkpt><trkpt lat="41.96998096863987" lon="12.687358076087406"><ele>100.0</ele><time>2026-04-09T13:44:41.001Z</time></trkpt><trkpt lat="41.97002200006674" lon="12.687489713017232"><ele>100.0</ele><time>2026-04-09T13:44:42.001Z</time></trkpt><trkpt lat="41.97004143220512" lon="12.687599352184002"><ele>100.0</ele><time>2026-04-09T13:44:43.001Z</time></trkpt><trkpt lat="41.97003543912781" lon="12.687697633428929"><ele>100.0</ele><time>2026-04-09T13:44:44.001Z</time></trkpt><trkpt lat="41.96998527877515" lon="12.68783710474907"><ele>100.0</ele><time>2026-04-09T13:44:46.001Z</time></trkpt><trkpt lat="41.9699307164059" lon="12.68793136859714"><ele>99.6</ele><time>2026-04-09T13:44:47.001Z</time></trkpt><trkpt lat="41.969872229810015" lon="12.688026092727043"><ele>99.2</ele><time>2026-04-09T13:44:48.001Z</time></trkpt><trkpt lat="41.96982507786833" lon="12.6881192970473"><ele>98.80000000000001</ele><time>2026-04-09T13:44:49.001Z</time></trkpt><trkpt lat="41.96979954187699" lon="12.688249117137769"><ele>98.4</ele><time>2026-04-09T13:44:50.001Z</time></trkpt><trkpt lat="41.96981038813873" lon="12.68836864172197"><ele>98.0</ele><time>2026-04-09T13:44:51.001Z</time></trkpt><trkpt lat="41.96986338521185" lon="12.688477009688338"><ele>97.75</ele><time>2026-04-09T13:44:52.001Z</time></trkpt><trkpt lat="41.96989459653607" lon="12.688601358783776"><ele>97.5</ele><time>2026-04-09T13:44:53.001Z</time></trkpt><trkpt lat="41.96992659917227" lon="12.688747271551103"><ele>97.25</ele><time>2026-04-09T13:44:54.001Z</time></trkpt><trkpt lat="41.96995769315834" lon="12.688895112342871"><ele>97.0</ele><time>2026-04-09T13:44:55.001Z</time></trkpt><trkpt lat="41.970015473124874" lon="12.689049876705727"><ele>96.0</ele><time>2026-04-09T13:44:56.001Z</time></trkpt><trkpt lat="41.970070567013096" lon="12.689187369327664"><ele>95.0</ele><time>2026-04-09T13:44:57.001Z</time></trkpt><trkpt lat="41.97012156850845" lon="12.689338899454693"><ele>94.0</ele><time>2026-04-09T13:44:58.001Z</time></trkpt><trkpt lat="41.97017284342036" lon="12.689504730515786"><ele>93.0</ele><time>2026-04-09T13:44:59.001Z</time></trkpt><trkpt lat="41.97022749542129" lon="12.689657991817636"><ele>93.0</ele><time>2026-04-09T13:45:00.001Z</time></trkpt><trkpt lat="41.97027163874908" lon="12.689803966564119"><ele>93.0</ele><time>2026-04-09T13:45:01.001Z</time></trkpt><trkpt lat="41.97031665947822" lon="12.68994896247323"><ele>93.0</ele><time>2026-04-09T13:45:02.001Z</time></trkpt><trkpt lat="41.97039477796721" lon="12.69004495690766"><ele>93.0</ele><time>2026-04-09T13:45:03.001Z</time></trkpt><trkpt lat="41.97049601335526" lon="12.690080777175591"><ele>93.0</ele><time>2026-04-09T13:45:04.001Z</time></trkpt><trkpt lat="41.97060739403828" lon="12.690100807587546"><ele>93.0</ele><time>2026-04-09T13:45:05.001Z</time></trkpt><trkpt lat="41.97071816199804" lon="12.690143250454206"><ele>93.0</ele><time>2026-04-09T13:45:06.001Z</time></trkpt><trkpt lat="41.97082614561633" lon="12.690220011337965"><ele>93.0</ele><time>2026-04-09T13:45:07.001Z</time></trkpt><trkpt lat="41.97092941256008" lon="12.690328608252372"><ele>93.0</ele><time>2026-04-09T13:45:08.001Z</time></trkpt><trkpt lat="41.97102469059801" lon="12.690473835140988"><ele>92.75</ele><time>2026-04-09T13:45:09.001Z</time></trkpt><trkpt lat="41.97109548053021" lon="12.690622865789507"><ele>92.5</ele><time>2026-04-09T13:45:10.001Z</time></trkpt><trkpt lat="41.971149928568316" lon="12.690788238125238"><ele>92.25</ele><time>2026-04-09T13:45:11.001Z</time></trkpt><trkpt lat="41.971184764752145" lon="12.690958628333695"><ele>92.0</ele><time>2026-04-09T13:45:12.001Z</time></trkpt><trkpt lat="41.97119356312261" lon="12.691140337628113"><ele>92.75</ele><time>2026-04-09T13:45:13.001Z</time></trkpt><trkpt lat="41.97118629189381" lon="12.691328554143352"><ele>93.5</ele><time>2026-04-09T13:45:14.001Z</time></trkpt><trkpt lat="41.97118426157995" lon="12.691515054737895"><ele>94.25</ele><time>2026-04-09T13:45:15.001Z</time></trkpt><trkpt lat="41.971214751553674" lon="12.69171251501569"><ele>95.0</ele><time>2026-04-09T13:45:16.001Z</time></trkpt><trkpt lat="41.97127691751554" lon="12.691915025612987"><ele>95.66666666666667</ele><time>2026-04-09T13:45:17.001Z</time></trkpt><trkpt lat="41.97133541538579" lon="12.692089931391061"><ele>96.33333333333334</ele><time>2026-04-09T13:45:18.001Z</time></trkpt><trkpt lat="41.97139707390771" lon="12.692274117667527"><ele>97.0</ele><time>2026-04-09T13:45:19.001Z</time></trkpt><trkpt lat="41.97148130441046" lon="12.692496175182967"><ele>97.0</ele><time>2026-04-09T13:45:20.001Z</time></trkpt><trkpt lat="41.97156236557271" lon="12.692687054117034"><ele>97.0</ele><time>2026-04-09T13:45:21.001Z</time></trkpt><trkpt lat="41.97163965096548" lon="12.692874592978216"><ele>97.0</ele><time>2026-04-09T13:45:22Z</time></trkpt><trkpt lat="41.971727750557314" lon="12.693089871759442"><ele>96.66666666666667</ele><time>2026-04-09T13:45:23Z</time></trkpt><trkpt lat="41.97181088808873" lon="12.693294217531193"><ele>96.33333333333334</ele><time>2026-04-09T13:45:24Z</time></trkpt><trkpt lat="41.97188523266168" lon="12.693477778494376"><ele>96.0</ele><time>2026-04-09T13:45:25Z</time></trkpt><trkpt lat="41.971964974661425" lon="12.693672905999424"><ele>96.66666666666666</ele><time>2026-04-09T13:45:26Z</time></trkpt><trkpt lat="41.972055811062525" lon="12.69388650946189"><ele>97.33333333333333</ele><time>2026-04-09T13:45:27Z</time></trkpt><trkpt lat="41.9721462385712" lon="12.694103984721243"><ele>98.0</ele><time>2026-04-09T13:45:28Z</time></trkpt><trkpt lat="41.97222702409983" lon="12.69430302091233"><ele>98.66666666666666</ele><time>2026-04-09T13:45:29Z</time></trkpt><trkpt lat="41.97231139714805" lon="12.694509865604408"><ele>99.33333333333334</ele><time>2026-04-09T13:45:30Z</time></trkpt><trkpt lat="41.97239676895236" lon="12.694757489174538"><ele>100.0</ele><time>2026-04-09T13:45:31Z</time></trkpt><trkpt lat="41.972506643738946" lon="12.695026633283854"><ele>100.0</ele><time>2026-04-09T13:45:32Z</time></trkpt><trkpt lat="41.972610159093755" lon="12.695279071367436"><ele>100.0</ele><time>2026-04-09T13:45:33Z</time></trkpt><trkpt lat="41.97271040819099" lon="12.695522663135383"><ele>100.0</ele><time>2026-04-09T13:45:34Z</time></trkpt><trkpt lat="41.972816821269646" lon="12.695782236476722"><ele>100.0</ele><time>2026-04-09T13:45:35Z</time></trkpt><trkpt lat="41.972906008345866" lon="12.695989698167114"><ele>100.0</ele><time>2026-04-09T13:45:36Z</time></trkpt><trkpt lat="41.973014474563385" lon="12.696228868842306"><ele>100.0</ele><time>2026-04-09T13:45:37Z</time></trkpt><trkpt lat="41.973098422530335" lon="12.696444874660715"><ele>100.0</ele><time>2026-04-09T13:45:38Z</time></trkpt><trkpt lat="41.97317621722316" lon="12.6966353525557"><ele>100.0</ele><time>2026-04-09T13:45:39Z</time></trkpt><trkpt lat="41.97325067131137" lon="12.696817356586555"><ele>100.0</ele><time>2026-04-09T13:45:40Z</time></trkpt><trkpt lat="41.973319236851786" lon="12.696981597691158"><ele>100.5</ele><time>2026-04-09T13:45:41Z</time></trkpt><trkpt lat="41.9733843910284" lon="12.697148179828009"><ele>101.0</ele><time>2026-04-09T13:45:42Z</time></trkpt><trkpt lat="41.97344854842191" lon="12.697310401328725"><ele>101.5</ele><time>2026-04-09T13:45:43Z</time></trkpt><trkpt lat="41.97350185416926" lon="12.697464511996625"><ele>102.0</ele><time>2026-04-09T13:45:44Z</time></trkpt><trkpt lat="41.97354537584373" lon="12.697621538725842"><ele>101.75</ele><time>2026-04-09T13:45:45Z</time></trkpt><trkpt lat="41.97358578926958" lon="12.697784013910722"><ele>101.5</ele><time>2026-04-09T13:45:46Z</time></trkpt><trkpt lat="41.97362552649307" lon="12.69795838158576"><ele>101.25</ele><time>2026-04-09T13:45:47Z</time></trkpt><trkpt lat="41.973667088080745" lon="12.698157364009191"><ele>101.0</ele><time>2026-04-09T13:45:48Z</time></trkpt><trkpt lat="41.97370987935444" lon="12.698383151291756"><ele>100.0</ele><time>2026-04-09T13:45:49Z</time></trkpt><trkpt lat="41.97376217836705" lon="12.698666908856795"><ele>99.0</ele><time>2026-04-09T13:45:50Z</time></trkpt><trkpt lat="41.97381454421975" lon="12.698943945126759"><ele>98.0</ele><time>2026-04-09T13:45:51Z</time></trkpt><trkpt lat="41.97386101200905" lon="12.699176155034571"><ele>98.0</ele><time>2026-04-09T13:45:52Z</time></trkpt><trkpt lat="41.973911188403726" lon="12.699403081089322"><ele>98.0</ele><time>2026-04-09T13:45:53Z</time></trkpt><trkpt lat="41.97396525756154" lon="12.699613238759369"><ele>98.0</ele><time>2026-04-09T13:45:54Z</time></trkpt><trkpt lat="41.97402972957468" lon="12.699826602222878"><ele>98.25</ele><time>2026-04-09T13:45:55Z</time></trkpt><trkpt lat="41.97409911829839" lon="12.70001855692177"><ele>98.5</ele><time>2026-04-09T13:45:56Z</time></trkpt><trkpt lat="41.974177416890235" lon="12.700194476063206"><ele>98.75</ele><time>2026-04-09T13:45:57Z</time></trkpt><trkpt lat="41.97425306396977" lon="12.700343797135401"><ele>99.0</ele><time>2026-04-09T13:45:58Z</time></trkpt><trkpt lat="41.97432634125767" lon="12.70048005268327"><ele>99.0</ele><time>2026-04-09T13:45:59Z</time></trkpt><trkpt lat="41.97439808285547" lon="12.700606497624515"><ele>99.0</ele><time>2026-04-09T13:46:00Z</time></trkpt><trkpt lat="41.97446511317063" lon="12.700726465969469"><ele>99.0</ele><time>2026-04-09T13:46:01Z</time></trkpt><trkpt lat="41.97453155242303" lon="12.700838869088146"><ele>99.0</ele><time>2026-04-09T13:46:02Z</time></trkpt><trkpt lat="41.974593564460214" lon="12.700940545632413"><ele>99.0</ele><time>2026-04-09T13:46:03Z</time></trkpt><trkpt lat="41.97465184853223" lon="12.701044976913742"><ele>99.0</ele><time>2026-04-09T13:46:04Z</time></trkpt><trkpt lat="41.97471619741696" lon="12.701149919230923"><ele>99.0</ele><time>2026-04-09T13:46:05Z</time></trkpt><trkpt lat="41.97477060955983" lon="12.701260253268725"><ele>99.0</ele><time>2026-04-09T13:46:06Z</time></trkpt><trkpt lat="41.974824677772155" lon="12.701370926685032"><ele>99.0</ele><time>2026-04-09T13:46:07Z</time></trkpt><trkpt lat="41.974874969139435" lon="12.701483354306015"><ele>99.0</ele><time>2026-04-09T13:46:08Z</time></trkpt><trkpt lat="41.974925145551836" lon="12.701595182357178"><ele>99.0</ele><time>2026-04-09T13:46:09Z</time></trkpt><trkpt lat="41.97497324344897" lon="12.701710366156492"><ele>99.0</ele><time>2026-04-09T13:46:10Z</time></trkpt><trkpt lat="41.97502491253434" lon="12.70183027803396"><ele>99.0</ele><time>2026-04-09T13:46:11Z</time></trkpt><trkpt lat="41.975077957923574" lon="12.701952387003677"><ele>99.0</ele><time>2026-04-09T13:46:12Z</time></trkpt><trkpt lat="41.975129574276096" lon="12.702072372234863"><ele>99.0</ele><time>2026-04-09T13:46:13Z</time></trkpt><trkpt lat="41.97517996004282" lon="12.702186985970672"><ele>99.4</ele><time>2026-04-09T13:46:14Z</time></trkpt><trkpt lat="41.97523190599549" lon="12.702303033461739"><ele>99.80000000000001</ele><time>2026-04-09T13:46:15Z</time></trkpt><trkpt lat="41.97528794986478" lon="12.702413947728756"><ele>100.19999999999999</ele><time>2026-04-09T13:46:16.001Z</time></trkpt><trkpt lat="41.9753365617791" lon="12.702536536363725"><ele>100.6</ele><time>2026-04-09T13:46:17.001Z</time></trkpt><trkpt lat="41.97538451358334" lon="12.702659531081316"><ele>101.0</ele><time>2026-04-09T13:46:18.001Z</time></trkpt><trkpt lat="41.97544241150953" lon="12.70277583321443"><ele>101.0</ele><time>2026-04-09T13:46:19.001Z</time></trkpt><trkpt lat="41.97548865905399" lon="12.702900340013288"><ele>101.0</ele><time>2026-04-09T13:46:20.001Z</time></trkpt><trkpt lat="41.975538466122096" lon="12.703021637462376"><ele>101.0</ele><time>2026-04-09T13:46:21.001Z</time></trkpt><trkpt lat="41.97559951407739" lon="12.703139530985878"><ele>101.0</ele><time>2026-04-09T13:46:22.001Z</time></trkpt><trkpt lat="41.97564823777159" lon="12.70326624156985"><ele>101.0</ele><time>2026-04-09T13:46:23.001Z</time></trkpt><trkpt lat="41.97570455665058" lon="12.703384995211268"><ele>101.0</ele><time>2026-04-09T13:46:24.001Z</time></trkpt><trkpt lat="41.97576617308257" lon="12.703500432185834"><ele>101.0</ele><time>2026-04-09T13:46:25.001Z</time></trkpt><trkpt lat="41.97581435829734" lon="12.703624710820842"><ele>101.0</ele><time>2026-04-09T13:46:26.001Z</time></trkpt><trkpt lat="41.975870321224264" lon="12.703744528788832"><ele>101.0</ele><time>2026-04-09T13:46:27.001Z</time></trkpt><trkpt lat="41.975930151972214" lon="12.703869601721127"><ele>101.0</ele><time>2026-04-09T13:46:28.001Z</time></trkpt><trkpt lat="41.97597595439863" lon="12.704008140470949"><ele>102.25</ele><time>2026-04-09T13:46:29.001Z</time></trkpt><trkpt lat="41.97603769695902" lon="12.704143745094495"><ele>103.5</ele><time>2026-04-09T13:46:30.001Z</time></trkpt><trkpt lat="41.97610656206858" lon="12.704269659455303"><ele>104.75</ele><time>2026-04-09T13:46:31.001Z</time></trkpt><trkpt lat="41.976168924954656" lon="12.704412089938927"><ele>106.0</ele><time>2026-04-09T13:46:32.001Z</time></trkpt><trkpt lat="41.97624686825422" lon="12.704537305120935"><ele>104.0</ele><time>2026-04-09T13:46:33.001Z</time></trkpt><trkpt lat="41.97633343756948" lon="12.704653679374557"><ele>102.0</ele><time>2026-04-09T13:46:34.001Z</time></trkpt><trkpt lat="41.976407136314336" lon="12.704774714373013"><ele>100.0</ele><time>2026-04-09T13:46:35.001Z</time></trkpt><trkpt lat="41.97648242598955" lon="12.704876934053818"><ele>98.0</ele><time>2026-04-09T13:46:36.001Z</time></trkpt><trkpt lat="41.976551421924675" lon="12.704957339357735"><ele>96.0</ele><time>2026-04-09T13:46:37.001Z</time></trkpt><trkpt lat="41.976605256231785" lon="12.705023629597619"><ele>96.6</ele><time>2026-04-09T13:46:38.001Z</time></trkpt><trkpt lat="41.976717161939376" lon="12.705152615486513"><ele>97.19999999999999</ele><time>2026-04-09T13:46:40.001Z</time></trkpt><trkpt lat="41.97679861204751" lon="12.70522216474598"><ele>97.80000000000001</ele><time>2026-04-09T13:46:41.001Z</time></trkpt><trkpt lat="41.97687676855405" lon="12.705247081520337"><ele>98.4</ele><time>2026-04-09T13:46:42.001Z</time></trkpt><trkpt lat="41.97694683808151" lon="12.705273855915614"><ele>99.0</ele><time>2026-04-09T13:46:43.001Z</time></trkpt><trkpt lat="41.97701883470762" lon="12.705289849602854"><ele>98.0</ele><time>2026-04-09T13:46:44.001Z</time></trkpt><trkpt lat="41.97709626964932" lon="12.70529398050686"><ele>97.0</ele><time>2026-04-09T13:46:45.001Z</time></trkpt><trkpt lat="41.97717339778188" lon="12.705288354735892"><ele>96.0</ele><time>2026-04-09T13:46:46.001Z</time></trkpt><trkpt lat="41.97725279817066" lon="12.70532082548398"><ele>95.0</ele><time>2026-04-09T13:46:47.001Z</time></trkpt><trkpt lat="41.97733230637545" lon="12.70534983329968"><ele>94.0</ele><time>2026-04-09T13:46:48.001Z</time></trkpt><trkpt lat="41.977409056308225" lon="12.70540969865983"><ele>93.0</ele><time>2026-04-09T13:46:49.001Z</time></trkpt><trkpt lat="41.977490334046074" lon="12.705446369520876"><ele>93.0</ele><time>2026-04-09T13:46:50.001Z</time></trkpt><trkpt lat="41.97756784042643" lon="12.705481411611624"><ele>93.0</ele><time>2026-04-09T13:46:51.001Z</time></trkpt><trkpt lat="41.977647237613844" lon="12.705518663309595"><ele>93.0</ele><time>2026-04-09T13:46:52.001Z</time></trkpt><trkpt lat="41.977713962930444" lon="12.705551527235915"><ele>93.0</ele><time>2026-04-09T13:46:53.001Z</time></trkpt><trkpt lat="41.97778520713215" lon="12.7055646924484"><ele>93.0</ele><time>2026-04-09T13:46:54.001Z</time></trkpt><trkpt lat="41.97788210174068" lon="12.705636686440108"><ele>93.0</ele><time>2026-04-09T13:46:56.001Z</time></trkpt><trkpt lat="41.977962848518175" lon="12.705677583211035"><ele>93.0</ele><time>2026-04-09T13:46:59.001Z</time></trkpt><trkpt lat="41.97802358010349" lon="12.70570834265566"><ele>93.0</ele><time>2026-04-09T13:47:00.001Z</time></trkpt><trkpt lat="41.978124509994025" lon="12.705759122967084"><ele>93.0</ele><time>2026-04-09T13:47:01.001Z</time></trkpt><trkpt lat="41.978226423774444" lon="12.70580801291438"><ele>93.0</ele><time>2026-04-09T13:47:02.001Z</time></trkpt><trkpt lat="41.978316712426235" lon="12.705851326097045"><ele>93.0</ele><time>2026-04-09T13:47:03.001Z</time></trkpt><trkpt lat="41.97840719398346" lon="12.705894731817887"><ele>93.0</ele><time>2026-04-09T13:47:04.001Z</time></trkpt><trkpt lat="41.978489379761406" lon="12.705934841297791"><ele>93.0</ele><time>2026-04-09T13:47:05.001Z</time></trkpt><trkpt lat="41.97858009140171" lon="12.705979320805678"><ele>93.0</ele><time>2026-04-09T13:47:06.001Z</time></trkpt><trkpt lat="41.9786741195896" lon="12.70602847101542"><ele>93.0</ele><time>2026-04-09T13:47:07.001Z</time></trkpt><trkpt lat="41.978761678380344" lon="12.706079776098052"><ele>93.0</ele><time>2026-04-09T13:47:08.001Z</time></trkpt><trkpt lat="41.97883258632821" lon="12.70612936762611"><ele>93.0</ele><time>2026-04-09T13:47:09.001Z</time></trkpt><trkpt lat="41.97889406046852" lon="12.706177311761172"><ele>93.0</ele><time>2026-04-09T13:47:10.001Z</time></trkpt><trkpt lat="41.97896193413785" lon="12.706239995808932"><ele>93.0</ele><time>2026-04-09T13:47:11.001Z</time></trkpt><trkpt lat="41.979037804114576" lon="12.706320367609283"><ele>93.0</ele><time>2026-04-09T13:47:12.001Z</time></trkpt><trkpt lat="41.97912083128317" lon="12.706419489677945"><ele>93.0</ele><time>2026-04-09T13:47:13.001Z</time></trkpt><trkpt lat="41.979219778048375" lon="12.706546467612961"><ele>93.75</ele><time>2026-04-09T13:47:14.001Z</time></trkpt><trkpt lat="41.97932000924825" lon="12.706689192899987"><ele>94.5</ele><time>2026-04-09T13:47:15.001Z</time></trkpt><trkpt lat="41.97940320295904" lon="12.706815072956719"><ele>95.25</ele><time>2026-04-09T13:47:16.001Z</time></trkpt><trkpt lat="41.97948529473362" lon="12.70693710904645"><ele>96.0</ele><time>2026-04-09T13:47:17.001Z</time></trkpt><trkpt lat="41.97956845989209" lon="12.707056680388174"><ele>96.25</ele><time>2026-04-09T13:47:18.001Z</time></trkpt><trkpt lat="41.97966000496653" lon="12.707187695549033"><ele>96.5</ele><time>2026-04-09T13:47:19.001Z</time></trkpt><trkpt lat="41.979743165153046" lon="12.707306447187914"><ele>96.75</ele><time>2026-04-09T13:47:20.001Z</time></trkpt><trkpt lat="41.97982203807037" lon="12.707412662834425"><ele>97.0</ele><time>2026-04-09T13:47:21.001Z</time></trkpt><trkpt lat="41.979904732735356" lon="12.707523881038384"><ele>97.0</ele><time>2026-04-09T13:47:22.001Z</time></trkpt><trkpt lat="41.9799950355265" lon="12.707641198472086"><ele>97.0</ele><time>2026-04-09T13:47:23.001Z</time></trkpt><trkpt lat="41.98007247246229" lon="12.70773727588047"><ele>97.0</ele><time>2026-04-09T13:47:24.001Z</time></trkpt><trkpt lat="41.98014447526289" lon="12.70782100668308"><ele>97.0</ele><time>2026-04-09T13:47:25.001Z</time></trkpt><trkpt lat="41.98020364559807" lon="12.707886796988197"><ele>97.0</ele><time>2026-04-09T13:47:26.001Z</time></trkpt><trkpt lat="41.98028431664928" lon="12.707972157329271"><ele>96.66666666666667</ele><time>2026-04-09T13:47:28Z</time></trkpt><trkpt lat="41.98034589351089" lon="12.708035255077123"><ele>96.33333333333334</ele><time>2026-04-09T13:47:30Z</time></trkpt><trkpt lat="41.98040493731958" lon="12.70809463082749"><ele>96.0</ele><time>2026-04-09T13:47:34Z</time></trkpt><trkpt lat="41.98048510757672" lon="12.708175252002476"><ele>95.66666666666667</ele><time>2026-04-09T13:47:48Z</time></trkpt><trkpt lat="41.98055748742842" lon="12.708247511255285"><ele>95.33333333333334</ele><time>2026-04-09T13:47:49Z</time></trkpt><trkpt lat="41.98064514833341" lon="12.708308510189411"><ele>95.0</ele><time>2026-04-09T13:47:50Z</time></trkpt><trkpt lat="41.98072542878005" lon="12.708395046611743"><ele>95.0</ele><time>2026-04-09T13:47:51Z</time></trkpt><trkpt lat="41.9808193616084" lon="12.70849358664093"><ele>95.0</ele><time>2026-04-09T13:47:52Z</time></trkpt><trkpt lat="41.98091193148483" lon="12.708594675702203"><ele>95.0</ele><time>2026-04-09T13:47:53Z</time></trkpt><trkpt lat="41.98100965813348" lon="12.708697956363544"><ele>95.0</ele><time>2026-04-09T13:47:54Z</time></trkpt><trkpt lat="41.98111699689355" lon="12.708815496817648"><ele>95.0</ele><time>2026-04-09T13:47:55Z</time></trkpt><trkpt lat="41.981221768813" lon="12.708939716244519"><ele>95.0</ele><time>2026-04-09T13:47:56Z</time></trkpt><trkpt lat="41.98130677035971" lon="12.709075778574617"><ele>95.0</ele><time>2026-04-09T13:47:57Z</time></trkpt><trkpt lat="41.981372988860194" lon="12.709237761381972"><ele>95.0</ele><time>2026-04-09T13:47:58Z</time></trkpt><trkpt lat="41.98143180969502" lon="12.709431495934334"><ele>95.33333333333334</ele><time>2026-04-09T13:47:59Z</time></trkpt><trkpt lat="41.98148264444978" lon="12.709639496368627"><ele>95.66666666666667</ele><time>2026-04-09T13:48:00Z</time></trkpt><trkpt lat="41.981519264298164" lon="12.70984577306947"><ele>96.0</ele><time>2026-04-09T13:48:01Z</time></trkpt><trkpt lat="41.981548938892516" lon="12.710077880028894"><ele>96.66666666666666</ele><time>2026-04-09T13:48:02Z</time></trkpt><trkpt lat="41.981560589872814" lon="12.710320398061619"><ele>97.33333333333333</ele><time>2026-04-09T13:48:03Z</time></trkpt><trkpt lat="41.98157670174444" lon="12.710548090160584"><ele>98.0</ele><time>2026-04-09T13:48:04Z</time></trkpt><trkpt lat="41.98159300518551" lon="12.710758004893169"><ele>98.0</ele><time>2026-04-09T13:48:05Z</time></trkpt><trkpt lat="41.981613389032304" lon="12.710975127589832"><ele>98.0</ele><time>2026-04-09T13:48:06Z</time></trkpt><trkpt lat="41.9816498898649" lon="12.711189701828332"><ele>98.0</ele><time>2026-04-09T13:48:07Z</time></trkpt><trkpt lat="41.981700105802624" lon="12.711385208974674"><ele>97.66666666666666</ele><time>2026-04-09T13:48:08Z</time></trkpt><trkpt lat="41.981769264334375" lon="12.71157752834279"><ele>97.33333333333334</ele><time>2026-04-09T13:48:09Z</time></trkpt><trkpt lat="41.98185194146631" lon="12.711761514661289"><ele>97.0</ele><time>2026-04-09T13:48:10Z</time></trkpt><trkpt lat="41.98194751101271" lon="12.711949262814272"><ele>97.0</ele><time>2026-04-09T13:48:11Z</time></trkpt><trkpt lat="41.98206079521278" lon="12.712137831581682"><ele>97.0</ele><time>2026-04-09T13:48:12Z</time></trkpt><trkpt lat="41.982186271955484" lon="12.712314110846801"><ele>97.0</ele><time>2026-04-09T13:48:13Z</time></trkpt><trkpt lat="41.982324445924895" lon="12.7124954184478"><ele>97.0</ele><time>2026-04-09T13:48:14Z</time></trkpt><trkpt lat="41.982454611761234" lon="12.712656589515909"><ele>97.0</ele><time>2026-04-09T13:48:15Z</time></trkpt><trkpt lat="41.98257799340986" lon="12.71280705833722"><ele>97.0</ele><time>2026-04-09T13:48:16Z</time></trkpt><trkpt lat="41.98269718282303" lon="12.712948947218011"><ele>96.0</ele><time>2026-04-09T13:48:17Z</time></trkpt><trkpt lat="41.98281535005142" lon="12.71309518532121"><ele>95.0</ele><time>2026-04-09T13:48:18Z</time></trkpt><trkpt lat="41.98291941284922" lon="12.71324469395823"><ele>94.0</ele><time>2026-04-09T13:48:19Z</time></trkpt><trkpt lat="41.98299432002196" lon="12.7134150245427"><ele>92.75</ele><time>2026-04-09T13:48:20Z</time></trkpt><trkpt lat="41.98305605402122" lon="12.71358861709833"><ele>91.5</ele><time>2026-04-09T13:48:21Z</time></trkpt><trkpt lat="41.983089700935864" lon="12.713773744771203"><ele>90.25</ele><time>2026-04-09T13:48:22Z</time></trkpt><trkpt lat="41.98308883332327" lon="12.71398576113225"><ele>89.0</ele><time>2026-04-09T13:48:23Z</time></trkpt><trkpt lat="41.983104972221405" lon="12.714213016906289"><ele>88.75</ele><time>2026-04-09T13:48:24Z</time></trkpt><trkpt lat="41.98312933822377" lon="12.714430265039674"><ele>88.5</ele><time>2026-04-09T13:48:25Z</time></trkpt><trkpt lat="41.9831458472956" lon="12.714618071540217"><ele>88.25</ele><time>2026-04-09T13:48:26.001Z</time></trkpt><trkpt lat="41.983162961644986" lon="12.714795852547008"><ele>88.0</ele><time>2026-04-09T13:48:27.001Z</time></trkpt><trkpt lat="41.983189664041724" lon="12.714981106159296"><ele>88.0</ele><time>2026-04-09T13:48:28.001Z</time></trkpt><trkpt lat="41.983215214387286" lon="12.715165489721215"><ele>88.0</ele><time>2026-04-09T13:48:29.001Z</time></trkpt><trkpt lat="41.98324935836731" lon="12.715369271825473"><ele>88.0</ele><time>2026-04-09T13:48:30.001Z</time></trkpt><trkpt lat="41.98329779396319" lon="12.715554583958372"><ele>88.0</ele><time>2026-04-09T13:48:31.001Z</time></trkpt><trkpt lat="41.98336377421771" lon="12.71574915377188"><ele>87.66666666666666</ele><time>2026-04-09T13:48:32.001Z</time></trkpt><trkpt lat="41.983443291711694" lon="12.71593135547801"><ele>87.33333333333333</ele><time>2026-04-09T13:48:33.001Z</time></trkpt><trkpt lat="41.98354164179807" lon="12.716113416756263"><ele>87.0</ele><time>2026-04-09T13:48:34.001Z</time></trkpt><trkpt lat="41.983663633940644" lon="12.716314785614516"><ele>87.0</ele><time>2026-04-09T13:48:35.001Z</time></trkpt><trkpt lat="41.98378953554049" lon="12.716507796664187"><ele>87.0</ele><time>2026-04-09T13:48:36.001Z</time></trkpt><trkpt lat="41.983896254705975" lon="12.7166760917278"><ele>87.0</ele><time>2026-04-09T13:48:37.001Z</time></trkpt><trkpt lat="41.98399632580729" lon="12.71683462993604"><ele>87.25</ele><time>2026-04-09T13:48:38.001Z</time></trkpt><trkpt lat="41.984092278312026" lon="12.716983862422774"><ele>87.5</ele><time>2026-04-09T13:48:39.001Z</time></trkpt><trkpt lat="41.98418474541495" lon="12.717127688372704"><ele>87.75</ele><time>2026-04-09T13:48:40.001Z</time></trkpt><trkpt lat="41.98427271569829" lon="12.717266435643396"><ele>88.0</ele><time>2026-04-09T13:48:41.001Z</time></trkpt><trkpt lat="41.98435825974338" lon="12.717406274836069"><ele>88.0</ele><time>2026-04-09T13:48:42.001Z</time></trkpt><trkpt lat="41.98446299801479" lon="12.717562849303206"><ele>88.0</ele><time>2026-04-09T13:48:43.001Z</time></trkpt><trkpt lat="41.984590710208764" lon="12.717746932167767"><ele>88.0</ele><time>2026-04-09T13:48:44.001Z</time></trkpt><trkpt lat="41.98473545439298" lon="12.717997519868234"><ele>88.0</ele><time>2026-04-09T13:48:45.001Z</time></trkpt><trkpt lat="41.98490761671116" lon="12.718264285663203"><ele>88.0</ele><time>2026-04-09T13:48:46.001Z</time></trkpt><trkpt lat="41.98506599916258" lon="12.71850606107266"><ele>87.66666666666666</ele><time>2026-04-09T13:48:47.001Z</time></trkpt><trkpt lat="41.98520301554943" lon="12.718700805351789"><ele>87.33333333333333</ele><time>2026-04-09T13:48:48.001Z</time></trkpt><trkpt lat="41.98532986008521" lon="12.718917715843057"><ele>87.0</ele><time>2026-04-09T13:48:49.001Z</time></trkpt><trkpt lat="41.985453696364345" lon="12.719136916865928"><ele>87.0</ele><time>2026-04-09T13:48:50.001Z</time></trkpt><trkpt lat="41.98552543494478" lon="12.719352416810834"><ele>87.0</ele><time>2026-04-09T13:48:51.001Z</time></trkpt><trkpt lat="41.98561793427957" lon="12.719561475767964"><ele>87.0</ele><time>2026-04-09T13:48:52.001Z</time></trkpt><trkpt lat="41.9856828970235" lon="12.719778045662919"><ele>87.33333333333333</ele><time>2026-04-09T13:48:53.001Z</time></trkpt><trkpt lat="41.98573981636857" lon="12.720012947568865"><ele>87.66666666666666</ele><time>2026-04-09T13:48:54.001Z</time></trkpt><trkpt lat="41.98577631440301" lon="12.72022704170827"><ele>88.0</ele><time>2026-04-09T13:48:55.001Z</time></trkpt><trkpt lat="41.98580077764889" lon="12.720443608206264"><ele>87.5</ele><time>2026-04-09T13:48:56.001Z</time></trkpt><trkpt lat="41.98581167290374" lon="12.720644886691598"><ele>87.0</ele><time>2026-04-09T13:48:57.001Z</time></trkpt><trkpt lat="41.9858105639669" lon="12.720834856945224"><ele>86.5</ele><time>2026-04-09T13:48:58.001Z</time></trkpt><trkpt lat="41.985798735752454" lon="12.721022194148492"><ele>86.0</ele><time>2026-04-09T13:48:59.001Z</time></trkpt><trkpt lat="41.98579002267882" lon="12.721224891393511"><ele>86.0</ele><time>2026-04-09T13:49:00.001Z</time></trkpt><trkpt lat="41.985764023313905" lon="12.721442052492689"><ele>86.0</ele><time>2026-04-09T13:49:01.001Z</time></trkpt><trkpt lat="41.985750019683465" lon="12.72164861016505"><ele>86.0</ele><time>2026-04-09T13:49:02.001Z</time></trkpt><trkpt lat="41.98574727915028" lon="12.721847555167335"><ele>86.0</ele><time>2026-04-09T13:49:03.001Z</time></trkpt><trkpt lat="41.985733289429156" lon="12.722070447569813"><ele>86.0</ele><time>2026-04-09T13:49:04.001Z</time></trkpt><trkpt lat="41.9857002461183" lon="12.72232324638284"><ele>86.0</ele><time>2026-04-09T13:49:05.001Z</time></trkpt><trkpt lat="41.98567717245447" lon="12.722628657161776"><ele>85.66666666666667</ele><time>2026-04-09T13:49:06.001Z</time></trkpt><trkpt lat="41.98566028936613" lon="12.72292220559094"><ele>85.33333333333333</ele><time>2026-04-09T13:49:07.001Z</time></trkpt><trkpt lat="41.98562361405886" lon="12.72317532214125"><ele>85.0</ele><time>2026-04-09T13:49:08.001Z</time></trkpt><trkpt lat="41.98558839611644" lon="12.723418072969848"><ele>84.66666666666666</ele><time>2026-04-09T13:49:09.001Z</time></trkpt><trkpt lat="41.98554827605489" lon="12.723655723932831"><ele>84.33333333333333</ele><time>2026-04-09T13:49:10.001Z</time></trkpt><trkpt lat="41.98550053320869" lon="12.723896666119408"><ele>84.0</ele><time>2026-04-09T13:49:11.001Z</time></trkpt><trkpt lat="41.985448453901" lon="12.724129819165894"><ele>84.0</ele><time>2026-04-09T13:49:12.001Z</time></trkpt><trkpt lat="41.98537324559053" lon="12.724389791795142"><ele>84.0</ele><time>2026-04-09T13:49:13.001Z</time></trkpt><trkpt lat="41.98529181467593" lon="12.724629368004218"><ele>84.0</ele><time>2026-04-09T13:49:14.001Z</time></trkpt><trkpt lat="41.98520831335277" lon="12.724842625242347"><ele>83.33333333333333</ele><time>2026-04-09T13:49:15.001Z</time></trkpt><trkpt lat="41.98511970501674" lon="12.725063295785102"><ele>82.66666666666666</ele><time>2026-04-09T13:49:16.001Z</time></trkpt><trkpt lat="41.985028932024406" lon="12.72531009574429"><ele>82.0</ele><time>2026-04-09T13:49:17.001Z</time></trkpt><trkpt lat="41.9849152541962" lon="12.725583082679922"><ele>80.66666666666666</ele><time>2026-04-09T13:49:18.001Z</time></trkpt><trkpt lat="41.98478147150052" lon="12.725846396307716"><ele>79.33333333333333</ele><time>2026-04-09T13:49:19.001Z</time></trkpt><trkpt lat="41.984652667574686" lon="12.726073179874373"><ele>78.0</ele><time>2026-04-09T13:49:20.001Z</time></trkpt><trkpt lat="41.98453713276341" lon="12.726282977968294"><ele>78.0</ele><time>2026-04-09T13:49:21.001Z</time></trkpt><trkpt lat="41.98443282262656" lon="12.726485298108356"><ele>78.0</ele><time>2026-04-09T13:49:22.001Z</time></trkpt><trkpt lat="41.98432312053991" lon="12.726686107098423"><ele>78.0</ele><time>2026-04-09T13:49:23.001Z</time></trkpt><trkpt lat="41.98421914372476" lon="12.726870476374778"><ele>77.66666666666667</ele><time>2026-04-09T13:49:24.001Z</time></trkpt><trkpt lat="41.98411820275989" lon="12.727051634151758"><ele>77.33333333333334</ele><time>2026-04-09T13:49:25.001Z</time></trkpt><trkpt lat="41.98402535296009" lon="12.727226680651857"><ele>77.0</ele><time>2026-04-09T13:49:26.001Z</time></trkpt><trkpt lat="41.98393318284438" lon="12.727389878473"><ele>77.0</ele><time>2026-04-09T13:49:27.001Z</time></trkpt><trkpt lat="41.983846313239134" lon="12.727545163332726"><ele>77.0</ele><time>2026-04-09T13:49:28.001Z</time></trkpt><trkpt lat="41.983762359114635" lon="12.727697371844682"><ele>77.0</ele><time>2026-04-09T13:49:29.001Z</time></trkpt><trkpt lat="41.98367550508387" lon="12.727853010489804"><ele>77.0</ele><time>2026-04-09T13:49:30.001Z</time></trkpt><trkpt lat="41.98358314365803" lon="12.728008762056348"><ele>77.0</ele><time>2026-04-09T13:49:31.001Z</time></trkpt><trkpt lat="41.98349568316526" lon="12.728167881111016"><ele>77.0</ele><time>2026-04-09T13:49:32.001Z</time></trkpt><trkpt lat="41.983414933898715" lon="12.728344394072975"><ele>77.0</ele><time>2026-04-09T13:49:33.001Z</time></trkpt><trkpt lat="41.983331921585894" lon="12.72852106553883"><ele>76.75</ele><time>2026-04-09T13:49:34Z</time></trkpt><trkpt lat="41.98324121133569" lon="12.728687736084593"><ele>76.5</ele><time>2026-04-09T13:49:35Z</time></trkpt><trkpt lat="41.983157952050135" lon="12.728847588580557"><ele>76.25</ele><time>2026-04-09T13:49:36Z</time></trkpt><trkpt lat="41.98308544613612" lon="12.729000707832855"><ele>76.0</ele><time>2026-04-09T13:49:37Z</time></trkpt><trkpt lat="41.98301701735582" lon="12.729158989320426"><ele>76.0</ele><time>2026-04-09T13:49:38Z</time></trkpt><trkpt lat="41.982948116290366" lon="12.729308331568282"><ele>76.0</ele><time>2026-04-09T13:49:39Z</time></trkpt><trkpt lat="41.98287106364538" lon="12.729437941134897"><ele>76.0</ele><time>2026-04-09T13:49:40Z</time></trkpt><trkpt lat="41.98283958780451" lon="12.729634398337211"><ele>76.0</ele><time>2026-04-09T13:49:41Z</time></trkpt><trkpt lat="41.98279617156255" lon="12.72970875674824"><ele>76.5</ele><time>2026-04-09T13:49:42Z</time></trkpt><trkpt lat="41.98270280599577" lon="12.729820658989889"><ele>77.0</ele><time>2026-04-09T13:49:43Z</time></trkpt><trkpt lat="41.98260820927484" lon="12.729944321265565"><ele>77.5</ele><time>2026-04-09T13:49:44Z</time></trkpt><trkpt lat="41.98253392960788" lon="12.730065118423854"><ele>78.0</ele><time>2026-04-09T13:49:45Z</time></trkpt><trkpt lat="41.98242481652806" lon="12.730200506343971"><ele>77.5</ele><time>2026-04-09T13:49:46Z</time></trkpt><trkpt lat="41.98235203415768" lon="12.7303573488581"><ele>77.0</ele><time>2026-04-09T13:49:47Z</time></trkpt><trkpt lat="41.98231862694173" lon="12.73052229225279"><ele>76.5</ele><time>2026-04-09T13:49:48Z</time></trkpt><trkpt lat="41.98231032949767" lon="12.730691016537238"><ele>76.0</ele><time>2026-04-09T13:49:49Z</time></trkpt><trkpt lat="41.982347553384784" lon="12.730859902242912"><ele>76.0</ele><time>2026-04-09T13:49:50Z</time></trkpt><trkpt lat="41.98236576663003" lon="12.731018322187847"><ele>76.0</ele><time>2026-04-09T13:49:51Z</time></trkpt><trkpt lat="41.9824087783686" lon="12.731178473505015"><ele>76.0</ele><time>2026-04-09T13:49:52Z</time></trkpt><trkpt lat="41.982434503826134" lon="12.731323597644515"><ele>76.0</ele><time>2026-04-09T13:49:53Z</time></trkpt><trkpt lat="41.98247015606824" lon="12.731461671088544"><ele>75.66666666666666</ele><time>2026-04-09T13:49:54Z</time></trkpt><trkpt lat="41.98244186552305" lon="12.731639907163917"><ele>75.33333333333333</ele><time>2026-04-09T13:49:55Z</time></trkpt><trkpt lat="41.982429029517576" lon="12.73183757571725"><ele>75.0</ele><time>2026-04-09T13:49:56Z</time></trkpt><trkpt lat="41.98240704924119" lon="12.732095013713161"><ele>75.0</ele><time>2026-04-09T13:49:57Z</time></trkpt><trkpt lat="41.98238801759907" lon="12.732351708759733"><ele>75.0</ele><time>2026-04-09T13:49:58Z</time></trkpt><trkpt lat="41.982371645563205" lon="12.732563308939586"><ele>75.0</ele><time>2026-04-09T13:49:59Z</time></trkpt><trkpt lat="41.98235667954816" lon="12.732750980111433"><ele>75.0</ele><time>2026-04-09T13:50:00Z</time></trkpt><trkpt lat="41.98234253973874" lon="12.73297925300111"><ele>75.0</ele><time>2026-04-09T13:50:01Z</time></trkpt><trkpt lat="41.982321999615735" lon="12.733254966420615"><ele>75.0</ele><time>2026-04-09T13:50:02Z</time></trkpt><trkpt lat="41.98229926605073" lon="12.733509362538658"><ele>74.33333333333333</ele><time>2026-04-09T13:50:03Z</time></trkpt><trkpt lat="41.9822740398574" lon="12.733819004887753"><ele>73.66666666666666</ele><time>2026-04-09T13:50:04Z</time></trkpt><trkpt lat="41.98224246668651" lon="12.734086356295133"><ele>73.0</ele><time>2026-04-09T13:50:05Z</time></trkpt><trkpt lat="41.98220524718273" lon="12.734318602838567"><ele>74.0</ele><time>2026-04-09T13:50:06Z</time></trkpt><trkpt lat="41.98216772402534" lon="12.734534230547936"><ele>75.0</ele><time>2026-04-09T13:50:07Z</time></trkpt><trkpt lat="41.98212507805798" lon="12.73473496843597"><ele>76.0</ele><time>2026-04-09T13:50:08Z</time></trkpt><trkpt lat="41.98208187622206" lon="12.734918426782064"><ele>76.0</ele><time>2026-04-09T13:50:09Z</time></trkpt><trkpt lat="41.982036666299564" lon="12.735102533018342"><ele>76.0</ele><time>2026-04-09T13:50:10Z</time></trkpt><trkpt lat="41.981986390541806" lon="12.735298576161764"><ele>76.0</ele><time>2026-04-09T13:50:11Z</time></trkpt><trkpt lat="41.98192462605788" lon="12.735503138216613"><ele>76.0</ele><time>2026-04-09T13:50:12Z</time></trkpt><trkpt lat="41.98186126765562" lon="12.735688932913877"><ele>76.0</ele><time>2026-04-09T13:50:13Z</time></trkpt><trkpt lat="41.98179646321409" lon="12.735865701066048"><ele>76.0</ele><time>2026-04-09T13:50:14Z</time></trkpt><trkpt lat="41.98172889287264" lon="12.736031183544174"><ele>76.0</ele><time>2026-04-09T13:50:15Z</time></trkpt><trkpt lat="41.98165936144111" lon="12.736188593411043"><ele>75.5</ele><time>2026-04-09T13:50:16Z</time></trkpt><trkpt lat="41.98158559399315" lon="12.736346021439292"><ele>75.0</ele><time>2026-04-09T13:50:17Z</time></trkpt><trkpt lat="41.981507001772904" lon="12.736505655101844"><ele>74.5</ele><time>2026-04-09T13:50:18Z</time></trkpt><trkpt lat="41.98142184911308" lon="12.736668798658268"><ele>74.0</ele><time>2026-04-09T13:50:19Z</time></trkpt><trkpt lat="41.981328730445526" lon="12.736842263722878"><ele>74.0</ele><time>2026-04-09T13:50:20Z</time></trkpt><trkpt lat="41.98122880108424" lon="12.737013402518784"><ele>74.0</ele><time>2026-04-09T13:50:21Z</time></trkpt><trkpt lat="41.98112865090951" lon="12.737185565202203"><ele>74.0</ele><time>2026-04-09T13:50:22Z</time></trkpt><trkpt lat="41.981023034799435" lon="12.737361338498609"><ele>74.0</ele><time>2026-04-09T13:50:23Z</time></trkpt><trkpt lat="41.980885374734086" lon="12.737572127682355"><ele>74.0</ele><time>2026-04-09T13:50:24Z</time></trkpt><trkpt lat="41.980717759023506" lon="12.737817814956701"><ele>73.5</ele><time>2026-04-09T13:50:25Z</time></trkpt><trkpt lat="41.98052106654192" lon="12.738092069207813"><ele>73.0</ele><time>2026-04-09T13:50:26Z</time></trkpt><trkpt lat="41.980313136657465" lon="12.738380315081718"><ele>72.5</ele><time>2026-04-09T13:50:27Z</time></trkpt><trkpt lat="41.980131181839866" lon="12.738653883594827"><ele>72.0</ele><time>2026-04-09T13:50:28Z</time></trkpt><trkpt lat="41.97995667818026" lon="12.738903291711654"><ele>72.0</ele><time>2026-04-09T13:50:29Z</time></trkpt><trkpt lat="41.97978794028609" lon="12.739123950063673"><ele>72.0</ele><time>2026-04-09T13:50:30Z</time></trkpt><trkpt lat="41.97963509597249" lon="12.739333145195161"><ele>72.33333333333333</ele><time>2026-04-09T13:50:31Z</time></trkpt><trkpt lat="41.97949320418709" lon="12.739533304396858"><ele>72.66666666666666</ele><time>2026-04-09T13:50:32Z</time></trkpt><trkpt lat="41.97935968800854" lon="12.739722346634021"><ele>73.0</ele><time>2026-04-09T13:50:33Z</time></trkpt><trkpt lat="41.97922473737634" lon="12.739911352517634"><ele>73.0</ele><time>2026-04-09T13:50:34Z</time></trkpt><trkpt lat="41.97909612635826" lon="12.740103372447784"><ele>73.0</ele><time>2026-04-09T13:50:35Z</time></trkpt><trkpt lat="41.978979340141876" lon="12.740285533533845"><ele>73.0</ele><time>2026-04-09T13:50:36Z</time></trkpt><trkpt lat="41.97886917591932" lon="12.74046753008937"><ele>73.0</ele><time>2026-04-09T13:50:37Z</time></trkpt><trkpt lat="41.9787590998239" lon="12.74066805336735"><ele>73.0</ele><time>2026-04-09T13:50:38.001Z</time></trkpt><trkpt lat="41.978665750615995" lon="12.740857150005182"><ele>73.0</ele><time>2026-04-09T13:50:39.001Z</time></trkpt><trkpt lat="41.978579979809815" lon="12.741055392830162"><ele>71.66666666666666</ele><time>2026-04-09T13:50:40.001Z</time></trkpt><trkpt lat="41.97850571799695" lon="12.741251090506827"><ele>70.33333333333333</ele><time>2026-04-09T13:50:41.001Z</time></trkpt><trkpt lat="41.978439697764586" lon="12.741452340104228"><ele>69.0</ele><time>2026-04-09T13:50:42.001Z</time></trkpt><trkpt lat="41.978371396370164" lon="12.741677846935046"><ele>68.0</ele><time>2026-04-09T13:50:43.001Z</time></trkpt><trkpt lat="41.97831391436937" lon="12.741894923463695"><ele>67.0</ele><time>2026-04-09T13:50:44.001Z</time></trkpt><trkpt lat="41.97826351272204" lon="12.742102363751036"><ele>66.0</ele><time>2026-04-09T13:50:45.001Z</time></trkpt><trkpt lat="41.978210059849204" lon="12.74231612811942"><ele>66.0</ele><time>2026-04-09T13:50:46.001Z</time></trkpt><trkpt lat="41.978155637234615" lon="12.74254033356033"><ele>66.0</ele><time>2026-04-09T13:50:47.001Z</time></trkpt><trkpt lat="41.978096017160425" lon="12.742789719197267"><ele>66.0</ele><time>2026-04-09T13:50:48.001Z</time></trkpt><trkpt lat="41.978026291233434" lon="12.743076104212031"><ele>66.0</ele><time>2026-04-09T13:50:49.001Z</time></trkpt><trkpt lat="41.97794382116983" lon="12.74336470230508"><ele>66.0</ele><time>2026-04-09T13:50:50.001Z</time></trkpt><trkpt lat="41.97786851744654" lon="12.743619507399046"><ele>66.0</ele><time>2026-04-09T13:50:51.001Z</time></trkpt><trkpt lat="41.977809982025946" lon="12.743857950438462"><ele>67.33333333333333</ele><time>2026-04-09T13:50:52.001Z</time></trkpt><trkpt lat="41.97775133957593" lon="12.74408269943149"><ele>68.66666666666666</ele><time>2026-04-09T13:50:53.001Z</time></trkpt><trkpt lat="41.97769354409254" lon="12.744287170946631"><ele>70.0</ele><time>2026-04-09T13:50:54.001Z</time></trkpt><trkpt lat="41.97763915529249" lon="12.744493130633735"><ele>70.33333333333333</ele><time>2026-04-09T13:50:55.001Z</time></trkpt><trkpt lat="41.97758936327597" lon="12.744686656574611"><ele>70.66666666666667</ele><time>2026-04-09T13:50:56.001Z</time></trkpt><trkpt lat="41.97754095925432" lon="12.744879979807633"><ele>71.0</ele><time>2026-04-09T13:50:57.001Z</time></trkpt><trkpt lat="41.977495445701386" lon="12.745070804843483"><ele>71.66666666666667</ele><time>2026-04-09T13:50:58.001Z</time></trkpt><trkpt lat="41.97744828007438" lon="12.745265278149292"><ele>72.33333333333333</ele><time>2026-04-09T13:50:59.001Z</time></trkpt><trkpt lat="41.9774016321663" lon="12.745466471137544"><ele>73.0</ele><time>2026-04-09T13:51:00.001Z</time></trkpt><trkpt lat="41.9773691342517" lon="12.745666553700925"><ele>73.0</ele><time>2026-04-09T13:51:01.001Z</time></trkpt><trkpt lat="41.977353200822726" lon="12.74587775599711"><ele>73.0</ele><time>2026-04-09T13:51:02.001Z</time></trkpt><trkpt lat="41.97733738863975" lon="12.746099334067928"><ele>73.0</ele><time>2026-04-09T13:51:03.001Z</time></trkpt><trkpt lat="41.97733849131085" lon="12.746303748774503"><ele>72.33333333333333</ele><time>2026-04-09T13:51:04.001Z</time></trkpt><trkpt lat="41.97735161464656" lon="12.746506736884292"><ele>71.66666666666667</ele><time>2026-04-09T13:51:05.001Z</time></trkpt><trkpt lat="41.97737346971683" lon="12.746722649512732"><ele>71.0</ele><time>2026-04-09T13:51:06.001Z</time></trkpt><trkpt lat="41.977403688563804" lon="12.74692193031885"><ele>70.5</ele><time>2026-04-09T13:51:07.001Z</time></trkpt><trkpt lat="41.97743536212639" lon="12.747096420073063"><ele>70.0</ele><time>2026-04-09T13:51:08.001Z</time></trkpt><trkpt lat="41.977461348035746" lon="12.747269111595365"><ele>69.5</ele><time>2026-04-09T13:51:09.001Z</time></trkpt><trkpt lat="41.97747993761071" lon="12.747437050055979"><ele>69.0</ele><time>2026-04-09T13:51:10.001Z</time></trkpt><trkpt lat="41.97749717290877" lon="12.747606218433015"><ele>69.25</ele><time>2026-04-09T13:51:11.001Z</time></trkpt><trkpt lat="41.97751659143139" lon="12.747786967438994"><ele>69.5</ele><time>2026-04-09T13:51:12.001Z</time></trkpt><trkpt lat="41.977531893247225" lon="12.747970462378115"><ele>69.75</ele><time>2026-04-09T13:51:13.001Z</time></trkpt><trkpt lat="41.977535266199226" lon="12.74815244153459"><ele>70.0</ele><time>2026-04-09T13:51:14.001Z</time></trkpt><trkpt lat="41.977527096460086" lon="12.748324202012938"><ele>70.0</ele><time>2026-04-09T13:51:15.001Z</time></trkpt><trkpt lat="41.977518639095464" lon="12.748485304629208"><ele>70.0</ele><time>2026-04-09T13:51:16.001Z</time></trkpt><trkpt lat="41.977501569818216" lon="12.748645123956825"><ele>70.0</ele><time>2026-04-09T13:51:17.001Z</time></trkpt><trkpt lat="41.977476958602715" lon="12.748808077703012"><ele>70.0</ele><time>2026-04-09T13:51:18.001Z</time></trkpt><trkpt lat="41.97745250291116" lon="12.748955900244002"><ele>70.2</ele><time>2026-04-09T13:51:19.001Z</time></trkpt><trkpt lat="41.97742841902171" lon="12.749095103636103"><ele>70.4</ele><time>2026-04-09T13:51:20.001Z</time></trkpt><trkpt lat="41.977403084036744" lon="12.749222651644947"><ele>70.6</ele><time>2026-04-09T13:51:21.001Z</time></trkpt><trkpt lat="41.97738021678936" lon="12.749344544676056"><ele>70.8</ele><time>2026-04-09T13:51:22.001Z</time></trkpt><trkpt lat="41.97735912287185" lon="12.749467956495362"><ele>71.0</ele><time>2026-04-09T13:51:23.001Z</time></trkpt><trkpt lat="41.97733978378141" lon="12.749590688563686"><ele>71.39999999999999</ele><time>2026-04-09T13:51:24.001Z</time></trkpt><trkpt lat="41.97731965674878" lon="12.749694205060315"><ele>71.8</ele><time>2026-04-09T13:51:25.001Z</time></trkpt><trkpt lat="41.9772885393148" lon="12.749845251950997"><ele>72.19999999999999</ele><time>2026-04-09T13:51:27.001Z</time></trkpt><trkpt lat="41.97726845640397" lon="12.74994460729703"><ele>72.6</ele><time>2026-04-09T13:51:29.001Z</time></trkpt><trkpt lat="41.97725432110891" lon="12.750054491164258"><ele>73.0</ele><time>2026-04-09T13:51:32.001Z</time></trkpt><trkpt lat="41.9772137927605" lon="12.75018177471728"><ele>72.8</ele><time>2026-04-09T13:51:34.001Z</time></trkpt><trkpt lat="41.97715696811425" lon="12.750283359379544"><ele>72.6</ele><time>2026-04-09T13:51:36.001Z</time></trkpt><trkpt lat="41.977085482856694" lon="12.750407607996797"><ele>72.4</ele><time>2026-04-09T13:51:38.001Z</time></trkpt><trkpt lat="41.97702723394686" lon="12.750502023517729"><ele>72.2</ele><time>2026-04-09T13:51:39.001Z</time></trkpt><trkpt lat="41.97695702403006" lon="12.750612744529537"><ele>72.0</ele><time>2026-04-09T13:51:40Z</time></trkpt><trkpt lat="41.97689195282824" lon="12.750699948335663"><ele>72.0</ele><time>2026-04-09T13:51:41Z</time></trkpt><trkpt lat="41.97679907921822" lon="12.750796492835748"><ele>72.0</ele><time>2026-04-09T13:51:42Z</time></trkpt><trkpt lat="41.97667231414502" lon="12.750896987326165"><ele>72.0</ele><time>2026-04-09T13:51:43Z</time></trkpt><trkpt lat="41.976527048988245" lon="12.75098556344493"><ele>72.0</ele><time>2026-04-09T13:51:44Z</time></trkpt><trkpt lat="41.97641917935891" lon="12.751046636770685"><ele>72.4</ele><time>2026-04-09T13:51:45Z</time></trkpt><trkpt lat="41.97631696500839" lon="12.751106952505063"><ele>72.80000000000001</ele><time>2026-04-09T13:51:46Z</time></trkpt><trkpt lat="41.976218666884826" lon="12.751165862236805"><ele>73.2</ele><time>2026-04-09T13:51:47Z</time></trkpt><trkpt lat="41.976136748191216" lon="12.751205600749284"><ele>73.60000000000001</ele><time>2026-04-09T13:51:48Z</time></trkpt><trkpt lat="41.97603388522044" lon="12.75124654417851"><ele>74.0</ele><time>2026-04-09T13:51:49Z</time></trkpt><trkpt lat="41.975952939313714" lon="12.751282348302006"><ele>74.0</ele><time>2026-04-09T13:51:50Z</time></trkpt><trkpt lat="41.97584870094644" lon="12.751328569043485"><ele>74.0</ele><time>2026-04-09T13:51:51Z</time></trkpt><trkpt lat="41.9757294294183" lon="12.751382757415657"><ele>74.0</ele><time>2026-04-09T13:51:52Z</time></trkpt><trkpt lat="41.975614131023505" lon="12.751435103618206"><ele>74.0</ele><time>2026-04-09T13:51:53Z</time></trkpt><trkpt lat="41.975506384573634" lon="12.751479760411396"><ele>74.0</ele><time>2026-04-09T13:51:54Z</time></trkpt><trkpt lat="41.97538429843865" lon="12.751527881156536"><ele>74.0</ele><time>2026-04-09T13:51:55Z</time></trkpt><trkpt lat="41.97525390351452" lon="12.751583711144958"><ele>74.0</ele><time>2026-04-09T13:51:56Z</time></trkpt><trkpt lat="41.97512972258888" lon="12.751634611969548"><ele>74.0</ele><time>2026-04-09T13:51:57Z</time></trkpt><trkpt lat="41.9750017800695" lon="12.75168928759124"><ele>74.25</ele><time>2026-04-09T13:51:58Z</time></trkpt><trkpt lat="41.97486721248292" lon="12.751749949111343"><ele>74.5</ele><time>2026-04-09T13:51:59Z</time></trkpt><trkpt lat="41.974732922480015" lon="12.751806769570152"><ele>74.75</ele><time>2026-04-09T13:52:00Z</time></trkpt><trkpt lat="41.97459259279253" lon="12.751864930589726"><ele>75.0</ele><time>2026-04-09T13:52:01Z</time></trkpt><trkpt lat="41.974454109270994" lon="12.751925359234267"><ele>75.0</ele><time>2026-04-09T13:52:02Z</time></trkpt><trkpt lat="41.974311857655714" lon="12.751982598185656"><ele>75.0</ele><time>2026-04-09T13:52:03Z</time></trkpt><trkpt lat="41.97417117528217" lon="12.752042610355725"><ele>75.0</ele><time>2026-04-09T13:52:04Z</time></trkpt><trkpt lat="41.97403099274944" lon="12.75210755659189"><ele>75.0</ele><time>2026-04-09T13:52:05Z</time></trkpt><trkpt lat="41.97390047931131" lon="12.752165326344821"><ele>75.25</ele><time>2026-04-09T13:52:06Z</time></trkpt><trkpt lat="41.97377898758045" lon="12.752217082497358"><ele>75.5</ele><time>2026-04-09T13:52:07Z</time></trkpt><trkpt lat="41.97365794372034" lon="12.752264772854012"><ele>75.75</ele><time>2026-04-09T13:52:08Z</time></trkpt><trkpt lat="41.97353387987076" lon="12.752315444795434"><ele>76.0</ele><time>2026-04-09T13:52:09Z</time></trkpt><trkpt lat="41.97341042120271" lon="12.752371352720843"><ele>76.5</ele><time>2026-04-09T13:52:10Z</time></trkpt><trkpt lat="41.973280437681176" lon="12.752422506721267"><ele>77.0</ele><time>2026-04-09T13:52:11Z</time></trkpt><trkpt lat="41.97315323526451" lon="12.752473912560752"><ele>77.5</ele><time>2026-04-09T13:52:12Z</time></trkpt><trkpt lat="41.97302628245904" lon="12.752532082851763"><ele>78.0</ele><time>2026-04-09T13:52:13Z</time></trkpt><trkpt lat="41.97291490376179" lon="12.752577747917341"><ele>78.0</ele><time>2026-04-09T13:52:14Z</time></trkpt><trkpt lat="41.97280452244961" lon="12.752620624709468"><ele>78.0</ele><time>2026-04-09T13:52:15Z</time></trkpt><trkpt lat="41.97269382900926" lon="12.752670502965179"><ele>78.0</ele><time>2026-04-09T13:52:16Z</time></trkpt><trkpt lat="41.97258348180839" lon="12.752718677242648"><ele>78.0</ele><time>2026-04-09T13:52:17Z</time></trkpt><trkpt lat="41.97246088543551" lon="12.752768128120309"><ele>78.25</ele><time>2026-04-09T13:52:18Z</time></trkpt><trkpt lat="41.972326799241685" lon="12.75282687398329"><ele>78.5</ele><time>2026-04-09T13:52:19Z</time></trkpt><trkpt lat="41.9721873710599" lon="12.752896165649188"><ele>78.75</ele><time>2026-04-09T13:52:20Z</time></trkpt><trkpt lat="41.972060711005355" lon="12.752954925857543"><ele>79.0</ele><time>2026-04-09T13:52:21Z</time></trkpt><trkpt lat="41.97194155462079" lon="12.753015261636813"><ele>79.0</ele><time>2026-04-09T13:52:22Z</time></trkpt><trkpt lat="41.97183423025411" lon="12.753082448976258"><ele>79.0</ele><time>2026-04-09T13:52:23Z</time></trkpt><trkpt lat="41.9717244000733" lon="12.753127726846255"><ele>79.0</ele><time>2026-04-09T13:52:24Z</time></trkpt><trkpt lat="41.97164303839861" lon="12.75317966520454"><ele>79.0</ele><time>2026-04-09T13:52:25Z</time></trkpt><trkpt lat="41.97154372836045" lon="12.753231596304504"><ele>79.0</ele><time>2026-04-09T13:52:26Z</time></trkpt><trkpt lat="41.971434126760904" lon="12.75329102527339"><ele>78.5</ele><time>2026-04-09T13:52:27Z</time></trkpt><trkpt lat="41.97131239017419" lon="12.753361196834373"><ele>78.0</ele><time>2026-04-09T13:52:28Z</time></trkpt><trkpt lat="41.9712030317831" lon="12.753428583653493"><ele>77.5</ele><time>2026-04-09T13:52:29Z</time></trkpt><trkpt lat="41.97109282894478" lon="12.753499779127033"><ele>77.0</ele><time>2026-04-09T13:52:30Z</time></trkpt><trkpt lat="41.970983028168305" lon="12.753567932886353"><ele>77.0</ele><time>2026-04-09T13:52:31Z</time></trkpt><trkpt lat="41.97087947566187" lon="12.753631481736639"><ele>77.0</ele><time>2026-04-09T13:52:32Z</time></trkpt><trkpt lat="41.97077009313295" lon="12.753703491587212"><ele>77.0</ele><time>2026-04-09T13:52:33Z</time></trkpt><trkpt lat="41.97065867278575" lon="12.753770437241007"><ele>77.0</ele><time>2026-04-09T13:52:34Z</time></trkpt><trkpt lat="41.97056879020712" lon="12.753840519733847"><ele>76.5</ele><time>2026-04-09T13:52:35Z</time></trkpt><trkpt lat="41.97046282900833" lon="12.753913631375914"><ele>76.0</ele><time>2026-04-09T13:52:36Z</time></trkpt><trkpt lat="41.970357416859066" lon="12.753980674499095"><ele>75.5</ele><time>2026-04-09T13:52:37Z</time></trkpt><trkpt lat="41.97025723000229" lon="12.754045295062367"><ele>75.0</ele><time>2026-04-09T13:52:38Z</time></trkpt><trkpt lat="41.9701535721475" lon="12.754115366708158"><ele>75.0</ele><time>2026-04-09T13:52:39Z</time></trkpt><trkpt lat="41.970057956716765" lon="12.754178411469521"><ele>75.0</ele><time>2026-04-09T13:52:40Z</time></trkpt><trkpt lat="41.969967366333236" lon="12.7542361808854"><ele>75.0</ele><time>2026-04-09T13:52:41Z</time></trkpt><trkpt lat="41.96986862556715" lon="12.75430280956529"><ele>75.0</ele><time>2026-04-09T13:52:42Z</time></trkpt><trkpt lat="41.96974901453308" lon="12.754385896900207"><ele>74.5</ele><time>2026-04-09T13:52:43Z</time></trkpt><trkpt lat="41.96962878942395" lon="12.754461489609156"><ele>74.0</ele><time>2026-04-09T13:52:44Z</time></trkpt><trkpt lat="41.96952483461663" lon="12.754528484404055"><ele>73.5</ele><time>2026-04-09T13:52:45Z</time></trkpt><trkpt lat="41.96941966530136" lon="12.754600558699424"><ele>73.0</ele><time>2026-04-09T13:52:46Z</time></trkpt><trkpt lat="41.96930606134725" lon="12.754669937291213"><ele>73.0</ele><time>2026-04-09T13:52:47Z</time></trkpt><trkpt lat="41.96919662885728" lon="12.754733263519126"><ele>73.0</ele><time>2026-04-09T13:52:48Z</time></trkpt><trkpt lat="41.969083491163445" lon="12.754811040047576"><ele>73.0</ele><time>2026-04-09T13:52:49Z</time></trkpt><trkpt lat="41.96897000631205" lon="12.754875686376533"><ele>73.0</ele><time>2026-04-09T13:52:50Z</time></trkpt><trkpt lat="41.96886985764686" lon="12.754934649036995"><ele>73.0</ele><time>2026-04-09T13:52:51Z</time></trkpt><trkpt lat="41.968776387183965" lon="12.755004567629715"><ele>73.0</ele><time>2026-04-09T13:52:52Z</time></trkpt><trkpt lat="41.96867128516174" lon="12.755072867261227"><ele>73.0</ele><time>2026-04-09T13:52:53Z</time></trkpt><trkpt lat="41.96857561317354" lon="12.755128194668387"><ele>73.0</ele><time>2026-04-09T13:52:54Z</time></trkpt><trkpt lat="41.96847519306773" lon="12.755187356108713"><ele>73.0</ele><time>2026-04-09T13:52:55Z</time></trkpt><trkpt lat="41.968366106155564" lon="12.755248250114995"><ele>73.0</ele><time>2026-04-09T13:52:56Z</time></trkpt><trkpt lat="41.968272912591765" lon="12.755276752664496"><ele>73.0</ele><time>2026-04-09T13:52:57Z</time></trkpt><trkpt lat="41.968177784122986" lon="12.755308941601056"><ele>73.0</ele><time>2026-04-09T13:52:58.001Z</time></trkpt><trkpt lat="41.96808032660827" lon="12.755338193113984"><ele>73.0</ele><time>2026-04-09T13:52:59.001Z</time></trkpt><trkpt lat="41.967984141949714" lon="12.755368132837063"><ele>73.0</ele><time>2026-04-09T13:53:00.001Z</time></trkpt><trkpt lat="41.96789901366388" lon="12.75539568886755"><ele>73.0</ele><time>2026-04-09T13:53:01.001Z</time></trkpt><trkpt lat="41.967812820481825" lon="12.755422387264142"><ele>73.0</ele><time>2026-04-09T13:53:02.001Z</time></trkpt><trkpt lat="41.96772886314673" lon="12.755445965461066"><ele>73.0</ele><time>2026-04-09T13:53:03.001Z</time></trkpt><trkpt lat="41.96763100529031" lon="12.755467748480747"><ele>73.0</ele><time>2026-04-09T13:53:04.001Z</time></trkpt><trkpt lat="41.96754929731583" lon="12.755484143136371"><ele>73.0</ele><time>2026-04-09T13:53:05.001Z</time></trkpt><trkpt lat="41.96747312554748" lon="12.755502223423624"><ele>73.0</ele><time>2026-04-09T13:53:06.001Z</time></trkpt><trkpt lat="41.96739936361874" lon="12.75552704142864"><ele>73.16666666666666</ele><time>2026-04-09T13:53:07.001Z</time></trkpt><trkpt lat="41.96732902177931" lon="12.755547229527014"><ele>73.33333333333333</ele><time>2026-04-09T13:53:08.001Z</time></trkpt><trkpt lat="41.96723016418898" lon="12.755572289335044"><ele>73.5</ele><time>2026-04-09T13:53:10.001Z</time></trkpt><trkpt lat="41.96714216328449" lon="12.755591312076035"><ele>73.66666666666667</ele><time>2026-04-09T13:53:12.001Z</time></trkpt><trkpt lat="41.967060293997214" lon="12.755603274617643"><ele>73.83333333333334</ele><time>2026-04-09T13:53:14.001Z</time></trkpt><trkpt lat="41.96695613096118" lon="12.75561907943962"><ele>74.0</ele><time>2026-04-09T13:53:16.001Z</time></trkpt><trkpt lat="41.96688628576367" lon="12.755629364270252"><ele>74.0</ele><time>2026-04-09T13:53:18.001Z</time></trkpt><trkpt lat="41.96679987054314" lon="12.755652763952655"><ele>74.0</ele><time>2026-04-09T13:53:20.001Z</time></trkpt><trkpt lat="41.966705660174135" lon="12.755666053505823"><ele>74.0</ele><time>2026-04-09T13:53:22.001Z</time></trkpt><trkpt lat="41.9666251163921" lon="12.755676342688187"><ele>74.0</ele><time>2026-04-09T13:53:24.001Z</time></trkpt><trkpt lat="41.96651406244969" lon="12.75568587558486"><ele>74.0</ele><time>2026-04-09T13:53:26.001Z</time></trkpt><trkpt lat="41.966384039534425" lon="12.755694867742376"><ele>74.0</ele><time>2026-04-09T13:53:28.001Z</time></trkpt><trkpt lat="41.96630368795903" lon="12.75570345435687"><ele>74.0</ele><time>2026-04-09T13:53:29.001Z</time></trkpt><trkpt lat="41.96623482910883" lon="12.755704461296354"><ele>74.0</ele><time>2026-04-09T13:53:30.001Z</time></trkpt><trkpt lat="41.966169723983185" lon="12.755717222951558"><ele>74.0</ele><time>2026-04-09T13:53:31.001Z</time></trkpt><trkpt lat="41.96609842684997" lon="12.755722039642507"><ele>74.0</ele><time>2026-04-09T13:53:32.001Z</time></trkpt><trkpt lat="41.96602836672573" lon="12.755725507807298"><ele>74.0</ele><time>2026-04-09T13:53:33.001Z</time></trkpt><trkpt lat="41.965921453189665" lon="12.755739575677655"><ele>73.83333333333334</ele><time>2026-04-09T13:53:35.001Z</time></trkpt><trkpt lat="41.96584668173594" lon="12.755752200391184"><ele>73.66666666666667</ele><time>2026-04-09T13:53:37.001Z</time></trkpt><trkpt lat="41.96576993454784" lon="12.755761359697658"><ele>73.5</ele><time>2026-04-09T13:53:39.001Z</time></trkpt><trkpt lat="41.965684400393556" lon="12.755768067558671"><ele>73.33333333333333</ele><time>2026-04-09T13:53:41.001Z</time></trkpt><trkpt lat="41.96559317873916" lon="12.755771468462886"><ele>73.16666666666666</ele><time>2026-04-09T13:53:43.001Z</time></trkpt><trkpt lat="41.96549923340157" lon="12.755784703574042"><ele>73.0</ele><time>2026-04-09T13:53:45.001Z</time></trkpt><trkpt lat="41.96539377949349" lon="12.755793776035249"><ele>73.0</ele><time>2026-04-09T13:53:47Z</time></trkpt><trkpt lat="41.965274051200744" lon="12.755806380084744"><ele>73.0</ele><time>2026-04-09T13:53:49Z</time></trkpt><trkpt lat="41.96520580643208" lon="12.755820740989934"><ele>73.0</ele><time>2026-04-09T13:53:50Z</time></trkpt><trkpt lat="41.96514113785169" lon="12.755833163098837"><ele>73.0</ele><time>2026-04-09T13:53:51Z</time></trkpt><trkpt lat="41.965035888210416" lon="12.755845274704368"><ele>73.0</ele><time>2026-04-09T13:53:53Z</time></trkpt><trkpt lat="41.964941653788905" lon="12.755851822329491"><ele>72.57142857142857</ele><time>2026-04-09T13:53:55Z</time></trkpt><trkpt lat="41.96487591323317" lon="12.755861488525829"><ele>72.14285714285714</ele><time>2026-04-09T13:53:56Z</time></trkpt><trkpt lat="41.96480189902876" lon="12.755862609076317"><ele>71.71428571428572</ele><time>2026-04-09T13:53:57Z</time></trkpt><trkpt lat="41.96473353992029" lon="12.755861783539103"><ele>71.28571428571428</ele><time>2026-04-09T13:53:58Z</time></trkpt><trkpt lat="41.96463894336908" lon="12.755881873038572"><ele>70.85714285714286</ele><time>2026-04-09T13:54:00Z</time></trkpt><trkpt lat="41.96457477393792" lon="12.755889881689217"><ele>70.42857142857143</ele><time>2026-04-09T13:54:02Z</time></trkpt><trkpt lat="41.96450984535868" lon="12.755902795788003"><ele>70.0</ele><time>2026-04-09T13:54:05Z</time></trkpt><trkpt lat="41.964444619886535" lon="12.755920804408504"><ele>70.0</ele><time>2026-04-09T13:54:08Z</time></trkpt><trkpt lat="41.964370238120964" lon="12.755931035600048"><ele>70.0</ele><time>2026-04-09T13:54:12Z</time></trkpt><trkpt lat="41.96419580857778" lon="12.755951673106004"><ele>70.0</ele><time>2026-04-09T13:54:14Z</time></trkpt><trkpt lat="41.96409614691982" lon="12.756001051384207"><ele>70.0</ele><time>2026-04-09T13:54:15Z</time></trkpt><trkpt lat="41.96399471211716" lon="12.756018741875023"><ele>70.16666666666666</ele><time>2026-04-09T13:54:16Z</time></trkpt><trkpt lat="41.96390886887296" lon="12.756044822177627"><ele>70.33333333333333</ele><time>2026-04-09T13:54:17Z</time></trkpt><trkpt lat="41.9638319476147" lon="12.756091235077157"><ele>70.5</ele><time>2026-04-09T13:54:18Z</time></trkpt><trkpt lat="41.96375879000989" lon="12.756129850018732"><ele>70.66666666666667</ele><time>2026-04-09T13:54:19Z</time></trkpt><trkpt lat="41.963683412180586" lon="12.756159114592718"><ele>70.83333333333334</ele><time>2026-04-09T13:54:20Z</time></trkpt><trkpt lat="41.96362125873249" lon="12.75619538757107"><ele>71.0</ele><time>2026-04-09T13:54:21Z</time></trkpt><trkpt lat="41.96355586168343" lon="12.756236492257843"><ele>71.0</ele><time>2026-04-09T13:54:22Z</time></trkpt><trkpt lat="41.96348687680939" lon="12.756278092311366"><ele>71.0</ele><time>2026-04-09T13:54:23Z</time></trkpt><trkpt lat="41.963365806075096" lon="12.756352894687998"><ele>71.0</ele><time>2026-04-09T13:54:25Z</time></trkpt><trkpt lat="41.963275186020624" lon="12.756406589236098"><ele>71.0</ele><time>2026-04-09T13:54:26Z</time></trkpt><trkpt lat="41.96314825742848" lon="12.756488411737674"><ele>71.0</ele><time>2026-04-09T13:54:27Z</time></trkpt><trkpt lat="41.96303279217734" lon="12.756555248733799"><ele>70.39999999999999</ele><time>2026-04-09T13:54:28Z</time></trkpt><trkpt lat="41.96293174550594" lon="12.756599858053098"><ele>69.8</ele><time>2026-04-09T13:54:29Z</time></trkpt><trkpt lat="41.96285145703772" lon="12.756645434293986"><ele>69.19999999999999</ele><time>2026-04-09T13:54:30Z</time></trkpt><trkpt lat="41.96275978351531" lon="12.75670562181113"><ele>68.6</ele><time>2026-04-09T13:54:31Z</time></trkpt><trkpt lat="41.962644952664675" lon="12.75676324663248"><ele>68.0</ele><time>2026-04-09T13:54:32Z</time></trkpt><trkpt lat="41.962560519768964" lon="12.75683181901316"><ele>67.83333333333334</ele><time>2026-04-09T13:54:33Z</time></trkpt><trkpt lat="41.962488641361276" lon="12.756859863905087"><ele>67.66666666666667</ele><time>2026-04-09T13:54:34Z</time></trkpt><trkpt lat="41.96237346322757" lon="12.756910578351993"><ele>67.5</ele><time>2026-04-09T13:54:36Z</time></trkpt><trkpt lat="41.962289815121686" lon="12.756946674354177"><ele>67.33333333333333</ele><time>2026-04-09T13:54:38Z</time></trkpt><trkpt lat="41.96222699496849" lon="12.75697822788164"><ele>67.16666666666666</ele><time>2026-04-09T13:54:41Z</time></trkpt><trkpt lat="41.96214177021534" lon="12.757021606871268"><ele>67.0</ele><time>2026-04-09T13:54:43Z</time></trkpt><trkpt lat="41.962045929620565" lon="12.757100830216642"><ele>67.0</ele><time>2026-04-09T13:54:44Z</time></trkpt><trkpt lat="41.961947855165114" lon="12.757167715250493"><ele>67.0</ele><time>2026-04-09T13:54:45Z</time></trkpt><trkpt lat="41.96186930818398" lon="12.75720654483675"><ele>67.0</ele><time>2026-04-09T13:54:46Z</time></trkpt><trkpt lat="41.961807469818176" lon="12.757248414128354"><ele>67.0</ele><time>2026-04-09T13:54:47Z</time></trkpt><trkpt lat="41.96174471672503" lon="12.757284802796406"><ele>67.0</ele><time>2026-04-09T13:54:48Z</time></trkpt><trkpt lat="41.961678484923794" lon="12.757320381533763"><ele>67.0</ele><time>2026-04-09T13:54:49Z</time></trkpt><trkpt lat="41.96161815533596" lon="12.757349086145496"><ele>66.8</ele><time>2026-04-09T13:54:50Z</time></trkpt><trkpt lat="41.96149400058631" lon="12.757405817749309"><ele>66.6</ele><time>2026-04-09T13:54:55Z</time></trkpt><trkpt lat="41.96139514625612" lon="12.75746758543744"><ele>66.39999999999999</ele><time>2026-04-09T13:54:56Z</time></trkpt><trkpt lat="41.961302300108166" lon="12.75752687379464"><ele>66.2</ele><time>2026-04-09T13:54:57Z</time></trkpt><trkpt lat="41.96123160104022" lon="12.757568113394356"><ele>66.0</ele><time>2026-04-09T13:54:58Z</time></trkpt><trkpt lat="41.96117219033102" lon="12.757598542220938"><ele>66.0</ele><time>2026-04-09T13:54:59Z</time></trkpt><trkpt lat="41.96109638839209" lon="12.757624714361484"><ele>66.0</ele><time>2026-04-09T13:55:01Z</time></trkpt><trkpt lat="41.960989767971355" lon="12.757696250021839"><ele>66.0</ele><time>2026-04-09T13:55:03Z</time></trkpt><trkpt lat="41.96089357275487" lon="12.757762825317602"><ele>66.0</ele><time>2026-04-09T13:55:04Z</time></trkpt><trkpt lat="41.960802168960875" lon="12.757812728374164"><ele>66.0</ele><time>2026-04-09T13:55:05Z</time></trkpt><trkpt lat="41.96070950795249" lon="12.75786692506069"><ele>66.0</ele><time>2026-04-09T13:55:06.001Z</time></trkpt><trkpt lat="41.96064538656044" lon="12.757908260009481"><ele>66.0</ele><time>2026-04-09T13:55:07.001Z</time></trkpt><trkpt lat="41.96057821588251" lon="12.757947615080926"><ele>66.0</ele><time>2026-04-09T13:55:08.001Z</time></trkpt><trkpt lat="41.960515015980185" lon="12.757961542914595"><ele>66.0</ele><time>2026-04-09T13:55:09.001Z</time></trkpt><trkpt lat="41.960410278725426" lon="12.758019476438292"><ele>66.0</ele><time>2026-04-09T13:55:11.001Z</time></trkpt><trkpt lat="41.96035999512409" lon="12.758070619423819"><ele>66.0</ele><time>2026-04-09T13:55:12.001Z</time></trkpt><trkpt lat="41.960292858315626" lon="12.75809858118986"><ele>66.0</ele><time>2026-04-09T13:55:13.001Z</time></trkpt><trkpt lat="41.960218374167766" lon="12.758128470679406"><ele>66.0</ele><time>2026-04-09T13:55:14.001Z</time></trkpt><trkpt lat="41.960136264006024" lon="12.758165343905587"><ele>66.0</ele><time>2026-04-09T13:55:15.001Z</time></trkpt><trkpt lat="41.96004410522604" lon="12.758207631277157"><ele>66.0</ele><time>2026-04-09T13:55:16.001Z</time></trkpt><trkpt lat="41.95995592030323" lon="12.758244994633488"><ele>66.0</ele><time>2026-04-09T13:55:17.001Z</time></trkpt><trkpt lat="41.95983790694382" lon="12.75826003778351"><ele>65.6</ele><time>2026-04-09T13:55:18.001Z</time></trkpt><trkpt lat="41.95972946710638" lon="12.758284742009685"><ele>65.19999999999999</ele><time>2026-04-09T13:55:19.001Z</time></trkpt><trkpt lat="41.95962777713318" lon="12.758298319265243"><ele>64.80000000000001</ele><time>2026-04-09T13:55:20.001Z</time></trkpt><trkpt lat="41.95954418640972" lon="12.758309395145577"><ele>64.4</ele><time>2026-04-09T13:55:21.001Z</time></trkpt><trkpt lat="41.95946026070209" lon="12.758306979277785"><ele>64.0</ele><time>2026-04-09T13:55:22.001Z</time></trkpt><trkpt lat="41.95936618329301" lon="12.758309669474947"><ele>63.99999999999999</ele><time>2026-04-09T13:55:23.001Z</time></trkpt><trkpt lat="41.95928401407175" lon="12.75830724801665"><ele>64.0</ele><time>2026-04-09T13:55:24.001Z</time></trkpt><trkpt lat="41.959209143395476" lon="12.758305607504703"><ele>64.0</ele><time>2026-04-09T13:55:25.001Z</time></trkpt><trkpt lat="41.959132893464975" lon="12.758307600624846"><ele>64.0</ele><time>2026-04-09T13:55:26.001Z</time></trkpt><trkpt lat="41.95903783366297" lon="12.758306730560564"><ele>63.99999999999999</ele><time>2026-04-09T13:55:27.001Z</time></trkpt><trkpt lat="41.958927283237024" lon="12.758297804076072"><ele>64.0</ele><time>2026-04-09T13:55:28.001Z</time></trkpt><trkpt lat="41.958831493108" lon="12.758286075572986"><ele>64.16666666666666</ele><time>2026-04-09T13:55:29.001Z</time></trkpt><trkpt lat="41.9587442032474" lon="12.75827664820134"><ele>64.33333333333333</ele><time>2026-04-09T13:55:30.001Z</time></trkpt><trkpt lat="41.958664995511086" lon="12.758265671491957"><ele>64.5</ele><time>2026-04-09T13:55:31.001Z</time></trkpt><trkpt lat="41.95858798826897" lon="12.758254322024545"><ele>64.66666666666667</ele><time>2026-04-09T13:55:32.001Z</time></trkpt><trkpt lat="41.95850379001036" lon="12.75824134381605"><ele>64.83333333333334</ele><time>2026-04-09T13:55:33.001Z</time></trkpt><trkpt lat="41.9584275425443" lon="12.7582079733641"><ele>65.0</ele><time>2026-04-09T13:55:34.001Z</time></trkpt><trkpt lat="41.95834211154626" lon="12.758191471590353"><ele>64.4</ele><time>2026-04-09T13:55:35.001Z</time></trkpt><trkpt lat="41.95826290252137" lon="12.758174505338772"><ele>63.8</ele><time>2026-04-09T13:55:36.001Z</time></trkpt><trkpt lat="41.958181946904546" lon="12.758156507743688"><ele>63.2</ele><time>2026-04-09T13:55:37.001Z</time></trkpt><trkpt lat="41.95808500519547" lon="12.758133902584945"><ele>62.6</ele><time>2026-04-09T13:55:38.001Z</time></trkpt><trkpt lat="41.95796022009168" lon="12.758118544499613"><ele>62.0</ele><time>2026-04-09T13:55:39.001Z</time></trkpt><trkpt lat="41.95786088617724" lon="12.758067360426164"><ele>62.0</ele><time>2026-04-09T13:55:40.001Z</time></trkpt><trkpt lat="41.95777881192675" lon="12.758036821175224"><ele>62.0</ele><time>2026-04-09T13:55:41.001Z</time></trkpt><trkpt lat="41.957700163342885" lon="12.758027838787516"><ele>62.0</ele><time>2026-04-09T13:55:42.001Z</time></trkpt><trkpt lat="41.957630661673555" lon="12.758000914204434"><ele>62.0</ele><time>2026-04-09T13:55:43.001Z</time></trkpt><trkpt lat="41.957537458072736" lon="12.757957795226119"><ele>62.0</ele><time>2026-04-09T13:55:45.001Z</time></trkpt><trkpt lat="41.95743093625439" lon="12.757900261269041"><ele>61.2</ele><time>2026-04-09T13:55:47.001Z</time></trkpt><trkpt lat="41.957372765769975" lon="12.757866807354258"><ele>60.400000000000006</ele><time>2026-04-09T13:55:48.001Z</time></trkpt><trkpt lat="41.957271111988376" lon="12.757811037734397"><ele>59.599999999999994</ele><time>2026-04-09T13:55:50.001Z</time></trkpt><trkpt lat="41.95716860126964" lon="12.7577651639788"><ele>58.8</ele><time>2026-04-09T13:55:52Z</time></trkpt><trkpt lat="41.957083517560946" lon="12.757711549510796"><ele>58.0</ele><time>2026-04-09T13:55:54Z</time></trkpt><trkpt lat="41.956984457490584" lon="12.757659557389651"><ele>57.599999999999994</ele><time>2026-04-09T13:55:56Z</time></trkpt><trkpt lat="41.95688714565603" lon="12.757614631777576"><ele>57.199999999999996</ele><time>2026-04-09T13:55:58Z</time></trkpt><trkpt lat="41.95682022464499" lon="12.757566950346913"><ele>56.8</ele><time>2026-04-09T13:56:00Z</time></trkpt><trkpt lat="41.95676160274637" lon="12.757491366318291"><ele>56.4</ele><time>2026-04-09T13:56:10.999Z</time></trkpt><trkpt lat="41.956703183483484" lon="12.757376687135235"><ele>56.0</ele><time>2026-04-09T13:56:12.999Z</time></trkpt><trkpt lat="41.956662859441664" lon="12.75725674696666"><ele>55.333333333333336</ele><time>2026-04-09T13:56:14.999Z</time></trkpt><trkpt lat="41.956614604068776" lon="12.757149250658708"><ele>54.66666666666667</ele><time>2026-04-09T13:56:16.999Z</time></trkpt><trkpt lat="41.956588208140715" lon="12.757063017370506"><ele>54.0</ele><time>2026-04-09T13:56:17.999Z</time></trkpt><trkpt lat="41.95653864115959" lon="12.75694164832878"><ele>53.33333333333333</ele><time>2026-04-09T13:56:19.999Z</time></trkpt><trkpt lat="41.95645352990395" lon="12.756905687978731"><ele>52.666666666666664</ele><time>2026-04-09T13:56:21.999Z</time></trkpt><trkpt lat="41.95637274837838" lon="12.756950657076942"><ele>52.0</ele><time>2026-04-09T13:56:23.999Z</time></trkpt><trkpt lat="41.95633700695306" lon="12.757067143319448"><ele>52.0</ele><time>2026-04-09T13:56:25.999Z</time></trkpt><trkpt lat="41.95637704823456" lon="12.757187157571646"><ele>52.0</ele><time>2026-04-09T13:56:27.999Z</time></trkpt><trkpt lat="41.95646007312881" lon="12.757284232976726"><ele>52.0</ele><time>2026-04-09T13:56:29.999Z</time></trkpt><trkpt lat="41.956528660307015" lon="12.757393791030179"><ele>52.0</ele><time>2026-04-09T13:56:31.999Z</time></trkpt><trkpt lat="41.95656574668325" lon="12.757467554622117"><ele>52.0</ele><time>2026-04-09T13:56:32.999Z</time></trkpt><trkpt lat="41.95659555050974" lon="12.757559725204977"><ele>52.0</ele><time>2026-04-09T13:56:33.999Z</time></trkpt><trkpt lat="41.956619151283846" lon="12.757658873605463"><ele>52.0</ele><time>2026-04-09T13:56:34.999Z</time></trkpt><trkpt lat="41.956641569881754" lon="12.757771804813013"><ele>52.0</ele><time>2026-04-09T13:56:35.999Z</time></trkpt><trkpt lat="41.95666027710605" lon="12.757873675521228"><ele>52.0</ele><time>2026-04-09T13:56:36.999Z</time></trkpt><trkpt lat="41.95667712991829" lon="12.75800251742053"><ele>52.0</ele><time>2026-04-09T13:56:37.999Z</time></trkpt><trkpt lat="41.95668762939811" lon="12.75816140739896"><ele>54.0</ele><time>2026-04-09T13:56:38.999Z</time></trkpt><trkpt lat="41.956705443746785" lon="12.75836696799947"><ele>56.0</ele><time>2026-04-09T13:56:39.999Z</time></trkpt><trkpt lat="41.956730476527035" lon="12.758605321656136"><ele>58.0</ele><time>2026-04-09T13:56:40.999Z</time></trkpt><trkpt lat="41.95673467466318" lon="12.758853182657587"><ele>59.666666666666664</ele><time>2026-04-09T13:56:41.999Z</time></trkpt><trkpt lat="41.956753214473025" lon="12.759143529426137"><ele>61.33333333333333</ele><time>2026-04-09T13:56:42.999Z</time></trkpt><trkpt lat="41.95677030680395" lon="12.759407071214698"><ele>63.0</ele><time>2026-04-09T13:56:43.999Z</time></trkpt><trkpt lat="41.9567846095259" lon="12.759630047054594"><ele>63.0</ele><time>2026-04-09T13:56:44.999Z</time></trkpt><trkpt lat="41.956793470517844" lon="12.759842844170015"><ele>63.0</ele><time>2026-04-09T13:56:45.999Z</time></trkpt><trkpt lat="41.95680644423007" lon="12.760044050830567"><ele>63.0</ele><time>2026-04-09T13:56:46.999Z</time></trkpt><trkpt lat="41.95681761507955" lon="12.760243200322053"><ele>62.75</ele><time>2026-04-09T13:56:47.999Z</time></trkpt><trkpt lat="41.95682485917785" lon="12.760421534733151"><ele>62.5</ele><time>2026-04-09T13:56:48.999Z</time></trkpt><trkpt lat="41.95682003128822" lon="12.760593931713382"><ele>62.25</ele><time>2026-04-09T13:56:49.999Z</time></trkpt><trkpt lat="41.95681043723706" lon="12.760752812914168"><ele>62.0</ele><time>2026-04-09T13:56:50.999Z</time></trkpt><trkpt lat="41.95679300011487" lon="12.760914525897388"><ele>61.0</ele><time>2026-04-09T13:56:51.999Z</time></trkpt><trkpt lat="41.95676145670118" lon="12.76108680901909"><ele>60.0</ele><time>2026-04-09T13:56:52.999Z</time></trkpt><trkpt lat="41.956717190245136" lon="12.761248877974255"><ele>59.0</ele><time>2026-04-09T13:56:53.999Z</time></trkpt><trkpt lat="41.95667087255613" lon="12.761404352123686"><ele>58.0</ele><time>2026-04-09T13:56:54.999Z</time></trkpt><trkpt lat="41.95660530364457" lon="12.76154765717733"><ele>57.5</ele><time>2026-04-09T13:56:55.999Z</time></trkpt><trkpt lat="41.956542681980025" lon="12.761682311191889"><ele>57.0</ele><time>2026-04-09T13:56:56.999Z</time></trkpt><trkpt lat="41.95648568018768" lon="12.76182167964892"><ele>56.5</ele><time>2026-04-09T13:56:57.999Z</time></trkpt><trkpt lat="41.95641038110038" lon="12.761961918571869"><ele>56.0</ele><time>2026-04-09T13:56:58.999Z</time></trkpt><trkpt lat="41.95633824645171" lon="12.762102918442046"><ele>56.0</ele><time>2026-04-09T13:56:59.999Z</time></trkpt><trkpt lat="41.95626477268663" lon="12.762232494856152"><ele>55.99999999999999</ele><time>2026-04-09T13:57:00.999Z</time></trkpt><trkpt lat="41.95619471393746" lon="12.762368820365031"><ele>55.99999999999999</ele><time>2026-04-09T13:57:01.999Z</time></trkpt><trkpt lat="41.95613961385609" lon="12.762481506666312"><ele>56.0</ele><time>2026-04-09T13:57:02.999Z</time></trkpt><trkpt lat="41.95608113970858" lon="12.762551662327779"><ele>56.0</ele><time>2026-04-09T13:57:03.999Z</time></trkpt><trkpt lat="41.9560550394308" lon="12.76263380460676"><ele>56.16666666666667</ele><time>2026-04-09T13:57:04.999Z</time></trkpt><trkpt lat="41.95601448862575" lon="12.76270249178046"><ele>56.333333333333336</ele><time>2026-04-09T13:57:05.999Z</time></trkpt><trkpt lat="41.95596851335013" lon="12.762774012593123"><ele>56.5</ele><time>2026-04-09T13:57:06.999Z</time></trkpt><trkpt lat="41.95592321156729" lon="12.762853108041819"><ele>56.66666666666667</ele><time>2026-04-09T13:57:07.999Z</time></trkpt><trkpt lat="41.95587438793889" lon="12.76294738650839"><ele>56.833333333333336</ele><time>2026-04-09T13:57:08.999Z</time></trkpt><trkpt lat="41.95582487135602" lon="12.763037427819144"><ele>57.0</ele><time>2026-04-09T13:57:09.999Z</time></trkpt><trkpt lat="41.95577964295922" lon="12.763116754393197"><ele>56.57142857142857</ele><time>2026-04-09T13:57:10.999Z</time></trkpt><trkpt lat="41.95573684736666" lon="12.763200754315095"><ele>56.14285714285714</ele><time>2026-04-09T13:57:11.999Z</time></trkpt><trkpt lat="41.95568810335058" lon="12.763290841398707"><ele>55.71428571428571</ele><time>2026-04-09T13:57:12.999Z</time></trkpt><trkpt lat="41.95564157772482" lon="12.763370195181706"><ele>55.285714285714285</ele><time>2026-04-09T13:57:13.999Z</time></trkpt><trkpt lat="41.95558919131917" lon="12.763446499953178"><ele>54.857142857142854</ele><time>2026-04-09T13:57:14.999Z</time></trkpt><trkpt lat="41.95553386884569" lon="12.763492242701222"><ele>54.42857142857143</ele><time>2026-04-09T13:57:15.999Z</time></trkpt><trkpt lat="41.9554703674293" lon="12.763521974138737"><ele>54.0</ele><time>2026-04-09T13:57:16.999Z</time></trkpt><trkpt lat="41.955399847628975" lon="12.763521140761714"><ele>54.0</ele><time>2026-04-09T13:57:17.999Z</time></trkpt><trkpt lat="41.95533464624538" lon="12.763494180018762"><ele>54.0</ele><time>2026-04-09T13:57:18.999Z</time></trkpt><trkpt lat="41.95526679755295" lon="12.763448646958244"><ele>54.0</ele><time>2026-04-09T13:57:19.999Z</time></trkpt><trkpt lat="41.95520669700557" lon="12.763370128154511"><ele>54.0</ele><time>2026-04-09T13:57:20.999Z</time></trkpt><trkpt lat="41.955148015298285" lon="12.763279357637145"><ele>54.0</ele><time>2026-04-09T13:57:21.999Z</time></trkpt><trkpt lat="41.95508860103969" lon="12.763168094017441"><ele>54.0</ele><time>2026-04-09T13:57:22.999Z</time></trkpt><trkpt lat="41.955005035007325" lon="12.763113608101927"><ele>53.666666666666664</ele><time>2026-04-09T13:57:23.999Z</time></trkpt><trkpt lat="41.954911847355596" lon="12.76306362423419"><ele>53.33333333333333</ele><time>2026-04-09T13:57:24.999Z</time></trkpt><trkpt lat="41.954822843605676" lon="12.763020511880447"><ele>53.0</ele><time>2026-04-09T13:57:25.999Z</time></trkpt><trkpt lat="41.95475185090178" lon="12.762990579970674"><ele>52.666666666666664</ele><time>2026-04-09T13:57:26.999Z</time></trkpt><trkpt lat="41.954677510287134" lon="12.762953671102556"><ele>52.33333333333333</ele><time>2026-04-09T13:57:27.999Z</time></trkpt><trkpt lat="41.95461397057916" lon="12.762904019367218"><ele>52.0</ele><time>2026-04-09T13:57:28.999Z</time></trkpt><trkpt lat="41.95450136150305" lon="12.762993592635855"><ele>52.0</ele><time>2026-04-09T13:57:30.999Z</time></trkpt><trkpt lat="41.9544304214104" lon="12.763088676992059"><ele>52.0</ele><time>2026-04-09T13:57:32.999Z</time></trkpt><trkpt lat="41.954506333355795" lon="12.76334132549908"><ele>52.0</ele><time>2026-04-09T13:57:34.999Z</time></trkpt><trkpt lat="41.954550785355075" lon="12.763501743768206"><ele>52.0</ele><time>2026-04-09T13:57:35.999Z</time></trkpt><trkpt lat="41.9545955024679" lon="12.763675850860492"><ele>52.75</ele><time>2026-04-09T13:57:36.999Z</time></trkpt><trkpt lat="41.954642947342734" lon="12.76388665204826"><ele>53.5</ele><time>2026-04-09T13:57:37.999Z</time></trkpt><trkpt lat="41.9546716498229" lon="12.764061412620324"><ele>54.25</ele><time>2026-04-09T13:57:38.999Z</time></trkpt><trkpt lat="41.95471392130912" lon="12.764203597428637"><ele>55.0</ele><time>2026-04-09T13:57:39.999Z</time></trkpt><trkpt lat="41.95473324175581" lon="12.764349535453754"><ele>55.25</ele><time>2026-04-09T13:57:40.999Z</time></trkpt><trkpt lat="41.95477171275001" lon="12.764508715668017"><ele>55.5</ele><time>2026-04-09T13:57:41.999Z</time></trkpt><trkpt lat="41.95481614755085" lon="12.76470522572562"><ele>55.75</ele><time>2026-04-09T13:57:42.999Z</time></trkpt><trkpt lat="41.95486219320043" lon="12.764898725113133"><ele>56.0</ele><time>2026-04-09T13:57:43.999Z</time></trkpt><trkpt lat="41.95490224671237" lon="12.765065290590563"><ele>57.5</ele><time>2026-04-09T13:57:44.999Z</time></trkpt><trkpt lat="41.95493678935686" lon="12.76521989022865"><ele>59.0</ele><time>2026-04-09T13:57:45.999Z</time></trkpt><trkpt lat="41.95497073423567" lon="12.765361189639616"><ele>60.5</ele><time>2026-04-09T13:57:46.999Z</time></trkpt><trkpt lat="41.95499526799584" lon="12.76550767871427"><ele>62.0</ele><time>2026-04-09T13:57:47.999Z</time></trkpt><trkpt lat="41.9550341411844" lon="12.76567115759405"><ele>62.6</ele><time>2026-04-09T13:57:48.999Z</time></trkpt><trkpt lat="41.95505186719611" lon="12.765825154261421"><ele>63.2</ele><time>2026-04-09T13:57:50Z</time></trkpt><trkpt lat="41.95509806043276" lon="12.765947754558391"><ele>63.8</ele><time>2026-04-09T13:57:51Z</time></trkpt><trkpt lat="41.955086412208736" lon="12.766088854761316"><ele>64.4</ele><time>2026-04-09T13:57:52Z</time></trkpt><trkpt lat="41.955099285210636" lon="12.766213015921839"><ele>65.0</ele><time>2026-04-09T13:57:53Z</time></trkpt><trkpt lat="41.955111859909145" lon="12.766342535315715"><ele>65.4</ele><time>2026-04-09T13:57:54Z</time></trkpt><trkpt lat="41.95512430509811" lon="12.766453563408291"><ele>65.8</ele><time>2026-04-09T13:57:55Z</time></trkpt><trkpt lat="41.955140590108236" lon="12.766591549787563"><ele>66.2</ele><time>2026-04-09T13:57:56Z</time></trkpt><trkpt lat="41.955157773490846" lon="12.766737148244271"><ele>66.6</ele><time>2026-04-09T13:57:57Z</time></trkpt><trkpt lat="41.95517084421115" lon="12.766860551884193"><ele>67.0</ele><time>2026-04-09T13:57:57.998Z</time></trkpt><trkpt lat="41.95518122611346" lon="12.766960551047092"><ele>67.0</ele><time>2026-04-09T13:57:58.998Z</time></trkpt><trkpt lat="41.95519055965379" lon="12.767050833131501"><ele>67.0</ele><time>2026-04-09T13:57:59.998Z</time></trkpt><trkpt lat="41.955200344721234" lon="12.767145482682043"><ele>67.0</ele><time>2026-04-09T13:58:00.998Z</time></trkpt><trkpt lat="41.95521045927457" lon="12.767245579520509"><ele>67.0</ele><time>2026-04-09T13:58:01.999Z</time></trkpt><trkpt lat="41.95522096973047" lon="12.767351297167028"><ele>67.0</ele><time>2026-04-09T13:58:02.999Z</time></trkpt><trkpt lat="41.95523262983344" lon="12.767464842494888"><ele>67.0</ele><time>2026-04-09T13:58:03.999Z</time></trkpt><trkpt lat="41.95524393196414" lon="12.767568032959161"><ele>67.0</ele><time>2026-04-09T13:58:04.999Z</time></trkpt><trkpt lat="41.95525509059682" lon="12.767657856888073"><ele>67.0</ele><time>2026-04-09T13:58:05.999Z</time></trkpt><trkpt lat="41.95526664813852" lon="12.767746373152288"><ele>67.0</ele><time>2026-04-09T13:58:06.999Z</time></trkpt><trkpt lat="41.955279406695105" lon="12.76783688076085"><ele>67.0</ele><time>2026-04-09T13:58:07.999Z</time></trkpt><trkpt lat="41.955294042675895" lon="12.767927975105007"><ele>67.0</ele><time>2026-04-09T13:58:08.999Z</time></trkpt><trkpt lat="41.95531612111611" lon="12.768055872461364"><ele>67.0</ele><time>2026-04-09T13:58:10.999Z</time></trkpt><trkpt lat="41.9553358362173" lon="12.768152119020257"><ele>67.0</ele><time>2026-04-09T13:58:28Z</time></trkpt><trkpt lat="41.95535575236967" lon="12.768242561427423"><ele>66.6</ele><time>2026-04-09T13:58:30Z</time></trkpt><trkpt lat="41.95538930380289" lon="12.76839165586911"><ele>66.2</ele><time>2026-04-09T13:58:32Z</time></trkpt><trkpt lat="41.955424695727444" lon="12.768508112818434"><ele>65.8</ele><time>2026-04-09T13:58:34Z</time></trkpt><trkpt lat="41.95545992257679" lon="12.768627100664537"><ele>65.4</ele><time>2026-04-09T13:58:37Z</time></trkpt><trkpt lat="41.955513553736004" lon="12.768742086569477"><ele>65.0</ele><time>2026-04-09T13:58:39Z</time></trkpt><trkpt lat="41.95557793441669" lon="12.768870850299864"><ele>64.83333333333334</ele><time>2026-04-09T13:58:41Z</time></trkpt><trkpt lat="41.95565208424931" lon="12.769000681301847"><ele>64.66666666666667</ele><time>2026-04-09T13:58:43Z</time></trkpt><trkpt lat="41.95569769536433" lon="12.76907419375019"><ele>64.5</ele><time>2026-04-09T13:58:44Z</time></trkpt><trkpt lat="41.95574718318577" lon="12.769153027326396"><ele>64.33333333333333</ele><time>2026-04-09T13:58:45Z</time></trkpt><trkpt lat="41.95579956329257" lon="12.769204654484813"><ele>64.16666666666666</ele><time>2026-04-09T13:58:46Z</time></trkpt><trkpt lat="41.95585379915003" lon="12.769296067012103"><ele>64.0</ele><time>2026-04-09T13:58:47Z</time></trkpt><trkpt lat="41.95589523195495" lon="12.769369690550997"><ele>64.33333333333333</ele><time>2026-04-09T13:58:48Z</time></trkpt><trkpt lat="41.95594814129416" lon="12.769449846785651"><ele>64.66666666666666</ele><time>2026-04-09T13:58:49Z</time></trkpt><trkpt lat="41.9560037614499" lon="12.769532888211778"><ele>65.0</ele><time>2026-04-09T13:58:50Z</time></trkpt><trkpt lat="41.95605629322123" lon="12.769623704205099"><ele>65.33333333333333</ele><time>2026-04-09T13:58:51Z</time></trkpt><trkpt lat="41.95610004989608" lon="12.769715033361045"><ele>65.66666666666667</ele><time>2026-04-09T13:58:52Z</time></trkpt><trkpt lat="41.956134963406676" lon="12.769801217202502"><ele>66.0</ele><time>2026-04-09T13:58:53Z</time></trkpt><trkpt lat="41.9561872200117" lon="12.769937403020897"><ele>66.0</ele><time>2026-04-09T13:58:55Z</time></trkpt><trkpt lat="41.95623451519172" lon="12.770063051539978"><ele>66.0</ele><time>2026-04-09T13:58:57Z</time></trkpt><trkpt lat="41.956257132469034" lon="12.770170776114744"><ele>66.0</ele><time>2026-04-09T13:58:58Z</time></trkpt><trkpt lat="41.95630402370776" lon="12.770270570782316"><ele>66.0</ele><time>2026-04-09T13:58:59Z</time></trkpt><trkpt lat="41.95632669998876" lon="12.770368349450887"><ele>66.0</ele><time>2026-04-09T13:59:00Z</time></trkpt><trkpt lat="41.95634775009718" lon="12.770475911397059"><ele>66.0</ele><time>2026-04-09T13:59:01Z</time></trkpt><trkpt lat="41.95634465132771" lon="12.770591330010134"><ele>66.2</ele><time>2026-04-09T13:59:02Z</time></trkpt><trkpt lat="41.95634463175192" lon="12.770729058179743"><ele>66.39999999999999</ele><time>2026-04-09T13:59:03Z</time></trkpt><trkpt lat="41.9563383742275" lon="12.770884179705206"><ele>66.6</ele><time>2026-04-09T13:59:04Z</time></trkpt><trkpt lat="41.95633411055729" lon="12.771003880445894"><ele>66.8</ele><time>2026-04-09T13:59:05Z</time></trkpt><trkpt lat="41.9563299151268" lon="12.771122891827968"><ele>67.0</ele><time>2026-04-09T13:59:06Z</time></trkpt><trkpt lat="41.95632565910024" lon="12.771243622147747"><ele>67.5</ele><time>2026-04-09T13:59:07Z</time></trkpt><trkpt lat="41.956335172299084" lon="12.771362995824656"><ele>68.0</ele><time>2026-04-09T13:59:08.001Z</time></trkpt><trkpt lat="41.95633570526453" lon="12.77147171824971"><ele>68.5</ele><time>2026-04-09T13:59:09.001Z</time></trkpt><trkpt lat="41.956333674898644" lon="12.771578959369561"><ele>69.0</ele><time>2026-04-09T13:59:10.001Z</time></trkpt><trkpt lat="41.95634631275122" lon="12.771671914845596"><ele>69.5</ele><time>2026-04-09T13:59:11.001Z</time></trkpt><trkpt lat="41.956358061620946" lon="12.771771279108991"><ele>70.0</ele><time>2026-04-09T13:59:12.001Z</time></trkpt><trkpt lat="41.95636754144735" lon="12.771859153956235"><ele>70.4</ele><time>2026-04-09T13:59:13.001Z</time></trkpt><trkpt lat="41.956380432794795" lon="12.771953241575018"><ele>70.8</ele><time>2026-04-09T13:59:14.001Z</time></trkpt><trkpt lat="41.95639193972469" lon="12.772118103134808"><ele>71.2</ele><time>2026-04-09T13:59:16.001Z</time></trkpt><trkpt lat="41.956414594574404" lon="12.772245598873354"><ele>71.6</ele><time>2026-04-09T13:59:17.001Z</time></trkpt><trkpt lat="41.95643935572368" lon="12.772373938347304"><ele>72.0</ele><time>2026-04-09T13:59:18.001Z</time></trkpt><trkpt lat="41.95646612624302" lon="12.772512692579994"><ele>72.0</ele><time>2026-04-09T13:59:19.001Z</time></trkpt><trkpt lat="41.95650510064917" lon="12.772652531441095"><ele>72.0</ele><time>2026-04-09T13:59:20.001Z</time></trkpt><trkpt lat="41.956513974700876" lon="12.772791089200723"><ele>72.0</ele><time>2026-04-09T13:59:21.001Z</time></trkpt><trkpt lat="41.956538496283336" lon="12.77294067575687"><ele>72.0</ele><time>2026-04-09T13:59:22.001Z</time></trkpt><trkpt lat="41.95656126328068" lon="12.77307955859682"><ele>72.0</ele><time>2026-04-09T13:59:23.001Z</time></trkpt><trkpt lat="41.95658808233427" lon="12.773226630842839"><ele>72.2</ele><time>2026-04-09T13:59:24.001Z</time></trkpt><trkpt lat="41.95661526382913" lon="12.773380500505537"><ele>72.4</ele><time>2026-04-09T13:59:25.001Z</time></trkpt><trkpt lat="41.95664008009685" lon="12.773526498238825"><ele>72.6</ele><time>2026-04-09T13:59:26.001Z</time></trkpt><trkpt lat="41.95665567563639" lon="12.773640904646836"><ele>72.8</ele><time>2026-04-09T13:59:27.001Z</time></trkpt><trkpt lat="41.95668358922387" lon="12.773736404222383"><ele>73.0</ele><time>2026-04-09T13:59:28.001Z</time></trkpt><trkpt lat="41.95668879269754" lon="12.773826410099174"><ele>73.0</ele><time>2026-04-09T13:59:29.001Z</time></trkpt><trkpt lat="41.95670482146957" lon="12.77396689237122"><ele>73.0</ele><time>2026-04-09T13:59:31.001Z</time></trkpt><trkpt lat="41.956703009248876" lon="12.774091512913085"><ele>73.0</ele><time>2026-04-09T13:59:35.001Z</time></trkpt><trkpt lat="41.956714064835055" lon="12.774208887596199"><ele>73.0</ele><time>2026-04-09T13:59:38.001Z</time></trkpt><trkpt lat="41.956735912715374" lon="12.774336611494798"><ele>73.0</ele><time>2026-04-09T13:59:40.001Z</time></trkpt><trkpt lat="41.95673594628186" lon="12.774429125151025"><ele>73.0</ele><time>2026-04-09T13:59:41.001Z</time></trkpt><trkpt lat="41.956747914684996" lon="12.774531579047729"><ele>73.0</ele><time>2026-04-09T13:59:43.001Z</time></trkpt><trkpt lat="41.95675214076269" lon="12.774644446749866"><ele>73.0</ele><time>2026-04-09T13:59:46.001Z</time></trkpt><trkpt lat="41.956758383990746" lon="12.774749641697852"><ele>73.0</ele><time>2026-04-09T13:59:48.001Z</time></trkpt><trkpt lat="41.956768514554724" lon="12.774843757958111"><ele>73.0</ele><time>2026-04-09T13:59:50.001Z</time></trkpt><trkpt lat="41.9567612415796" lon="12.774935619785529"><ele>73.0</ele><time>2026-04-09T13:59:52.001Z</time></trkpt><trkpt lat="41.956782473012616" lon="12.775077824842647"><ele>73.16666666666666</ele><time>2026-04-09T13:59:54.001Z</time></trkpt><trkpt lat="41.95678309312884" lon="12.775187855631453"><ele>73.33333333333333</ele><time>2026-04-09T13:59:55.001Z</time></trkpt><trkpt lat="41.95676499128533" lon="12.775276013913965"><ele>73.5</ele><time>2026-04-09T13:59:56.001Z</time></trkpt><trkpt lat="41.95675624266302" lon="12.775437502259992"><ele>73.66666666666667</ele><time>2026-04-09T13:59:58.001Z</time></trkpt><trkpt lat="41.95675231165686" lon="12.775529901152856"><ele>73.83333333333334</ele><time>2026-04-09T13:59:59.001Z</time></trkpt><trkpt lat="41.95674837024235" lon="12.775626597203395"><ele>74.0</ele><time>2026-04-09T14:00:00.001Z</time></trkpt><trkpt lat="41.95674314144623" lon="12.775754877006024"><ele>74.0</ele><time>2026-04-09T14:00:01.001Z</time></trkpt><trkpt lat="41.95673629479554" lon="12.775922848147285"><ele>74.0</ele><time>2026-04-09T14:00:02.001Z</time></trkpt><trkpt lat="41.95673000346209" lon="12.77607719509664"><ele>74.0</ele><time>2026-04-09T14:00:03.001Z</time></trkpt><trkpt lat="41.95672619757743" lon="12.776185699969423"><ele>74.0</ele><time>2026-04-09T14:00:04Z</time></trkpt><trkpt lat="41.95672167173666" lon="12.776309490461685"><ele>74.0</ele><time>2026-04-09T14:00:05Z</time></trkpt><trkpt lat="41.956717284298065" lon="12.77642949548493"><ele>74.16666666666667</ele><time>2026-04-09T14:00:06Z</time></trkpt><trkpt lat="41.95671313304203" lon="12.77654572650778"><ele>74.33333333333334</ele><time>2026-04-09T14:00:07Z</time></trkpt><trkpt lat="41.95672635894416" lon="12.77665270796167"><ele>74.5</ele><time>2026-04-09T14:00:08Z</time></trkpt><trkpt lat="41.95671944908807" lon="12.776769851694016"><ele>74.66666666666667</ele><time>2026-04-09T14:00:09Z</time></trkpt><trkpt lat="41.956716016897026" lon="12.776870774588481"><ele>74.83333333333333</ele><time>2026-04-09T14:00:10Z</time></trkpt><trkpt lat="41.956715009444615" lon="12.776971224893074"><ele>75.0</ele><time>2026-04-09T14:00:11Z</time></trkpt><trkpt lat="41.95671154864852" lon="12.777067805199145"><ele>75.4</ele><time>2026-04-09T14:00:12Z</time></trkpt><trkpt lat="41.95670357543767" lon="12.777232812229713"><ele>75.8</ele><time>2026-04-09T14:00:14Z</time></trkpt><trkpt lat="41.95670069363156" lon="12.777323487890836"><ele>76.2</ele><time>2026-04-09T14:00:15Z</time></trkpt><trkpt lat="41.956680439570384" lon="12.777483950536833"><ele>76.6</ele><time>2026-04-09T14:00:17Z</time></trkpt><trkpt lat="41.95669552950475" lon="12.777567570701827"><ele>77.0</ele><time>2026-04-09T14:00:18Z</time></trkpt><trkpt lat="41.95669481015627" lon="12.777671729550564"><ele>76.75</ele><time>2026-04-09T14:00:19Z</time></trkpt><trkpt lat="41.956691230756235" lon="12.777826562210848"><ele>76.5</ele><time>2026-04-09T14:00:20Z</time></trkpt><trkpt lat="41.95668876936498" lon="12.778028170277887"><ele>76.25</ele><time>2026-04-09T14:00:21Z</time></trkpt><trkpt lat="41.9566834959976" lon="12.778267889400265"><ele>76.0</ele><time>2026-04-09T14:00:22Z</time></trkpt><trkpt lat="41.95664496797232" lon="12.778481370002542"><ele>76.25</ele><time>2026-04-09T14:00:23Z</time></trkpt><trkpt lat="41.95663730304261" lon="12.778672125549747"><ele>76.5</ele><time>2026-04-09T14:00:24Z</time></trkpt><trkpt lat="41.956628896060046" lon="12.778857845576015"><ele>76.75</ele><time>2026-04-09T14:00:25Z</time></trkpt><trkpt lat="41.956620262943595" lon="12.779031936854699"><ele>77.0</ele><time>2026-04-09T14:00:26Z</time></trkpt><trkpt lat="41.956610637152885" lon="12.779226045900394"><ele>78.0</ele><time>2026-04-09T14:00:27Z</time></trkpt><trkpt lat="41.95660017961193" lon="12.779460654823335"><ele>79.0</ele><time>2026-04-09T14:00:28Z</time></trkpt><trkpt lat="41.95663409724024" lon="12.779778359232974"><ele>80.0</ele><time>2026-04-09T14:00:29Z</time></trkpt><trkpt lat="41.95661226817159" lon="12.780115528734008"><ele>81.5</ele><time>2026-04-09T14:00:30Z</time></trkpt><trkpt lat="41.95658570368685" lon="12.780434876749423"><ele>83.0</ele><time>2026-04-09T14:00:31Z</time></trkpt><trkpt lat="41.95657069962667" lon="12.780776380261859"><ele>84.0</ele><time>2026-04-09T14:00:32Z</time></trkpt><trkpt lat="41.95654449652147" lon="12.781112584154407"><ele>85.0</ele><time>2026-04-09T14:00:33Z</time></trkpt><trkpt lat="41.956528650285506" lon="12.781415988351062"><ele>85.0</ele><time>2026-04-09T14:00:34Z</time></trkpt><trkpt lat="41.9565240919154" lon="12.781755441835163"><ele>85.0</ele><time>2026-04-09T14:00:35Z</time></trkpt><trkpt lat="41.95649649346655" lon="12.782043989414229"><ele>86.0</ele><time>2026-04-09T14:00:36Z</time></trkpt><trkpt lat="41.95645941161115" lon="12.782307509867545"><ele>87.0</ele><time>2026-04-09T14:00:37Z</time></trkpt><trkpt lat="41.95642388690001" lon="12.782567561494194"><ele>88.0</ele><time>2026-04-09T14:00:38Z</time></trkpt><trkpt lat="41.95636743477183" lon="12.782785564962355"><ele>88.5</ele><time>2026-04-09T14:00:39Z</time></trkpt><trkpt lat="41.956312776985904" lon="12.78297092360301"><ele>89.0</ele><time>2026-04-09T14:00:40Z</time></trkpt><trkpt lat="41.956239062142814" lon="12.783146408731875"><ele>89.5</ele><time>2026-04-09T14:00:41Z</time></trkpt><trkpt lat="41.95614104070501" lon="12.783296462856777"><ele>90.0</ele><time>2026-04-09T14:00:42Z</time></trkpt><trkpt lat="41.95602616096611" lon="12.783418294049333"><ele>92.66666666666666</ele><time>2026-04-09T14:00:43Z</time></trkpt><trkpt lat="41.95590206263802" lon="12.783528682704235"><ele>95.33333333333333</ele><time>2026-04-09T14:00:44Z</time></trkpt><trkpt lat="41.955753256523366" lon="12.783585157899017"><ele>98.0</ele><time>2026-04-09T14:00:45Z</time></trkpt><trkpt lat="41.95559655346519" lon="12.783606106325214"><ele>98.0</ele><time>2026-04-09T14:00:46Z</time></trkpt><trkpt lat="41.95543709736042" lon="12.783603367592212"><ele>98.0</ele><time>2026-04-09T14:00:47Z</time></trkpt><trkpt lat="41.955240411016405" lon="12.783581868585102"><ele>98.0</ele><time>2026-04-09T14:00:48Z</time></trkpt><trkpt lat="41.95501777929381" lon="12.783573148489785"><ele>100.33333333333333</ele><time>2026-04-09T14:00:49Z</time></trkpt><trkpt lat="41.954833597127035" lon="12.783568711985763"><ele>102.66666666666666</ele><time>2026-04-09T14:00:50Z</time></trkpt><trkpt lat="41.95468694349983" lon="12.78358195405094"><ele>105.0</ele><time>2026-04-09T14:00:51Z</time></trkpt><trkpt lat="41.95455042972368" lon="12.783588709582665"><ele>105.0</ele><time>2026-04-09T14:00:52Z</time></trkpt><trkpt lat="41.95441637326211" lon="12.783626661286359"><ele>105.0</ele><time>2026-04-09T14:00:53Z</time></trkpt><trkpt lat="41.95429088017237" lon="12.783706512349944"><ele>105.0</ele><time>2026-04-09T14:00:54Z</time></trkpt><trkpt lat="41.95418563472713" lon="12.783841886343565"><ele>105.0</ele><time>2026-04-09T14:00:55Z</time></trkpt><trkpt lat="41.95410026260246" lon="12.784006536197632"><ele>104.75</ele><time>2026-04-09T14:00:56Z</time></trkpt><trkpt lat="41.95404736346607" lon="12.784189827636489"><ele>104.5</ele><time>2026-04-09T14:00:57Z</time></trkpt><trkpt lat="41.95401356614521" lon="12.784366453411733"><ele>104.25</ele><time>2026-04-09T14:00:58Z</time></trkpt><trkpt lat="41.95402047974664" lon="12.784553875763425"><ele>104.0</ele><time>2026-04-09T14:00:59Z</time></trkpt><trkpt lat="41.954063229697766" lon="12.784744772050612"><ele>105.33333333333333</ele><time>2026-04-09T14:01:00Z</time></trkpt><trkpt lat="41.95412425157087" lon="12.78493230239702"><ele>106.66666666666666</ele><time>2026-04-09T14:01:01Z</time></trkpt><trkpt lat="41.95418152635768" lon="12.785131731371704"><ele>108.0</ele><time>2026-04-09T14:01:02Z</time></trkpt><trkpt lat="41.95425808166468" lon="12.785369411434873"><ele>110.33333333333334</ele><time>2026-04-09T14:01:03Z</time></trkpt><trkpt lat="41.95435529008662" lon="12.785632740635297"><ele>112.66666666666667</ele><time>2026-04-09T14:01:04Z</time></trkpt><trkpt lat="41.954433026282565" lon="12.785885539971398"><ele>115.0</ele><time>2026-04-09T14:01:05Z</time></trkpt><trkpt lat="41.954479541883494" lon="12.786118663177447"><ele>117.0</ele><time>2026-04-09T14:01:06Z</time></trkpt><trkpt lat="41.954498996734614" lon="12.78635976494711"><ele>119.0</ele><time>2026-04-09T14:01:07Z</time></trkpt><trkpt lat="41.954481955958165" lon="12.786581024005338"><ele>121.0</ele><time>2026-04-09T14:01:08Z</time></trkpt><trkpt lat="41.95443137965462" lon="12.786789430809474"><ele>121.5</ele><time>2026-04-09T14:01:09Z</time></trkpt><trkpt lat="41.95434315703977" lon="12.786950542968897"><ele>122.0</ele><time>2026-04-09T14:01:10Z</time></trkpt><trkpt lat="41.9542262931878" lon="12.787080889626457"><ele>122.5</ele><time>2026-04-09T14:01:11Z</time></trkpt><trkpt lat="41.95408890010806" lon="12.78714895521489"><ele>123.0</ele><time>2026-04-09T14:01:12Z</time></trkpt><trkpt lat="41.95393471844809" lon="12.78717073549554"><ele>123.0</ele><time>2026-04-09T14:01:13Z</time></trkpt><trkpt lat="41.95376919081572" lon="12.787153026305038"><ele>123.0</ele><time>2026-04-09T14:01:14Z</time></trkpt><trkpt lat="41.95356395621166" lon="12.78714584037141"><ele>123.0</ele><time>2026-04-09T14:01:15.001Z</time></trkpt><trkpt lat="41.953349476486586" lon="12.78712358767222"><ele>123.33333333333334</ele><time>2026-04-09T14:01:16.001Z</time></trkpt><trkpt lat="41.95315518150873" lon="12.787105879441368"><ele>123.66666666666667</ele><time>2026-04-09T14:01:17.001Z</time></trkpt><trkpt lat="41.953004720084195" lon="12.787105330807233"><ele>124.0</ele><time>2026-04-09T14:01:18.001Z</time></trkpt><trkpt lat="41.952839408509604" lon="12.78711005021886"><ele>124.0</ele><time>2026-04-09T14:01:19.001Z</time></trkpt><trkpt lat="41.95267543877421" lon="12.787136114810533"><ele>124.0</ele><time>2026-04-09T14:01:20.001Z</time></trkpt><trkpt lat="41.95251153732431" lon="12.78721005752336"><ele>124.0</ele><time>2026-04-09T14:01:21.001Z</time></trkpt><trkpt lat="41.95232633231167" lon="12.78734992981773"><ele>126.0</ele><time>2026-04-09T14:01:22.001Z</time></trkpt><trkpt lat="41.95210897833088" lon="12.787510953673628"><ele>128.0</ele><time>2026-04-09T14:01:23.001Z</time></trkpt><trkpt lat="41.95189059275967" lon="12.787660368806772"><ele>132.0</ele><time>2026-04-09T14:01:24.001Z</time></trkpt><trkpt lat="41.951673285693246" lon="12.787794581016362"><ele>136.0</ele><time>2026-04-09T14:01:25.001Z</time></trkpt><trkpt lat="41.951460252902216" lon="12.787966422336856"><ele>136.0</ele><time>2026-04-09T14:01:26.001Z</time></trkpt><trkpt lat="41.951250648360016" lon="12.788088321326585"><ele>136.0</ele><time>2026-04-09T14:01:27.001Z</time></trkpt><trkpt lat="41.951038892229676" lon="12.7882323445589"><ele>136.0</ele><time>2026-04-09T14:01:28.001Z</time></trkpt><trkpt lat="41.950858297375824" lon="12.788386100628175"><ele>136.0</ele><time>2026-04-09T14:01:29.001Z</time></trkpt><trkpt lat="41.950680046411385" lon="12.788507740263404"><ele>136.0</ele><time>2026-04-09T14:01:30.001Z</time></trkpt><trkpt lat="41.9505159878048" lon="12.788633987931957"><ele>140.66666666666669</ele><time>2026-04-09T14:01:31.001Z</time></trkpt><trkpt lat="41.950370621137765" lon="12.788747157475969"><ele>145.33333333333334</ele><time>2026-04-09T14:01:32.001Z</time></trkpt><trkpt lat="41.9502518649075" lon="12.788858830878029"><ele>150.0</ele><time>2026-04-09T14:01:33.001Z</time></trkpt><trkpt lat="41.95012754236612" lon="12.788961980654367"><ele>148.75</ele><time>2026-04-09T14:01:34.001Z</time></trkpt><trkpt lat="41.950011159405435" lon="12.78907100886717"><ele>147.5</ele><time>2026-04-09T14:01:35.001Z</time></trkpt><trkpt lat="41.94990855899833" lon="12.789160113274791"><ele>146.25</ele><time>2026-04-09T14:01:36.001Z</time></trkpt><trkpt lat="41.94980947850555" lon="12.789242673830742"><ele>145.0</ele><time>2026-04-09T14:01:37.001Z</time></trkpt><trkpt lat="41.949713484604864" lon="12.789329933166902"><ele>149.5</ele><time>2026-04-09T14:01:38.001Z</time></trkpt><trkpt lat="41.949630668977115" lon="12.789406685231398"><ele>154.0</ele><time>2026-04-09T14:01:39.001Z</time></trkpt><trkpt lat="41.949545051322076" lon="12.789482720871762"><ele>158.5</ele><time>2026-04-09T14:01:40.001Z</time></trkpt><trkpt lat="41.94944173032804" lon="12.789576518548609"><ele>163.0</ele><time>2026-04-09T14:01:41.001Z</time></trkpt><trkpt lat="41.94933624707383" lon="12.789684842578147"><ele>163.0</ele><time>2026-04-09T14:01:42.001Z</time></trkpt><trkpt lat="41.94924302950786" lon="12.789785293461485"><ele>163.0</ele><time>2026-04-09T14:01:43.001Z</time></trkpt><trkpt lat="41.9491537327503" lon="12.789887835004421"><ele>163.0</ele><time>2026-04-09T14:01:44.001Z</time></trkpt><trkpt lat="41.94906229905152" lon="12.789980365957335"><ele>163.0</ele><time>2026-04-09T14:01:45.001Z</time></trkpt><trkpt lat="41.94898414575579" lon="12.790071378213346"><ele>163.75</ele><time>2026-04-09T14:01:46.001Z</time></trkpt><trkpt lat="41.94889420795007" lon="12.790177192527457"><ele>164.5</ele><time>2026-04-09T14:01:47.001Z</time></trkpt><trkpt lat="41.948791007450765" lon="12.79029608836114"><ele>165.25</ele><time>2026-04-09T14:01:48.001Z</time></trkpt><trkpt lat="41.94870916839647" lon="12.790374708578085"><ele>166.0</ele><time>2026-04-09T14:01:49.001Z</time></trkpt><trkpt lat="41.948619548742606" lon="12.790491456953019"><ele>166.0</ele><time>2026-04-09T14:01:50.001Z</time></trkpt><trkpt lat="41.94854405202618" lon="12.790622092454468"><ele>166.0</ele><time>2026-04-09T14:01:51.001Z</time></trkpt><trkpt lat="41.9484750658695" lon="12.790797372172964"><ele>166.0</ele><time>2026-04-09T14:01:52.001Z</time></trkpt><trkpt lat="41.94842741465428" lon="12.790992092119291"><ele>166.0</ele><time>2026-04-09T14:01:53.001Z</time></trkpt><trkpt lat="41.948397569403234" lon="12.791202648069657"><ele>165.60000000000002</ele><time>2026-04-09T14:01:54.001Z</time></trkpt><trkpt lat="41.94838408963268" lon="12.791390044509578"><ele>165.2</ele><time>2026-04-09T14:01:55.001Z</time></trkpt><trkpt lat="41.948369983995704" lon="12.791542044765256"><ele>164.8</ele><time>2026-04-09T14:01:56.001Z</time></trkpt><trkpt lat="41.948362499752996" lon="12.791668883199494"><ele>164.39999999999998</ele><time>2026-04-09T14:01:57.001Z</time></trkpt><trkpt lat="41.94834846905046" lon="12.79178525268831"><ele>164.0</ele><time>2026-04-09T14:01:58.001Z</time></trkpt><trkpt lat="41.94832246488727" lon="12.791898462016901"><ele>164.0</ele><time>2026-04-09T14:01:59.001Z</time></trkpt><trkpt lat="41.948283593255596" lon="12.792003942970748"><ele>164.0</ele><time>2026-04-09T14:02:00.001Z</time></trkpt><trkpt lat="41.94823901435121" lon="12.792094443795648"><ele>164.0</ele><time>2026-04-09T14:02:01.001Z</time></trkpt><trkpt lat="41.94819630744867" lon="12.792181509574958"><ele>164.0</ele><time>2026-04-09T14:02:02.001Z</time></trkpt><trkpt lat="41.948149674029054" lon="12.792263155613194"><ele>164.0</ele><time>2026-04-09T14:02:03.001Z</time></trkpt><trkpt lat="41.948070916266936" lon="12.792382586851245"><ele>164.0</ele><time>2026-04-09T14:02:04.001Z</time></trkpt><trkpt lat="41.94797787637564" lon="12.79250228900623"><ele>164.0</ele><time>2026-04-09T14:02:05.001Z</time></trkpt><trkpt lat="41.94791622097387" lon="12.792577621976339"><ele>164.0</ele><time>2026-04-09T14:02:06.001Z</time></trkpt><trkpt lat="41.947866200886175" lon="12.792637775501841"><ele>164.0</ele><time>2026-04-09T14:02:07.001Z</time></trkpt><trkpt lat="41.94779995823573" lon="12.792747230575902"><ele>164.0</ele><time>2026-04-09T14:02:09.001Z</time></trkpt><trkpt lat="41.94775776113588" lon="12.792875627410638"><ele>164.0</ele><time>2026-04-09T14:02:11Z</time></trkpt><trkpt lat="41.94777279558856" lon="12.79301032377335"><ele>166.2</ele><time>2026-04-09T14:02:13Z</time></trkpt><trkpt lat="41.947807042704675" lon="12.793088343235237"><ele>168.39999999999998</ele><time>2026-04-09T14:02:14Z</time></trkpt><trkpt lat="41.9478555051424" lon="12.793154710173857"><ele>170.6</ele><time>2026-04-09T14:02:15Z</time></trkpt><trkpt lat="41.94794026984792" lon="12.793205227552258"><ele>172.8</ele><time>2026-04-09T14:02:16Z</time></trkpt><trkpt lat="41.948064012107544" lon="12.793229970232739"><ele>175.0</ele><time>2026-04-09T14:02:17Z</time></trkpt><trkpt lat="41.9481830071782" lon="12.79322403317421"><ele>175.0</ele><time>2026-04-09T14:02:18Z</time></trkpt><trkpt lat="41.948300305579586" lon="12.793211913656219"><ele>175.0</ele><time>2026-04-09T14:02:19Z</time></trkpt><trkpt lat="41.94840657811737" lon="12.793203277782126"><ele>175.0</ele><time>2026-04-09T14:02:20Z</time></trkpt><trkpt lat="41.948508641409" lon="12.793194200185344"><ele>175.0</ele><time>2026-04-09T14:02:21Z</time></trkpt><trkpt lat="41.94861111143208" lon="12.793181109756022"><ele>175.0</ele><time>2026-04-09T14:02:22Z</time></trkpt><trkpt lat="41.94870650254872" lon="12.793152201764881"><ele>176.4</ele><time>2026-04-09T14:02:23Z</time></trkpt><trkpt lat="41.948788976043595" lon="12.793104013941516"><ele>177.8</ele><time>2026-04-09T14:02:24Z</time></trkpt><trkpt lat="41.94886160311266" lon="12.793035016018852"><ele>179.2</ele><time>2026-04-09T14:02:25Z</time></trkpt><trkpt lat="41.94892886213173" lon="12.792947241275535"><ele>180.6</ele><time>2026-04-09T14:02:26Z</time></trkpt><trkpt lat="41.94897640109901" lon="12.792834424286033"><ele>182.0</ele><time>2026-04-09T14:02:27Z</time></trkpt><trkpt lat="41.94900084978412" lon="12.792700934036029"><ele>181.39999999999998</ele><time>2026-04-09T14:02:28Z</time></trkpt><trkpt lat="41.94899556073856" lon="12.79254540913167"><ele>180.79999999999998</ele><time>2026-04-09T14:02:29Z</time></trkpt><trkpt lat="41.948978520076125" lon="12.792379845544243"><ele>180.2</ele><time>2026-04-09T14:02:30Z</time></trkpt><trkpt lat="41.94898159105319" lon="12.7922441898421"><ele>179.6</ele><time>2026-04-09T14:02:31Z</time></trkpt><trkpt lat="41.94898588195743" lon="12.792123817266486"><ele>179.0</ele><time>2026-04-09T14:02:32Z</time></trkpt><trkpt lat="41.94898291005019" lon="12.792001813835471"><ele>179.0</ele><time>2026-04-09T14:02:33Z</time></trkpt><trkpt lat="41.949007923768086" lon="12.79188077717175"><ele>179.0</ele><time>2026-04-09T14:02:34Z</time></trkpt><trkpt lat="41.949047144493555" lon="12.791763051798176"><ele>179.0</ele><time>2026-04-09T14:02:35Z</time></trkpt><trkpt lat="41.94910150528361" lon="12.791637283894422"><ele>179.0</ele><time>2026-04-09T14:02:36Z</time></trkpt><trkpt lat="41.94918855147526" lon="12.79154114249147"><ele>179.0</ele><time>2026-04-09T14:02:37Z</time></trkpt><trkpt lat="41.94927751807452" lon="12.79146043207964"><ele>182.39999999999998</ele><time>2026-04-09T14:02:38Z</time></trkpt><trkpt lat="41.94936465849046" lon="12.791395197932893"><ele>185.8</ele><time>2026-04-09T14:02:39Z</time></trkpt><trkpt lat="41.94943673912375" lon="12.791354114656933"><ele>189.2</ele><time>2026-04-09T14:02:40Z</time></trkpt><trkpt lat="41.94955070975456" lon="12.791300295624701"><ele>192.60000000000002</ele><time>2026-04-09T14:02:42Z</time></trkpt><trkpt lat="41.94962473026828" lon="12.791269160231671"><ele>196.0</ele><time>2026-04-09T14:02:43Z</time></trkpt><trkpt lat="41.94972779676946" lon="12.791230234630811"><ele>196.0</ele><time>2026-04-09T14:02:44Z</time></trkpt><trkpt lat="41.949873904934556" lon="12.791180748714774"><ele>196.0</ele><time>2026-04-09T14:02:45Z</time></trkpt><trkpt lat="41.95004977907003" lon="12.791124110507525"><ele>196.0</ele><time>2026-04-09T14:02:46Z</time></trkpt><trkpt lat="41.950208397031325" lon="12.791078428311168"><ele>199.33333333333331</ele><time>2026-04-09T14:02:47Z</time></trkpt><trkpt lat="41.950355665776236" lon="12.791047888221076"><ele>202.66666666666669</ele><time>2026-04-09T14:02:48Z</time></trkpt><trkpt lat="41.9504947453386" lon="12.791029880791793"><ele>206.0</ele><time>2026-04-09T14:02:49Z</time></trkpt><trkpt lat="41.950663012696204" lon="12.791022429623453"><ele>206.0</ele><time>2026-04-09T14:02:50Z</time></trkpt><trkpt lat="41.950826013174726" lon="12.791022620360705"><ele>206.0</ele><time>2026-04-09T14:02:51Z</time></trkpt><trkpt lat="41.95097311762951" lon="12.791023419903436"><ele>206.0</ele><time>2026-04-09T14:02:52Z</time></trkpt><trkpt lat="41.951107709709945" lon="12.791024075762536"><ele>206.0</ele><time>2026-04-09T14:02:53Z</time></trkpt><trkpt lat="41.95123890144804" lon="12.791027188886664"><ele>207.0</ele><time>2026-04-09T14:02:54Z</time></trkpt><trkpt lat="41.95140082242676" lon="12.79103257220517"><ele>208.0</ele><time>2026-04-09T14:02:55Z</time></trkpt><trkpt lat="41.951550305537104" lon="12.791038852469727"><ele>209.0</ele><time>2026-04-09T14:02:56Z</time></trkpt><trkpt lat="41.95167221875194" lon="12.791046202842011"><ele>210.0</ele><time>2026-04-09T14:02:57Z</time></trkpt><trkpt lat="41.95177451713849" lon="12.79105553656675"><ele>210.4</ele><time>2026-04-09T14:02:58Z</time></trkpt><trkpt lat="41.95186860024801" lon="12.791069359089459"><ele>210.8</ele><time>2026-04-09T14:02:59Z</time></trkpt><trkpt lat="41.95195942062815" lon="12.791085550377053"><ele>211.2</ele><time>2026-04-09T14:03:00Z</time></trkpt><trkpt lat="41.952078058942185" lon="12.791107632921788"><ele>211.6</ele><time>2026-04-09T14:03:01Z</time></trkpt><trkpt lat="41.95220899126905" lon="12.791135912231685"><ele>212.0</ele><time>2026-04-09T14:03:02Z</time></trkpt><trkpt lat="41.952343256970366" lon="12.791170860201536"><ele>212.0</ele><time>2026-04-09T14:03:03Z</time></trkpt><trkpt lat="41.95249354188506" lon="12.791211431666863"><ele>212.0</ele><time>2026-04-09T14:03:04Z</time></trkpt><trkpt lat="41.952622280288445" lon="12.791243472686974"><ele>212.0</ele><time>2026-04-09T14:03:05Z</time></trkpt><trkpt lat="41.952727332635575" lon="12.791269620297529"><ele>212.0</ele><time>2026-04-09T14:03:06Z</time></trkpt><trkpt lat="41.952804148316304" lon="12.79128873854711"><ele>211.75</ele><time>2026-04-09T14:03:07Z</time></trkpt><trkpt lat="41.952891288450886" lon="12.791310426391654"><ele>211.5</ele><time>2026-04-09T14:03:08Z</time></trkpt><trkpt lat="41.95303492437979" lon="12.79134901106889"><ele>211.25</ele><time>2026-04-09T14:03:09Z</time></trkpt><trkpt lat="41.953171510757876" lon="12.79138636736927"><ele>211.0</ele><time>2026-04-09T14:03:10Z</time></trkpt><trkpt lat="41.95329357892547" lon="12.791419060309192"><ele>211.0</ele><time>2026-04-09T14:03:11Z</time></trkpt><trkpt lat="41.95340744332401" lon="12.791446376112786"><ele>211.0</ele><time>2026-04-09T14:03:12Z</time></trkpt><trkpt lat="41.953508977544004" lon="12.791470733888143"><ele>211.0</ele><time>2026-04-09T14:03:13Z</time></trkpt><trkpt lat="41.95360637349518" lon="12.79149315375512"><ele>211.0</ele><time>2026-04-09T14:03:14Z</time></trkpt><trkpt lat="41.953709257398174" lon="12.791518991425914"><ele>211.0</ele><time>2026-04-09T14:03:15Z</time></trkpt><trkpt lat="41.95380483029027" lon="12.791524330556213"><ele>210.99999999999997</ele><time>2026-04-09T14:03:16Z</time></trkpt><trkpt lat="41.95388712983703" lon="12.79154525683197"><ele>211.0</ele><time>2026-04-09T14:03:17Z</time></trkpt><trkpt lat="41.95397668446613" lon="12.791569341444374"><ele>211.0</ele><time>2026-04-09T14:03:18Z</time></trkpt><trkpt lat="41.95406878827116" lon="12.79159190550178"><ele>211.0</ele><time>2026-04-09T14:03:19Z</time></trkpt><trkpt lat="41.954150845768375" lon="12.791612956030978"><ele>210.99999999999997</ele><time>2026-04-09T14:03:20Z</time></trkpt><trkpt lat="41.9542248026436" lon="12.791653165708686"><ele>211.0</ele><time>2026-04-09T14:03:21Z</time></trkpt><trkpt lat="41.95430778367463" lon="12.791675007485129"><ele>210.4</ele><time>2026-04-09T14:03:22Z</time></trkpt><trkpt lat="41.95440836957208" lon="12.791676791311433"><ele>209.8</ele><time>2026-04-09T14:03:23.001Z</time></trkpt><trkpt lat="41.954501914140145" lon="12.791701816166917"><ele>209.20000000000002</ele><time>2026-04-09T14:03:24.001Z</time></trkpt><trkpt lat="41.95458608988648" lon="12.791726541633963"><ele>208.60000000000002</ele><time>2026-04-09T14:03:25.001Z</time></trkpt><trkpt lat="41.954677817122494" lon="12.79174945779517"><ele>208.0</ele><time>2026-04-09T14:03:26.001Z</time></trkpt><trkpt lat="41.95476969317063" lon="12.791780448442545"><ele>208.0</ele><time>2026-04-09T14:03:27.001Z</time></trkpt><trkpt lat="41.954857627455574" lon="12.791809143844327"><ele>208.0</ele><time>2026-04-09T14:03:28.001Z</time></trkpt><trkpt lat="41.95495252829844" lon="12.79183585476459"><ele>208.0</ele><time>2026-04-09T14:03:29.001Z</time></trkpt><trkpt lat="41.955071458285445" lon="12.791868485082668"><ele>208.0</ele><time>2026-04-09T14:03:30.001Z</time></trkpt><trkpt lat="41.95519874392245" lon="12.79190751534983"><ele>208.0</ele><time>2026-04-09T14:03:31.001Z</time></trkpt><trkpt lat="41.95530446447156" lon="12.791935408754943"><ele>210.83333333333331</ele><time>2026-04-09T14:03:32.001Z</time></trkpt><trkpt lat="41.95539442593674" lon="12.791964523099157"><ele>213.66666666666666</ele><time>2026-04-09T14:03:33.001Z</time></trkpt><trkpt lat="41.95546647177469" lon="12.79201053549435"><ele>216.5</ele><time>2026-04-09T14:03:34.001Z</time></trkpt><trkpt lat="41.95553510425866" lon="12.792010501096673"><ele>219.33333333333331</ele><time>2026-04-09T14:03:35.001Z</time></trkpt><trkpt lat="41.955638985854726" lon="12.792049118295962"><ele>222.16666666666666</ele><time>2026-04-09T14:03:37.001Z</time></trkpt><trkpt lat="41.95570538062599" lon="12.792072103092767"><ele>225.0</ele><time>2026-04-09T14:03:39.001Z</time></trkpt><trkpt lat="41.95579384315855" lon="12.792108706682596"><ele>224.2</ele><time>2026-04-09T14:03:41.001Z</time></trkpt><trkpt lat="41.95593706603819" lon="12.792174720338073"><ele>223.4</ele><time>2026-04-09T14:03:43.001Z</time></trkpt><trkpt lat="41.95603081222087" lon="12.792218259015337"><ele>222.60000000000002</ele><time>2026-04-09T14:03:44.001Z</time></trkpt><trkpt lat="41.95610937248739" lon="12.792262239113645"><ele>221.8</ele><time>2026-04-09T14:03:45.001Z</time></trkpt><trkpt lat="41.95618915151242" lon="12.79231132725396"><ele>221.0</ele><time>2026-04-09T14:03:46.001Z</time></trkpt><trkpt lat="41.956282722089306" lon="12.792355868535532"><ele>221.0</ele><time>2026-04-09T14:03:47.001Z</time></trkpt><trkpt lat="41.95638873762957" lon="12.792409990937301"><ele>221.0</ele><time>2026-04-09T14:03:48.001Z</time></trkpt><trkpt lat="41.95650215446571" lon="12.792481117751802"><ele>221.0</ele><time>2026-04-09T14:03:49.001Z</time></trkpt><trkpt lat="41.95660450197618" lon="12.792553661198857"><ele>221.0</ele><time>2026-04-09T14:03:50.001Z</time></trkpt><trkpt lat="41.95668805079542" lon="12.792618323419132"><ele>223.8</ele><time>2026-04-09T14:03:51.001Z</time></trkpt><trkpt lat="41.95678177561406" lon="12.792675512836583"><ele>226.60000000000002</ele><time>2026-04-09T14:03:52.001Z</time></trkpt><trkpt lat="41.95687642735119" lon="12.792733180908186"><ele>229.4</ele><time>2026-04-09T14:03:53.001Z</time></trkpt><trkpt lat="41.956969971260264" lon="12.792801329724206"><ele>232.2</ele><time>2026-04-09T14:03:54.001Z</time></trkpt><trkpt lat="41.9570551035396" lon="12.792865036450134"><ele>235.0</ele><time>2026-04-09T14:03:55.001Z</time></trkpt><trkpt lat="41.95713875975272" lon="12.792926986865949"><ele>235.0</ele><time>2026-04-09T14:03:56.001Z</time></trkpt><trkpt lat="41.95722531126257" lon="12.7929845546007"><ele>235.0</ele><time>2026-04-09T14:03:57.001Z</time></trkpt><trkpt lat="41.95731217771632" lon="12.793045603734377"><ele>235.0</ele><time>2026-04-09T14:03:58.001Z</time></trkpt><trkpt lat="41.95739837487181" lon="12.793105066086818"><ele>235.0</ele><time>2026-04-09T14:03:59.001Z</time></trkpt><trkpt lat="41.95747091683958" lon="12.793151700837916"><ele>235.0</ele><time>2026-04-09T14:04:00.001Z</time></trkpt><trkpt lat="41.95754770817621" lon="12.79320312266618"><ele>233.99999999999997</ele><time>2026-04-09T14:04:01.001Z</time></trkpt><trkpt lat="41.957613371454535" lon="12.793255036609699"><ele>233.0</ele><time>2026-04-09T14:04:02.001Z</time></trkpt><trkpt lat="41.95769023410378" lon="12.79330500803095"><ele>232.0</ele><time>2026-04-09T14:04:03.001Z</time></trkpt><trkpt lat="41.95775872539182" lon="12.793349336496078"><ele>231.0</ele><time>2026-04-09T14:04:04.001Z</time></trkpt><trkpt lat="41.95782594699937" lon="12.79340668985039"><ele>229.99999999999997</ele><time>2026-04-09T14:04:05.001Z</time></trkpt><trkpt lat="41.95789362451882" lon="12.793453931181453"><ele>229.0</ele><time>2026-04-09T14:04:06.001Z</time></trkpt><trkpt lat="41.95795319819391" lon="12.793495525835839"><ele>229.83333333333331</ele><time>2026-04-09T14:04:07.001Z</time></trkpt><trkpt lat="41.95801906517357" lon="12.79353767500867"><ele>230.66666666666666</ele><time>2026-04-09T14:04:08.001Z</time></trkpt><trkpt lat="41.95808892338435" lon="12.793592788345899"><ele>231.5</ele><time>2026-04-09T14:04:09.001Z</time></trkpt><trkpt lat="41.958171468414776" lon="12.793655556215862"><ele>232.33333333333331</ele><time>2026-04-09T14:04:10.001Z</time></trkpt><trkpt lat="41.95825537697765" lon="12.793716706543186"><ele>233.16666666666666</ele><time>2026-04-09T14:04:11.001Z</time></trkpt><trkpt lat="41.95833705587027" lon="12.793772377679092"><ele>234.0</ele><time>2026-04-09T14:04:12.001Z</time></trkpt><trkpt lat="41.958437463499386" lon="12.793848308761664"><ele>234.0</ele><time>2026-04-09T14:04:13.001Z</time></trkpt><trkpt lat="41.95856639234149" lon="12.793955599839817"><ele>234.0</ele><time>2026-04-09T14:04:14.001Z</time></trkpt><trkpt lat="41.958692707409114" lon="12.794045810137401"><ele>234.0</ele><time>2026-04-09T14:04:15.001Z</time></trkpt><trkpt lat="41.95880497387404" lon="12.794153780074621"><ele>234.0</ele><time>2026-04-09T14:04:16Z</time></trkpt><trkpt lat="41.95891091979428" lon="12.79424022324127"><ele>234.0</ele><time>2026-04-09T14:04:17Z</time></trkpt><trkpt lat="41.95905908173994" lon="12.794331761629989"><ele>234.0</ele><time>2026-04-09T14:04:18Z</time></trkpt><trkpt lat="41.95917190010625" lon="12.794478959474755"><ele>234.0</ele><time>2026-04-09T14:04:19Z</time></trkpt><trkpt lat="41.959297718424544" lon="12.79458406013083"><ele>236.0</ele><time>2026-04-09T14:04:20Z</time></trkpt><trkpt lat="41.95943182426241" lon="12.794695814973881"><ele>238.0</ele><time>2026-04-09T14:04:21Z</time></trkpt><trkpt lat="41.959551048094724" lon="12.794795411127629"><ele>240.0</ele><time>2026-04-09T14:04:22Z</time></trkpt><trkpt lat="41.95965599864821" lon="12.794882410925917"><ele>242.0</ele><time>2026-04-09T14:04:23Z</time></trkpt><trkpt lat="41.95974654120532" lon="12.794957424356278"><ele>242.00000000000003</ele><time>2026-04-09T14:04:24Z</time></trkpt><trkpt lat="41.95981286102715" lon="12.795012369559828"><ele>242.0</ele><time>2026-04-09T14:04:25Z</time></trkpt><trkpt lat="41.95986718679891" lon="12.795058678038627"><ele>242.0</ele><time>2026-04-09T14:04:26Z</time></trkpt><trkpt lat="41.95994060437483" lon="12.79512382933024"><ele>242.0</ele><time>2026-04-09T14:04:28Z</time></trkpt><trkpt lat="41.9600072802396" lon="12.795182997977646"><ele>242.00000000000003</ele><time>2026-04-09T14:04:44Z</time></trkpt><trkpt lat="41.96009862410958" lon="12.79527059093691"><ele>242.0</ele><time>2026-04-09T14:04:46Z</time></trkpt><trkpt lat="41.96015697967454" lon="12.795307226891643"><ele>241.8</ele><time>2026-04-09T14:04:47Z</time></trkpt><trkpt lat="41.96021702368136" lon="12.79540442311126"><ele>241.6</ele><time>2026-04-09T14:04:48Z</time></trkpt><trkpt lat="41.96028326423971" lon="12.795521134609457"><ele>241.40000000000003</ele><time>2026-04-09T14:04:49Z</time></trkpt><trkpt lat="41.960344387098885" lon="12.795615697534734"><ele>241.20000000000002</ele><time>2026-04-09T14:04:50Z</time></trkpt><trkpt lat="41.96041390397754" lon="12.795743992991245"><ele>241.0</ele><time>2026-04-09T14:04:51Z</time></trkpt><trkpt lat="41.96046550620885" lon="12.795874298746845"><ele>241.60000000000002</ele><time>2026-04-09T14:04:52Z</time></trkpt><trkpt lat="41.96052441280791" lon="12.796020941287685"><ele>242.20000000000002</ele><time>2026-04-09T14:04:53Z</time></trkpt><trkpt lat="41.96056870547762" lon="12.796145968725162"><ele>242.79999999999998</ele><time>2026-04-09T14:04:54Z</time></trkpt><trkpt lat="41.96061377309126" lon="12.79624605414588"><ele>243.39999999999998</ele><time>2026-04-09T14:04:55Z</time></trkpt><trkpt lat="41.960651597184906" lon="12.796346971840798"><ele>244.0</ele><time>2026-04-09T14:04:56Z</time></trkpt><trkpt lat="41.96067345703674" lon="12.796464907372924"><ele>244.0</ele><time>2026-04-09T14:04:57Z</time></trkpt><trkpt lat="41.96067405485532" lon="12.796551640983159"><ele>243.99999999999997</ele><time>2026-04-09T14:04:58Z</time></trkpt><trkpt lat="41.96064435970172" lon="12.796675744362794"><ele>243.99999999999997</ele><time>2026-04-09T14:05:00Z</time></trkpt><trkpt lat="41.96060635421942" lon="12.796768789043812"><ele>244.0</ele><time>2026-04-09T14:05:02Z</time></trkpt><trkpt lat="41.960524260078216" lon="12.7968511384334"><ele>244.0</ele><time>2026-04-09T14:05:04Z</time></trkpt><trkpt lat="41.96044692628208" lon="12.796952033615398"><ele>244.39999999999998</ele><time>2026-04-09T14:05:06Z</time></trkpt><trkpt lat="41.96035148045667" lon="12.797066869847178"><ele>244.79999999999998</ele><time>2026-04-09T14:05:08Z</time></trkpt><trkpt lat="41.960268054772165" lon="12.79716045737637"><ele>245.20000000000002</ele><time>2026-04-09T14:05:09Z</time></trkpt><trkpt lat="41.960196459327044" lon="12.797240343126754"><ele>245.60000000000002</ele><time>2026-04-09T14:05:10Z</time></trkpt><trkpt lat="41.96012657496836" lon="12.797323672812862"><ele>246.0</ele><time>2026-04-09T14:05:11Z</time></trkpt><trkpt lat="41.960056220555245" lon="12.797396107965756"><ele>246.0</ele><time>2026-04-09T14:05:12Z</time></trkpt><trkpt lat="41.959983781904235" lon="12.797499281303933"><ele>246.0</ele><time>2026-04-09T14:05:13Z</time></trkpt><trkpt lat="41.959911368550884" lon="12.79759967736848"><ele>246.0</ele><time>2026-04-09T14:05:14Z</time></trkpt><trkpt lat="41.959855157271704" lon="12.797667435515937"><ele>246.0</ele><time>2026-04-09T14:05:15Z</time></trkpt><trkpt lat="41.95980319101242" lon="12.797733855709106"><ele>246.0</ele><time>2026-04-09T14:05:16Z</time></trkpt><trkpt lat="41.95975168208836" lon="12.797801338229519"><ele>246.0</ele><time>2026-04-09T14:05:17Z</time></trkpt><trkpt lat="41.95970707972543" lon="12.797871202644505"><ele>246.20000000000002</ele><time>2026-04-09T14:05:18Z</time></trkpt><trkpt lat="41.95965857727988" lon="12.797943937815564"><ele>246.40000000000003</ele><time>2026-04-09T14:05:19Z</time></trkpt><trkpt lat="41.95960499751796" lon="12.798013312428447"><ele>246.6</ele><time>2026-04-09T14:05:20Z</time></trkpt><trkpt lat="41.95952362257347" lon="12.798127467688671"><ele>246.8</ele><time>2026-04-09T14:05:22Z</time></trkpt><trkpt lat="41.95944392104434" lon="12.798231757583567"><ele>247.0</ele><time>2026-04-09T14:05:24Z</time></trkpt><trkpt lat="41.959363867862365" lon="12.798379578962873"><ele>247.0</ele><time>2026-04-09T14:05:26Z</time></trkpt><trkpt lat="41.95935788707533" lon="12.798473026206855"><ele>247.0</ele><time>2026-04-09T14:05:27Z</time></trkpt><trkpt lat="41.95937764636239" lon="12.798608862992879"><ele>247.0</ele><time>2026-04-09T14:05:28Z</time></trkpt><trkpt lat="41.959384011901335" lon="12.798737166463766"><ele>247.0</ele><time>2026-04-09T14:05:29Z</time></trkpt><trkpt lat="41.959385926381835" lon="12.798862247064852"><ele>247.0</ele><time>2026-04-09T14:05:30Z</time></trkpt><trkpt lat="41.95940109892976" lon="12.798983378900282"><ele>248.0</ele><time>2026-04-09T14:05:31Z</time></trkpt><trkpt lat="41.959408441404356" lon="12.799163903756309"><ele>249.0</ele><time>2026-04-09T14:05:32Z</time></trkpt><trkpt lat="41.95941931349714" lon="12.799355251502856"><ele>250.0</ele><time>2026-04-09T14:05:33Z</time></trkpt><trkpt lat="41.9594409757084" lon="12.799568575546171"><ele>251.0</ele><time>2026-04-09T14:05:34Z</time></trkpt><trkpt lat="41.95946012073502" lon="12.799731944238527"><ele>250.75</ele><time>2026-04-09T14:05:35.001Z</time></trkpt><trkpt lat="41.959462941008816" lon="12.799854437834755"><ele>250.5</ele><time>2026-04-09T14:05:36.001Z</time></trkpt><trkpt lat="41.95947097490226" lon="12.79994564944501"><ele>250.25</ele><time>2026-04-09T14:05:37.001Z</time></trkpt><trkpt lat="41.95947811816207" lon="12.80013912775206"><ele>250.0</ele><time>2026-04-09T14:05:39.001Z</time></trkpt><trkpt lat="41.95949019445978" lon="12.800340974302692"><ele>250.0</ele><time>2026-04-09T14:05:40.001Z</time></trkpt><trkpt lat="41.95950595761484" lon="12.800548632059343"><ele>250.0</ele><time>2026-04-09T14:05:41.001Z</time></trkpt><trkpt lat="41.95950908436231" lon="12.80069531802628"><ele>250.0</ele><time>2026-04-09T14:05:42.001Z</time></trkpt><trkpt lat="41.959521701477925" lon="12.800820308064633"><ele>250.0</ele><time>2026-04-09T14:05:43.001Z</time></trkpt><trkpt lat="41.9595202596845" lon="12.800949264549272"><ele>248.75</ele><time>2026-04-09T14:05:44.001Z</time></trkpt><trkpt lat="41.95951919554142" lon="12.801147832196335"><ele>247.5</ele><time>2026-04-09T14:05:45.001Z</time></trkpt><trkpt lat="41.95953256587348" lon="12.801313974614125"><ele>246.25</ele><time>2026-04-09T14:05:46.001Z</time></trkpt><trkpt lat="41.95954704923883" lon="12.801459899629242"><ele>245.0</ele><time>2026-04-09T14:05:47.001Z</time></trkpt><trkpt lat="41.959554205751715" lon="12.801578761145992"><ele>245.00000000000003</ele><time>2026-04-09T14:05:48.001Z</time></trkpt><trkpt lat="41.95956262576848" lon="12.801677127139111"><ele>245.0</ele><time>2026-04-09T14:05:49.001Z</time></trkpt><trkpt lat="41.959572788667366" lon="12.801779129505292"><ele>245.0</ele><time>2026-04-09T14:05:51.001Z</time></trkpt><trkpt lat="41.95960005333997" lon="12.801876962171097"><ele>245.0</ele><time>2026-04-09T14:06:02.001Z</time></trkpt><trkpt lat="41.959608617167255" lon="12.802025172654202"><ele>245.00000000000003</ele><time>2026-04-09T14:06:05.001Z</time></trkpt><trkpt lat="41.95962174454956" lon="12.802111195220535"><ele>245.0</ele><time>2026-04-09T14:06:07.001Z</time></trkpt><trkpt lat="41.95964763439231" lon="12.802235456450122"><ele>244.71428571428572</ele><time>2026-04-09T14:06:09.001Z</time></trkpt><trkpt lat="41.95968273626668" lon="12.802364208060292"><ele>244.42857142857144</ele><time>2026-04-09T14:06:11.001Z</time></trkpt><trkpt lat="41.959686963384534" lon="12.802459834698292"><ele>244.14285714285714</ele><time>2026-04-09T14:06:12.001Z</time></trkpt><trkpt lat="41.95970808224965" lon="12.80254261549551"><ele>243.85714285714286</ele><time>2026-04-09T14:06:13.001Z</time></trkpt><trkpt lat="41.959729013518896" lon="12.802624661234246"><ele>243.57142857142858</ele><time>2026-04-09T14:06:14.001Z</time></trkpt><trkpt lat="41.95975116915703" lon="12.802709386558591"><ele>243.28571428571428</ele><time>2026-04-09T14:06:15.001Z</time></trkpt><trkpt lat="41.959772517280044" lon="12.802790962419671"><ele>243.0</ele><time>2026-04-09T14:06:16.001Z</time></trkpt><trkpt lat="41.95979841323879" lon="12.802889915743952"><ele>240.60000000000002</ele><time>2026-04-09T14:06:17.001Z</time></trkpt><trkpt lat="41.95984897716281" lon="12.803005000077134"><ele>238.20000000000002</ele><time>2026-04-09T14:06:18.001Z</time></trkpt><trkpt lat="41.95990210414168" lon="12.803089388672262"><ele>235.8</ele><time>2026-04-09T14:06:19.001Z</time></trkpt><trkpt lat="41.960005164718304" lon="12.803147654240714"><ele>233.4</ele><time>2026-04-09T14:06:20.001Z</time></trkpt><trkpt lat="41.96010458889543" lon="12.803206975689218"><ele>231.0</ele><time>2026-04-09T14:06:21.001Z</time></trkpt><trkpt lat="41.96017887271702" lon="12.80316749606826"><ele>229.75</ele><time>2026-04-09T14:06:21.999Z</time></trkpt><trkpt lat="41.96026627366707" lon="12.803133980434813"><ele>228.5</ele><time>2026-04-09T14:06:22.999Z</time></trkpt><trkpt lat="41.96039090401445" lon="12.803109243212544"><ele>227.25</ele><time>2026-04-09T14:06:23.999Z</time></trkpt><trkpt lat="41.960524143009614" lon="12.80307262825553"><ele>226.0</ele><time>2026-04-09T14:06:24.999Z</time></trkpt><trkpt lat="41.960646560918626" lon="12.803065714926673"><ele>226.0</ele><time>2026-04-09T14:06:25.999Z</time></trkpt><trkpt lat="41.96075438482288" lon="12.803020673165854"><ele>226.00000000000003</ele><time>2026-04-09T14:06:26.999Z</time></trkpt><trkpt lat="41.96086105994781" lon="12.80301972338477"><ele>226.00000000000003</ele><time>2026-04-09T14:06:27.999Z</time></trkpt><trkpt lat="41.96096630387526" lon="12.802997157649752"><ele>226.0</ele><time>2026-04-09T14:06:28.999Z</time></trkpt><trkpt lat="41.961066060640015" lon="12.80297546346089"><ele>226.0</ele><time>2026-04-09T14:06:29.999Z</time></trkpt><trkpt lat="41.96116474080038" lon="12.802952813070181"><ele>224.60000000000002</ele><time>2026-04-09T14:06:30.999Z</time></trkpt><trkpt lat="41.961259785354976" lon="12.802927218522946"><ele>223.20000000000002</ele><time>2026-04-09T14:06:31.999Z</time></trkpt><trkpt lat="41.96136696347976" lon="12.80287271884451"><ele>221.79999999999998</ele><time>2026-04-09T14:06:32.999Z</time></trkpt><trkpt lat="41.961482037689116" lon="12.802836893170147"><ele>220.39999999999998</ele><time>2026-04-09T14:06:33.999Z</time></trkpt><trkpt lat="41.96159481070929" lon="12.802812971369725"><ele>219.0</ele><time>2026-04-09T14:06:34.999Z</time></trkpt><trkpt lat="41.96169658979851" lon="12.802765216297756"><ele>219.6</ele><time>2026-04-09T14:06:35.999Z</time></trkpt><trkpt lat="41.96180037568458" lon="12.802687127293154"><ele>220.2</ele><time>2026-04-09T14:06:36.999Z</time></trkpt><trkpt lat="41.96190904400541" lon="12.802631922372491"><ele>220.79999999999998</ele><time>2026-04-09T14:06:37.999Z</time></trkpt><trkpt lat="41.96200867958447" lon="12.80257629540884"><ele>221.39999999999998</ele><time>2026-04-09T14:06:38.999Z</time></trkpt><trkpt lat="41.962083030422754" lon="12.802536438770375"><ele>222.0</ele><time>2026-04-09T14:06:40Z</time></trkpt><trkpt lat="41.96218718028419" lon="12.802472316004273"><ele>222.0</ele><time>2026-04-09T14:06:42Z</time></trkpt><trkpt lat="41.96229770019331" lon="12.80239997721781"><ele>222.0</ele><time>2026-04-09T14:06:44Z</time></trkpt><trkpt lat="41.96240912740851" lon="12.802329448912497"><ele>222.0</ele><time>2026-04-09T14:06:46Z</time></trkpt><trkpt lat="41.96247363604727" lon="12.802283810243422"><ele>222.0</ele><time>2026-04-09T14:06:47Z</time></trkpt><trkpt lat="41.96254621393639" lon="12.802235325137202"><ele>222.0</ele><time>2026-04-09T14:06:48Z</time></trkpt><trkpt lat="41.96261606270476" lon="12.802187401114997"><ele>222.33333333333334</ele><time>2026-04-09T14:06:49Z</time></trkpt><trkpt lat="41.96270552684235" lon="12.802133528429994"><ele>222.66666666666669</ele><time>2026-04-09T14:06:50Z</time></trkpt><trkpt lat="41.96280841222981" lon="12.802096402641407"><ele>223.0</ele><time>2026-04-09T14:06:51Z</time></trkpt><trkpt lat="41.96288503478358" lon="12.802050756402977"><ele>223.33333333333334</ele><time>2026-04-09T14:06:52Z</time></trkpt><trkpt lat="41.96295464583935" lon="12.80201264319831"><ele>223.66666666666669</ele><time>2026-04-09T14:06:53Z</time></trkpt><trkpt lat="41.963019975833596" lon="12.801977293121459"><ele>224.0</ele><time>2026-04-09T14:06:54Z</time></trkpt><trkpt lat="41.963089558488356" lon="12.8019402113625"><ele>224.0</ele><time>2026-04-09T14:06:55Z</time></trkpt><trkpt lat="41.96316295711305" lon="12.801902132780326"><ele>223.99999999999997</ele><time>2026-04-09T14:06:56Z</time></trkpt><trkpt lat="41.963259106140306" lon="12.801852832813726"><ele>223.99999999999997</ele><time>2026-04-09T14:06:57Z</time></trkpt><trkpt lat="41.96337409980198" lon="12.801791965494473"><ele>224.0</ele><time>2026-04-09T14:06:58Z</time></trkpt><trkpt lat="41.96347776237454" lon="12.801742639004884"><ele>224.0</ele><time>2026-04-09T14:06:59Z</time></trkpt><trkpt lat="41.96356421178859" lon="12.80171300574631"><ele>223.33333333333334</ele><time>2026-04-09T14:07:00Z</time></trkpt><trkpt lat="41.96365437279676" lon="12.801691237831896"><ele>222.66666666666669</ele><time>2026-04-09T14:07:01Z</time></trkpt><trkpt lat="41.963730657561975" lon="12.801679790007883"><ele>222.0</ele><time>2026-04-09T14:07:02Z</time></trkpt><trkpt lat="41.963816852422845" lon="12.801655537294346"><ele>221.33333333333331</ele><time>2026-04-09T14:07:03Z</time></trkpt><trkpt lat="41.963905522860884" lon="12.80166032387271"><ele>220.66666666666666</ele><time>2026-04-09T14:07:04Z</time></trkpt><trkpt lat="41.9640017224497" lon="12.80167146585216"><ele>220.0</ele><time>2026-04-09T14:07:05Z</time></trkpt><trkpt lat="41.964095863763625" lon="12.801705796754383"><ele>219.99999999999997</ele><time>2026-04-09T14:07:06Z</time></trkpt><trkpt lat="41.96417067800901" lon="12.801727368183533"><ele>220.0</ele><time>2026-04-09T14:07:07Z</time></trkpt><trkpt lat="41.96424320616983" lon="12.801750753235716"><ele>220.0</ele><time>2026-04-09T14:07:08Z</time></trkpt><trkpt lat="41.96432803789096" lon="12.801779604363636"><ele>220.0</ele><time>2026-04-09T14:07:09Z</time></trkpt><trkpt lat="41.9644148892412" lon="12.801803743151579"><ele>219.99999999999997</ele><time>2026-04-09T14:07:10Z</time></trkpt><trkpt lat="41.96452312117562" lon="12.801797309857584"><ele>220.0</ele><time>2026-04-09T14:07:11Z</time></trkpt><trkpt lat="41.96461093199029" lon="12.801733299132453"><ele>220.8</ele><time>2026-04-09T14:07:12Z</time></trkpt><trkpt lat="41.96470067272465" lon="12.801708782394275"><ele>221.6</ele><time>2026-04-09T14:07:13Z</time></trkpt><trkpt lat="41.96477530289424" lon="12.801669334215863"><ele>222.39999999999998</ele><time>2026-04-09T14:07:14Z</time></trkpt><trkpt lat="41.96483305607993" lon="12.801629920090734"><ele>223.2</ele><time>2026-04-09T14:07:15Z</time></trkpt><trkpt lat="41.96494168757686" lon="12.801555739397783"><ele>224.0</ele><time>2026-04-09T14:07:17Z</time></trkpt><trkpt lat="41.965063369449794" lon="12.801594637272254"><ele>224.33333333333334</ele><time>2026-04-09T14:07:19Z</time></trkpt><trkpt lat="41.96511150390451" lon="12.801669742426544"><ele>224.66666666666669</ele><time>2026-04-09T14:07:20Z</time></trkpt><trkpt lat="41.965131330040876" lon="12.801762602324603"><ele>225.0</ele><time>2026-04-09T14:07:21Z</time></trkpt><trkpt lat="41.96510765026033" lon="12.801846348984274"><ele>225.33333333333331</ele><time>2026-04-09T14:07:22Z</time></trkpt><trkpt lat="41.965015006982135" lon="12.801986516770574"><ele>225.66666666666666</ele><time>2026-04-09T14:07:24Z</time></trkpt><trkpt lat="41.964948777523325" lon="12.802057363264511"><ele>226.0</ele><time>2026-04-09T14:07:25Z</time></trkpt><trkpt lat="41.964890348235244" lon="12.802125322833849"><ele>226.85714285714286</ele><time>2026-04-09T14:07:26Z</time></trkpt><trkpt lat="41.96484640533795" lon="12.80219741559277"><ele>227.71428571428572</ele><time>2026-04-09T14:07:27Z</time></trkpt><trkpt lat="41.96478649555136" lon="12.802266346509695"><ele>228.57142857142858</ele><time>2026-04-09T14:07:28Z</time></trkpt><trkpt lat="41.96472611132645" lon="12.802344317390082"><ele>229.42857142857144</ele><time>2026-04-09T14:07:29Z</time></trkpt><trkpt lat="41.96467363939592" lon="12.802408135857101"><ele>230.28571428571428</ele><time>2026-04-09T14:07:30Z</time></trkpt><trkpt lat="41.964620543318425" lon="12.80247300141844"><ele>231.14285714285717</ele><time>2026-04-09T14:07:31.001Z</time></trkpt><trkpt lat="41.96456820110607" lon="12.802533316998934"><ele>232.00000000000003</ele><time>2026-04-09T14:07:32.001Z</time></trkpt><trkpt lat="41.96451173931794" lon="12.802601802225237"><ele>233.8</ele><time>2026-04-09T14:07:33.001Z</time></trkpt><trkpt lat="41.96445050696843" lon="12.802687945229602"><ele>235.6</ele><time>2026-04-09T14:07:34.001Z</time></trkpt><trkpt lat="41.96438060594989" lon="12.802776894643621"><ele>237.40000000000003</ele><time>2026-04-09T14:07:35.001Z</time></trkpt><trkpt lat="41.96430394158057" lon="12.802871720700571"><ele>239.20000000000002</ele><time>2026-04-09T14:07:36.001Z</time></trkpt><trkpt lat="41.964215859721996" lon="12.80297374798969"><ele>241.0</ele><time>2026-04-09T14:07:37.001Z</time></trkpt><trkpt lat="41.964145194163976" lon="12.803067740852372"><ele>241.0</ele><time>2026-04-09T14:07:38.001Z</time></trkpt><trkpt lat="41.9640728913721" lon="12.803168903745394"><ele>241.00000000000003</ele><time>2026-04-09T14:07:39.001Z</time></trkpt><trkpt lat="41.96400987207914" lon="12.80326404736457"><ele>241.00000000000003</ele><time>2026-04-09T14:07:40.001Z</time></trkpt><trkpt lat="41.963953379571095" lon="12.803381923258303"><ele>241.0</ele><time>2026-04-09T14:07:41.001Z</time></trkpt><trkpt lat="41.963895124783775" lon="12.803529761206711"><ele>241.0</ele><time>2026-04-09T14:07:42.001Z</time></trkpt><trkpt lat="41.96379628949513" lon="12.803712882727469"><ele>245.25</ele><time>2026-04-09T14:07:43.001Z</time></trkpt><trkpt lat="41.96369833219079" lon="12.803919707864798"><ele>249.5</ele><time>2026-04-09T14:07:44.001Z</time></trkpt><trkpt lat="41.96361951946948" lon="12.804083388731488"><ele>253.75</ele><time>2026-04-09T14:07:45.001Z</time></trkpt><trkpt lat="41.96355727815593" lon="12.804220414897756"><ele>258.0</ele><time>2026-04-09T14:07:46.001Z</time></trkpt><trkpt lat="41.963498520327484" lon="12.804348820751791"><ele>255.8</ele><time>2026-04-09T14:07:47.001Z</time></trkpt><trkpt lat="41.96344592938464" lon="12.804450359163877"><ele>253.60000000000002</ele><time>2026-04-09T14:07:48.001Z</time></trkpt><trkpt lat="41.9633784265296" lon="12.804576565972857"><ele>251.39999999999998</ele><time>2026-04-09T14:07:49.001Z</time></trkpt><trkpt lat="41.96328505363538" lon="12.804660785878323"><ele>249.2</ele><time>2026-04-09T14:07:50.001Z</time></trkpt><trkpt lat="41.96320428104811" lon="12.80475146364543"><ele>247.0</ele><time>2026-04-09T14:07:51.001Z</time></trkpt><trkpt lat="41.96312805036325" lon="12.804834805488822"><ele>247.0</ele><time>2026-04-09T14:07:52.001Z</time></trkpt><trkpt lat="41.96304106955181" lon="12.804914153398737"><ele>247.0</ele><time>2026-04-09T14:07:53.001Z</time></trkpt><trkpt lat="41.96295131167615" lon="12.804996825424713"><ele>247.0</ele><time>2026-04-09T14:07:54.001Z</time></trkpt><trkpt lat="41.962852406293905" lon="12.805061229358733"><ele>247.0</ele><time>2026-04-09T14:07:55.001Z</time></trkpt><trkpt lat="41.96275271160861" lon="12.805127923501837"><ele>247.0</ele><time>2026-04-09T14:07:56.001Z</time></trkpt><trkpt lat="41.96263360664998" lon="12.8051860777738"><ele>248.75</ele><time>2026-04-09T14:07:57.001Z</time></trkpt><trkpt lat="41.96249493479239" lon="12.805275835080133"><ele>250.5</ele><time>2026-04-09T14:07:58.001Z</time></trkpt><trkpt lat="41.96235887945209" lon="12.805330309131888"><ele>252.25</ele><time>2026-04-09T14:07:59.001Z</time></trkpt><trkpt lat="41.96223742912384" lon="12.80537018982481"><ele>254.0</ele><time>2026-04-09T14:08:00.001Z</time></trkpt><trkpt lat="41.96210928857824" lon="12.80540488424753"><ele>254.0</ele><time>2026-04-09T14:08:01.001Z</time></trkpt><trkpt lat="41.96202989620141" lon="12.805491070620898"><ele>254.0</ele><time>2026-04-09T14:08:02.001Z</time></trkpt><trkpt lat="41.96192042257062" lon="12.80558016074857"><ele>254.0</ele><time>2026-04-09T14:08:03.001Z</time></trkpt><trkpt lat="41.961812024739615" lon="12.80562814360015"><ele>254.0</ele><time>2026-04-09T14:08:04.001Z</time></trkpt><trkpt lat="41.96170903528179" lon="12.80566985165195"><ele>250.5</ele><time>2026-04-09T14:08:05.001Z</time></trkpt><trkpt lat="41.96161202968148" lon="12.805714140740395"><ele>247.0</ele><time>2026-04-09T14:08:06.001Z</time></trkpt><trkpt lat="41.961489847465614" lon="12.80576616542685"><ele>243.5</ele><time>2026-04-09T14:08:07.001Z</time></trkpt><trkpt lat="41.96134249421784" lon="12.805824479561904"><ele>240.0</ele><time>2026-04-09T14:08:08.001Z</time></trkpt><trkpt lat="41.96120816652485" lon="12.805805911197988"><ele>240.0</ele><time>2026-04-09T14:08:09.001Z</time></trkpt><trkpt lat="41.96107280020657" lon="12.805810195641198"><ele>240.0</ele><time>2026-04-09T14:08:10.001Z</time></trkpt><trkpt lat="41.96092341488318" lon="12.805815562303618"><ele>240.0</ele><time>2026-04-09T14:08:11.001Z</time></trkpt><trkpt lat="41.960787104445124" lon="12.805835710310923"><ele>240.0</ele><time>2026-04-09T14:08:12.001Z</time></trkpt><trkpt lat="41.96065950005679" lon="12.805830183035784"><ele>239.75</ele><time>2026-04-09T14:08:13.001Z</time></trkpt><trkpt lat="41.96054173457632" lon="12.805837200921511"><ele>239.5</ele><time>2026-04-09T14:08:14.001Z</time></trkpt><trkpt lat="41.96039662599798" lon="12.805845819905752"><ele>239.25</ele><time>2026-04-09T14:08:15.001Z</time></trkpt><trkpt lat="41.96022649079769" lon="12.805858910700595"><ele>239.0</ele><time>2026-04-09T14:08:16.001Z</time></trkpt><trkpt lat="41.96008011860124" lon="12.805908457869899"><ele>238.5</ele><time>2026-04-09T14:08:17.001Z</time></trkpt><trkpt lat="41.95994970862391" lon="12.805972678428622"><ele>238.0</ele><time>2026-04-09T14:08:18.001Z</time></trkpt><trkpt lat="41.959826963605174" lon="12.806033668192422"><ele>237.5</ele><time>2026-04-09T14:08:19.001Z</time></trkpt><trkpt lat="41.95970756046535" lon="12.80610669719671"><ele>237.0</ele><time>2026-04-09T14:08:20.001Z</time></trkpt><trkpt lat="41.95958354402217" lon="12.806218163927788"><ele>237.5</ele><time>2026-04-09T14:08:21.001Z</time></trkpt><trkpt lat="41.959465549324385" lon="12.806327563479178"><ele>238.0</ele><time>2026-04-09T14:08:22.001Z</time></trkpt><trkpt lat="41.95935600155797" lon="12.806455372739718"><ele>238.5</ele><time>2026-04-09T14:08:23.001Z</time></trkpt><trkpt lat="41.95925598395857" lon="12.806572469539095"><ele>239.0</ele><time>2026-04-09T14:08:24.001Z</time></trkpt><trkpt lat="41.959176287545084" lon="12.806717897617322"><ele>243.0</ele><time>2026-04-09T14:08:25.001Z</time></trkpt><trkpt lat="41.959090849391785" lon="12.806841860920043"><ele>247.0</ele><time>2026-04-09T14:08:26.001Z</time></trkpt><trkpt lat="41.95901810782219" lon="12.806966028109533"><ele>251.0</ele><time>2026-04-09T14:08:27.001Z</time></trkpt><trkpt lat="41.95893085623859" lon="12.80708183435514"><ele>255.0</ele><time>2026-04-09T14:08:28Z</time></trkpt><trkpt lat="41.95884495360623" lon="12.80721645865215"><ele>255.0</ele><time>2026-04-09T14:08:29Z</time></trkpt><trkpt lat="41.958768232609984" lon="12.807369981743594"><ele>255.0</ele><time>2026-04-09T14:08:30Z</time></trkpt><trkpt lat="41.95865617640473" lon="12.807507133735433"><ele>255.0</ele><time>2026-04-09T14:08:31Z</time></trkpt><trkpt lat="41.95854355077403" lon="12.80767758835583"><ele>253.25</ele><time>2026-04-09T14:08:32Z</time></trkpt><trkpt lat="41.958443377690024" lon="12.807834935770554"><ele>251.5</ele><time>2026-04-09T14:08:33Z</time></trkpt><trkpt lat="41.95835065671203" lon="12.807982034574511"><ele>249.75</ele><time>2026-04-09T14:08:34Z</time></trkpt><trkpt lat="41.958256450574495" lon="12.808130134405932"><ele>248.0</ele><time>2026-04-09T14:08:35Z</time></trkpt><trkpt lat="41.958160522045965" lon="12.808281856594151"><ele>248.0</ele><time>2026-04-09T14:08:36Z</time></trkpt><trkpt lat="41.958069790728686" lon="12.808425360424158"><ele>248.0</ele><time>2026-04-09T14:08:37Z</time></trkpt><trkpt lat="41.9579714816209" lon="12.808581044837723"><ele>248.0</ele><time>2026-04-09T14:08:38Z</time></trkpt><trkpt lat="41.95786989742751" lon="12.808746242984931"><ele>249.0</ele><time>2026-04-09T14:08:39Z</time></trkpt><trkpt lat="41.957793647817304" lon="12.808906406134277"><ele>250.0</ele><time>2026-04-09T14:08:40Z</time></trkpt><trkpt lat="41.95770604173938" lon="12.809053233243754"><ele>251.0</ele><time>2026-04-09T14:08:41Z</time></trkpt><trkpt lat="41.957619229241644" lon="12.809200223894099"><ele>252.0</ele><time>2026-04-09T14:08:42Z</time></trkpt><trkpt lat="41.95752970085563" lon="12.809355171712298"><ele>252.0</ele><time>2026-04-09T14:08:43Z</time></trkpt><trkpt lat="41.957425455391196" lon="12.809496904044057"><ele>252.0</ele><time>2026-04-09T14:08:44Z</time></trkpt><trkpt lat="41.957340504999145" lon="12.809642001639519"><ele>252.0</ele><time>2026-04-09T14:08:45Z</time></trkpt><trkpt lat="41.95726815546393" lon="12.809797950637597"><ele>252.0</ele><time>2026-04-09T14:08:46Z</time></trkpt><trkpt lat="41.95716558750825" lon="12.809931064176368"><ele>252.0</ele><time>2026-04-09T14:08:47Z</time></trkpt><trkpt lat="41.957074497952135" lon="12.810075305767588"><ele>252.0</ele><time>2026-04-09T14:08:48Z</time></trkpt><trkpt lat="41.95697851736957" lon="12.810224004451156"><ele>252.0</ele><time>2026-04-09T14:08:49Z</time></trkpt><trkpt lat="41.95688818398908" lon="12.81036395440898"><ele>252.0</ele><time>2026-04-09T14:08:50Z</time></trkpt><trkpt lat="41.95681912660831" lon="12.810501799463385"><ele>251.75</ele><time>2026-04-09T14:08:51Z</time></trkpt><trkpt lat="41.95673389367346" lon="12.810628448171906"><ele>251.5</ele><time>2026-04-09T14:08:52Z</time></trkpt><trkpt lat="41.95663721308278" lon="12.810734754173012"><ele>251.25</ele><time>2026-04-09T14:08:53Z</time></trkpt><trkpt lat="41.956552776084926" lon="12.810868420826697"><ele>251.0</ele><time>2026-04-09T14:08:54Z</time></trkpt><trkpt lat="41.956499990606304" lon="12.811024613123074"><ele>254.75</ele><time>2026-04-09T14:08:55Z</time></trkpt><trkpt lat="41.95644470176482" lon="12.81118252755069"><ele>258.5</ele><time>2026-04-09T14:08:56Z</time></trkpt><trkpt lat="41.956396773603295" lon="12.811370997102536"><ele>262.25</ele><time>2026-04-09T14:08:57Z</time></trkpt><trkpt lat="41.956352011609546" lon="12.811558981730153"><ele>266.0</ele><time>2026-04-09T14:08:58Z</time></trkpt><trkpt lat="41.95631598049225" lon="12.811724298214356"><ele>268.0</ele><time>2026-04-09T14:08:59Z</time></trkpt><trkpt lat="41.95626383709636" lon="12.811868117380627"><ele>270.0</ele><time>2026-04-09T14:09:00Z</time></trkpt><trkpt lat="41.95624149445964" lon="12.812024925222962"><ele>272.0</ele><time>2026-04-09T14:09:01Z</time></trkpt><trkpt lat="41.956198831503656" lon="12.812189969003864"><ele>274.0</ele><time>2026-04-09T14:09:02Z</time></trkpt><trkpt lat="41.956147359766796" lon="12.812382920016901"><ele>274.0</ele><time>2026-04-09T14:09:03Z</time></trkpt><trkpt lat="41.956072056833115" lon="12.812540157985659"><ele>274.0</ele><time>2026-04-09T14:09:04Z</time></trkpt><trkpt lat="41.955998969324185" lon="12.812687787529184"><ele>274.0</ele><time>2026-04-09T14:09:05Z</time></trkpt><trkpt lat="41.955906187166924" lon="12.812837291774343"><ele>274.0</ele><time>2026-04-09T14:09:06Z</time></trkpt><trkpt lat="41.95582732704984" lon="12.813028041272982"><ele>271.75</ele><time>2026-04-09T14:09:07Z</time></trkpt><trkpt lat="41.955756246279755" lon="12.813205014498209"><ele>269.5</ele><time>2026-04-09T14:09:08Z</time></trkpt><trkpt lat="41.95571923826546" lon="12.813376862500798"><ele>267.25</ele><time>2026-04-09T14:09:09Z</time></trkpt><trkpt lat="41.95570574787723" lon="12.813564402033714"><ele>265.0</ele><time>2026-04-09T14:09:10Z</time></trkpt><trkpt lat="41.9556930801611" lon="12.813760289811515"><ele>265.0</ele><time>2026-04-09T14:09:11Z</time></trkpt><trkpt lat="41.95567099709152" lon="12.813951732103519"><ele>265.0</ele><time>2026-04-09T14:09:12Z</time></trkpt><trkpt lat="41.955619658172424" lon="12.814117670443203"><ele>265.0</ele><time>2026-04-09T14:09:13Z</time></trkpt><trkpt lat="41.95558082315937" lon="12.814290838477138"><ele>265.0</ele><time>2026-04-09T14:09:14Z</time></trkpt><trkpt lat="41.95554114288921" lon="12.814466096065404"><ele>265.0</ele><time>2026-04-09T14:09:15Z</time></trkpt><trkpt lat="41.955512403775124" lon="12.814647069444144"><ele>265.0</ele><time>2026-04-09T14:09:16Z</time></trkpt><trkpt lat="41.955472677074816" lon="12.814812067479284"><ele>265.0</ele><time>2026-04-09T14:09:17Z</time></trkpt><trkpt lat="41.955437680686025" lon="12.814975396357765"><ele>265.0</ele><time>2026-04-09T14:09:18Z</time></trkpt><trkpt lat="41.95540684501794" lon="12.815133890856181"><ele>264.25</ele><time>2026-04-09T14:09:19Z</time></trkpt><trkpt lat="41.9553951880175" lon="12.815311977417805"><ele>263.5</ele><time>2026-04-09T14:09:20Z</time></trkpt><trkpt lat="41.95541054670655" lon="12.815504228799469"><ele>262.75</ele><time>2026-04-09T14:09:21Z</time></trkpt><trkpt lat="41.95543896628496" lon="12.815695248462292"><ele>262.0</ele><time>2026-04-09T14:09:22Z</time></trkpt><trkpt lat="41.955469311288276" lon="12.815873679823993"><ele>262.0</ele><time>2026-04-09T14:09:23Z</time></trkpt><trkpt lat="41.955500772946834" lon="12.81603592553105"><ele>262.0</ele><time>2026-04-09T14:09:24Z</time></trkpt><trkpt lat="41.9555195684151" lon="12.816216576619823"><ele>262.0</ele><time>2026-04-09T14:09:25Z</time></trkpt><trkpt lat="41.95554979062494" lon="12.816386990347524"><ele>262.0</ele><time>2026-04-09T14:09:26Z</time></trkpt><trkpt lat="41.955581730370234" lon="12.81653934848478"><ele>262.0</ele><time>2026-04-09T14:09:27Z</time></trkpt><trkpt lat="41.95562984684459" lon="12.816668241479565"><ele>262.0</ele><time>2026-04-09T14:09:28Z</time></trkpt><trkpt lat="41.95566434283244" lon="12.81680079182146"><ele>262.0</ele><time>2026-04-09T14:09:29Z</time></trkpt><trkpt lat="41.95570554660559" lon="12.816937834312064"><ele>262.0</ele><time>2026-04-09T14:09:30Z</time></trkpt><trkpt lat="41.95573484689982" lon="12.817090229941302"><ele>262.0</ele><time>2026-04-09T14:09:31Z</time></trkpt><trkpt lat="41.95578195140266" lon="12.817233962567924"><ele>262.0</ele><time>2026-04-09T14:09:32.001Z</time></trkpt><trkpt lat="41.95583472890781" lon="12.817388277400598"><ele>262.0</ele><time>2026-04-09T14:09:33.001Z</time></trkpt><trkpt lat="41.95590923036308" lon="12.817544986413642"><ele>262.0</ele><time>2026-04-09T14:09:34.001Z</time></trkpt><trkpt lat="41.955969029393046" lon="12.817690880167802"><ele>262.0</ele><time>2026-04-09T14:09:35.001Z</time></trkpt><trkpt lat="41.956039181363366" lon="12.817828775187923"><ele>262.0</ele><time>2026-04-09T14:09:36.001Z</time></trkpt><trkpt lat="41.95612043766693" lon="12.817967131116694"><ele>262.0</ele><time>2026-04-09T14:09:37.001Z</time></trkpt><trkpt lat="41.956217204306306" lon="12.818107377643084"><ele>262.0</ele><time>2026-04-09T14:09:38.001Z</time></trkpt><trkpt lat="41.956316114776754" lon="12.818245685039237"><ele>262.0</ele><time>2026-04-09T14:09:39.001Z</time></trkpt><trkpt lat="41.95641221378293" lon="12.818368526224344"><ele>262.0</ele><time>2026-04-09T14:09:40.001Z</time></trkpt><trkpt lat="41.956504526171265" lon="12.818483401139032"><ele>262.0</ele><time>2026-04-09T14:09:41.001Z</time></trkpt><trkpt lat="41.95659290626633" lon="12.818601669424087"><ele>262.0</ele><time>2026-04-09T14:09:42.001Z</time></trkpt><trkpt lat="41.95668223312018" lon="12.818740148050118"><ele>262.0</ele><time>2026-04-09T14:09:43.001Z</time></trkpt><trkpt lat="41.95677138817372" lon="12.818898122532246"><ele>261.5</ele><time>2026-04-09T14:09:44.001Z</time></trkpt><trkpt lat="41.956850440587466" lon="12.819045273094456"><ele>261.0</ele><time>2026-04-09T14:09:45.001Z</time></trkpt><trkpt lat="41.956927070278866" lon="12.819194098657986"><ele>260.5</ele><time>2026-04-09T14:09:46.001Z</time></trkpt><trkpt lat="41.95700507257768" lon="12.819349219883382"><ele>260.0</ele><time>2026-04-09T14:09:47.001Z</time></trkpt><trkpt lat="41.95707585395286" lon="12.819496032639059"><ele>260.0</ele><time>2026-04-09T14:09:48.001Z</time></trkpt><trkpt lat="41.95714439491869" lon="12.81963309042035"><ele>260.0</ele><time>2026-04-09T14:09:49.001Z</time></trkpt><trkpt lat="41.95721761697192" lon="12.819766004429756"><ele>260.0</ele><time>2026-04-09T14:09:50.001Z</time></trkpt><trkpt lat="41.95730851997264" lon="12.819921869572697"><ele>260.0</ele><time>2026-04-09T14:09:51.001Z</time></trkpt><trkpt lat="41.95742432732461" lon="12.82008881438065"><ele>260.25</ele><time>2026-04-09T14:09:52.001Z</time></trkpt><trkpt lat="41.95753622466661" lon="12.820230724672138"><ele>260.5</ele><time>2026-04-09T14:09:53.001Z</time></trkpt><trkpt lat="41.957649336450835" lon="12.820363435279104"><ele>260.75</ele><time>2026-04-09T14:09:54.001Z</time></trkpt><trkpt lat="41.95776022891888" lon="12.820475853345453"><ele>261.0</ele><time>2026-04-09T14:09:55.001Z</time></trkpt><trkpt lat="41.957878729719724" lon="12.820581703646234"><ele>261.0</ele><time>2026-04-09T14:09:56.001Z</time></trkpt><trkpt lat="41.95800875192944" lon="12.820684107675481"><ele>261.0</ele><time>2026-04-09T14:09:57.001Z</time></trkpt><trkpt lat="41.95814284785613" lon="12.820788661615325"><ele>261.0</ele><time>2026-04-09T14:09:58.001Z</time></trkpt><trkpt lat="41.95827862235181" lon="12.820875812221388"><ele>261.0</ele><time>2026-04-09T14:09:59.001Z</time></trkpt><trkpt lat="41.95842215928296" lon="12.820999423839524"><ele>261.0</ele><time>2026-04-09T14:10:00.001Z</time></trkpt><trkpt lat="41.95862311838226" lon="12.82113675402975"><ele>261.0</ele><time>2026-04-09T14:10:01.001Z</time></trkpt><trkpt lat="41.958832770890645" lon="12.821280351632142"><ele>261.0</ele><time>2026-04-09T14:10:02.001Z</time></trkpt><trkpt lat="41.95901406143054" lon="12.821404247247829"><ele>261.0</ele><time>2026-04-09T14:10:03.001Z</time></trkpt><trkpt lat="41.959192659839346" lon="12.821523092898854"><ele>261.0</ele><time>2026-04-09T14:10:04.001Z</time></trkpt><trkpt lat="41.95937774633666" lon="12.821620186977528"><ele>262.3333333333333</ele><time>2026-04-09T14:10:05.001Z</time></trkpt><trkpt lat="41.95953415124609" lon="12.821721307637857"><ele>263.66666666666663</ele><time>2026-04-09T14:10:06.001Z</time></trkpt><trkpt lat="41.95968577537641" lon="12.821809645311738"><ele>265.0</ele><time>2026-04-09T14:10:07.001Z</time></trkpt><trkpt lat="41.959829644008735" lon="12.821877004862008"><ele>263.5</ele><time>2026-04-09T14:10:08.001Z</time></trkpt><trkpt lat="41.95996714349735" lon="12.821927289312205"><ele>262.0</ele><time>2026-04-09T14:10:09.001Z</time></trkpt><trkpt lat="41.96010437975402" lon="12.821985597911238"><ele>260.5</ele><time>2026-04-09T14:10:10.001Z</time></trkpt><trkpt lat="41.96024518306024" lon="12.82205001554124"><ele>259.0</ele><time>2026-04-09T14:10:11.001Z</time></trkpt><trkpt lat="41.9603912937224" lon="12.82210594614279"><ele>259.0</ele><time>2026-04-09T14:10:12.001Z</time></trkpt><trkpt lat="41.96054973273334" lon="12.82216230867055"><ele>259.0</ele><time>2026-04-09T14:10:13.001Z</time></trkpt><trkpt lat="41.960705506451546" lon="12.822223876201996"><ele>259.0</ele><time>2026-04-09T14:10:14.001Z</time></trkpt><trkpt lat="41.9608581775495" lon="12.822280268959059"><ele>260.0</ele><time>2026-04-09T14:10:15.001Z</time></trkpt><trkpt lat="41.960998584509994" lon="12.82232478992972"><ele>261.0</ele><time>2026-04-09T14:10:16.001Z</time></trkpt><trkpt lat="41.96112982470689" lon="12.822367311864792"><ele>262.0</ele><time>2026-04-09T14:10:17.001Z</time></trkpt><trkpt lat="41.961252565889495" lon="12.822412181836722"><ele>263.0</ele><time>2026-04-09T14:10:18.001Z</time></trkpt><trkpt lat="41.961368231441824" lon="12.822448566952476"><ele>263.0</ele><time>2026-04-09T14:10:19.001Z</time></trkpt><trkpt lat="41.961475857949296" lon="12.822487646028964"><ele>263.0</ele><time>2026-04-09T14:10:20.001Z</time></trkpt><trkpt lat="41.96158536029283" lon="12.822531859961794"><ele>263.0</ele><time>2026-04-09T14:10:21.001Z</time></trkpt><trkpt lat="41.96170566622351" lon="12.822575559971604"><ele>263.0</ele><time>2026-04-09T14:10:22.001Z</time></trkpt><trkpt lat="41.96182513763395" lon="12.82261524082666"><ele>261.25</ele><time>2026-04-09T14:10:23.001Z</time></trkpt><trkpt lat="41.96193999193887" lon="12.822660510154149"><ele>259.5</ele><time>2026-04-09T14:10:24.001Z</time></trkpt><trkpt lat="41.96205842221493" lon="12.822708337104492"><ele>257.75</ele><time>2026-04-09T14:10:25.001Z</time></trkpt><trkpt lat="41.96218030182911" lon="12.822756495407312"><ele>256.0</ele><time>2026-04-09T14:10:26.001Z</time></trkpt><trkpt lat="41.96230464856985" lon="12.82281092759162"><ele>256.0</ele><time>2026-04-09T14:10:27.001Z</time></trkpt><trkpt lat="41.962433231813634" lon="12.822865357615642"><ele>256.0</ele><time>2026-04-09T14:10:28.001Z</time></trkpt><trkpt lat="41.962561936575234" lon="12.82292994728829"><ele>256.0</ele><time>2026-04-09T14:10:29.001Z</time></trkpt><trkpt lat="41.96268944698642" lon="12.823009001366191"><ele>256.0</ele><time>2026-04-09T14:10:30.001Z</time></trkpt><trkpt lat="41.96281327088967" lon="12.823095804137528"><ele>256.75</ele><time>2026-04-09T14:10:31.001Z</time></trkpt><trkpt lat="41.962937589638024" lon="12.823186615719669"><ele>257.5</ele><time>2026-04-09T14:10:32.001Z</time></trkpt><trkpt lat="41.9630632317188" lon="12.823281571807746"><ele>258.25</ele><time>2026-04-09T14:10:33.001Z</time></trkpt><trkpt lat="41.96318389917747" lon="12.823380255060162"><ele>259.0</ele><time>2026-04-09T14:10:34Z</time></trkpt><trkpt lat="41.96330920161853" lon="12.823477567778173"><ele>259.0</ele><time>2026-04-09T14:10:35Z</time></trkpt><trkpt lat="41.9634315477198" lon="12.823578297447941"><ele>259.0</ele><time>2026-04-09T14:10:36Z</time></trkpt><trkpt lat="41.9635505759467" lon="12.823681783188343"><ele>259.0</ele><time>2026-04-09T14:10:37Z</time></trkpt><trkpt lat="41.963670895192685" lon="12.823778432172501"><ele>259.0</ele><time>2026-04-09T14:10:38Z</time></trkpt><trkpt lat="41.96379387620949" lon="12.823869740624446"><ele>259.0</ele><time>2026-04-09T14:10:39Z</time></trkpt><trkpt lat="41.963918627300984" lon="12.823955682416525"><ele>259.0</ele><time>2026-04-09T14:10:40Z</time></trkpt><trkpt lat="41.964046397370936" lon="12.824034701518917"><ele>259.0</ele><time>2026-04-09T14:10:41Z</time></trkpt><trkpt lat="41.96417350736303" lon="12.824118431324472"><ele>259.0</ele><time>2026-04-09T14:10:42Z</time></trkpt><trkpt lat="41.964296131993386" lon="12.82419676000168"><ele>258.75</ele><time>2026-04-09T14:10:43Z</time></trkpt><trkpt lat="41.96441914036512" lon="12.82426650343755"><ele>258.5</ele><time>2026-04-09T14:10:44Z</time></trkpt><trkpt lat="41.964543269719975" lon="12.824335703038425"><ele>258.25</ele><time>2026-04-09T14:10:45Z</time></trkpt><trkpt lat="41.964665142762875" lon="12.824405018939078"><ele>258.0</ele><time>2026-04-09T14:10:46Z</time></trkpt><trkpt lat="41.96478708149949" lon="12.824473756409983"><ele>257.75</ele><time>2026-04-09T14:10:47Z</time></trkpt><trkpt lat="41.96490788996359" lon="12.824540974285561"><ele>257.5</ele><time>2026-04-09T14:10:48Z</time></trkpt><trkpt lat="41.96502599943599" lon="12.824610310720823"><ele>257.25</ele><time>2026-04-09T14:10:49Z</time></trkpt><trkpt lat="41.965142150127704" lon="12.824665247933774"><ele>257.0</ele><time>2026-04-09T14:10:50Z</time></trkpt><trkpt lat="41.96524483196948" lon="12.824746370788878"><ele>257.0</ele><time>2026-04-09T14:10:51Z</time></trkpt><trkpt lat="41.96534834524355" lon="12.824805731978115"><ele>257.0</ele><time>2026-04-09T14:10:52Z</time></trkpt><trkpt lat="41.9655031434908" lon="12.824877314886391"><ele>257.0</ele><time>2026-04-09T14:10:53Z</time></trkpt><trkpt lat="41.965613138664146" lon="12.824943207179752"><ele>257.0</ele><time>2026-04-09T14:10:54Z</time></trkpt><trkpt lat="41.96572892801491" lon="12.82501227806234"><ele>257.0</ele><time>2026-04-09T14:10:55Z</time></trkpt><trkpt lat="41.96585295226146" lon="12.825082192541672"><ele>257.0</ele><time>2026-04-09T14:10:56Z</time></trkpt><trkpt lat="41.965982396377925" lon="12.825153612464996"><ele>257.0</ele><time>2026-04-09T14:10:57Z</time></trkpt><trkpt lat="41.966121270324955" lon="12.825227622323837"><ele>257.0</ele><time>2026-04-09T14:10:58Z</time></trkpt><trkpt lat="41.96626783956808" lon="12.825310607105527"><ele>256.6666666666667</ele><time>2026-04-09T14:10:59Z</time></trkpt><trkpt lat="41.966410404267485" lon="12.82539727710934"><ele>256.3333333333333</ele><time>2026-04-09T14:11:00Z</time></trkpt><trkpt lat="41.96654769382784" lon="12.825480015906301"><ele>256.0</ele><time>2026-04-09T14:11:01Z</time></trkpt><trkpt lat="41.96668382546313" lon="12.825564270625438"><ele>257.0</ele><time>2026-04-09T14:11:02Z</time></trkpt><trkpt lat="41.96682024603774" lon="12.825653787239283"><ele>258.0</ele><time>2026-04-09T14:11:03Z</time></trkpt><trkpt lat="41.96696063914072" lon="12.825755467252684"><ele>259.0</ele><time>2026-04-09T14:11:04Z</time></trkpt><trkpt lat="41.96709859830655" lon="12.825866083894836"><ele>258.3333333333333</ele><time>2026-04-09T14:11:05Z</time></trkpt><trkpt lat="41.96723338371156" lon="12.8259866046143"><ele>257.6666666666667</ele><time>2026-04-09T14:11:06Z</time></trkpt><trkpt lat="41.96736282079881" lon="12.8261122689196"><ele>257.0</ele><time>2026-04-09T14:11:07Z</time></trkpt><trkpt lat="41.96749090034797" lon="12.82625737556228"><ele>259.0</ele><time>2026-04-09T14:11:08Z</time></trkpt><trkpt lat="41.96760575311566" lon="12.826387033549217"><ele>261.0</ele><time>2026-04-09T14:11:09Z</time></trkpt><trkpt lat="41.967717683439375" lon="12.826532374226696"><ele>263.0</ele><time>2026-04-09T14:11:10Z</time></trkpt><trkpt lat="41.96783013317422" lon="12.826687686157287"><ele>262.33333333333337</ele><time>2026-04-09T14:11:11Z</time></trkpt><trkpt lat="41.96794576067591" lon="12.826832429573866"><ele>261.6666666666667</ele><time>2026-04-09T14:11:12Z</time></trkpt><trkpt lat="41.96803002818321" lon="12.82700946676622"><ele>261.0</ele><time>2026-04-09T14:11:13Z</time></trkpt><trkpt lat="41.968127418231774" lon="12.827153500041208"><ele>261.0</ele><time>2026-04-09T14:11:14Z</time></trkpt><trkpt lat="41.96819406919103" lon="12.827304303222357"><ele>261.0</ele><time>2026-04-09T14:11:15Z</time></trkpt><trkpt lat="41.968258675516424" lon="12.82744763935666"><ele>261.0</ele><time>2026-04-09T14:11:16Z</time></trkpt><trkpt lat="41.968326377007806" lon="12.827583668570352"><ele>261.0</ele><time>2026-04-09T14:11:17Z</time></trkpt><trkpt lat="41.96838858667268" lon="12.827728613928814"><ele>261.5</ele><time>2026-04-09T14:11:18Z</time></trkpt><trkpt lat="41.96845938787286" lon="12.827882022194238"><ele>262.0</ele><time>2026-04-09T14:11:19Z</time></trkpt><trkpt lat="41.968535986939294" lon="12.828035568104685"><ele>262.5</ele><time>2026-04-09T14:11:20Z</time></trkpt><trkpt lat="41.96860901538545" lon="12.828192620036951"><ele>263.0</ele><time>2026-04-09T14:11:21Z</time></trkpt><trkpt lat="41.96868290118956" lon="12.828357797450817"><ele>263.0</ele><time>2026-04-09T14:11:22Z</time></trkpt><trkpt lat="41.96875413106939" lon="12.828507880211852"><ele>263.0</ele><time>2026-04-09T14:11:23Z</time></trkpt><trkpt lat="41.968816299305026" lon="12.828657521468674"><ele>263.0</ele><time>2026-04-09T14:11:24Z</time></trkpt><trkpt lat="41.96888221003373" lon="12.828797566082965"><ele>263.0</ele><time>2026-04-09T14:11:25Z</time></trkpt><trkpt lat="41.96895856219365" lon="12.828943373074264"><ele>263.0</ele><time>2026-04-09T14:11:26Z</time></trkpt><trkpt lat="41.96903683304945" lon="12.829087171605309"><ele>263.0</ele><time>2026-04-09T14:11:27.001Z</time></trkpt><trkpt lat="41.9691208358094" lon="12.82922883750831"><ele>263.0</ele><time>2026-04-09T14:11:28.001Z</time></trkpt><trkpt lat="41.96921660006162" lon="12.829368871006958"><ele>263.0</ele><time>2026-04-09T14:11:29.001Z</time></trkpt><trkpt lat="41.969316785635534" lon="12.829510537449258"><ele>262.0</ele><time>2026-04-09T14:11:30.001Z</time></trkpt><trkpt lat="41.96942609511491" lon="12.829650533176483"><ele>261.0</ele><time>2026-04-09T14:11:31.001Z</time></trkpt><trkpt lat="41.96954056010821" lon="12.829792474126036"><ele>260.0</ele><time>2026-04-09T14:11:32.001Z</time></trkpt><trkpt lat="41.96966326414773" lon="12.829937461164597"><ele>260.0</ele><time>2026-04-09T14:11:33.001Z</time></trkpt><trkpt lat="41.96980036280294" lon="12.830076422557674"><ele>260.0</ele><time>2026-04-09T14:11:34.001Z</time></trkpt><trkpt lat="41.96994544283465" lon="12.830199342968525"><ele>260.0</ele><time>2026-04-09T14:11:35.001Z</time></trkpt><trkpt lat="41.97008944401817" lon="12.830331522562343"><ele>258.6666666666667</ele><time>2026-04-09T14:11:36.001Z</time></trkpt><trkpt lat="41.970261318576675" lon="12.830475681670068"><ele>257.3333333333333</ele><time>2026-04-09T14:11:37.001Z</time></trkpt><trkpt lat="41.97045929998561" lon="12.830641745372231"><ele>256.0</ele><time>2026-04-09T14:11:38.001Z</time></trkpt><trkpt lat="41.97065279612746" lon="12.830810635850758"><ele>256.0</ele><time>2026-04-09T14:11:39.001Z</time></trkpt><trkpt lat="41.97082331543878" lon="12.830964060555663"><ele>256.0</ele><time>2026-04-09T14:11:40.001Z</time></trkpt><trkpt lat="41.970976129472405" lon="12.831100573798011"><ele>256.0</ele><time>2026-04-09T14:11:41.001Z</time></trkpt><trkpt lat="41.97112087174125" lon="12.831230015035963"><ele>254.33333333333331</ele><time>2026-04-09T14:11:42.001Z</time></trkpt><trkpt lat="41.971263224804375" lon="12.83135747627349"><ele>252.66666666666669</ele><time>2026-04-09T14:11:43.001Z</time></trkpt><trkpt lat="41.97140393284631" lon="12.831480951752768"><ele>251.0</ele><time>2026-04-09T14:11:44.001Z</time></trkpt><trkpt lat="41.97154014845823" lon="12.831599025787728"><ele>251.0</ele><time>2026-04-09T14:11:45.001Z</time></trkpt><trkpt lat="41.97168234610489" lon="12.831705453925956"><ele>251.0</ele><time>2026-04-09T14:11:46.001Z</time></trkpt><trkpt lat="41.971831033504294" lon="12.831804646732891"><ele>251.0</ele><time>2026-04-09T14:11:47.001Z</time></trkpt><trkpt lat="41.97198877525308" lon="12.831904789426662"><ele>252.66666666666669</ele><time>2026-04-09T14:11:48.001Z</time></trkpt><trkpt lat="41.97215801760815" lon="12.83199491778582"><ele>254.33333333333331</ele><time>2026-04-09T14:11:49.001Z</time></trkpt><trkpt lat="41.972330155484315" lon="12.832080045081602"><ele>256.0</ele><time>2026-04-09T14:11:50.001Z</time></trkpt><trkpt lat="41.97250160420617" lon="12.832146146014283"><ele>257.0</ele><time>2026-04-09T14:11:51.001Z</time></trkpt><trkpt lat="41.97269043896382" lon="12.83220193108679"><ele>258.0</ele><time>2026-04-09T14:11:52.001Z</time></trkpt><trkpt lat="41.97288118660279" lon="12.832237484439991"><ele>259.0</ele><time>2026-04-09T14:11:53.001Z</time></trkpt><trkpt lat="41.973060700102145" lon="12.832272464605717"><ele>259.0</ele><time>2026-04-09T14:11:54.001Z</time></trkpt><trkpt lat="41.97324757361047" lon="12.832298096217048"><ele>259.0</ele><time>2026-04-09T14:11:55.001Z</time></trkpt><trkpt lat="41.973431124964115" lon="12.83234115206322"><ele>259.0</ele><time>2026-04-09T14:11:56.001Z</time></trkpt><trkpt lat="41.97360593538739" lon="12.832383880270664"><ele>260.3333333333333</ele><time>2026-04-09T14:11:57.001Z</time></trkpt><trkpt lat="41.97377840740272" lon="12.832423257066102"><ele>261.6666666666667</ele><time>2026-04-09T14:11:58.001Z</time></trkpt><trkpt lat="41.973945129939295" lon="12.832454830779286"><ele>263.0</ele><time>2026-04-09T14:11:59.001Z</time></trkpt><trkpt lat="41.974105552207064" lon="12.8324802507143"><ele>263.33333333333337</ele><time>2026-04-09T14:12:00.001Z</time></trkpt><trkpt lat="41.97428236530504" lon="12.832514878967128"><ele>263.6666666666667</ele><time>2026-04-09T14:12:01.001Z</time></trkpt><trkpt lat="41.97445902454399" lon="12.832553401710594"><ele>264.0</ele><time>2026-04-09T14:12:02.001Z</time></trkpt><trkpt lat="41.97463476427166" lon="12.83259503559965"><ele>262.0</ele><time>2026-04-09T14:12:03.001Z</time></trkpt><trkpt lat="41.974808881789926" lon="12.832640990798648"><ele>260.0</ele><time>2026-04-09T14:12:04.001Z</time></trkpt><trkpt lat="41.974982077212175" lon="12.83269264157979"><ele>258.0</ele><time>2026-04-09T14:12:05.001Z</time></trkpt><trkpt lat="41.97516046917777" lon="12.832754866112749"><ele>257.6666666666667</ele><time>2026-04-09T14:12:06.001Z</time></trkpt><trkpt lat="41.975330824609316" lon="12.832818484698333"><ele>257.33333333333337</ele><time>2026-04-09T14:12:07.001Z</time></trkpt><trkpt lat="41.97550575430678" lon="12.83289236965747"><ele>257.0</ele><time>2026-04-09T14:12:08.001Z</time></trkpt><trkpt lat="41.97567684652837" lon="12.832971427506811"><ele>258.33333333333337</ele><time>2026-04-09T14:12:09.001Z</time></trkpt><trkpt lat="41.97585482562977" lon="12.833047160432164"><ele>259.6666666666667</ele><time>2026-04-09T14:12:10.001Z</time></trkpt><trkpt lat="41.97603488471296" lon="12.83312166052015"><ele>261.0</ele><time>2026-04-09T14:12:11.001Z</time></trkpt><trkpt lat="41.97621428560377" lon="12.833201717694513"><ele>261.0</ele><time>2026-04-09T14:12:12.001Z</time></trkpt><trkpt lat="41.97638551407848" lon="12.833276483175482"><ele>261.0</ele><time>2026-04-09T14:12:13.001Z</time></trkpt><trkpt lat="41.97654351691076" lon="12.83334581364776"><ele>261.0</ele><time>2026-04-09T14:12:14.001Z</time></trkpt><trkpt lat="41.97670902942476" lon="12.833419057312126"><ele>259.6666666666667</ele><time>2026-04-09T14:12:15.001Z</time></trkpt><trkpt lat="41.97687755111833" lon="12.833502676812408"><ele>258.33333333333337</ele><time>2026-04-09T14:12:16.001Z</time></trkpt><trkpt lat="41.97703212012291" lon="12.833600699625984"><ele>257.0</ele><time>2026-04-09T14:12:17.001Z</time></trkpt><trkpt lat="41.97718778543384" lon="12.833732859330633"><ele>257.0</ele><time>2026-04-09T14:12:18.001Z</time></trkpt><trkpt lat="41.97733810491916" lon="12.833870094729953"><ele>257.0</ele><time>2026-04-09T14:12:19.001Z</time></trkpt><trkpt lat="41.977481698171715" lon="12.834021937397877"><ele>257.0</ele><time>2026-04-09T14:12:20.001Z</time></trkpt><trkpt lat="41.977614680111635" lon="12.834193101846996"><ele>258.0</ele><time>2026-04-09T14:12:21.001Z</time></trkpt><trkpt lat="41.977729763475985" lon="12.834376949204337"><ele>259.0</ele><time>2026-04-09T14:12:22.001Z</time></trkpt><trkpt lat="41.97784433409353" lon="12.834573157213455"><ele>260.0</ele><time>2026-04-09T14:12:23.001Z</time></trkpt><trkpt lat="41.97794907139748" lon="12.834776389023096"><ele>260.0</ele><time>2026-04-09T14:12:24.001Z</time></trkpt><trkpt lat="41.978049268643275" lon="12.834980615223332"><ele>260.0</ele><time>2026-04-09T14:12:25.001Z</time></trkpt><trkpt lat="41.97814938193544" lon="12.835191601086649"><ele>260.0</ele><time>2026-04-09T14:12:26.001Z</time></trkpt><trkpt lat="41.9782520180157" lon="12.835402885003985"><ele>258.6666666666667</ele><time>2026-04-09T14:12:27.001Z</time></trkpt><trkpt lat="41.97835703178001" lon="12.835608278664672"><ele>257.3333333333333</ele><time>2026-04-09T14:12:28.001Z</time></trkpt><trkpt lat="41.97846216758796" lon="12.835810044135208"><ele>256.0</ele><time>2026-04-09T14:12:29.001Z</time></trkpt><trkpt lat="41.97856545601427" lon="12.835995672749892"><ele>256.0</ele><time>2026-04-09T14:12:30.001Z</time></trkpt><trkpt lat="41.97870615952186" lon="12.836169829863586"><ele>256.0</ele><time>2026-04-09T14:12:31.001Z</time></trkpt><trkpt lat="41.97886352245595" lon="12.836317702924909"><ele>256.0</ele><time>2026-04-09T14:12:32.001Z</time></trkpt><trkpt lat="41.979028493284154" lon="12.836468111770596"><ele>256.0</ele><time>2026-04-09T14:12:33.001Z</time></trkpt><trkpt lat="41.97915491684067" lon="12.836641847992306"><ele>256.0</ele><time>2026-04-09T14:12:34.001Z</time></trkpt><trkpt lat="41.979247398478876" lon="12.836827550563946"><ele>256.0</ele><time>2026-04-09T14:12:35.001Z</time></trkpt><trkpt lat="41.97931583753194" lon="12.837038166483287"><ele>256.3333333333333</ele><time>2026-04-09T14:12:36.001Z</time></trkpt><trkpt lat="41.97937515303331" lon="12.837258634768556"><ele>256.6666666666667</ele><time>2026-04-09T14:12:37.001Z</time></trkpt><trkpt lat="41.97944007726783" lon="12.837479810847936"><ele>257.0</ele><time>2026-04-09T14:12:38.001Z</time></trkpt><trkpt lat="41.97945881019697" lon="12.837704492432456"><ele>259.0</ele><time>2026-04-09T14:12:39.002Z</time></trkpt><trkpt lat="41.97945743134437" lon="12.837921120818327"><ele>261.0</ele><time>2026-04-09T14:12:40Z</time></trkpt><trkpt lat="41.97942954773937" lon="12.838142493255637"><ele>263.0</ele><time>2026-04-09T14:12:41Z</time></trkpt><trkpt lat="41.979391986993846" lon="12.83837226040843"><ele>264.0</ele><time>2026-04-09T14:12:42Z</time></trkpt><trkpt lat="41.979287516484696" lon="12.838567637036277"><ele>265.0</ele><time>2026-04-09T14:12:43Z</time></trkpt><trkpt lat="41.979189138504765" lon="12.838775085959318"><ele>266.0</ele><time>2026-04-09T14:12:44Z</time></trkpt><trkpt lat="41.97910924145631" lon="12.838975744462891"><ele>262.0</ele><time>2026-04-09T14:12:45Z</time></trkpt><trkpt lat="41.97902163268225" lon="12.839164244630643"><ele>258.0</ele><time>2026-04-09T14:12:46Z</time></trkpt><trkpt lat="41.978958199364214" lon="12.839370334959257"><ele>254.0</ele><time>2026-04-09T14:12:47Z</time></trkpt><trkpt lat="41.97891684394337" lon="12.83959966152273"><ele>254.0</ele><time>2026-04-09T14:12:48Z</time></trkpt><trkpt lat="41.97892311724493" lon="12.83981690993353"><ele>254.0</ele><time>2026-04-09T14:12:49Z</time></trkpt><trkpt lat="41.9789517638094" lon="12.840034183470719"><ele>254.0</ele><time>2026-04-09T14:12:50Z</time></trkpt><trkpt lat="41.97900262641614" lon="12.840252953265411"><ele>253.33333333333334</ele><time>2026-04-09T14:12:51Z</time></trkpt><trkpt lat="41.97909120640675" lon="12.840435640632917"><ele>252.66666666666669</ele><time>2026-04-09T14:12:52Z</time></trkpt><trkpt lat="41.97920451241279" lon="12.840614321476016"><ele>252.0</ele><time>2026-04-09T14:12:53Z</time></trkpt><trkpt lat="41.979339099946124" lon="12.840781034422818"><ele>252.33333333333331</ele><time>2026-04-09T14:12:54Z</time></trkpt><trkpt lat="41.979488070045704" lon="12.840926826121986"><ele>252.66666666666666</ele><time>2026-04-09T14:12:55Z</time></trkpt><trkpt lat="41.97964740019876" lon="12.841083328593896"><ele>253.0</ele><time>2026-04-09T14:12:56Z</time></trkpt><trkpt lat="41.97979788810564" lon="12.841248537626857"><ele>253.0</ele><time>2026-04-09T14:12:57Z</time></trkpt><trkpt lat="41.97994052482708" lon="12.84143689941956"><ele>253.0</ele><time>2026-04-09T14:12:58Z</time></trkpt><trkpt lat="41.980067274082955" lon="12.841632152665868"><ele>253.0</ele><time>2026-04-09T14:12:59Z</time></trkpt><trkpt lat="41.98018573406471" lon="12.84184742524312"><ele>253.66666666666666</ele><time>2026-04-09T14:13:00Z</time></trkpt><trkpt lat="41.98030120646368" lon="12.842090736253832"><ele>254.33333333333331</ele><time>2026-04-09T14:13:01Z</time></trkpt><trkpt lat="41.98040165340513" lon="12.842352186818845"><ele>255.0</ele><time>2026-04-09T14:13:02Z</time></trkpt><trkpt lat="41.980491782090674" lon="12.842632490996237"><ele>255.0</ele><time>2026-04-09T14:13:03Z</time></trkpt><trkpt lat="41.98055460623748" lon="12.842885118487986"><ele>255.0</ele><time>2026-04-09T14:13:04Z</time></trkpt><trkpt lat="41.980609582418566" lon="12.843136961521052"><ele>255.0</ele><time>2026-04-09T14:13:05Z</time></trkpt><trkpt lat="41.980668969200494" lon="12.843375571966014"><ele>255.33333333333331</ele><time>2026-04-09T14:13:06Z</time></trkpt><trkpt lat="41.98074934155657" lon="12.843586592768233"><ele>255.66666666666666</ele><time>2026-04-09T14:13:07Z</time></trkpt><trkpt lat="41.98085599862855" lon="12.843772591010122"><ele>256.0</ele><time>2026-04-09T14:13:08Z</time></trkpt><trkpt lat="41.98099376644469" lon="12.843941898697187"><ele>256.0</ele><time>2026-04-09T14:13:09Z</time></trkpt><trkpt lat="41.98115638709868" lon="12.844081755503673"><ele>256.0</ele><time>2026-04-09T14:13:10Z</time></trkpt><trkpt lat="41.98132692682715" lon="12.844186798026524"><ele>256.0</ele><time>2026-04-09T14:13:11Z</time></trkpt><trkpt lat="41.98150415035816" lon="12.844283530154534"><ele>250.0</ele><time>2026-04-09T14:13:12Z</time></trkpt><trkpt lat="41.981683081656676" lon="12.844360278198971"><ele>244.0</ele><time>2026-04-09T14:13:13Z</time></trkpt><trkpt lat="41.98185901614863" lon="12.844388818781715"><ele>238.0</ele><time>2026-04-09T14:13:14Z</time></trkpt><trkpt lat="41.982040719328694" lon="12.844378794629014"><ele>238.0</ele><time>2026-04-09T14:13:15Z</time></trkpt><trkpt lat="41.982234591808165" lon="12.844342901615686"><ele>238.0</ele><time>2026-04-09T14:13:16Z</time></trkpt><trkpt lat="41.9824591685724" lon="12.844289124566199"><ele>238.0</ele><time>2026-04-09T14:13:17Z</time></trkpt><trkpt lat="41.982706814576304" lon="12.844242652659956"><ele>243.33333333333331</ele><time>2026-04-09T14:13:18Z</time></trkpt><trkpt lat="41.98292898163826" lon="12.844205360937455"><ele>248.66666666666669</ele><time>2026-04-09T14:13:19Z</time></trkpt><trkpt lat="41.98312336675254" lon="12.844176960287022"><ele>254.0</ele><time>2026-04-09T14:13:20Z</time></trkpt><trkpt lat="41.98332838341221" lon="12.844140329047974"><ele>254.0</ele><time>2026-04-09T14:13:21Z</time></trkpt><trkpt lat="41.983524951985224" lon="12.84410572282207"><ele>254.0</ele><time>2026-04-09T14:13:22Z</time></trkpt><trkpt lat="41.98370961746078" lon="12.84407849765511"><ele>254.0</ele><time>2026-04-09T14:13:23Z</time></trkpt><trkpt lat="41.98390536354676" lon="12.844095221462936"><ele>254.0</ele><time>2026-04-09T14:13:24Z</time></trkpt><trkpt lat="41.98410380749033" lon="12.844091815228703"><ele>254.0</ele><time>2026-04-09T14:13:25Z</time></trkpt><trkpt lat="41.98429156080986" lon="12.84412733489475"><ele>254.0</ele><time>2026-04-09T14:13:26Z</time></trkpt><trkpt lat="41.984481390525254" lon="12.844207939620526"><ele>254.66666666666669</ele><time>2026-04-09T14:13:27Z</time></trkpt><trkpt lat="41.98467326105314" lon="12.844268747057395"><ele>255.33333333333331</ele><time>2026-04-09T14:13:28Z</time></trkpt><trkpt lat="41.984854795825186" lon="12.84436339621024"><ele>256.0</ele><time>2026-04-09T14:13:29.001Z</time></trkpt><trkpt lat="41.98503939772401" lon="12.844483925120015"><ele>256.0</ele><time>2026-04-09T14:13:30.001Z</time></trkpt><trkpt lat="41.98522565797395" lon="12.844628432950907"><ele>256.0</ele><time>2026-04-09T14:13:31.001Z</time></trkpt><trkpt lat="41.98539951353619" lon="12.8448135650579"><ele>256.0</ele><time>2026-04-09T14:13:32.001Z</time></trkpt><trkpt lat="41.985563697777486" lon="12.844992203392291"><ele>255.33333333333331</ele><time>2026-04-09T14:13:33.001Z</time></trkpt><trkpt lat="41.985706877610866" lon="12.845140668867485"><ele>254.66666666666669</ele><time>2026-04-09T14:13:34.001Z</time></trkpt><trkpt lat="41.9858245568259" lon="12.845311900915705"><ele>254.0</ele><time>2026-04-09T14:13:35.001Z</time></trkpt><trkpt lat="41.985922221128575" lon="12.845479161157796"><ele>254.0</ele><time>2026-04-09T14:13:36.001Z</time></trkpt><trkpt lat="41.98601034892339" lon="12.84565810432521"><ele>254.0</ele><time>2026-04-09T14:13:37.001Z</time></trkpt><trkpt lat="41.986099695522014" lon="12.845851784519873"><ele>254.0</ele><time>2026-04-09T14:13:38.001Z</time></trkpt><trkpt lat="41.9861893830128" lon="12.84605935857888"><ele>255.0</ele><time>2026-04-09T14:13:39.001Z</time></trkpt><trkpt lat="41.986280762509864" lon="12.846279287566361"><ele>256.0</ele><time>2026-04-09T14:13:40.001Z</time></trkpt><trkpt lat="41.986357939604524" lon="12.846526727866406"><ele>257.0</ele><time>2026-04-09T14:13:41.001Z</time></trkpt><trkpt lat="41.98645958586583" lon="12.846750833041582"><ele>257.33333333333337</ele><time>2026-04-09T14:13:42.001Z</time></trkpt><trkpt lat="41.986534110453135" lon="12.846958939473392"><ele>257.6666666666667</ele><time>2026-04-09T14:13:43.001Z</time></trkpt><trkpt lat="41.98660409273334" lon="12.847147749499282"><ele>258.0</ele><time>2026-04-09T14:13:44.001Z</time></trkpt><trkpt lat="41.986640016012956" lon="12.847354484196824"><ele>258.0</ele><time>2026-04-09T14:13:45.001Z</time></trkpt><trkpt lat="41.98665925837329" lon="12.847570115840366"><ele>258.0</ele><time>2026-04-09T14:13:46.001Z</time></trkpt><trkpt lat="41.98665232086412" lon="12.847782982248251"><ele>258.0</ele><time>2026-04-09T14:13:47.001Z</time></trkpt><trkpt lat="41.986611310530414" lon="12.84799925606971"><ele>257.3333333333333</ele><time>2026-04-09T14:13:48.001Z</time></trkpt><trkpt lat="41.9865497010776" lon="12.848192350108143"><ele>256.66666666666663</ele><time>2026-04-09T14:13:49.001Z</time></trkpt><trkpt lat="41.98646543856006" lon="12.848394759102247"><ele>256.0</ele><time>2026-04-09T14:13:50.001Z</time></trkpt><trkpt lat="41.98634213645345" lon="12.848602969286004"><ele>257.66666666666663</ele><time>2026-04-09T14:13:51.001Z</time></trkpt><trkpt lat="41.98622520669087" lon="12.848794770569594"><ele>259.3333333333333</ele><time>2026-04-09T14:13:52.001Z</time></trkpt><trkpt lat="41.986129051165356" lon="12.848970726975852"><ele>261.0</ele><time>2026-04-09T14:13:53.001Z</time></trkpt><trkpt lat="41.98605441011881" lon="12.849170276009916"><ele>261.3333333333333</ele><time>2026-04-09T14:13:54.001Z</time></trkpt><trkpt lat="41.986023757756996" lon="12.84938865954171"><ele>261.66666666666663</ele><time>2026-04-09T14:13:55.001Z</time></trkpt><trkpt lat="41.98601988605929" lon="12.84964734381951"><ele>262.0</ele><time>2026-04-09T14:13:56.001Z</time></trkpt><trkpt lat="41.98602836534502" lon="12.849923615729718"><ele>262.3333333333333</ele><time>2026-04-09T14:13:57.001Z</time></trkpt><trkpt lat="41.986023603948915" lon="12.8501787709488"><ele>262.6666666666667</ele><time>2026-04-09T14:13:58.001Z</time></trkpt><trkpt lat="41.986000724415675" lon="12.850420363161724"><ele>263.0</ele><time>2026-04-09T14:13:59.001Z</time></trkpt><trkpt lat="41.98593641815367" lon="12.850659429552193"><ele>263.0</ele><time>2026-04-09T14:14:00.001Z</time></trkpt><trkpt lat="41.98586909409539" lon="12.850919363616027"><ele>263.0</ele><time>2026-04-09T14:14:01.001Z</time></trkpt><trkpt lat="41.98575011860993" lon="12.851170361087856"><ele>263.0</ele><time>2026-04-09T14:14:02.001Z</time></trkpt><trkpt lat="41.985621724697594" lon="12.851399066681251"><ele>263.0</ele><time>2026-04-09T14:14:03.001Z</time></trkpt><trkpt lat="41.9854901080988" lon="12.851618198921626"><ele>263.0</ele><time>2026-04-09T14:14:04.001Z</time></trkpt><trkpt lat="41.985346631762845" lon="12.851812940303525"><ele>263.0</ele><time>2026-04-09T14:14:05.001Z</time></trkpt><trkpt lat="41.98518919575381" lon="12.851994004162686"><ele>261.0</ele><time>2026-04-09T14:14:06.001Z</time></trkpt><trkpt lat="41.98501930667625" lon="12.852196199422089"><ele>259.0</ele><time>2026-04-09T14:14:07.001Z</time></trkpt><trkpt lat="41.98484503065592" lon="12.852401393150915"><ele>259.0</ele><time>2026-04-09T14:14:08.001Z</time></trkpt><trkpt lat="41.98469221471327" lon="12.85258667558447"><ele>259.0</ele><time>2026-04-09T14:14:09.001Z</time></trkpt><trkpt lat="41.98454620211053" lon="12.852760973861628"><ele>259.0</ele><time>2026-04-09T14:14:10.001Z</time></trkpt><trkpt lat="41.98440398771134" lon="12.852926278557783"><ele>257.3333333333333</ele><time>2026-04-09T14:14:11.001Z</time></trkpt><trkpt lat="41.9842645750278" lon="12.853082722170255"><ele>255.66666666666669</ele><time>2026-04-09T14:14:12.001Z</time></trkpt><trkpt lat="41.984135553732536" lon="12.853241923683747"><ele>254.0</ele><time>2026-04-09T14:14:13.001Z</time></trkpt><trkpt lat="41.98402674953412" lon="12.853409011222604"><ele>254.33333333333334</ele><time>2026-04-09T14:14:14.001Z</time></trkpt><trkpt lat="41.9839452368452" lon="12.853595518741056"><ele>254.66666666666669</ele><time>2026-04-09T14:14:15.001Z</time></trkpt><trkpt lat="41.98389091149506" lon="12.853812000401383"><ele>255.0</ele><time>2026-04-09T14:14:16.001Z</time></trkpt><trkpt lat="41.983860208513924" lon="12.854051597147148"><ele>256.0</ele><time>2026-04-09T14:14:17.001Z</time></trkpt><trkpt lat="41.98384339667216" lon="12.85430815881729"><ele>257.0</ele><time>2026-04-09T14:14:18.001Z</time></trkpt><trkpt lat="41.98382567100039" lon="12.854584089972489"><ele>258.0</ele><time>2026-04-09T14:14:19.001Z</time></trkpt><trkpt lat="41.983801373915156" lon="12.854863800010298"><ele>258.0</ele><time>2026-04-09T14:14:20.001Z</time></trkpt><trkpt lat="41.98378096856735" lon="12.855114055571715"><ele>258.0</ele><time>2026-04-09T14:14:21.001Z</time></trkpt><trkpt lat="41.98376846071781" lon="12.855342002747362"><ele>258.0</ele><time>2026-04-09T14:14:22.001Z</time></trkpt><trkpt lat="41.983764220275184" lon="12.855563283224672"><ele>257.6666666666667</ele><time>2026-04-09T14:14:23.001Z</time></trkpt><trkpt lat="41.98378505261605" lon="12.855774488642096"><ele>257.33333333333337</ele><time>2026-04-09T14:14:24.001Z</time></trkpt><trkpt lat="41.98383817518567" lon="12.855982135933893"><ele>257.0</ele><time>2026-04-09T14:14:25.001Z</time></trkpt><trkpt lat="41.98393297965804" lon="12.85617124780048"><ele>257.0</ele><time>2026-04-09T14:14:26.001Z</time></trkpt><trkpt lat="41.98405759661595" lon="12.856330684791596"><ele>257.0</ele><time>2026-04-09T14:14:27.001Z</time></trkpt><trkpt lat="41.98421173712634" lon="12.856485104271387"><ele>257.0</ele><time>2026-04-09T14:14:28.001Z</time></trkpt><trkpt lat="41.98438961376307" lon="12.85666127654407"><ele>257.5</ele><time>2026-04-09T14:14:29.001Z</time></trkpt><trkpt lat="41.984588443435634" lon="12.856859580160016"><ele>258.0</ele><time>2026-04-09T14:14:30.001Z</time></trkpt><trkpt lat="41.98476316556259" lon="12.857042835239188"><ele>258.0</ele><time>2026-04-09T14:14:31.001Z</time></trkpt><trkpt lat="41.98493880690374" lon="12.857217146867882"><ele>258.0</ele><time>2026-04-09T14:14:32.001Z</time></trkpt><trkpt lat="41.98511365542357" lon="12.857387907425185"><ele>258.0</ele><time>2026-04-09T14:14:33.001Z</time></trkpt><trkpt lat="41.985274537191636" lon="12.857550636957178"><ele>259.3333333333333</ele><time>2026-04-09T14:14:34.001Z</time></trkpt><trkpt lat="41.98542540872295" lon="12.857706027116382"><ele>260.66666666666663</ele><time>2026-04-09T14:14:35.001Z</time></trkpt><trkpt lat="41.98558164074306" lon="12.857875532530937"><ele>262.0</ele><time>2026-04-09T14:14:36.001Z</time></trkpt><trkpt lat="41.985724630597566" lon="12.858078903702227"><ele>267.0</ele><time>2026-04-09T14:14:37.001Z</time></trkpt><trkpt lat="41.985882458197146" lon="12.85826303995538"><ele>272.0</ele><time>2026-04-09T14:14:38.001Z</time></trkpt><trkpt lat="41.9860076142572" lon="12.858455189188234"><ele>277.0</ele><time>2026-04-09T14:14:39.001Z</time></trkpt><trkpt lat="41.9861225500764" lon="12.858641070959314"><ele>277.0</ele><time>2026-04-09T14:14:40.001Z</time></trkpt><trkpt lat="41.986202756853174" lon="12.858868407556471"><ele>277.0</ele><time>2026-04-09T14:14:41.001Z</time></trkpt><trkpt lat="41.98631227071085" lon="12.859097196652073"><ele>277.0</ele><time>2026-04-09T14:14:42.001Z</time></trkpt><trkpt lat="41.98639787453925" lon="12.85932745861149"><ele>273.3333333333333</ele><time>2026-04-09T14:14:43.001Z</time></trkpt><trkpt lat="41.986485427716815" lon="12.859536477713254"><ele>269.6666666666667</ele><time>2026-04-09T14:14:44.001Z</time></trkpt><trkpt lat="41.98657049742711" lon="12.85975339712544"><ele>266.0</ele><time>2026-04-09T14:14:45.001Z</time></trkpt><trkpt lat="41.986612030088345" lon="12.859988491025899"><ele>266.0</ele><time>2026-04-09T14:14:46Z</time></trkpt><trkpt lat="41.986670779480235" lon="12.86022984969064"><ele>266.0</ele><time>2026-04-09T14:14:47Z</time></trkpt><trkpt lat="41.98668515349457" lon="12.8604760676156"><ele>266.0</ele><time>2026-04-09T14:14:48Z</time></trkpt><trkpt lat="41.98667448492714" lon="12.860725844982502"><ele>269.6666666666667</ele><time>2026-04-09T14:14:49Z</time></trkpt><trkpt lat="41.98663803984847" lon="12.860973414632332"><ele>273.3333333333333</ele><time>2026-04-09T14:14:50Z</time></trkpt><trkpt lat="41.98658303553267" lon="12.86120667934917"><ele>277.0</ele><time>2026-04-09T14:14:51Z</time></trkpt><trkpt lat="41.98650838044287" lon="12.861439013959377"><ele>277.0</ele><time>2026-04-09T14:14:52Z</time></trkpt><trkpt lat="41.986424976190854" lon="12.86164530019187"><ele>277.0</ele><time>2026-04-09T14:14:53Z</time></trkpt><trkpt lat="41.98633767106894" lon="12.861836785154374"><ele>277.0</ele><time>2026-04-09T14:14:54Z</time></trkpt><trkpt lat="41.9862655357397" lon="12.862015925788947"><ele>278.0</ele><time>2026-04-09T14:14:55Z</time></trkpt><trkpt lat="41.98620967039803" lon="12.862227613148844"><ele>279.0</ele><time>2026-04-09T14:14:56Z</time></trkpt><trkpt lat="41.98621751067559" lon="12.862447419530842"><ele>280.0</ele><time>2026-04-09T14:14:57Z</time></trkpt><trkpt lat="41.98626799813297" lon="12.862664414507373"><ele>275.0</ele><time>2026-04-09T14:14:58Z</time></trkpt><trkpt lat="41.986356622798574" lon="12.862858126146833"><ele>270.0</ele><time>2026-04-09T14:14:59Z</time></trkpt><trkpt lat="41.98647689595226" lon="12.863013724842466"><ele>265.0</ele><time>2026-04-09T14:15:00Z</time></trkpt><trkpt lat="41.98662920101186" lon="12.863118749999277"><ele>268.75</ele><time>2026-04-09T14:15:01Z</time></trkpt><trkpt lat="41.9867670031813" lon="12.863168358189256"><ele>272.5</ele><time>2026-04-09T14:15:02Z</time></trkpt><trkpt lat="41.986891578954854" lon="12.8631978013368"><ele>276.25</ele><time>2026-04-09T14:15:03Z</time></trkpt><trkpt lat="41.9870098151547" lon="12.863212885979229"><ele>280.0</ele><time>2026-04-09T14:15:04Z</time></trkpt><trkpt lat="41.98711607243109" lon="12.863217920500364"><ele>280.0</ele><time>2026-04-09T14:15:05Z</time></trkpt><trkpt lat="41.98723031692002" lon="12.86323225896605"><ele>280.0</ele><time>2026-04-09T14:15:06Z</time></trkpt><trkpt lat="41.9873562230831" lon="12.863261767113665"><ele>280.0</ele><time>2026-04-09T14:15:07Z</time></trkpt><trkpt lat="41.987495255019844" lon="12.86329224417652"><ele>280.0</ele><time>2026-04-09T14:15:08Z</time></trkpt><trkpt lat="41.98764715888285" lon="12.86333712995927"><ele>277.66666666666663</ele><time>2026-04-09T14:15:09Z</time></trkpt><trkpt lat="41.9877943992241" lon="12.86341435684768"><ele>275.3333333333333</ele><time>2026-04-09T14:15:10Z</time></trkpt><trkpt lat="41.98794347566962" lon="12.863529369637007"><ele>273.0</ele><time>2026-04-09T14:15:11Z</time></trkpt><trkpt lat="41.98810893385175" lon="12.863684445172854"><ele>273.0</ele><time>2026-04-09T14:15:12Z</time></trkpt><trkpt lat="41.98825805902331" lon="12.86384447670535"><ele>273.0</ele><time>2026-04-09T14:15:13Z</time></trkpt><trkpt lat="41.98840388158537" lon="12.863993818066765"><ele>273.0</ele><time>2026-04-09T14:15:14Z</time></trkpt><trkpt lat="41.98854775561932" lon="12.86413079546974"><ele>276.0</ele><time>2026-04-09T14:15:15Z</time></trkpt><trkpt lat="41.98869531997536" lon="12.864273468457267"><ele>279.0</ele><time>2026-04-09T14:15:16Z</time></trkpt><trkpt lat="41.98880790554711" lon="12.864416879483182"><ele>282.0</ele><time>2026-04-09T14:15:17.001Z</time></trkpt><trkpt lat="41.98891070958428" lon="12.86459506366849"><ele>282.0</ele><time>2026-04-09T14:15:18.001Z</time></trkpt><trkpt lat="41.98900884870257" lon="12.864824853389967"><ele>282.0</ele><time>2026-04-09T14:15:19.001Z</time></trkpt><trkpt lat="41.9890958930392" lon="12.86510752503584"><ele>282.0</ele><time>2026-04-09T14:15:20.001Z</time></trkpt><trkpt lat="41.98918211549091" lon="12.865356787071477"><ele>284.6666666666667</ele><time>2026-04-09T14:15:21.001Z</time></trkpt><trkpt lat="41.98927630678215" lon="12.865570426491443"><ele>287.33333333333337</ele><time>2026-04-09T14:15:22.001Z</time></trkpt><trkpt lat="41.9893559087923" lon="12.865789296343172"><ele>290.0</ele><time>2026-04-09T14:15:23.001Z</time></trkpt><trkpt lat="41.989455396048584" lon="12.866004011316212"><ele>283.6666666666667</ele><time>2026-04-09T14:15:24.001Z</time></trkpt><trkpt lat="41.98956367290986" lon="12.866184629097907"><ele>277.3333333333333</ele><time>2026-04-09T14:15:25.001Z</time></trkpt><trkpt lat="41.98969158307818" lon="12.866357175019555"><ele>271.0</ele><time>2026-04-09T14:15:26.001Z</time></trkpt><trkpt lat="41.98983320426639" lon="12.866509785411816"><ele>271.0</ele><time>2026-04-09T14:15:27.001Z</time></trkpt><trkpt lat="41.98998976609673" lon="12.866654816047866"><ele>271.0</ele><time>2026-04-09T14:15:28.001Z</time></trkpt><trkpt lat="41.99014263887506" lon="12.86678478759637"><ele>271.0</ele><time>2026-04-09T14:15:29.001Z</time></trkpt><trkpt lat="41.99030092841893" lon="12.866902424306442"><ele>268.3333333333333</ele><time>2026-04-09T14:15:30.001Z</time></trkpt><trkpt lat="41.990472668175926" lon="12.866991780779315"><ele>265.6666666666667</ele><time>2026-04-09T14:15:31.001Z</time></trkpt><trkpt lat="41.9906707482527" lon="12.867053146296996"><ele>263.0</ele><time>2026-04-09T14:15:32.001Z</time></trkpt><trkpt lat="41.99088305293687" lon="12.867108755810198"><ele>263.0</ele><time>2026-04-09T14:15:33.001Z</time></trkpt><trkpt lat="41.991070968801054" lon="12.867197479711358"><ele>263.0</ele><time>2026-04-09T14:15:34.001Z</time></trkpt><trkpt lat="41.99125803458095" lon="12.8672771155997"><ele>263.0</ele><time>2026-04-09T14:15:35.001Z</time></trkpt><trkpt lat="41.991471541678465" lon="12.867360167255187"><ele>263.5</ele><time>2026-04-09T14:15:36.001Z</time></trkpt><trkpt lat="41.991707069214264" lon="12.867487538588248"><ele>264.0</ele><time>2026-04-09T14:15:37.001Z</time></trkpt><trkpt lat="41.991915849326254" lon="12.867610510293387"><ele>264.0</ele><time>2026-04-09T14:15:38.001Z</time></trkpt><trkpt lat="41.99210595674466" lon="12.86773268918973"><ele>264.0</ele><time>2026-04-09T14:15:39.001Z</time></trkpt><trkpt lat="41.99227999358157" lon="12.867848611615212"><ele>264.0</ele><time>2026-04-09T14:15:40.001Z</time></trkpt><trkpt lat="41.992453529009964" lon="12.86796227964533"><ele>269.3333333333333</ele><time>2026-04-09T14:15:41.001Z</time></trkpt><trkpt lat="41.99263847853657" lon="12.868082952549107"><ele>274.66666666666663</ele><time>2026-04-09T14:15:42.001Z</time></trkpt><trkpt lat="41.99283269758342" lon="12.868222486899288"><ele>280.0</ele><time>2026-04-09T14:15:43.001Z</time></trkpt><trkpt lat="41.99303313574724" lon="12.868421084266151"><ele>277.3333333333333</ele><time>2026-04-09T14:15:44.001Z</time></trkpt><trkpt lat="41.99323020413883" lon="12.868577789650464"><ele>274.6666666666667</ele><time>2026-04-09T14:15:45.001Z</time></trkpt><trkpt lat="41.99338503080998" lon="12.868732067207779"><ele>272.0</ele><time>2026-04-09T14:15:46.001Z</time></trkpt><trkpt lat="41.99354087121471" lon="12.868891143268504"><ele>272.0</ele><time>2026-04-09T14:15:47.001Z</time></trkpt><trkpt lat="41.99367256690656" lon="12.869095019382888"><ele>272.0</ele><time>2026-04-09T14:15:48.001Z</time></trkpt><trkpt lat="41.993790192570664" lon="12.869292448916612"><ele>272.0</ele><time>2026-04-09T14:15:49.001Z</time></trkpt><trkpt lat="41.993882357713716" lon="12.86949735314675"><ele>272.0</ele><time>2026-04-09T14:15:50.001Z</time></trkpt><trkpt lat="41.9939610593889" lon="12.869721502557134"><ele>272.0</ele><time>2026-04-09T14:15:51.001Z</time></trkpt><trkpt lat="41.99403742450309" lon="12.869967070360879"><ele>272.0</ele><time>2026-04-09T14:15:52.001Z</time></trkpt><trkpt lat="41.99411759736027" lon="12.870182735908246"><ele>272.0</ele><time>2026-04-09T14:15:53.001Z</time></trkpt><trkpt lat="41.99416569466856" lon="12.870384099254437"><ele>272.0</ele><time>2026-04-09T14:15:54.001Z</time></trkpt><trkpt lat="41.994211548883754" lon="12.870601011381517"><ele>272.0</ele><time>2026-04-09T14:15:55.001Z</time></trkpt><trkpt lat="41.994202866862395" lon="12.87083526419507"><ele>272.6666666666667</ele><time>2026-04-09T14:15:56.001Z</time></trkpt><trkpt lat="41.994195652792996" lon="12.871054846300753"><ele>273.3333333333333</ele><time>2026-04-09T14:15:57.001Z</time></trkpt><trkpt lat="41.994177626282124" lon="12.871266015393951"><ele>274.0</ele><time>2026-04-09T14:15:58.001Z</time></trkpt><trkpt lat="41.99415155625928" lon="12.871476216295445"><ele>274.0</ele><time>2026-04-09T14:15:59.001Z</time></trkpt><trkpt lat="41.99414010065586" lon="12.871671560272679"><ele>274.0</ele><time>2026-04-09T14:16:00.001Z</time></trkpt><trkpt lat="41.994123801518505" lon="12.871863654017188"><ele>274.0</ele><time>2026-04-09T14:16:01.001Z</time></trkpt><trkpt lat="41.99412908649539" lon="12.872057553776743"><ele>274.0</ele><time>2026-04-09T14:16:02.001Z</time></trkpt><trkpt lat="41.994173277444354" lon="12.872261783282354"><ele>274.66666666666663</ele><time>2026-04-09T14:16:03.001Z</time></trkpt><trkpt lat="41.994227144239666" lon="12.872458437810458"><ele>275.3333333333333</ele><time>2026-04-09T14:16:04.001Z</time></trkpt><trkpt lat="41.99431219089875" lon="12.872645863882223"><ele>276.0</ele><time>2026-04-09T14:16:05.001Z</time></trkpt><trkpt lat="41.99441122137422" lon="12.872834326779586"><ele>276.0</ele><time>2026-04-09T14:16:06.001Z</time></trkpt><trkpt lat="41.994503958257596" lon="12.87300423811685"><ele>276.0</ele><time>2026-04-09T14:16:07.001Z</time></trkpt><trkpt lat="41.99459721504787" lon="12.873172669681406"><ele>276.0</ele><time>2026-04-09T14:16:08.001Z</time></trkpt><trkpt lat="41.994698477965606" lon="12.873320581662307"><ele>276.0</ele><time>2026-04-09T14:16:09.001Z</time></trkpt><trkpt lat="41.994824857008815" lon="12.873433229200092"><ele>276.0</ele><time>2026-04-09T14:16:10.001Z</time></trkpt><trkpt lat="41.99497150406251" lon="12.87352822641463"><ele>276.0</ele><time>2026-04-09T14:16:11.001Z</time></trkpt><trkpt lat="41.995125654405975" lon="12.873612886574913"><ele>274.0</ele><time>2026-04-09T14:16:12.001Z</time></trkpt><trkpt lat="41.99526799644057" lon="12.873668632702891"><ele>272.0</ele><time>2026-04-09T14:16:13.001Z</time></trkpt><trkpt lat="41.99540529852014" lon="12.873712044685194"><ele>270.0</ele><time>2026-04-09T14:16:14.001Z</time></trkpt><trkpt lat="41.995530796388934" lon="12.873786359218768"><ele>268.0</ele><time>2026-04-09T14:16:15.001Z</time></trkpt><trkpt lat="41.995649221355016" lon="12.873900756855742"><ele>268.0</ele><time>2026-04-09T14:16:16.001Z</time></trkpt><trkpt lat="41.99576620602927" lon="12.874047824807468"><ele>268.0</ele><time>2026-04-09T14:16:17.001Z</time></trkpt><trkpt lat="41.99589272190847" lon="12.874226731460116"><ele>268.0</ele><time>2026-04-09T14:16:18.001Z</time></trkpt><trkpt lat="41.99600476839283" lon="12.874392894346757"><ele>269.0</ele><time>2026-04-09T14:16:19.001Z</time></trkpt><trkpt lat="41.99612071721632" lon="12.874556060338055"><ele>270.0</ele><time>2026-04-09T14:16:20.001Z</time></trkpt><trkpt lat="41.99623450749835" lon="12.874736552395229"><ele>271.0</ele><time>2026-04-09T14:16:21.001Z</time></trkpt><trkpt lat="41.996386000706416" lon="12.87489549498864"><ele>271.0</ele><time>2026-04-09T14:16:22.001Z</time></trkpt><trkpt lat="41.9965215088187" lon="12.875055515840646"><ele>271.0</ele><time>2026-04-09T14:16:23.001Z</time></trkpt><trkpt lat="41.99664579380157" lon="12.875214518345341"><ele>271.0</ele><time>2026-04-09T14:16:24.001Z</time></trkpt><trkpt lat="41.99679153416813" lon="12.87535033922207"><ele>269.66666666666663</ele><time>2026-04-09T14:16:25.001Z</time></trkpt><trkpt lat="41.99691547104754" lon="12.875485464084317"><ele>268.3333333333333</ele><time>2026-04-09T14:16:26.001Z</time></trkpt><trkpt lat="41.997044808529175" lon="12.875620825582894"><ele>267.0</ele><time>2026-04-09T14:16:27.001Z</time></trkpt><trkpt lat="41.99718193667717" lon="12.8757529668901"><ele>267.0</ele><time>2026-04-09T14:16:28.001Z</time></trkpt><trkpt lat="41.997328494442705" lon="12.875882253623157"><ele>267.0</ele><time>2026-04-09T14:16:29.001Z</time></trkpt><trkpt lat="41.99747484086645" lon="12.876011211525638"><ele>267.0</ele><time>2026-04-09T14:16:30.001Z</time></trkpt><trkpt lat="41.99760480860258" lon="12.876133631003686"><ele>265.6666666666667</ele><time>2026-04-09T14:16:31.001Z</time></trkpt><trkpt lat="41.997729278659165" lon="12.876238495904063"><ele>264.33333333333337</ele><time>2026-04-09T14:16:32.001Z</time></trkpt><trkpt lat="41.99786417231773" lon="12.876341219425798"><ele>263.0</ele><time>2026-04-09T14:16:33.001Z</time></trkpt><trkpt lat="41.99803985615743" lon="12.876435224794243"><ele>263.0</ele><time>2026-04-09T14:16:34.001Z</time></trkpt><trkpt lat="41.99824776630347" lon="12.876532533149428"><ele>263.0</ele><time>2026-04-09T14:16:35.001Z</time></trkpt><trkpt lat="41.998424541978515" lon="12.876614311659177"><ele>263.0</ele><time>2026-04-09T14:16:36.001Z</time></trkpt><trkpt lat="41.99858597590005" lon="12.87669401850964"><ele>262.0</ele><time>2026-04-09T14:16:37.001Z</time></trkpt><trkpt lat="41.99874545847151" lon="12.876771518034973"><ele>261.0</ele><time>2026-04-09T14:16:38.001Z</time></trkpt><trkpt lat="41.99890471242674" lon="12.876846344175112"><ele>260.0</ele><time>2026-04-09T14:16:39.001Z</time></trkpt><trkpt lat="41.99905955207835" lon="12.876914918492936"><ele>261.0</ele><time>2026-04-09T14:16:40.001Z</time></trkpt><trkpt lat="41.999233316760424" lon="12.876967563959619"><ele>262.0</ele><time>2026-04-09T14:16:41.001Z</time></trkpt><trkpt lat="41.999396934755204" lon="12.877014161933904"><ele>263.0</ele><time>2026-04-09T14:16:42.001Z</time></trkpt><trkpt lat="41.99961136075245" lon="12.87704712980983"><ele>263.0</ele><time>2026-04-09T14:16:43.002Z</time></trkpt><trkpt lat="41.99980893024707" lon="12.877084781386467"><ele>263.0</ele><time>2026-04-09T14:16:44.002Z</time></trkpt><trkpt lat="41.99998890118807" lon="12.87711596839838"><ele>263.0</ele><time>2026-04-09T14:16:45.002Z</time></trkpt><trkpt lat="42.000159229660994" lon="12.877142513811318"><ele>263.0</ele><time>2026-04-09T14:16:46.002Z</time></trkpt><trkpt lat="42.000313367170705" lon="12.877157751758965"><ele>263.0</ele><time>2026-04-09T14:16:47.002Z</time></trkpt><trkpt lat="42.00047108948886" lon="12.877163677387719"><ele>263.0</ele><time>2026-04-09T14:16:48.002Z</time></trkpt><trkpt lat="42.00064538483741" lon="12.877157070929236"><ele>263.0</ele><time>2026-04-09T14:16:49.002Z</time></trkpt><trkpt lat="42.00087373292722" lon="12.877124412159102"><ele>263.0</ele><time>2026-04-09T14:16:50.002Z</time></trkpt><trkpt lat="42.001117714773095" lon="12.877081431783562"><ele>263.0</ele><time>2026-04-09T14:16:51.002Z</time></trkpt><trkpt lat="42.00133436702843" lon="12.877054309376218"><ele>263.0</ele><time>2026-04-09T14:16:52.001Z</time></trkpt><trkpt lat="42.00153883449507" lon="12.877068161501356"><ele>263.0</ele><time>2026-04-09T14:16:53.001Z</time></trkpt><trkpt lat="42.00173454452973" lon="12.877100217142965"><ele>262.33333333333337</ele><time>2026-04-09T14:16:54.001Z</time></trkpt><trkpt lat="42.00191562096455" lon="12.877122466134084"><ele>261.6666666666667</ele><time>2026-04-09T14:16:55.001Z</time></trkpt><trkpt lat="42.002093787298804" lon="12.877122278449965"><ele>261.0</ele><time>2026-04-09T14:16:56.001Z</time></trkpt><trkpt lat="42.00226971438674" lon="12.877096385862366"><ele>261.0</ele><time>2026-04-09T14:16:57.001Z</time></trkpt><trkpt lat="42.00244175458429" lon="12.877023640810771"><ele>261.0</ele><time>2026-04-09T14:16:58.001Z</time></trkpt><trkpt lat="42.00261191533965" lon="12.876906284453689"><ele>261.0</ele><time>2026-04-09T14:16:59.001Z</time></trkpt><trkpt lat="42.00276480530843" lon="12.876797538368423"><ele>261.0</ele><time>2026-04-09T14:17:00.001Z</time></trkpt><trkpt lat="42.002908332566534" lon="12.876702973756986"><ele>261.0</ele><time>2026-04-09T14:17:01.001Z</time></trkpt><trkpt lat="42.003049536824015" lon="12.87662024291358"><ele>261.0</ele><time>2026-04-09T14:17:02.001Z</time></trkpt><trkpt lat="42.00319265239999" lon="12.87656291366602"><ele>263.0</ele><time>2026-04-09T14:17:03.001Z</time></trkpt><trkpt lat="42.00333740089072" lon="12.87654202611419"><ele>265.0</ele><time>2026-04-09T14:17:04.001Z</time></trkpt><trkpt lat="42.003488747199654" lon="12.876559526789153"><ele>267.0</ele><time>2026-04-09T14:17:05.001Z</time></trkpt><trkpt lat="42.003637524455755" lon="12.876606408920612"><ele>267.0</ele><time>2026-04-09T14:17:06.001Z</time></trkpt><trkpt lat="42.00376127677349" lon="12.87669754154563"><ele>267.0</ele><time>2026-04-09T14:17:07.001Z</time></trkpt><trkpt lat="42.003918023476835" lon="12.876769189234881"><ele>267.0</ele><time>2026-04-09T14:17:08.001Z</time></trkpt><trkpt lat="42.00409798367648" lon="12.87688778622268"><ele>266.6666666666667</ele><time>2026-04-09T14:17:09.001Z</time></trkpt><trkpt lat="42.0042805716306" lon="12.87699902148154"><ele>266.33333333333337</ele><time>2026-04-09T14:17:10.001Z</time></trkpt><trkpt lat="42.004460316826815" lon="12.877073642107876"><ele>266.0</ele><time>2026-04-09T14:17:11.001Z</time></trkpt><trkpt lat="42.00464072601315" lon="12.877110388958053"><ele>266.0</ele><time>2026-04-09T14:17:12.001Z</time></trkpt><trkpt lat="42.00481223489809" lon="12.877109754302614"><ele>266.0</ele><time>2026-04-09T14:17:13.001Z</time></trkpt><trkpt lat="42.004975409088374" lon="12.877091683733228"><ele>266.0</ele><time>2026-04-09T14:17:14.001Z</time></trkpt><trkpt lat="42.00511764280144" lon="12.87708307980402"><ele>267.25</ele><time>2026-04-09T14:17:15.001Z</time></trkpt><trkpt lat="42.0052461006435" lon="12.87712015926467"><ele>268.5</ele><time>2026-04-09T14:17:16.001Z</time></trkpt><trkpt lat="42.00535445434455" lon="12.877216896804105"><ele>269.75</ele><time>2026-04-09T14:17:17.001Z</time></trkpt><trkpt lat="42.005433736023654" lon="12.877352245281806"><ele>271.0</ele><time>2026-04-09T14:17:18.001Z</time></trkpt><trkpt lat="42.00547350536655" lon="12.877545100766868"><ele>269.0</ele><time>2026-04-09T14:17:19.001Z</time></trkpt><trkpt lat="42.00547102152772" lon="12.87776065221685"><ele>267.0</ele><time>2026-04-09T14:17:20.001Z</time></trkpt><trkpt lat="42.00552134682505" lon="12.87799077492065"><ele>265.0</ele><time>2026-04-09T14:17:21.001Z</time></trkpt><trkpt lat="42.005603308067" lon="12.878267792595386"><ele>264.0</ele><time>2026-04-09T14:17:22.001Z</time></trkpt><trkpt lat="42.00570839225069" lon="12.878534240259187"><ele>263.0</ele><time>2026-04-09T14:17:23.001Z</time></trkpt><trkpt lat="42.00583013080816" lon="12.878809232085814"><ele>263.33333333333337</ele><time>2026-04-09T14:17:24.001Z</time></trkpt><trkpt lat="42.0059381478168" lon="12.879086759006643"><ele>263.6666666666667</ele><time>2026-04-09T14:17:25.001Z</time></trkpt><trkpt lat="42.00602441363361" lon="12.879331178707384"><ele>264.0</ele><time>2026-04-09T14:17:26.001Z</time></trkpt><trkpt lat="42.00610191193088" lon="12.879562262271154"><ele>264.0</ele><time>2026-04-09T14:17:27.001Z</time></trkpt><trkpt lat="42.00612939559652" lon="12.87981561395873"><ele>264.0</ele><time>2026-04-09T14:17:28.001Z</time></trkpt><trkpt lat="42.00617941579625" lon="12.88006135508774"><ele>264.0</ele><time>2026-04-09T14:17:29.001Z</time></trkpt><trkpt lat="42.00622209719017" lon="12.880287138669335"><ele>263.6666666666667</ele><time>2026-04-09T14:17:30.001Z</time></trkpt><trkpt lat="42.006311096616756" lon="12.880529539208892"><ele>263.33333333333337</ele><time>2026-04-09T14:17:31.001Z</time></trkpt><trkpt lat="42.00644001706756" lon="12.880748313536252"><ele>263.0</ele><time>2026-04-09T14:17:32.001Z</time></trkpt><trkpt lat="42.006600048043076" lon="12.880964407968206"><ele>263.0</ele><time>2026-04-09T14:17:33.001Z</time></trkpt><trkpt lat="42.00678399918074" lon="12.881191706521665"><ele>263.0</ele><time>2026-04-09T14:17:34.001Z</time></trkpt><trkpt lat="42.00695956603556" lon="12.881388917239565"><ele>263.0</ele><time>2026-04-09T14:17:35.001Z</time></trkpt><trkpt lat="42.00712026598935" lon="12.881552787617574"><ele>263.0</ele><time>2026-04-09T14:17:36.001Z</time></trkpt><trkpt lat="42.00728613097799" lon="12.881683756459557"><ele>263.0</ele><time>2026-04-09T14:17:37.001Z</time></trkpt><trkpt lat="42.00745939661937" lon="12.881778486124524"><ele>263.0</ele><time>2026-04-09T14:17:38.001Z</time></trkpt><trkpt lat="42.007654690894945" lon="12.88184273982713"><ele>263.0</ele><time>2026-04-09T14:17:39.001Z</time></trkpt><trkpt lat="42.00785537283577" lon="12.881873513516425"><ele>263.0</ele><time>2026-04-09T14:17:40.001Z</time></trkpt><trkpt lat="42.00804259042441" lon="12.88189434879625"><ele>263.0</ele><time>2026-04-09T14:17:41.001Z</time></trkpt><trkpt lat="42.00822257629811" lon="12.881913721522563"><ele>263.0</ele><time>2026-04-09T14:17:42.001Z</time></trkpt><trkpt lat="42.00839224063676" lon="12.881927634369761"><ele>263.0</ele><time>2026-04-09T14:17:43.001Z</time></trkpt><trkpt lat="42.00854412198795" lon="12.881978486422927"><ele>263.0</ele><time>2026-04-09T14:17:44.001Z</time></trkpt><trkpt lat="42.008700589080235" lon="12.882054947318666"><ele>263.0</ele><time>2026-04-09T14:17:45.001Z</time></trkpt><trkpt lat="42.00886292419798" lon="12.88213771073595"><ele>263.0</ele><time>2026-04-09T14:17:46.001Z</time></trkpt><trkpt lat="42.009020053570765" lon="12.882295210465434"><ele>264.0</ele><time>2026-04-09T14:17:47.001Z</time></trkpt><trkpt lat="42.00920655453733" lon="12.882485722549958"><ele>265.0</ele><time>2026-04-09T14:17:48.001Z</time></trkpt><trkpt lat="42.00940184438641" lon="12.882673295355472"><ele>265.0</ele><time>2026-04-09T14:17:49.001Z</time></trkpt><trkpt lat="42.00958683371776" lon="12.882870256892351"><ele>265.0</ele><time>2026-04-09T14:17:50.001Z</time></trkpt><trkpt lat="42.00976828566157" lon="12.883067313790326"><ele>265.0</ele><time>2026-04-09T14:17:51.001Z</time></trkpt><trkpt lat="42.00992791556008" lon="12.883252231705374"><ele>265.0</ele><time>2026-04-09T14:17:52.001Z</time></trkpt><trkpt lat="42.01008570711451" lon="12.88344027240333"><ele>265.0</ele><time>2026-04-09T14:17:53.001Z</time></trkpt><trkpt lat="42.01024390246069" lon="12.883637499829948"><ele>265.0</ele><time>2026-04-09T14:17:54.001Z</time></trkpt><trkpt lat="42.01040112160909" lon="12.883838899267287"><ele>265.0</ele><time>2026-04-09T14:17:55.001Z</time></trkpt><trkpt lat="42.01055432850453" lon="12.884063664242705"><ele>265.0</ele><time>2026-04-09T14:17:56.001Z</time></trkpt><trkpt lat="42.010708975545576" lon="12.884325917041894"><ele>267.66666666666663</ele><time>2026-04-09T14:17:57.001Z</time></trkpt><trkpt lat="42.010854304118205" lon="12.884573505204234"><ele>270.3333333333333</ele><time>2026-04-09T14:17:58.001Z</time></trkpt><trkpt lat="42.010985165795674" lon="12.884789357734219"><ele>273.0</ele><time>2026-04-09T14:17:59.001Z</time></trkpt><trkpt lat="42.0111112200889" lon="12.884990877935232"><ele>270.6666666666667</ele><time>2026-04-09T14:18:00.001Z</time></trkpt><trkpt lat="42.01122092496513" lon="12.885217391846384"><ele>268.33333333333337</ele><time>2026-04-09T14:18:01.001Z</time></trkpt><trkpt lat="42.01133404875102" lon="12.885471769738809"><ele>266.0</ele><time>2026-04-09T14:18:02.001Z</time></trkpt><trkpt lat="42.01145732267241" lon="12.88575468077481"><ele>264.6666666666667</ele><time>2026-04-09T14:18:03.001Z</time></trkpt><trkpt lat="42.01154416967662" lon="12.886024459952832"><ele>263.3333333333333</ele><time>2026-04-09T14:18:04.001Z</time></trkpt><trkpt lat="42.01161406023786" lon="12.88624714711441"><ele>262.0</ele><time>2026-04-09T14:18:05.001Z</time></trkpt><trkpt lat="42.01167787647674" lon="12.88645659139624"><ele>264.66666666666663</ele><time>2026-04-09T14:18:06.001Z</time></trkpt><trkpt lat="42.01173039619738" lon="12.886655581611025"><ele>267.3333333333333</ele><time>2026-04-09T14:18:07.001Z</time></trkpt><trkpt lat="42.01179229098168" lon="12.886854604041366"><ele>270.0</ele><time>2026-04-09T14:18:08.001Z</time></trkpt><trkpt lat="42.011866684784984" lon="12.887027289484035"><ele>270.0</ele><time>2026-04-09T14:18:09.001Z</time></trkpt><trkpt lat="42.01197284290545" lon="12.88722114225814"><ele>270.0</ele><time>2026-04-09T14:18:10.001Z</time></trkpt><trkpt lat="42.01208429704527" lon="12.887469108112601"><ele>270.0</ele><time>2026-04-09T14:18:11.001Z</time></trkpt><trkpt lat="42.01220556723831" lon="12.887681202512518"><ele>269.6666666666667</ele><time>2026-04-09T14:18:12.001Z</time></trkpt><trkpt lat="42.01228829920127" lon="12.887881745306661"><ele>269.33333333333337</ele><time>2026-04-09T14:18:13.001Z</time></trkpt><trkpt lat="42.01237434865693" lon="12.888077595651055"><ele>269.0</ele><time>2026-04-09T14:18:14.001Z</time></trkpt><trkpt lat="42.01246774098676" lon="12.888285102364215"><ele>269.33333333333337</ele><time>2026-04-09T14:18:15.001Z</time></trkpt><trkpt lat="42.012553734949265" lon="12.888474637865084"><ele>269.6666666666667</ele><time>2026-04-09T14:18:16.001Z</time></trkpt><trkpt lat="42.01264137615207" lon="12.888651574055409"><ele>270.0</ele><time>2026-04-09T14:18:17.001Z</time></trkpt><trkpt lat="42.0127312374229" lon="12.888816027488119"><ele>270.0</ele><time>2026-04-09T14:18:18.001Z</time></trkpt><trkpt lat="42.01282885700285" lon="12.8889766772143"><ele>270.0</ele><time>2026-04-09T14:18:19.001Z</time></trkpt><trkpt lat="42.01294087129583" lon="12.889118273564552"><ele>270.0</ele><time>2026-04-09T14:18:20.001Z</time></trkpt><trkpt lat="42.0130629011707" lon="12.88924229831172"><ele>269.3333333333333</ele><time>2026-04-09T14:18:21.001Z</time></trkpt><trkpt lat="42.01318382478977" lon="12.889364108137423"><ele>268.66666666666663</ele><time>2026-04-09T14:18:22.001Z</time></trkpt><trkpt lat="42.01329723183195" lon="12.889501009951271"><ele>268.0</ele><time>2026-04-09T14:18:23.001Z</time></trkpt><trkpt lat="42.01338661922952" lon="12.889659941228159"><ele>270.0</ele><time>2026-04-09T14:18:24.001Z</time></trkpt><trkpt lat="42.01340793477319" lon="12.889859797831278"><ele>272.0</ele><time>2026-04-09T14:18:25.001Z</time></trkpt><trkpt lat="42.01343255229257" lon="12.890063905940206"><ele>274.0</ele><time>2026-04-09T14:18:26.001Z</time></trkpt><trkpt lat="42.01345665730688" lon="12.890285635405727"><ele>277.3333333333333</ele><time>2026-04-09T14:18:27.001Z</time></trkpt><trkpt lat="42.013471024598005" lon="12.890516543550167"><ele>280.6666666666667</ele><time>2026-04-09T14:18:28.001Z</time></trkpt><trkpt lat="42.01345558072218" lon="12.890735600903025"><ele>284.0</ele><time>2026-04-09T14:18:29.001Z</time></trkpt><trkpt lat="42.01343064300427" lon="12.890932906861897"><ele>286.25</ele><time>2026-04-09T14:18:30.001Z</time></trkpt><trkpt lat="42.01341671274048" lon="12.891134811863497"><ele>288.5</ele><time>2026-04-09T14:18:31.001Z</time></trkpt><trkpt lat="42.01338716326841" lon="12.891330588139828"><ele>290.75</ele><time>2026-04-09T14:18:32.001Z</time></trkpt><trkpt lat="42.013370860966226" lon="12.891526333837762"><ele>293.0</ele><time>2026-04-09T14:18:33.001Z</time></trkpt><trkpt lat="42.01336382688039" lon="12.891739587660762"><ele>291.5</ele><time>2026-04-09T14:18:34.001Z</time></trkpt><trkpt lat="42.0133682960816" lon="12.89195903920163"><ele>290.0</ele><time>2026-04-09T14:18:35.001Z</time></trkpt><trkpt lat="42.01338745958653" lon="12.892136947192755"><ele>288.5</ele><time>2026-04-09T14:18:36.001Z</time></trkpt><trkpt lat="42.01342607199433" lon="12.892297973102238"><ele>287.0</ele><time>2026-04-09T14:18:37.001Z</time></trkpt><trkpt lat="42.0134714581909" lon="12.892432629350436"><ele>287.0</ele><time>2026-04-09T14:18:38.001Z</time></trkpt><trkpt lat="42.013540279654016" lon="12.892544259162893"><ele>287.0</ele><time>2026-04-09T14:18:39.001Z</time></trkpt><trkpt lat="42.01363540376883" lon="12.892623362417838"><ele>287.0</ele><time>2026-04-09T14:18:40.001Z</time></trkpt><trkpt lat="42.013746558748196" lon="12.892669925433653"><ele>287.0</ele><time>2026-04-09T14:18:41.001Z</time></trkpt><trkpt lat="42.01387652093952" lon="12.89270083090432"><ele>284.6666666666667</ele><time>2026-04-09T14:18:42.001Z</time></trkpt><trkpt lat="42.01402635886439" lon="12.892717932117757"><ele>282.3333333333333</ele><time>2026-04-09T14:18:43.001Z</time></trkpt><trkpt lat="42.01420130694757" lon="12.892769031276083"><ele>280.0</ele><time>2026-04-09T14:18:44.001Z</time></trkpt><trkpt lat="42.0143656759109" lon="12.892807932774243"><ele>280.0</ele><time>2026-04-09T14:18:45.001Z</time></trkpt><trkpt lat="42.01455296192117" lon="12.892857396676298"><ele>280.0</ele><time>2026-04-09T14:18:46.001Z</time></trkpt><trkpt lat="42.0147184218288" lon="12.892919800895976"><ele>280.0</ele><time>2026-04-09T14:18:47.001Z</time></trkpt><trkpt lat="42.01485541122866" lon="12.892998610585154"><ele>280.0</ele><time>2026-04-09T14:18:48.001Z</time></trkpt><trkpt lat="42.0149797570641" lon="12.893092770530542"><ele>280.0</ele><time>2026-04-09T14:18:49.001Z</time></trkpt><trkpt lat="42.01508849392536" lon="12.89319457443919"><ele>280.0</ele><time>2026-04-09T14:18:50.001Z</time></trkpt><trkpt lat="42.01518763234255" lon="12.893310005000446"><ele>280.0</ele><time>2026-04-09T14:18:51.001Z</time></trkpt><trkpt lat="42.01527417014543" lon="12.893433772574873"><ele>279.75</ele><time>2026-04-09T14:18:52.001Z</time></trkpt><trkpt lat="42.015358465401334" lon="12.893576880787256"><ele>279.5</ele><time>2026-04-09T14:18:53.001Z</time></trkpt><trkpt lat="42.01544198790923" lon="12.89374119161704"><ele>279.25</ele><time>2026-04-09T14:18:54.001Z</time></trkpt><trkpt lat="42.015528927708594" lon="12.893925072996577"><ele>279.0</ele><time>2026-04-09T14:18:55.002Z</time></trkpt><trkpt lat="42.015624012787626" lon="12.894127672914822"><ele>276.3333333333333</ele><time>2026-04-09T14:18:56.002Z</time></trkpt><trkpt lat="42.01574137869564" lon="12.894383661964499"><ele>273.66666666666663</ele><time>2026-04-09T14:18:57.002Z</time></trkpt><trkpt lat="42.01585151433154" lon="12.894622820837712"><ele>271.0</ele><time>2026-04-09T14:18:58.001Z</time></trkpt><trkpt lat="42.015952416524925" lon="12.894813334476467"><ele>279.3333333333333</ele><time>2026-04-09T14:18:59.001Z</time></trkpt><trkpt lat="42.01601013381118" lon="12.895032285596102"><ele>287.6666666666667</ele><time>2026-04-09T14:19:00.001Z</time></trkpt><trkpt lat="42.01605655172985" lon="12.895231338245527"><ele>296.0</ele><time>2026-04-09T14:19:01.001Z</time></trkpt><trkpt lat="42.01608579695832" lon="12.89541007439199"><ele>296.0</ele><time>2026-04-09T14:19:02.001Z</time></trkpt><trkpt lat="42.01610899947614" lon="12.895608330120185"><ele>296.0</ele><time>2026-04-09T14:19:03.001Z</time></trkpt><trkpt lat="42.01613480077657" lon="12.895810077726871"><ele>296.0</ele><time>2026-04-09T14:19:04.001Z</time></trkpt><trkpt lat="42.016124934369245" lon="12.896027882095359"><ele>295.6666666666667</ele><time>2026-04-09T14:19:05.001Z</time></trkpt><trkpt lat="42.01611579755537" lon="12.896232796194754"><ele>295.3333333333333</ele><time>2026-04-09T14:19:06.001Z</time></trkpt><trkpt lat="42.01611178996107" lon="12.89642859789447"><ele>295.0</ele><time>2026-04-09T14:19:07.001Z</time></trkpt><trkpt lat="42.016127118814" lon="12.896634326827487"><ele>295.0</ele><time>2026-04-09T14:19:08.001Z</time></trkpt><trkpt lat="42.01615828808218" lon="12.896856378554377"><ele>295.0</ele><time>2026-04-09T14:19:09.001Z</time></trkpt><trkpt lat="42.016199364392484" lon="12.897109704493033"><ele>295.0</ele><time>2026-04-09T14:19:10.001Z</time></trkpt><trkpt lat="42.0162149944277" lon="12.897374317757768"><ele>293.66666666666663</ele><time>2026-04-09T14:19:11.001Z</time></trkpt><trkpt lat="42.01622915039146" lon="12.89762046945327"><ele>292.3333333333333</ele><time>2026-04-09T14:19:12.001Z</time></trkpt><trkpt lat="42.016248073008896" lon="12.897832633934897"><ele>291.0</ele><time>2026-04-09T14:19:13.001Z</time></trkpt><trkpt lat="42.01627070015647" lon="12.898054226203268"><ele>291.0</ele><time>2026-04-09T14:19:14.001Z</time></trkpt><trkpt lat="42.016294220374604" lon="12.898262045327145"><ele>291.0</ele><time>2026-04-09T14:19:15.001Z</time></trkpt><trkpt lat="42.016313508599545" lon="12.898441385124954"><ele>291.0</ele><time>2026-04-09T14:19:16.001Z</time></trkpt><trkpt lat="42.01633100125331" lon="12.898625224083077"><ele>291.0</ele><time>2026-04-09T14:19:17.001Z</time></trkpt><trkpt lat="42.01635216163781" lon="12.898797239905688"><ele>290.75</ele><time>2026-04-09T14:19:18.001Z</time></trkpt><trkpt lat="42.016396384825114" lon="12.89897144292748"><ele>290.5</ele><time>2026-04-09T14:19:19.001Z</time></trkpt><trkpt lat="42.01648385541812" lon="12.899130556821271"><ele>290.25</ele><time>2026-04-09T14:19:20.001Z</time></trkpt><trkpt lat="42.01661256616074" lon="12.899236768196216"><ele>290.0</ele><time>2026-04-09T14:19:21.001Z</time></trkpt><trkpt lat="42.016765876823854" lon="12.899300170552907"><ele>290.0</ele><time>2026-04-09T14:19:22.001Z</time></trkpt><trkpt lat="42.01693682693628" lon="12.899301718647637"><ele>290.0</ele><time>2026-04-09T14:19:23.001Z</time></trkpt><trkpt lat="42.01712197795456" lon="12.899269889559081"><ele>290.0</ele><time>2026-04-09T14:19:24.001Z</time></trkpt><trkpt lat="42.01732902391509" lon="12.899233068002525"><ele>297.0</ele><time>2026-04-09T14:19:25.001Z</time></trkpt><trkpt lat="42.017522094594106" lon="12.899202098146604"><ele>304.0</ele><time>2026-04-09T14:19:26.001Z</time></trkpt><trkpt lat="42.01772018367198" lon="12.899175216969159"><ele>311.0</ele><time>2026-04-09T14:19:27.001Z</time></trkpt><trkpt lat="42.01793266702166" lon="12.899153799365031"><ele>311.0</ele><time>2026-04-09T14:19:28.001Z</time></trkpt><trkpt lat="42.01814890844653" lon="12.899128388890531"><ele>311.0</ele><time>2026-04-09T14:19:29.001Z</time></trkpt><trkpt lat="42.018346750681395" lon="12.899108808125787"><ele>311.0</ele><time>2026-04-09T14:19:30.001Z</time></trkpt><trkpt lat="42.01854041261144" lon="12.899088610505347"><ele>311.33333333333337</ele><time>2026-04-09T14:19:31.001Z</time></trkpt><trkpt lat="42.01874564624391" lon="12.899067146403103"><ele>311.6666666666667</ele><time>2026-04-09T14:19:32.001Z</time></trkpt><trkpt lat="42.018950799500736" lon="12.899047092570356"><ele>312.0</ele><time>2026-04-09T14:19:33.001Z</time></trkpt><trkpt lat="42.01913478839666" lon="12.899027601507436"><ele>311.6666666666667</ele><time>2026-04-09T14:19:34.001Z</time></trkpt><trkpt lat="42.01930971414408" lon="12.899008994970885"><ele>311.33333333333337</ele><time>2026-04-09T14:19:35.001Z</time></trkpt><trkpt lat="42.019467535660084" lon="12.898999780953066"><ele>311.0</ele><time>2026-04-09T14:19:36.001Z</time></trkpt><trkpt lat="42.019619314013845" lon="12.898986537248845"><ele>311.0</ele><time>2026-04-09T14:19:37.001Z</time></trkpt><trkpt lat="42.0197544617238" lon="12.898970183154145"><ele>311.0</ele><time>2026-04-09T14:19:38.001Z</time></trkpt><trkpt lat="42.01987115533708" lon="12.89896003658272"><ele>311.0</ele><time>2026-04-09T14:19:39.001Z</time></trkpt><trkpt lat="42.01997046815064" lon="12.89896263937844"><ele>311.0</ele><time>2026-04-09T14:19:40.001Z</time></trkpt><trkpt lat="42.02004123009976" lon="12.899047504634996"><ele>311.0</ele><time>2026-04-09T14:19:41.001Z</time></trkpt><trkpt lat="42.02007179697452" lon="12.899130422299923"><ele>312.5</ele><time>2026-04-09T14:19:42.001Z</time></trkpt><trkpt lat="42.02004404126559" lon="12.899247748448179"><ele>314.0</ele><time>2026-04-09T14:19:43.001Z</time></trkpt><trkpt lat="42.01997522945363" lon="12.899342446147143"><ele>315.5</ele><time>2026-04-09T14:19:44.001Z</time></trkpt><trkpt lat="42.0198540905206" lon="12.899388203641527"><ele>317.0</ele><time>2026-04-09T14:19:45.001Z</time></trkpt><trkpt lat="42.01971663463403" lon="12.899466583509554"><ele>317.33333333333337</ele><time>2026-04-09T14:19:46.001Z</time></trkpt><trkpt lat="42.019539573852036" lon="12.899534887876747"><ele>317.6666666666667</ele><time>2026-04-09T14:19:47.001Z</time></trkpt><trkpt lat="42.01938194226037" lon="12.89960669097202"><ele>318.0</ele><time>2026-04-09T14:19:48.001Z</time></trkpt><trkpt lat="42.019224520899634" lon="12.899679841274956"><ele>318.25</ele><time>2026-04-09T14:19:49.001Z</time></trkpt><trkpt lat="42.01909019429386" lon="12.899767622562287"><ele>318.5</ele><time>2026-04-09T14:19:50.001Z</time></trkpt><trkpt lat="42.01900375466352" lon="12.89991123277323"><ele>318.75</ele><time>2026-04-09T14:19:51.001Z</time></trkpt><trkpt lat="42.01894626676483" lon="12.900102055716056"><ele>319.0</ele><time>2026-04-09T14:19:52.001Z</time></trkpt><trkpt lat="42.01889075258033" lon="12.900333035321989"><ele>319.0</ele><time>2026-04-09T14:19:53.001Z</time></trkpt><trkpt lat="42.01881756125756" lon="12.900589038812594"><ele>319.0</ele><time>2026-04-09T14:19:54.001Z</time></trkpt><trkpt lat="42.01873116479055" lon="12.90081934407936"><ele>319.0</ele><time>2026-04-09T14:19:55.001Z</time></trkpt><trkpt lat="42.01862004682197" lon="12.900973213307227"><ele>316.0</ele><time>2026-04-09T14:19:56.001Z</time></trkpt><trkpt lat="42.01850163926438" lon="12.901062195470198"><ele>313.0</ele><time>2026-04-09T14:19:57.001Z</time></trkpt><trkpt lat="42.01835886086094" lon="12.901089189192"><ele>310.0</ele><time>2026-04-09T14:19:58.001Z</time></trkpt><trkpt lat="42.01818471328178" lon="12.901137542414395"><ele>310.0</ele><time>2026-04-09T14:19:59.001Z</time></trkpt><trkpt lat="42.01800459801192" lon="12.901147454837322"><ele>310.0</ele><time>2026-04-09T14:20:00.001Z</time></trkpt><trkpt lat="42.017865749731186" lon="12.901168440335038"><ele>310.0</ele><time>2026-04-09T14:20:01.001Z</time></trkpt><trkpt lat="42.017751130093274" lon="12.901219141388948"><ele>310.0</ele><time>2026-04-09T14:20:02.001Z</time></trkpt><trkpt lat="42.01767126049371" lon="12.901324728968811"><ele>310.0</ele><time>2026-04-09T14:20:03.001Z</time></trkpt><trkpt lat="42.017635297260746" lon="12.901470851408316"><ele>310.0</ele><time>2026-04-09T14:20:04.001Z</time></trkpt><trkpt lat="42.01766226483556" lon="12.901626579757998"><ele>310.0</ele><time>2026-04-09T14:20:05.001Z</time></trkpt><trkpt lat="42.017741617847776" lon="12.90176429151212"><ele>310.0</ele><time>2026-04-09T14:20:06.001Z</time></trkpt><trkpt lat="42.017847780784514" lon="12.901883186132192"><ele>307.66666666666663</ele><time>2026-04-09T14:20:07.001Z</time></trkpt><trkpt lat="42.01797998462017" lon="12.902038884604215"><ele>305.3333333333333</ele><time>2026-04-09T14:20:08.001Z</time></trkpt><trkpt lat="42.018093589263266" lon="12.902182428141154"><ele>303.0</ele><time>2026-04-09T14:20:09.001Z</time></trkpt><trkpt lat="42.018208582391686" lon="12.90230853518448"><ele>303.0</ele><time>2026-04-09T14:20:10.001Z</time></trkpt><trkpt lat="42.018312673682004" lon="12.90241732936909"><ele>303.0</ele><time>2026-04-09T14:20:11.001Z</time></trkpt><trkpt lat="42.01841221107392" lon="12.90251396874997"><ele>303.0</ele><time>2026-04-09T14:20:12.001Z</time></trkpt><trkpt lat="42.01851662314119" lon="12.902572698192747"><ele>303.0</ele><time>2026-04-09T14:20:13.001Z</time></trkpt><trkpt lat="42.01863887448431" lon="12.902589544248608"><ele>309.25</ele><time>2026-04-09T14:20:14.001Z</time></trkpt><trkpt lat="42.01877349522978" lon="12.902574841266476"><ele>315.5</ele><time>2026-04-09T14:20:15.001Z</time></trkpt><trkpt lat="42.018920747556166" lon="12.902545525666937"><ele>321.75</ele><time>2026-04-09T14:20:16.001Z</time></trkpt><trkpt lat="42.01906630559615" lon="12.902505564849005"><ele>328.0</ele><time>2026-04-09T14:20:17.001Z</time></trkpt><trkpt lat="42.01919953696538" lon="12.90245391086543"><ele>329.5</ele><time>2026-04-09T14:20:18.001Z</time></trkpt><trkpt lat="42.01932191237078" lon="12.902408864945174"><ele>331.0</ele><time>2026-04-09T14:20:19.001Z</time></trkpt><trkpt lat="42.019441336216" lon="12.902385143179147"><ele>332.5</ele><time>2026-04-09T14:20:20.001Z</time></trkpt><trkpt lat="42.01955678048814" lon="12.902395096783334"><ele>334.0</ele><time>2026-04-09T14:20:21.001Z</time></trkpt><trkpt lat="42.01967478633983" lon="12.902440502761955"><ele>334.0</ele><time>2026-04-09T14:20:22.001Z</time></trkpt><trkpt lat="42.01977945773258" lon="12.902529056893277"><ele>334.0</ele><time>2026-04-09T14:20:23.001Z</time></trkpt><trkpt lat="42.0198658324439" lon="12.902631179998606"><ele>334.0</ele><time>2026-04-09T14:20:24.001Z</time></trkpt><trkpt lat="42.01994163534732" lon="12.902731109699403"><ele>334.0</ele><time>2026-04-09T14:20:25.001Z</time></trkpt><trkpt lat="42.02001015972319" lon="12.902815695352752"><ele>334.0</ele><time>2026-04-09T14:20:26.001Z</time></trkpt><trkpt lat="42.02004158610077" lon="12.902928180118469"><ele>333.2</ele><time>2026-04-09T14:20:27.001Z</time></trkpt><trkpt lat="42.02007169048415" lon="12.903090323551723"><ele>332.4</ele><time>2026-04-09T14:20:28.001Z</time></trkpt><trkpt lat="42.02007376157453" lon="12.903221061812166"><ele>331.6</ele><time>2026-04-09T14:20:29.001Z</time></trkpt><trkpt lat="42.02004563915693" lon="12.903353962188856"><ele>330.8</ele><time>2026-04-09T14:20:30.001Z</time></trkpt><trkpt lat="42.019988196445375" lon="12.903476590012108"><ele>330.0</ele><time>2026-04-09T14:20:31.001Z</time></trkpt><trkpt lat="42.01989717664474" lon="12.903622048337217"><ele>330.0</ele><time>2026-04-09T14:20:32.001Z</time></trkpt><trkpt lat="42.019786323771775" lon="12.903774927849744"><ele>330.0</ele><time>2026-04-09T14:20:33.001Z</time></trkpt><trkpt lat="42.01969486333366" lon="12.903898512810928"><ele>330.0</ele><time>2026-04-09T14:20:34.001Z</time></trkpt><trkpt lat="42.01962094009859" lon="12.904037276423683"><ele>330.0</ele><time>2026-04-09T14:20:35.001Z</time></trkpt><trkpt lat="42.01952071764386" lon="12.904171633625957"><ele>334.0</ele><time>2026-04-09T14:20:36.001Z</time></trkpt><trkpt lat="42.01941930997206" lon="12.904324773622"><ele>338.0</ele><time>2026-04-09T14:20:37.001Z</time></trkpt><trkpt lat="42.0193157378256" lon="12.9045090563288"><ele>342.0</ele><time>2026-04-09T14:20:38.001Z</time></trkpt><trkpt lat="42.019205003572644" lon="12.904734501820027"><ele>338.0</ele><time>2026-04-09T14:20:39.001Z</time></trkpt><trkpt lat="42.01906895484367" lon="12.90499592933329"><ele>334.0</ele><time>2026-04-09T14:20:40.001Z</time></trkpt><trkpt lat="42.01891441563233" lon="12.90521372012664"><ele>334.0</ele><time>2026-04-09T14:20:41.001Z</time></trkpt><trkpt lat="42.018817379047" lon="12.905446239798913"><ele>334.0</ele><time>2026-04-09T14:20:42.001Z</time></trkpt><trkpt lat="42.01871011407992" lon="12.905640246071577"><ele>334.0</ele><time>2026-04-09T14:20:43.001Z</time></trkpt><trkpt lat="42.01861256640006" lon="12.905825232991509"><ele>336.3333333333333</ele><time>2026-04-09T14:20:44.001Z</time></trkpt><trkpt lat="42.01851887107465" lon="12.906024629013121"><ele>338.6666666666667</ele><time>2026-04-09T14:20:45.001Z</time></trkpt><trkpt lat="42.01842305685312" lon="12.906236145711405"><ele>341.0</ele><time>2026-04-09T14:20:46.001Z</time></trkpt><trkpt lat="42.0183345024907" lon="12.906419301330317"><ele>340.33333333333337</ele><time>2026-04-09T14:20:47.001Z</time></trkpt><trkpt lat="42.0182488751885" lon="12.906585296324462"><ele>339.6666666666667</ele><time>2026-04-09T14:20:48.001Z</time></trkpt><trkpt lat="42.0181654311503" lon="12.90677228029113"><ele>339.0</ele><time>2026-04-09T14:20:49.001Z</time></trkpt><trkpt lat="42.01808262633645" lon="12.906941581164288"><ele>339.0</ele><time>2026-04-09T14:20:50.001Z</time></trkpt><trkpt lat="42.01799398135248" lon="12.90711374774768"><ele>339.0</ele><time>2026-04-09T14:20:51.001Z</time></trkpt><trkpt lat="42.017911059435285" lon="12.907279154764112"><ele>339.0</ele><time>2026-04-09T14:20:52.001Z</time></trkpt><trkpt lat="42.01783640474142" lon="12.907442595542287"><ele>339.0</ele><time>2026-04-09T14:20:53.001Z</time></trkpt><trkpt lat="42.017753273615824" lon="12.90759989883339"><ele>339.6</ele><time>2026-04-09T14:20:54.001Z</time></trkpt><trkpt lat="42.01766546819271" lon="12.907716362770723"><ele>340.2</ele><time>2026-04-09T14:20:55.001Z</time></trkpt><trkpt lat="42.01758619200309" lon="12.90780280172417"><ele>340.8</ele><time>2026-04-09T14:20:56.001Z</time></trkpt><trkpt lat="42.017529187057484" lon="12.907850598572441"><ele>341.40000000000003</ele><time>2026-04-09T14:20:57.001Z</time></trkpt><trkpt lat="42.01745331134947" lon="12.90790481299847"><ele>342.0</ele><time>2026-04-09T14:20:59.001Z</time></trkpt><trkpt lat="42.017386371782806" lon="12.907953259233517"><ele>340.8333333333333</ele><time>2026-04-09T14:21:03.001Z</time></trkpt><trkpt lat="42.017316385937185" lon="12.907994257953177"><ele>339.6666666666667</ele><time>2026-04-09T14:21:05.001Z</time></trkpt><trkpt lat="42.017210386369776" lon="12.908052101372066"><ele>338.5</ele><time>2026-04-09T14:21:07.001Z</time></trkpt><trkpt lat="42.01712570306348" lon="12.90808987105822"><ele>337.33333333333337</ele><time>2026-04-09T14:21:08.001Z</time></trkpt><trkpt lat="42.01705735999965" lon="12.90812856501683"><ele>336.1666666666667</ele><time>2026-04-09T14:21:09.001Z</time></trkpt><trkpt lat="42.016981681495906" lon="12.908170873209055"><ele>335.0</ele><time>2026-04-09T14:21:10.001Z</time></trkpt><trkpt lat="42.01689907714438" lon="12.908216484710099"><ele>335.0</ele><time>2026-04-09T14:21:11.001Z</time></trkpt><trkpt lat="42.016817088857195" lon="12.908279972348991"><ele>335.0</ele><time>2026-04-09T14:21:12.001Z</time></trkpt><trkpt lat="42.016729039091786" lon="12.90837167754636"><ele>335.0</ele><time>2026-04-09T14:21:13Z</time></trkpt><trkpt lat="42.01664861683861" lon="12.908474855602869"><ele>335.0</ele><time>2026-04-09T14:21:14Z</time></trkpt><trkpt lat="42.0165692845697" lon="12.908594813055078"><ele>335.0</ele><time>2026-04-09T14:21:15Z</time></trkpt><trkpt lat="42.01650692330992" lon="12.908726564937867"><ele>335.75</ele><time>2026-04-09T14:21:16Z</time></trkpt><trkpt lat="42.016445880148815" lon="12.908872011360717"><ele>336.5</ele><time>2026-04-09T14:21:17Z</time></trkpt><trkpt lat="42.01639314487568" lon="12.909003265494496"><ele>337.25</ele><time>2026-04-09T14:21:18Z</time></trkpt><trkpt lat="42.01634147075438" lon="12.909132648809612"><ele>338.0</ele><time>2026-04-09T14:21:19Z</time></trkpt><trkpt lat="42.016290537884174" lon="12.909276525151895"><ele>338.0</ele><time>2026-04-09T14:21:20Z</time></trkpt><trkpt lat="42.01621450574199" lon="12.909471776555026"><ele>338.0</ele><time>2026-04-09T14:21:21Z</time></trkpt><trkpt lat="42.01614349260088" lon="12.90966005964681"><ele>338.0</ele><time>2026-04-09T14:21:22Z</time></trkpt><trkpt lat="42.016071547208796" lon="12.90987713409588"><ele>338.0</ele><time>2026-04-09T14:21:23Z</time></trkpt><trkpt lat="42.01597170494441" lon="12.910165534478468"><ele>338.0</ele><time>2026-04-09T14:21:24Z</time></trkpt><trkpt lat="42.015894442889405" lon="12.910491515894206"><ele>337.5</ele><time>2026-04-09T14:21:25Z</time></trkpt><trkpt lat="42.01581065891417" lon="12.910822709683002"><ele>337.0</ele><time>2026-04-09T14:21:26Z</time></trkpt><trkpt lat="42.01573219595222" lon="12.911135492350708"><ele>337.0</ele><time>2026-04-09T14:21:27Z</time></trkpt><trkpt lat="42.01565946717565" lon="12.91142446541896"><ele>337.0</ele><time>2026-04-09T14:21:28Z</time></trkpt><trkpt lat="42.01559583709982" lon="12.911714158012867"><ele>336.66666666666663</ele><time>2026-04-09T14:21:29Z</time></trkpt><trkpt lat="42.01553076378707" lon="12.91198243908288"><ele>336.3333333333333</ele><time>2026-04-09T14:21:30Z</time></trkpt><trkpt lat="42.01547023825079" lon="12.912228495929234"><ele>336.0</ele><time>2026-04-09T14:21:31Z</time></trkpt><trkpt lat="42.01541373541035" lon="12.912462550425841"><ele>334.6666666666667</ele><time>2026-04-09T14:21:32Z</time></trkpt><trkpt lat="42.015358070895694" lon="12.912689027638356"><ele>333.33333333333337</ele><time>2026-04-09T14:21:33Z</time></trkpt><trkpt lat="42.0152969280868" lon="12.912939474121904"><ele>332.0</ele><time>2026-04-09T14:21:34Z</time></trkpt><trkpt lat="42.01524481668343" lon="12.913196472674711"><ele>330.6666666666667</ele><time>2026-04-09T14:21:35Z</time></trkpt><trkpt lat="42.01519465268599" lon="12.913447543042999"><ele>329.3333333333333</ele><time>2026-04-09T14:21:36Z</time></trkpt><trkpt lat="42.015142508427616" lon="12.913711836514125"><ele>328.0</ele><time>2026-04-09T14:21:37Z</time></trkpt><trkpt lat="42.015124474014655" lon="12.913983062097707"><ele>326.3333333333333</ele><time>2026-04-09T14:21:38Z</time></trkpt><trkpt lat="42.01512789436311" lon="12.914247896224099"><ele>324.6666666666667</ele><time>2026-04-09T14:21:39Z</time></trkpt><trkpt lat="42.01515338944988" lon="12.914509768147804"><ele>323.0</ele><time>2026-04-09T14:21:40Z</time></trkpt><trkpt lat="42.01520475982291" lon="12.91480123242712"><ele>317.5</ele><time>2026-04-09T14:21:41Z</time></trkpt><trkpt lat="42.01527381359354" lon="12.915098806915672"><ele>312.0</ele><time>2026-04-09T14:21:42Z</time></trkpt><trkpt lat="42.015332738595475" lon="12.915390322167513"><ele>312.0</ele><time>2026-04-09T14:21:43Z</time></trkpt><trkpt lat="42.01539133444317" lon="12.915663594887409"><ele>312.0</ele><time>2026-04-09T14:21:44Z</time></trkpt><trkpt lat="42.01545408095758" lon="12.91591637323453"><ele>312.0</ele><time>2026-04-09T14:21:45Z</time></trkpt><trkpt lat="42.01552047130204" lon="12.916161871217518"><ele>310.3333333333333</ele><time>2026-04-09T14:21:46Z</time></trkpt><trkpt lat="42.01558687826232" lon="12.91642127586748"><ele>308.66666666666663</ele><time>2026-04-09T14:21:47Z</time></trkpt><trkpt lat="42.01565791430228" lon="12.916680085867101"><ele>307.0</ele><time>2026-04-09T14:21:48Z</time></trkpt><trkpt lat="42.01573115101695" lon="12.916931671058036"><ele>305.3333333333333</ele><time>2026-04-09T14:21:49Z</time></trkpt><trkpt lat="42.01579449876031" lon="12.91719571539305"><ele>303.6666666666667</ele><time>2026-04-09T14:21:50Z</time></trkpt><trkpt lat="42.015856406370425" lon="12.917460506487064"><ele>302.0</ele><time>2026-04-09T14:21:51Z</time></trkpt><trkpt lat="42.015925043691425" lon="12.91771431551245"><ele>303.6666666666667</ele><time>2026-04-09T14:21:52Z</time></trkpt><trkpt lat="42.01600024873664" lon="12.91797729013407"><ele>305.3333333333333</ele><time>2026-04-09T14:21:53Z</time></trkpt><trkpt lat="42.01607430258403" lon="12.918238577742589"><ele>307.0</ele><time>2026-04-09T14:21:54Z</time></trkpt><trkpt lat="42.01615179560686" lon="12.918497115764632"><ele>307.0</ele><time>2026-04-09T14:21:55.001Z</time></trkpt><trkpt lat="42.01622618139911" lon="12.918750289782027"><ele>307.0</ele><time>2026-04-09T14:21:56.001Z</time></trkpt><trkpt lat="42.01629016796525" lon="12.918985886094594"><ele>307.0</ele><time>2026-04-09T14:21:57.001Z</time></trkpt><trkpt lat="42.01634948055949" lon="12.91921153608534"><ele>305.66666666666663</ele><time>2026-04-09T14:21:58.001Z</time></trkpt><trkpt lat="42.01640692903313" lon="12.919427858067824"><ele>304.3333333333333</ele><time>2026-04-09T14:21:59.001Z</time></trkpt><trkpt lat="42.01646027530872" lon="12.919644724324765"><ele>303.0</ele><time>2026-04-09T14:22:00.001Z</time></trkpt><trkpt lat="42.016513923296436" lon="12.91984550347855"><ele>303.0</ele><time>2026-04-09T14:22:01.001Z</time></trkpt><trkpt lat="42.016565026964166" lon="12.920041721068745"><ele>303.0</ele><time>2026-04-09T14:22:02.001Z</time></trkpt><trkpt lat="42.01661619761952" lon="12.920229510651279"><ele>303.0</ele><time>2026-04-09T14:22:03.001Z</time></trkpt><trkpt lat="42.01666730268667" lon="12.920414784087866"><ele>303.75</ele><time>2026-04-09T14:22:04.001Z</time></trkpt><trkpt lat="42.0167140233338" lon="12.920583642989321"><ele>304.5</ele><time>2026-04-09T14:22:05.001Z</time></trkpt><trkpt lat="42.016756022947206" lon="12.920755950605578"><ele>305.25</ele><time>2026-04-09T14:22:06.001Z</time></trkpt><trkpt lat="42.016796801761195" lon="12.92092353122123"><ele>306.0</ele><time>2026-04-09T14:22:07.001Z</time></trkpt><trkpt lat="42.0168342033573" lon="12.921064598695969"><ele>306.0</ele><time>2026-04-09T14:22:08.001Z</time></trkpt><trkpt lat="42.01686938171717" lon="12.921197357746623"><ele>306.0</ele><time>2026-04-09T14:22:09.001Z</time></trkpt><trkpt lat="42.016905756661615" lon="12.921333070617072"><ele>306.0</ele><time>2026-04-09T14:22:10.001Z</time></trkpt><trkpt lat="42.016943112087105" lon="12.921468606075704"><ele>306.0</ele><time>2026-04-09T14:22:11.001Z</time></trkpt><trkpt lat="42.01697443778892" lon="12.921603432342023"><ele>306.0</ele><time>2026-04-09T14:22:12.001Z</time></trkpt><trkpt lat="42.01700969158828" lon="12.921751705316282"><ele>305.25</ele><time>2026-04-09T14:22:13.001Z</time></trkpt><trkpt lat="42.01704806711615" lon="12.921904278467263"><ele>304.5</ele><time>2026-04-09T14:22:14.001Z</time></trkpt><trkpt lat="42.0170892268712" lon="12.92205812946366"><ele>303.75</ele><time>2026-04-09T14:22:15.001Z</time></trkpt><trkpt lat="42.01713451647164" lon="12.922222100046007"><ele>303.0</ele><time>2026-04-09T14:22:16.001Z</time></trkpt><trkpt lat="42.01718086350663" lon="12.922392265562"><ele>302.5</ele><time>2026-04-09T14:22:17.001Z</time></trkpt><trkpt lat="42.01722913829754" lon="12.922574126408822"><ele>302.0</ele><time>2026-04-09T14:22:18.001Z</time></trkpt><trkpt lat="42.017273873889216" lon="12.922742366372463"><ele>301.5</ele><time>2026-04-09T14:22:19.001Z</time></trkpt><trkpt lat="42.01731700916403" lon="12.92290905527824"><ele>301.0</ele><time>2026-04-09T14:22:20.001Z</time></trkpt><trkpt lat="42.0173591816781" lon="12.923089282934587"><ele>301.0</ele><time>2026-04-09T14:22:21.001Z</time></trkpt><trkpt lat="42.01740545110521" lon="12.923274162038707"><ele>301.0</ele><time>2026-04-09T14:22:22.001Z</time></trkpt><trkpt lat="42.017447477010066" lon="12.923447034923067"><ele>301.0</ele><time>2026-04-09T14:22:23.001Z</time></trkpt><trkpt lat="42.01748893990316" lon="12.923621687206428"><ele>301.0</ele><time>2026-04-09T14:22:24.001Z</time></trkpt><trkpt lat="42.01754388171665" lon="12.923817474869884"><ele>301.3333333333333</ele><time>2026-04-09T14:22:25.001Z</time></trkpt><trkpt lat="42.01761071220507" lon="12.924054984179968"><ele>301.6666666666667</ele><time>2026-04-09T14:22:26.001Z</time></trkpt><trkpt lat="42.01766519710212" lon="12.924290185681368"><ele>302.0</ele><time>2026-04-09T14:22:27.001Z</time></trkpt><trkpt lat="42.01772007433418" lon="12.924501233076493"><ele>302.0</ele><time>2026-04-09T14:22:28.001Z</time></trkpt><trkpt lat="42.01777113019925" lon="12.92469841920867"><ele>302.0</ele><time>2026-04-09T14:22:29.001Z</time></trkpt><trkpt lat="42.01782672063" lon="12.924898000091533"><ele>302.0</ele><time>2026-04-09T14:22:30.001Z</time></trkpt><trkpt lat="42.0179021129689" lon="12.925094738241349"><ele>301.0</ele><time>2026-04-09T14:22:31.001Z</time></trkpt><trkpt lat="42.018004831615464" lon="12.925275611210838"><ele>300.0</ele><time>2026-04-09T14:22:32.001Z</time></trkpt><trkpt lat="42.01814127425053" lon="12.925458519182115"><ele>299.0</ele><time>2026-04-09T14:22:33.001Z</time></trkpt><trkpt lat="42.01828883128804" lon="12.925636735565103"><ele>299.33333333333337</ele><time>2026-04-09T14:22:34.001Z</time></trkpt><trkpt lat="42.018433798053174" lon="12.925827490255775"><ele>299.6666666666667</ele><time>2026-04-09T14:22:35.001Z</time></trkpt><trkpt lat="42.01858407924725" lon="12.926023688850515"><ele>300.0</ele><time>2026-04-09T14:22:36.001Z</time></trkpt><trkpt lat="42.01874293280896" lon="12.926200925539723"><ele>299.6666666666667</ele><time>2026-04-09T14:22:37.001Z</time></trkpt><trkpt lat="42.018919447012735" lon="12.926359226889264"><ele>299.33333333333337</ele><time>2026-04-09T14:22:38.001Z</time></trkpt><trkpt lat="42.01909885411872" lon="12.926505372949846"><ele>299.0</ele><time>2026-04-09T14:22:39.001Z</time></trkpt><trkpt lat="42.01927029482207" lon="12.926639515873454"><ele>297.33333333333337</ele><time>2026-04-09T14:22:40.001Z</time></trkpt><trkpt lat="42.01944385238221" lon="12.926775467818835"><ele>295.6666666666667</ele><time>2026-04-09T14:22:41.001Z</time></trkpt><trkpt lat="42.01963043048256" lon="12.926920408113343"><ele>294.0</ele><time>2026-04-09T14:22:42.001Z</time></trkpt><trkpt lat="42.01981668276861" lon="12.92707201785463"><ele>295.6666666666667</ele><time>2026-04-09T14:22:43.001Z</time></trkpt><trkpt lat="42.02000493464866" lon="12.927227323819519"><ele>297.33333333333337</ele><time>2026-04-09T14:22:44.001Z</time></trkpt><trkpt lat="42.02019883954595" lon="12.927383786401228"><ele>299.0</ele><time>2026-04-09T14:22:45.001Z</time></trkpt><trkpt lat="42.02041177976055" lon="12.927556558232498"><ele>298.5</ele><time>2026-04-09T14:22:46.001Z</time></trkpt><trkpt lat="42.02065495541048" lon="12.927758978212191"><ele>298.0</ele><time>2026-04-09T14:22:47.001Z</time></trkpt><trkpt lat="42.0209020452496" lon="12.927964859669412"><ele>300.0</ele><time>2026-04-09T14:22:48.001Z</time></trkpt><trkpt lat="42.02115179727389" lon="12.928162286526826"><ele>302.0</ele><time>2026-04-09T14:22:49.001Z</time></trkpt><trkpt lat="42.02139882036625" lon="12.928351983554391"><ele>300.0</ele><time>2026-04-09T14:22:50.001Z</time></trkpt><trkpt lat="42.021650239057465" lon="12.928536273884673"><ele>298.0</ele><time>2026-04-09T14:22:51.001Z</time></trkpt><trkpt lat="42.021885125733206" lon="12.92871003821266"><ele>298.0</ele><time>2026-04-09T14:22:52.001Z</time></trkpt><trkpt lat="42.02209737535716" lon="12.928869859170966"><ele>298.0</ele><time>2026-04-09T14:22:53.001Z</time></trkpt><trkpt lat="42.02231417652526" lon="12.929039665546851"><ele>297.0</ele><time>2026-04-09T14:22:54.001Z</time></trkpt><trkpt lat="42.02254377492268" lon="12.929233607924509"><ele>296.0</ele><time>2026-04-09T14:22:55.001Z</time></trkpt><trkpt lat="42.022772912146586" lon="12.929444710946589"><ele>296.0</ele><time>2026-04-09T14:22:56.001Z</time></trkpt><trkpt lat="42.022984591225665" lon="12.929649244501027"><ele>296.0</ele><time>2026-04-09T14:22:57.001Z</time></trkpt><trkpt lat="42.02318078077885" lon="12.929850394641111"><ele>297.5</ele><time>2026-04-09T14:22:58.001Z</time></trkpt><trkpt lat="42.02338586156734" lon="12.93006960379798"><ele>299.0</ele><time>2026-04-09T14:22:59.001Z</time></trkpt><trkpt lat="42.023576391811304" lon="12.930282088268877"><ele>299.0</ele><time>2026-04-09T14:23:00.001Z</time></trkpt><trkpt lat="42.02376543027303" lon="12.930505431290323"><ele>299.0</ele><time>2026-04-09T14:23:01.001Z</time></trkpt><trkpt lat="42.02395701959711" lon="12.930749566060603"><ele>300.5</ele><time>2026-04-09T14:23:02.001Z</time></trkpt><trkpt lat="42.024144075189795" lon="12.931006964550875"><ele>302.0</ele><time>2026-04-09T14:23:03.001Z</time></trkpt><trkpt lat="42.02433469917636" lon="12.931282617097041"><ele>302.0</ele><time>2026-04-09T14:23:04.001Z</time></trkpt><trkpt lat="42.0245171121849" lon="12.93156193323056"><ele>302.0</ele><time>2026-04-09T14:23:05.001Z</time></trkpt><trkpt lat="42.02469142379165" lon="12.931855904488572"><ele>299.5</ele><time>2026-04-09T14:23:06.001Z</time></trkpt><trkpt lat="42.02486528529469" lon="12.932167033668406"><ele>297.0</ele><time>2026-04-09T14:23:07.001Z</time></trkpt><trkpt lat="42.02503948395276" lon="12.932452366732598"><ele>300.0</ele><time>2026-04-09T14:23:08.001Z</time></trkpt><trkpt lat="42.025196801750106" lon="12.932743635376447"><ele>303.0</ele><time>2026-04-09T14:23:09.001Z</time></trkpt><trkpt lat="42.02535638543912" lon="12.93303936263048"><ele>303.0</ele><time>2026-04-09T14:23:10Z</time></trkpt><trkpt lat="42.02552761219952" lon="12.933341052168771"><ele>303.0</ele><time>2026-04-09T14:23:11Z</time></trkpt><trkpt lat="42.02569875102747" lon="12.933638559128307"><ele>304.5</ele><time>2026-04-09T14:23:12Z</time></trkpt><trkpt lat="42.02588444974491" lon="12.933953310257474"><ele>306.0</ele><time>2026-04-09T14:23:13Z</time></trkpt><trkpt lat="42.026062507797114" lon="12.934253028730769"><ele>306.0</ele><time>2026-04-09T14:23:14Z</time></trkpt><trkpt lat="42.02621597789803" lon="12.934528815224265"><ele>306.0</ele><time>2026-04-09T14:23:15Z</time></trkpt><trkpt lat="42.026379317724505" lon="12.934826450066783"><ele>305.5</ele><time>2026-04-09T14:23:16Z</time></trkpt><trkpt lat="42.02654074995501" lon="12.935111049021236"><ele>305.0</ele><time>2026-04-09T14:23:17Z</time></trkpt><trkpt lat="42.026692675538655" lon="12.935374514398406"><ele>305.0</ele><time>2026-04-09T14:23:18Z</time></trkpt><trkpt lat="42.02684123941394" lon="12.93563388146556"><ele>305.0</ele><time>2026-04-09T14:23:19Z</time></trkpt><trkpt lat="42.02698341677104" lon="12.935885112573695"><ele>304.5</ele><time>2026-04-09T14:23:20Z</time></trkpt><trkpt lat="42.027130258229" lon="12.936147768191978"><ele>304.0</ele><time>2026-04-09T14:23:21Z</time></trkpt><trkpt lat="42.02728070902263" lon="12.936413555766237"><ele>304.0</ele><time>2026-04-09T14:23:22Z</time></trkpt><trkpt lat="42.02742153913444" lon="12.9366639662631"><ele>304.0</ele><time>2026-04-09T14:23:23Z</time></trkpt><trkpt lat="42.02756313091798" lon="12.936934896471076"><ele>304.0</ele><time>2026-04-09T14:23:24Z</time></trkpt><trkpt lat="42.027683762636066" lon="12.937209974008853"><ele>304.0</ele><time>2026-04-09T14:23:25Z</time></trkpt><trkpt lat="42.027799436673185" lon="12.93751125762645"><ele>303.5</ele><time>2026-04-09T14:23:26Z</time></trkpt><trkpt lat="42.02789746405063" lon="12.937806254052454"><ele>303.0</ele><time>2026-04-09T14:23:27Z</time></trkpt><trkpt lat="42.027980473633534" lon="12.938093250746945"><ele>303.0</ele><time>2026-04-09T14:23:28Z</time></trkpt><trkpt lat="42.028057644921276" lon="12.938373168334811"><ele>303.0</ele><time>2026-04-09T14:23:29Z</time></trkpt><trkpt lat="42.02812327924361" lon="12.938648683963486"><ele>303.0</ele><time>2026-04-09T14:23:30Z</time></trkpt><trkpt lat="42.02818727167657" lon="12.938953714886772"><ele>301.5</ele><time>2026-04-09T14:23:31Z</time></trkpt><trkpt lat="42.02823630910878" lon="12.939245926741183"><ele>300.0</ele><time>2026-04-09T14:23:32Z</time></trkpt><trkpt lat="42.02827557706632" lon="12.939556200456318"><ele>300.5</ele><time>2026-04-09T14:23:33Z</time></trkpt><trkpt lat="42.02831269248121" lon="12.939912918281339"><ele>301.0</ele><time>2026-04-09T14:23:34Z</time></trkpt><trkpt lat="42.028349259943994" lon="12.94030710977791"><ele>301.0</ele><time>2026-04-09T14:23:35Z</time></trkpt><trkpt lat="42.02838284167446" lon="12.940744383958137"><ele>301.0</ele><time>2026-04-09T14:23:36Z</time></trkpt><trkpt lat="42.028402846162294" lon="12.941182351811246"><ele>300.5</ele><time>2026-04-09T14:23:37Z</time></trkpt><trkpt lat="42.02842359136905" lon="12.941585486767048"><ele>300.0</ele><time>2026-04-09T14:23:38Z</time></trkpt><trkpt lat="42.02845055309939" lon="12.941959949253594"><ele>301.0</ele><time>2026-04-09T14:23:39Z</time></trkpt><trkpt lat="42.02847677905347" lon="12.942302924827176"><ele>302.0</ele><time>2026-04-09T14:23:40Z</time></trkpt><trkpt lat="42.02850630453969" lon="12.942624875520282"><ele>303.33333333333337</ele><time>2026-04-09T14:23:41Z</time></trkpt><trkpt lat="42.028551326718045" lon="12.94290920324434"><ele>304.6666666666667</ele><time>2026-04-09T14:23:42Z</time></trkpt><trkpt lat="42.02863659116303" lon="12.943180808331828"><ele>306.0</ele><time>2026-04-09T14:23:43Z</time></trkpt><trkpt lat="42.02875970475234" lon="12.943416518136345"><ele>306.3333333333333</ele><time>2026-04-09T14:23:44Z</time></trkpt><trkpt lat="42.028915506285095" lon="12.943606339930085"><ele>306.66666666666663</ele><time>2026-04-09T14:23:45Z</time></trkpt><trkpt lat="42.02910486003515" lon="12.94377077276296"><ele>307.0</ele><time>2026-04-09T14:23:46Z</time></trkpt><trkpt lat="42.02932501676824" lon="12.943929450259416"><ele>307.0</ele><time>2026-04-09T14:23:47Z</time></trkpt><trkpt lat="42.02956469471166" lon="12.944083016707793"><ele>307.0</ele><time>2026-04-09T14:23:48Z</time></trkpt><trkpt lat="42.02980322808862" lon="12.944223926979294"><ele>307.5</ele><time>2026-04-09T14:23:49Z</time></trkpt><trkpt lat="42.03004908594842" lon="12.94436175286269"><ele>308.0</ele><time>2026-04-09T14:23:50Z</time></trkpt><trkpt lat="42.03032049178691" lon="12.94448389901183"><ele>308.0</ele><time>2026-04-09T14:23:51Z</time></trkpt><trkpt lat="42.03058192658377" lon="12.944586621080663"><ele>308.0</ele><time>2026-04-09T14:23:52Z</time></trkpt><trkpt lat="42.03081350971858" lon="12.944678199509147"><ele>309.0</ele><time>2026-04-09T14:23:53Z</time></trkpt><trkpt lat="42.0310269676977" lon="12.944761322991775"><ele>310.0</ele><time>2026-04-09T14:23:54Z</time></trkpt><trkpt lat="42.03122849736252" lon="12.944835456973124"><ele>311.0</ele><time>2026-04-09T14:23:55Z</time></trkpt><trkpt lat="42.03142398813362" lon="12.944906680593146"><ele>311.0</ele><time>2026-04-09T14:23:56Z</time></trkpt><trkpt lat="42.031605625897136" lon="12.945004210210133"><ele>311.0</ele><time>2026-04-09T14:23:57Z</time></trkpt><trkpt lat="42.03177733800148" lon="12.945148986579063"><ele>311.0</ele><time>2026-04-09T14:23:58Z</time></trkpt><trkpt lat="42.031953226419816" lon="12.94533696652391"><ele>310.33333333333337</ele><time>2026-04-09T14:23:59Z</time></trkpt><trkpt lat="42.03209801227479" lon="12.945496252751592"><ele>309.6666666666667</ele><time>2026-04-09T14:24:00Z</time></trkpt><trkpt lat="42.03222707735969" lon="12.945626699706745"><ele>309.0</ele><time>2026-04-09T14:24:01Z</time></trkpt><trkpt lat="42.03236861611961" lon="12.94572181313687"><ele>310.6666666666667</ele><time>2026-04-09T14:24:02Z</time></trkpt><trkpt lat="42.032538006294736" lon="12.945773668288878"><ele>312.33333333333337</ele><time>2026-04-09T14:24:03Z</time></trkpt><trkpt lat="42.032742468023564" lon="12.945818005642156"><ele>314.0</ele><time>2026-04-09T14:24:04Z</time></trkpt><trkpt lat="42.03293888952107" lon="12.945864899119073"><ele>313.33333333333337</ele><time>2026-04-09T14:24:05.001Z</time></trkpt><trkpt lat="42.03310363961392" lon="12.945905872979449"><ele>312.6666666666667</ele><time>2026-04-09T14:24:06.001Z</time></trkpt><trkpt lat="42.03326283876173" lon="12.945944523364327"><ele>312.0</ele><time>2026-04-09T14:24:07.001Z</time></trkpt><trkpt lat="42.03341877579801" lon="12.94599637988952"><ele>312.0</ele><time>2026-04-09T14:24:08.001Z</time></trkpt><trkpt lat="42.03357408966133" lon="12.94608464636009"><ele>312.0</ele><time>2026-04-09T14:24:09.001Z</time></trkpt><trkpt lat="42.03372103117006" lon="12.946210436442442"><ele>312.0</ele><time>2026-04-09T14:24:10.001Z</time></trkpt><trkpt lat="42.03383042470199" lon="12.9463977865299"><ele>312.0</ele><time>2026-04-09T14:24:11.001Z</time></trkpt><trkpt lat="42.03392636211621" lon="12.946575913225317"><ele>312.0</ele><time>2026-04-09T14:24:12.001Z</time></trkpt><trkpt lat="42.03399928185975" lon="12.946770919716654"><ele>312.0</ele><time>2026-04-09T14:24:13.001Z</time></trkpt><trkpt lat="42.03404395386073" lon="12.946985547250408"><ele>311.3333333333333</ele><time>2026-04-09T14:24:14.001Z</time></trkpt><trkpt lat="42.034068729888624" lon="12.947225263019462"><ele>310.66666666666663</ele><time>2026-04-09T14:24:15.001Z</time></trkpt><trkpt lat="42.03410954603221" lon="12.947501857752005"><ele>310.0</ele><time>2026-04-09T14:24:16.001Z</time></trkpt><trkpt lat="42.03415046820537" lon="12.947732760682838"><ele>311.66666666666663</ele><time>2026-04-09T14:24:17.001Z</time></trkpt><trkpt lat="42.034230202967265" lon="12.947952085037626"><ele>313.3333333333333</ele><time>2026-04-09T14:24:18.001Z</time></trkpt><trkpt lat="42.03432272715493" lon="12.94821505190913"><ele>315.0</ele><time>2026-04-09T14:24:19.001Z</time></trkpt><trkpt lat="42.03438501075573" lon="12.948439728596059"><ele>315.0</ele><time>2026-04-09T14:24:20.001Z</time></trkpt><trkpt lat="42.03443687519262" lon="12.948654228957245"><ele>315.0</ele><time>2026-04-09T14:24:21.001Z</time></trkpt><trkpt lat="42.03448034307738" lon="12.948865181109404"><ele>315.0</ele><time>2026-04-09T14:24:22.001Z</time></trkpt><trkpt lat="42.03451583412934" lon="12.949059034681497"><ele>315.0</ele><time>2026-04-09T14:24:23.001Z</time></trkpt><trkpt lat="42.03454799255152" lon="12.949255332032536"><ele>315.0</ele><time>2026-04-09T14:24:24.001Z</time></trkpt><trkpt lat="42.034579389157365" lon="12.949462162608329"><ele>315.0</ele><time>2026-04-09T14:24:25.001Z</time></trkpt><trkpt lat="42.03461530959095" lon="12.949668942600425"><ele>315.0</ele><time>2026-04-09T14:24:26.001Z</time></trkpt><trkpt lat="42.03465849501637" lon="12.949867863544418"><ele>315.0</ele><time>2026-04-09T14:24:27.001Z</time></trkpt><trkpt lat="42.034714445661365" lon="12.950080947897291"><ele>315.0</ele><time>2026-04-09T14:24:28.001Z</time></trkpt><trkpt lat="42.034791121782746" lon="12.950288917748264"><ele>314.0</ele><time>2026-04-09T14:24:29.001Z</time></trkpt><trkpt lat="42.03487993373324" lon="12.950479585634886"><ele>313.0</ele><time>2026-04-09T14:24:30.001Z</time></trkpt><trkpt lat="42.03496775221964" lon="12.950647677825078"><ele>312.0</ele><time>2026-04-09T14:24:31.001Z</time></trkpt><trkpt lat="42.03506375404434" lon="12.950813129180839"><ele>312.0</ele><time>2026-04-09T14:24:32.001Z</time></trkpt><trkpt lat="42.03517091709922" lon="12.950985258219509"><ele>312.0</ele><time>2026-04-09T14:24:33.001Z</time></trkpt><trkpt lat="42.035296488042434" lon="12.95118212659768"><ele>312.0</ele><time>2026-04-09T14:24:34.001Z</time></trkpt><trkpt lat="42.03541987843565" lon="12.95139704262831"><ele>312.0</ele><time>2026-04-09T14:24:35.001Z</time></trkpt><trkpt lat="42.03552502518943" lon="12.951601797631906"><ele>312.0</ele><time>2026-04-09T14:24:36.001Z</time></trkpt><trkpt lat="42.03564082739451" lon="12.951831421280625"><ele>312.0</ele><time>2026-04-09T14:24:37.001Z</time></trkpt><trkpt lat="42.035775517857005" lon="12.952099591214179"><ele>313.0</ele><time>2026-04-09T14:24:38.001Z</time></trkpt><trkpt lat="42.03592736160958" lon="12.952376692644947"><ele>314.0</ele><time>2026-04-09T14:24:39.001Z</time></trkpt><trkpt lat="42.03610390769037" lon="12.952675138319014"><ele>315.0</ele><time>2026-04-09T14:24:40.001Z</time></trkpt><trkpt lat="42.03628498708914" lon="12.952982956743995"><ele>316.0</ele><time>2026-04-09T14:24:41.001Z</time></trkpt><trkpt lat="42.03643113285233" lon="12.953319279810751"><ele>315.5</ele><time>2026-04-09T14:24:42.001Z</time></trkpt><trkpt lat="42.03658241783501" lon="12.953599804849942"><ele>315.0</ele><time>2026-04-09T14:24:43.001Z</time></trkpt><trkpt lat="42.03671135750539" lon="12.953866602231132"><ele>315.6666666666667</ele><time>2026-04-09T14:24:44.001Z</time></trkpt><trkpt lat="42.03683684776799" lon="12.954113381781509"><ele>316.33333333333337</ele><time>2026-04-09T14:24:45.001Z</time></trkpt><trkpt lat="42.03695960226149" lon="12.954365578524241"><ele>317.0</ele><time>2026-04-09T14:24:46.001Z</time></trkpt><trkpt lat="42.03708534914448" lon="12.95463619594031"><ele>317.0</ele><time>2026-04-09T14:24:47.001Z</time></trkpt><trkpt lat="42.037222942947665" lon="12.954915548532052"><ele>317.0</ele><time>2026-04-09T14:24:48.001Z</time></trkpt><trkpt lat="42.03734368748501" lon="12.955166526352134"><ele>316.5</ele><time>2026-04-09T14:24:49.001Z</time></trkpt><trkpt lat="42.03746609159617" lon="12.95542681049941"><ele>316.0</ele><time>2026-04-09T14:24:50.001Z</time></trkpt><trkpt lat="42.0375838011964" lon="12.955689146284753"><ele>316.3333333333333</ele><time>2026-04-09T14:24:51.001Z</time></trkpt><trkpt lat="42.03766123067393" lon="12.955955975287084"><ele>316.6666666666667</ele><time>2026-04-09T14:24:52.001Z</time></trkpt><trkpt lat="42.03774503592851" lon="12.956219474243822"><ele>317.0</ele><time>2026-04-09T14:24:53.001Z</time></trkpt><trkpt lat="42.03785321708074" lon="12.95647900878582"><ele>317.33333333333337</ele><time>2026-04-09T14:24:54.001Z</time></trkpt><trkpt lat="42.03794604698742" lon="12.956719087633436"><ele>317.6666666666667</ele><time>2026-04-09T14:24:55.001Z</time></trkpt><trkpt lat="42.03800027431506" lon="12.956959648315983"><ele>318.0</ele><time>2026-04-09T14:24:56.001Z</time></trkpt><trkpt lat="42.03805808158307" lon="12.957203345319225"><ele>318.0</ele><time>2026-04-09T14:24:57.001Z</time></trkpt><trkpt lat="42.03805429053821" lon="12.957448842757168"><ele>318.0</ele><time>2026-04-09T14:24:58.001Z</time></trkpt><trkpt lat="42.03803158596249" lon="12.957657284449375"><ele>318.0</ele><time>2026-04-09T14:24:59.001Z</time></trkpt><trkpt lat="42.037970461150685" lon="12.957866900024444"><ele>318.6666666666667</ele><time>2026-04-09T14:25:00.001Z</time></trkpt><trkpt lat="42.03788422272799" lon="12.958059230171752"><ele>319.33333333333337</ele><time>2026-04-09T14:25:01.001Z</time></trkpt><trkpt lat="42.03776709052447" lon="12.958230175735832"><ele>320.0</ele><time>2026-04-09T14:25:02.001Z</time></trkpt><trkpt lat="42.037610919398745" lon="12.958407274155048"><ele>320.0</ele><time>2026-04-09T14:25:03.001Z</time></trkpt><trkpt lat="42.037425695017845" lon="12.958589948994264"><ele>320.0</ele><time>2026-04-09T14:25:04.001Z</time></trkpt><trkpt lat="42.03724652237979" lon="12.958764600937954"><ele>320.0</ele><time>2026-04-09T14:25:05.001Z</time></trkpt><trkpt lat="42.03709400887664" lon="12.95893278608697"><ele>320.0</ele><time>2026-04-09T14:25:06.001Z</time></trkpt><trkpt lat="42.036948744275584" lon="12.95906772864879"><ele>320.0</ele><time>2026-04-09T14:25:07.001Z</time></trkpt><trkpt lat="42.03681404241787" lon="12.959181069825373"><ele>323.33333333333337</ele><time>2026-04-09T14:25:08.001Z</time></trkpt><trkpt lat="42.036637911884306" lon="12.95924376029988"><ele>326.6666666666667</ele><time>2026-04-09T14:25:09.001Z</time></trkpt><trkpt lat="42.036423371663105" lon="12.959325217254987"><ele>330.0</ele><time>2026-04-09T14:25:10.001Z</time></trkpt><trkpt lat="42.03622106232475" lon="12.959414842086526"><ele>330.0</ele><time>2026-04-09T14:25:11.001Z</time></trkpt><trkpt lat="42.0360363358413" lon="12.959485075829173"><ele>330.0</ele><time>2026-04-09T14:25:12.001Z</time></trkpt><trkpt lat="42.03584787899196" lon="12.959567654464541"><ele>330.0</ele><time>2026-04-09T14:25:13.001Z</time></trkpt><trkpt lat="42.0356619691455" lon="12.95964879179639"><ele>328.6666666666667</ele><time>2026-04-09T14:25:14.001Z</time></trkpt><trkpt lat="42.035495920393316" lon="12.95973949215951"><ele>327.33333333333337</ele><time>2026-04-09T14:25:15.001Z</time></trkpt><trkpt lat="42.03534216287721" lon="12.959867748250435"><ele>326.0</ele><time>2026-04-09T14:25:16Z</time></trkpt><trkpt lat="42.03520823096652" lon="12.960052436520169"><ele>326.0</ele><time>2026-04-09T14:25:17Z</time></trkpt><trkpt lat="42.03510037051258" lon="12.960277774078682"><ele>326.0</ele><time>2026-04-09T14:25:18Z</time></trkpt><trkpt lat="42.035003387737795" lon="12.960518391234572"><ele>326.0</ele><time>2026-04-09T14:25:19Z</time></trkpt><trkpt lat="42.03489699213783" lon="12.960737484936963"><ele>324.33333333333337</ele><time>2026-04-09T14:25:20Z</time></trkpt><trkpt lat="42.034798674473556" lon="12.960928570182697"><ele>322.6666666666667</ele><time>2026-04-09T14:25:21Z</time></trkpt><trkpt lat="42.03470981294207" lon="12.961110382273016"><ele>321.0</ele><time>2026-04-09T14:25:22Z</time></trkpt><trkpt lat="42.03462580097662" lon="12.961285674483912"><ele>321.0</ele><time>2026-04-09T14:25:23Z</time></trkpt><trkpt lat="42.0345432049191" lon="12.961456610471055"><ele>321.0</ele><time>2026-04-09T14:25:24Z</time></trkpt><trkpt lat="42.03447567233974" lon="12.961647159718034"><ele>321.0</ele><time>2026-04-09T14:25:25Z</time></trkpt><trkpt lat="42.03444473672114" lon="12.961875325206524"><ele>321.3333333333333</ele><time>2026-04-09T14:25:26Z</time></trkpt><trkpt lat="42.034446930550004" lon="12.962134625549655"><ele>321.66666666666663</ele><time>2026-04-09T14:25:27Z</time></trkpt><trkpt lat="42.03446123856668" lon="12.962381018757956"><ele>322.0</ele><time>2026-04-09T14:25:28Z</time></trkpt><trkpt lat="42.034461240130426" lon="12.962635944698164"><ele>322.0</ele><time>2026-04-09T14:25:29Z</time></trkpt><trkpt lat="42.03440975472618" lon="12.962927064283495"><ele>322.0</ele><time>2026-04-09T14:25:30Z</time></trkpt><trkpt lat="42.03433998264996" lon="12.963242188101665"><ele>322.5</ele><time>2026-04-09T14:25:31Z</time></trkpt><trkpt lat="42.03425448302154" lon="12.96357737911433"><ele>323.0</ele><time>2026-04-09T14:25:32Z</time></trkpt><trkpt lat="42.03418358732013" lon="12.963903479949797"><ele>323.0</ele><time>2026-04-09T14:25:33Z</time></trkpt><trkpt lat="42.034101236569725" lon="12.964210386116575"><ele>323.0</ele><time>2026-04-09T14:25:34Z</time></trkpt><trkpt lat="42.034028751750526" lon="12.964479967949675"><ele>323.0</ele><time>2026-04-09T14:25:35Z</time></trkpt><trkpt lat="42.033947187255485" lon="12.964753353350567"><ele>323.0</ele><time>2026-04-09T14:25:36Z</time></trkpt><trkpt lat="42.033851250740035" lon="12.96503219568927"><ele>323.0</ele><time>2026-04-09T14:25:37Z</time></trkpt><trkpt lat="42.03374545456467" lon="12.965318029460645"><ele>323.0</ele><time>2026-04-09T14:25:38Z</time></trkpt><trkpt lat="42.033652075838404" lon="12.965592969445662"><ele>323.0</ele><time>2026-04-09T14:25:39Z</time></trkpt><trkpt lat="42.03357483672763" lon="12.965849794716984"><ele>323.0</ele><time>2026-04-09T14:25:40Z</time></trkpt><trkpt lat="42.03350973139499" lon="12.966110206583615"><ele>323.0</ele><time>2026-04-09T14:25:41Z</time></trkpt><trkpt lat="42.03347458982108" lon="12.966375576629133"><ele>323.0</ele><time>2026-04-09T14:25:42Z</time></trkpt><trkpt lat="42.03346470553856" lon="12.966659066182771"><ele>323.0</ele><time>2026-04-09T14:25:43Z</time></trkpt><trkpt lat="42.03346314154895" lon="12.966938150751446"><ele>322.6666666666667</ele><time>2026-04-09T14:25:44Z</time></trkpt><trkpt lat="42.03348184319381" lon="12.9672154598108"><ele>322.3333333333333</ele><time>2026-04-09T14:25:45Z</time></trkpt><trkpt lat="42.033532025251155" lon="12.967489072656152"><ele>322.0</ele><time>2026-04-09T14:25:46Z</time></trkpt><trkpt lat="42.033598792381376" lon="12.967766174158912"><ele>322.0</ele><time>2026-04-09T14:25:47Z</time></trkpt><trkpt lat="42.03366560348934" lon="12.968037117443494"><ele>322.0</ele><time>2026-04-09T14:25:48Z</time></trkpt><trkpt lat="42.033720240195024" lon="12.96828071739105"><ele>322.0</ele><time>2026-04-09T14:25:49Z</time></trkpt><trkpt lat="42.033761550608965" lon="12.968512029393494"><ele>321.3333333333333</ele><time>2026-04-09T14:25:50Z</time></trkpt><trkpt lat="42.03379531505536" lon="12.968758055187894"><ele>320.6666666666667</ele><time>2026-04-09T14:25:51Z</time></trkpt><trkpt lat="42.03382434069959" lon="12.968989968743568"><ele>320.0</ele><time>2026-04-09T14:25:52Z</time></trkpt><trkpt lat="42.033839649516985" lon="12.96919562280848"><ele>320.0</ele><time>2026-04-09T14:25:53Z</time></trkpt><trkpt lat="42.03382298305372" lon="12.969376563358079"><ele>320.0</ele><time>2026-04-09T14:25:54Z</time></trkpt><trkpt lat="42.03376614539485" lon="12.969555143307955"><ele>320.0</ele><time>2026-04-09T14:25:55Z</time></trkpt><trkpt lat="42.033678504559944" lon="12.969724428779159"><ele>320.0</ele><time>2026-04-09T14:25:56Z</time></trkpt><trkpt lat="42.03356050117394" lon="12.969882516229655"><ele>319.33333333333337</ele><time>2026-04-09T14:25:57Z</time></trkpt><trkpt lat="42.03341677056944" lon="12.97002962484293"><ele>318.6666666666667</ele><time>2026-04-09T14:25:58Z</time></trkpt><trkpt lat="42.0332351334362" lon="12.970183198970723"><ele>318.0</ele><time>2026-04-09T14:25:59Z</time></trkpt><trkpt lat="42.033030719002376" lon="12.970339594207458"><ele>318.0</ele><time>2026-04-09T14:26:00Z</time></trkpt><trkpt lat="42.032861438548196" lon="12.970480482490238"><ele>318.0</ele><time>2026-04-09T14:26:01Z</time></trkpt><trkpt lat="42.03271292780602" lon="12.970599984814667"><ele>318.0</ele><time>2026-04-09T14:26:02Z</time></trkpt><trkpt lat="42.03257077330815" lon="12.970690330497519"><ele>317.75</ele><time>2026-04-09T14:26:03Z</time></trkpt><trkpt lat="42.03243597554401" lon="12.97075273165305"><ele>317.5</ele><time>2026-04-09T14:26:04Z</time></trkpt><trkpt lat="42.03231671438401" lon="12.970816021419804"><ele>317.25</ele><time>2026-04-09T14:26:05Z</time></trkpt><trkpt lat="42.032208043167365" lon="12.970902069297972"><ele>317.0</ele><time>2026-04-09T14:26:06Z</time></trkpt><trkpt lat="42.03212144780147" lon="12.97101961446881"><ele>318.0</ele><time>2026-04-09T14:26:07Z</time></trkpt><trkpt lat="42.03204032981933" lon="12.971163809982453"><ele>319.0</ele><time>2026-04-09T14:26:08Z</time></trkpt><trkpt lat="42.0319697104083" lon="12.971326852656116"><ele>320.0</ele><time>2026-04-09T14:26:09Z</time></trkpt><trkpt lat="42.03190911003561" lon="12.971495048933527"><ele>321.0</ele><time>2026-04-09T14:26:10Z</time></trkpt><trkpt lat="42.03184090096475" lon="12.971700779619193"><ele>321.0</ele><time>2026-04-09T14:26:11Z</time></trkpt><trkpt lat="42.03173862992936" lon="12.971951840865536"><ele>321.0</ele><time>2026-04-09T14:26:12Z</time></trkpt><trkpt lat="42.03161730258618" lon="12.972187138741418"><ele>321.0</ele><time>2026-04-09T14:26:13Z</time></trkpt><trkpt lat="42.031501781233835" lon="12.972425603967823"><ele>322.0</ele><time>2026-04-09T14:26:14Z</time></trkpt><trkpt lat="42.0313692550623" lon="12.9726678665499"><ele>323.0</ele><time>2026-04-09T14:26:15Z</time></trkpt><trkpt lat="42.031238974207255" lon="12.972860534360814"><ele>324.0</ele><time>2026-04-09T14:26:16Z</time></trkpt><trkpt lat="42.03110719410161" lon="12.973061650302444"><ele>324.0</ele><time>2026-04-09T14:26:17Z</time></trkpt><trkpt lat="42.030982216663276" lon="12.973251782890566"><ele>324.0</ele><time>2026-04-09T14:26:18Z</time></trkpt><trkpt lat="42.03083786628699" lon="12.973447769872436"><ele>324.0</ele><time>2026-04-09T14:26:19.001Z</time></trkpt><trkpt lat="42.03065953747671" lon="12.973633695028138"><ele>325.6666666666667</ele><time>2026-04-09T14:26:20.001Z</time></trkpt><trkpt lat="42.03047068754592" lon="12.973791176720091"><ele>327.33333333333337</ele><time>2026-04-09T14:26:21.001Z</time></trkpt><trkpt lat="42.03028727999933" lon="12.97393292025346"><ele>329.0</ele><time>2026-04-09T14:26:22.001Z</time></trkpt><trkpt lat="42.03010339052255" lon="12.974068907177005"><ele>327.0</ele><time>2026-04-09T14:26:23.001Z</time></trkpt><trkpt lat="42.029934531001366" lon="12.974203492958916"><ele>325.0</ele><time>2026-04-09T14:26:24.001Z</time></trkpt><trkpt lat="42.02979566588558" lon="12.974354241938832"><ele>323.0</ele><time>2026-04-09T14:26:25.001Z</time></trkpt><trkpt lat="42.02966914119593" lon="12.974539031550663"><ele>323.0</ele><time>2026-04-09T14:26:26.001Z</time></trkpt><trkpt lat="42.02955837414954" lon="12.974805223652012"><ele>323.0</ele><time>2026-04-09T14:26:27.001Z</time></trkpt><trkpt lat="42.02944751219531" lon="12.97505616731078"><ele>323.0</ele><time>2026-04-09T14:26:28.001Z</time></trkpt><trkpt lat="42.02935545816645" lon="12.975276236522717"><ele>324.0</ele><time>2026-04-09T14:26:29.001Z</time></trkpt><trkpt lat="42.02923137143663" lon="12.975460662464913"><ele>325.0</ele><time>2026-04-09T14:26:30.001Z</time></trkpt><trkpt lat="42.02909578716137" lon="12.975609911855564"><ele>326.0</ele><time>2026-04-09T14:26:31.001Z</time></trkpt><trkpt lat="42.02892826564214" lon="12.975738286272154"><ele>326.0</ele><time>2026-04-09T14:26:32.001Z</time></trkpt><trkpt lat="42.02874088655042" lon="12.975832501918491"><ele>326.0</ele><time>2026-04-09T14:26:33.001Z</time></trkpt><trkpt lat="42.02855191156106" lon="12.975890191010278"><ele>326.0</ele><time>2026-04-09T14:26:34.001Z</time></trkpt><trkpt lat="42.0283754441516" lon="12.975971217588947"><ele>325.33333333333337</ele><time>2026-04-09T14:26:35.001Z</time></trkpt><trkpt lat="42.02820502328708" lon="12.976026080761676"><ele>324.6666666666667</ele><time>2026-04-09T14:26:36.001Z</time></trkpt><trkpt lat="42.02803386727714" lon="12.97612175961062"><ele>324.0</ele><time>2026-04-09T14:26:37.001Z</time></trkpt><trkpt lat="42.027875367255874" lon="12.976260554522916"><ele>324.0</ele><time>2026-04-09T14:26:38.001Z</time></trkpt><trkpt lat="42.02774503055079" lon="12.976422048467912"><ele>324.0</ele><time>2026-04-09T14:26:39.001Z</time></trkpt><trkpt lat="42.0276358553184" lon="12.976587589944646"><ele>324.0</ele><time>2026-04-09T14:26:40.001Z</time></trkpt><trkpt lat="42.02756023551524" lon="12.976772177118912"><ele>325.0</ele><time>2026-04-09T14:26:41.001Z</time></trkpt><trkpt lat="42.027516827393384" lon="12.977003350060127"><ele>326.0</ele><time>2026-04-09T14:26:42.001Z</time></trkpt><trkpt lat="42.027489481820815" lon="12.977265617445786"><ele>327.0</ele><time>2026-04-09T14:26:43.001Z</time></trkpt><trkpt lat="42.027469601258026" lon="12.977572396856655"><ele>323.5</ele><time>2026-04-09T14:26:44.001Z</time></trkpt><trkpt lat="42.02744305514001" lon="12.977910633234078"><ele>320.0</ele><time>2026-04-09T14:26:45.001Z</time></trkpt><trkpt lat="42.02741559574756" lon="12.978243328918618"><ele>320.0</ele><time>2026-04-09T14:26:46.001Z</time></trkpt><trkpt lat="42.02738848453241" lon="12.978572878669281"><ele>320.0</ele><time>2026-04-09T14:26:47.001Z</time></trkpt><trkpt lat="42.02735705163941" lon="12.978903206572818"><ele>319.5</ele><time>2026-04-09T14:26:48.001Z</time></trkpt><trkpt lat="42.027325941523735" lon="12.979214273195412"><ele>319.0</ele><time>2026-04-09T14:26:49.001Z</time></trkpt><trkpt lat="42.027294118802104" lon="12.979533892970162"><ele>319.0</ele><time>2026-04-09T14:26:50.001Z</time></trkpt><trkpt lat="42.02725078374003" lon="12.979856500080883"><ele>319.0</ele><time>2026-04-09T14:26:51.001Z</time></trkpt><trkpt lat="42.02716458178816" lon="12.980160882840439"><ele>320.5</ele><time>2026-04-09T14:26:52.001Z</time></trkpt><trkpt lat="42.02707633273842" lon="12.980443593209893"><ele>322.0</ele><time>2026-04-09T14:26:53.001Z</time></trkpt><trkpt lat="42.02696476704117" lon="12.98072180185265"><ele>324.0</ele><time>2026-04-09T14:26:54.001Z</time></trkpt><trkpt lat="42.02685293258867" lon="12.980996751913855"><ele>326.0</ele><time>2026-04-09T14:26:55.001Z</time></trkpt><trkpt lat="42.026697389401306" lon="12.981237674007149"><ele>324.5</ele><time>2026-04-09T14:26:56.001Z</time></trkpt><trkpt lat="42.02653882149685" lon="12.981478099539501"><ele>323.0</ele><time>2026-04-09T14:26:57.001Z</time></trkpt><trkpt lat="42.02638592208223" lon="12.981733370294815"><ele>323.0</ele><time>2026-04-09T14:26:58.001Z</time></trkpt><trkpt lat="42.02620646877933" lon="12.98198738566672"><ele>323.0</ele><time>2026-04-09T14:26:59.001Z</time></trkpt><trkpt lat="42.026022631558035" lon="12.982253785259156"><ele>323.0</ele><time>2026-04-09T14:27:00.001Z</time></trkpt><trkpt lat="42.02584480822701" lon="12.982514092752664"><ele>323.0</ele><time>2026-04-09T14:27:01.001Z</time></trkpt><trkpt lat="42.025656701811194" lon="12.982782089320244"><ele>323.5</ele><time>2026-04-09T14:27:02.001Z</time></trkpt><trkpt lat="42.02548478910877" lon="12.983032542293781"><ele>324.0</ele><time>2026-04-09T14:27:03.001Z</time></trkpt><trkpt lat="42.02531364665542" lon="12.983272365735024"><ele>322.0</ele><time>2026-04-09T14:27:04.001Z</time></trkpt><trkpt lat="42.025156284225574" lon="12.983502440994018"><ele>320.0</ele><time>2026-04-09T14:27:05.001Z</time></trkpt><trkpt lat="42.02501534334855" lon="12.983719595191813"><ele>318.0</ele><time>2026-04-09T14:27:06.001Z</time></trkpt><trkpt lat="42.02488516680549" lon="12.983951400904088"><ele>321.0</ele><time>2026-04-09T14:27:07.001Z</time></trkpt><trkpt lat="42.024765966494975" lon="12.984218212619071"><ele>324.0</ele><time>2026-04-09T14:27:08.001Z</time></trkpt><trkpt lat="42.02464621681677" lon="12.984498990332877"><ele>324.0</ele><time>2026-04-09T14:27:09.001Z</time></trkpt><trkpt lat="42.024525192910545" lon="12.98477556719565"><ele>324.0</ele><time>2026-04-09T14:27:10.001Z</time></trkpt><trkpt lat="42.024414064898075" lon="12.985043077787884"><ele>326.0</ele><time>2026-04-09T14:27:11.001Z</time></trkpt><trkpt lat="42.02443828014591" lon="12.98542228720105"><ele>328.0</ele><time>2026-04-09T14:27:12.001Z</time></trkpt><trkpt lat="42.02439604737998" lon="12.985744814196178"><ele>327.3333333333333</ele><time>2026-04-09T14:27:13.001Z</time></trkpt><trkpt lat="42.024371847282424" lon="12.986020103611992"><ele>326.6666666666667</ele><time>2026-04-09T14:27:14.001Z</time></trkpt><trkpt lat="42.024354323279795" lon="12.986251682325134"><ele>326.0</ele><time>2026-04-09T14:27:15.001Z</time></trkpt><trkpt lat="42.024342803478184" lon="12.986453761727757"><ele>326.0</ele><time>2026-04-09T14:27:16.001Z</time></trkpt><trkpt lat="42.02433269581573" lon="12.98662003285975"><ele>326.0</ele><time>2026-04-09T14:27:17.001Z</time></trkpt><trkpt lat="42.024322039996214" lon="12.98678677845506"><ele>326.0</ele><time>2026-04-09T14:27:18.001Z</time></trkpt><trkpt lat="42.02430952266425" lon="12.986944266778929"><ele>326.0</ele><time>2026-04-09T14:27:19.001Z</time></trkpt><trkpt lat="42.024298214903226" lon="12.987092124139325"><ele>326.4</ele><time>2026-04-09T14:27:20.001Z</time></trkpt><trkpt lat="42.02428570013115" lon="12.987231290443637"><ele>326.8</ele><time>2026-04-09T14:27:21.001Z</time></trkpt><trkpt lat="42.024277028876924" lon="12.987366249805662"><ele>327.2</ele><time>2026-04-09T14:27:22Z</time></trkpt><trkpt lat="42.02427224013084" lon="12.98751692009762"><ele>327.59999999999997</ele><time>2026-04-09T14:27:23Z</time></trkpt><trkpt lat="42.02425066000103" lon="12.987674262723703"><ele>328.0</ele><time>2026-04-09T14:27:24Z</time></trkpt><trkpt lat="42.02422178190679" lon="12.987832333270633"><ele>328.0</ele><time>2026-04-09T14:27:25Z</time></trkpt><trkpt lat="42.024185699889244" lon="12.987979662915631"><ele>328.0</ele><time>2026-04-09T14:27:26Z</time></trkpt><trkpt lat="42.0241445420809" lon="12.988127295477161"><ele>328.0</ele><time>2026-04-09T14:27:27Z</time></trkpt><trkpt lat="42.02409714063909" lon="12.988265962414554"><ele>328.0</ele><time>2026-04-09T14:27:28Z</time></trkpt><trkpt lat="42.0240371348652" lon="12.98840683823119"><ele>328.25</ele><time>2026-04-09T14:27:29Z</time></trkpt><trkpt lat="42.023957254159114" lon="12.988556825180778"><ele>328.5</ele><time>2026-04-09T14:27:30Z</time></trkpt><trkpt lat="42.0238683908372" lon="12.988722043986355"><ele>328.75</ele><time>2026-04-09T14:27:31Z</time></trkpt><trkpt lat="42.02377876287733" lon="12.988858984052712"><ele>329.0</ele><time>2026-04-09T14:27:32Z</time></trkpt><trkpt lat="42.02368174447451" lon="12.9889858348634"><ele>329.0</ele><time>2026-04-09T14:27:33Z</time></trkpt><trkpt lat="42.0235790582722" lon="12.989104218500088"><ele>329.0</ele><time>2026-04-09T14:27:34Z</time></trkpt><trkpt lat="42.023476081497" lon="12.98921482055117"><ele>329.0</ele><time>2026-04-09T14:27:35Z</time></trkpt><trkpt lat="42.0233789294406" lon="12.989323210789946"><ele>329.0</ele><time>2026-04-09T14:27:36Z</time></trkpt><trkpt lat="42.023281942261534" lon="12.989436880381188"><ele>328.75</ele><time>2026-04-09T14:27:37Z</time></trkpt><trkpt lat="42.023183039938075" lon="12.98954888527672"><ele>328.5</ele><time>2026-04-09T14:27:38Z</time></trkpt><trkpt lat="42.02308319051416" lon="12.98966198232473"><ele>328.25</ele><time>2026-04-09T14:27:39Z</time></trkpt><trkpt lat="42.02298447517978" lon="12.989780562114241"><ele>328.0</ele><time>2026-04-09T14:27:40Z</time></trkpt><trkpt lat="42.02289231830931" lon="12.989896336305108"><ele>330.25</ele><time>2026-04-09T14:27:41Z</time></trkpt><trkpt lat="42.02281008620904" lon="12.990010419215226"><ele>332.5</ele><time>2026-04-09T14:27:42Z</time></trkpt><trkpt lat="42.02273640545208" lon="12.99012807040705"><ele>334.75</ele><time>2026-04-09T14:27:43Z</time></trkpt><trkpt lat="42.02266768012945" lon="12.990250574964094"><ele>337.0</ele><time>2026-04-09T14:27:44Z</time></trkpt><trkpt lat="42.022612109567966" lon="12.990378626535739"><ele>337.0</ele><time>2026-04-09T14:27:45Z</time></trkpt><trkpt lat="42.02255718730242" lon="12.990512173276008"><ele>337.0</ele><time>2026-04-09T14:27:46Z</time></trkpt><trkpt lat="42.022502569925315" lon="12.990647112203982"><ele>337.0</ele><time>2026-04-09T14:27:47Z</time></trkpt><trkpt lat="42.02243518433685" lon="12.990802835675037"><ele>337.0</ele><time>2026-04-09T14:27:48Z</time></trkpt><trkpt lat="42.022352742983436" lon="12.990984247556291"><ele>334.0</ele><time>2026-04-09T14:27:49Z</time></trkpt><trkpt lat="42.0222732840015" lon="12.991156256400727"><ele>331.0</ele><time>2026-04-09T14:27:50Z</time></trkpt><trkpt lat="42.02220466622182" lon="12.99131500100013"><ele>328.0</ele><time>2026-04-09T14:27:51Z</time></trkpt><trkpt lat="42.022133541474204" lon="12.991467293733024"><ele>325.0</ele><time>2026-04-09T14:27:52Z</time></trkpt><trkpt lat="42.022066523745174" lon="12.991606274557164"><ele>326.2</ele><time>2026-04-09T14:27:53Z</time></trkpt><trkpt lat="42.02200611972322" lon="12.991732802005236"><ele>327.4</ele><time>2026-04-09T14:27:54Z</time></trkpt><trkpt lat="42.021953319364336" lon="12.991852599193129"><ele>328.6</ele><time>2026-04-09T14:27:55Z</time></trkpt><trkpt lat="42.02191596335724" lon="12.991974920222567"><ele>329.8</ele><time>2026-04-09T14:27:56Z</time></trkpt><trkpt lat="42.02188347485027" lon="12.992095616238283"><ele>331.0</ele><time>2026-04-09T14:27:57Z</time></trkpt><trkpt lat="42.0217920871791" lon="12.99216262976662"><ele>331.0</ele><time>2026-04-09T14:27:58Z</time></trkpt><trkpt lat="42.021729977293035" lon="12.992293403725698"><ele>331.0</ele><time>2026-04-09T14:27:59Z</time></trkpt><trkpt lat="42.02165831806176" lon="12.992459108791603"><ele>331.0</ele><time>2026-04-09T14:28:00Z</time></trkpt><trkpt lat="42.02158710494349" lon="12.992602052218361"><ele>331.0</ele><time>2026-04-09T14:28:01Z</time></trkpt><trkpt lat="42.02151517953844" lon="12.992742018272244"><ele>329.25</ele><time>2026-04-09T14:28:02Z</time></trkpt><trkpt lat="42.02144988883349" lon="12.992892496283394"><ele>327.5</ele><time>2026-04-09T14:28:03Z</time></trkpt><trkpt lat="42.02138705493553" lon="12.993047242292775"><ele>325.75</ele><time>2026-04-09T14:28:04Z</time></trkpt><trkpt lat="42.021319257528745" lon="12.993201453621298"><ele>324.0</ele><time>2026-04-09T14:28:05Z</time></trkpt><trkpt lat="42.02124724442204" lon="12.993338326400021"><ele>325.2</ele><time>2026-04-09T14:28:06Z</time></trkpt><trkpt lat="42.02118259495749" lon="12.993469756135685"><ele>326.4</ele><time>2026-04-09T14:28:07Z</time></trkpt><trkpt lat="42.02112372075802" lon="12.993593076416497"><ele>327.6</ele><time>2026-04-09T14:28:08Z</time></trkpt><trkpt lat="42.021076327939106" lon="12.99370822181612"><ele>328.8</ele><time>2026-04-09T14:28:09Z</time></trkpt><trkpt lat="42.021025036341754" lon="12.99381177509368"><ele>330.0</ele><time>2026-04-09T14:28:10Z</time></trkpt><trkpt lat="42.020935727838676" lon="12.994004392791075"><ele>330.0</ele><time>2026-04-09T14:28:12Z</time></trkpt><trkpt lat="42.02089604935412" lon="12.994106514393192"><ele>330.0</ele><time>2026-04-09T14:28:13Z</time></trkpt><trkpt lat="42.02084326505134" lon="12.994206364136003"><ele>330.0</ele><time>2026-04-09T14:28:14Z</time></trkpt><trkpt lat="42.020790190531535" lon="12.994311048330857"><ele>330.0</ele><time>2026-04-09T14:28:15Z</time></trkpt><trkpt lat="42.02073859222677" lon="12.994422437630684"><ele>330.0</ele><time>2026-04-09T14:28:16Z</time></trkpt><trkpt lat="42.02067701368972" lon="12.994553216214255"><ele>329.75</ele><time>2026-04-09T14:28:17Z</time></trkpt><trkpt lat="42.020603837548386" lon="12.99469739142666"><ele>329.5</ele><time>2026-04-09T14:28:18Z</time></trkpt><trkpt lat="42.02052849457608" lon="12.994852086334967"><ele>329.25</ele><time>2026-04-09T14:28:19Z</time></trkpt><trkpt lat="42.020458920210466" lon="12.994995790658663"><ele>329.0</ele><time>2026-04-09T14:28:20Z</time></trkpt><trkpt lat="42.020390461911184" lon="12.995142743366804"><ele>329.0</ele><time>2026-04-09T14:28:21Z</time></trkpt><trkpt lat="42.02031309289825" lon="12.995300569425586"><ele>329.0</ele><time>2026-04-09T14:28:22Z</time></trkpt><trkpt lat="42.02023016310999" lon="12.995473324606445"><ele>329.0</ele><time>2026-04-09T14:28:23Z</time></trkpt><trkpt lat="42.020150382145864" lon="12.995667467717974"><ele>328.0</ele><time>2026-04-09T14:28:24Z</time></trkpt><trkpt lat="42.020047913666836" lon="12.99590760724285"><ele>327.0</ele><time>2026-04-09T14:28:25Z</time></trkpt><trkpt lat="42.01993889618797" lon="12.996179405399774"><ele>326.0</ele><time>2026-04-09T14:28:26Z</time></trkpt><trkpt lat="42.01984082225328" lon="12.996433121130993"><ele>327.5</ele><time>2026-04-09T14:28:27Z</time></trkpt><trkpt lat="42.019739432367466" lon="12.99671471753806"><ele>329.0</ele><time>2026-04-09T14:28:28Z</time></trkpt><trkpt lat="42.01964920707263" lon="12.996983000614176"><ele>329.0</ele><time>2026-04-09T14:28:29Z</time></trkpt><trkpt lat="42.01956887892886" lon="12.99723153709932"><ele>329.0</ele><time>2026-04-09T14:28:30Z</time></trkpt><trkpt lat="42.019490289817014" lon="12.997503340003664"><ele>329.0</ele><time>2026-04-09T14:28:31Z</time></trkpt><trkpt lat="42.019412620686786" lon="12.997786453347755"><ele>330.0</ele><time>2026-04-09T14:28:32Z</time></trkpt><trkpt lat="42.01933561287249" lon="12.998083595597254"><ele>331.0</ele><time>2026-04-09T14:28:33Z</time></trkpt><trkpt lat="42.01926461248054" lon="12.998391168963371"><ele>331.5</ele><time>2026-04-09T14:28:34Z</time></trkpt><trkpt lat="42.01919850790112" lon="12.998686413332374"><ele>332.0</ele><time>2026-04-09T14:28:35.001Z</time></trkpt><trkpt lat="42.019133102350544" lon="12.998979774426685"><ele>330.6666666666667</ele><time>2026-04-09T14:28:36.001Z</time></trkpt><trkpt lat="42.01907241585761" lon="12.999251516088629"><ele>329.3333333333333</ele><time>2026-04-09T14:28:37.001Z</time></trkpt><trkpt lat="42.01901028883185" lon="12.999520450678265"><ele>328.0</ele><time>2026-04-09T14:28:38.001Z</time></trkpt><trkpt lat="42.01894430308485" lon="12.999802861446344"><ele>328.0</ele><time>2026-04-09T14:28:39.001Z</time></trkpt><trkpt lat="42.018883498730894" lon="13.000076114453027"><ele>328.0</ele><time>2026-04-09T14:28:40.001Z</time></trkpt><trkpt lat="42.0188311205417" lon="13.000325781221322"><ele>328.0</ele><time>2026-04-09T14:28:41.001Z</time></trkpt><trkpt lat="42.01877873064786" lon="13.000557250011509"><ele>328.0</ele><time>2026-04-09T14:28:42.001Z</time></trkpt><trkpt lat="42.018724459985705" lon="13.000795805575775"><ele>328.0</ele><time>2026-04-09T14:28:43.001Z</time></trkpt><trkpt lat="42.018670295456296" lon="13.001047037327409"><ele>328.0</ele><time>2026-04-09T14:28:44.001Z</time></trkpt><trkpt lat="42.01862249362048" lon="13.001307819216823"><ele>327.66666666666663</ele><time>2026-04-09T14:28:45.001Z</time></trkpt><trkpt lat="42.018594854192855" lon="13.00157058368968"><ele>327.3333333333333</ele><time>2026-04-09T14:28:46.001Z</time></trkpt><trkpt lat="42.018588856990846" lon="13.001834934560728"><ele>327.0</ele><time>2026-04-09T14:28:47.001Z</time></trkpt><trkpt lat="42.01859927964238" lon="13.002084819960057"><ele>327.0</ele><time>2026-04-09T14:28:48.001Z</time></trkpt><trkpt lat="42.018632950495544" lon="13.002344572438348"><ele>327.0</ele><time>2026-04-09T14:28:49.001Z</time></trkpt><trkpt lat="42.01868675361503" lon="13.002600447730316"><ele>327.0</ele><time>2026-04-09T14:28:50.001Z</time></trkpt><trkpt lat="42.01875127762815" lon="13.002850892166471"><ele>327.0</ele><time>2026-04-09T14:28:51.001Z</time></trkpt><trkpt lat="42.018838943507774" lon="13.003096653307152"><ele>327.0</ele><time>2026-04-09T14:28:52.001Z</time></trkpt><trkpt lat="42.01894325676954" lon="13.00334225407116"><ele>327.0</ele><time>2026-04-09T14:28:53.001Z</time></trkpt><trkpt lat="42.019064478178095" lon="13.00356420529242"><ele>328.0</ele><time>2026-04-09T14:28:54.001Z</time></trkpt><trkpt lat="42.01919790791175" lon="13.003797390660862"><ele>329.0</ele><time>2026-04-09T14:28:55.001Z</time></trkpt><trkpt lat="42.01933179277462" lon="13.004056695360056"><ele>328.0</ele><time>2026-04-09T14:28:56.001Z</time></trkpt><trkpt lat="42.019466636840235" lon="13.004339372176737"><ele>327.0</ele><time>2026-04-09T14:28:57.001Z</time></trkpt><trkpt lat="42.01961692840947" lon="13.004628758590815"><ele>327.0</ele><time>2026-04-09T14:28:58.001Z</time></trkpt><trkpt lat="42.01975744236509" lon="13.004919028478405"><ele>327.0</ele><time>2026-04-09T14:28:59.001Z</time></trkpt><trkpt lat="42.019900963643515" lon="13.005209231021837"><ele>327.0</ele><time>2026-04-09T14:29:00.001Z</time></trkpt><trkpt lat="42.02004686314564" lon="13.005486210319024"><ele>327.0</ele><time>2026-04-09T14:29:01.001Z</time></trkpt><trkpt lat="42.020179372955916" lon="13.005749498534565"><ele>326.6666666666667</ele><time>2026-04-09T14:29:02.001Z</time></trkpt><trkpt lat="42.02030426938896" lon="13.006004758573333"><ele>326.33333333333337</ele><time>2026-04-09T14:29:03.001Z</time></trkpt><trkpt lat="42.020426995282605" lon="13.00624683523216"><ele>326.0</ele><time>2026-04-09T14:29:04.001Z</time></trkpt><trkpt lat="42.02055903881511" lon="13.006503806308583"><ele>326.0</ele><time>2026-04-09T14:29:05.001Z</time></trkpt><trkpt lat="42.020680020468646" lon="13.006740375617998"><ele>326.0</ele><time>2026-04-09T14:29:06.001Z</time></trkpt><trkpt lat="42.020787444066144" lon="13.006955328145956"><ele>326.0</ele><time>2026-04-09T14:29:07.001Z</time></trkpt><trkpt lat="42.020892562471005" lon="13.007167876529367"><ele>325.33333333333337</ele><time>2026-04-09T14:29:08.001Z</time></trkpt><trkpt lat="42.02099150790079" lon="13.007368506073194"><ele>324.6666666666667</ele><time>2026-04-09T14:29:09.001Z</time></trkpt><trkpt lat="42.02108611239997" lon="13.007554799114246"><ele>324.0</ele><time>2026-04-09T14:29:10.001Z</time></trkpt><trkpt lat="42.02118202092438" lon="13.007738080423811"><ele>324.0</ele><time>2026-04-09T14:29:11.001Z</time></trkpt><trkpt lat="42.021280706031234" lon="13.007941700193808"><ele>324.0</ele><time>2026-04-09T14:29:12.001Z</time></trkpt><trkpt lat="42.02137649155538" lon="13.0081611863209"><ele>324.0</ele><time>2026-04-09T14:29:13.001Z</time></trkpt><trkpt lat="42.02145299666378" lon="13.008383478005253"><ele>323.6666666666667</ele><time>2026-04-09T14:29:14.001Z</time></trkpt><trkpt lat="42.0214988259816" lon="13.008606369019175"><ele>323.33333333333337</ele><time>2026-04-09T14:29:15.001Z</time></trkpt><trkpt lat="42.02152111978821" lon="13.008817347401548"><ele>323.0</ele><time>2026-04-09T14:29:16.001Z</time></trkpt><trkpt lat="42.02152871951292" lon="13.009003289416944"><ele>323.0</ele><time>2026-04-09T14:29:17.001Z</time></trkpt><trkpt lat="42.02152885984925" lon="13.009179181487431"><ele>323.0</ele><time>2026-04-09T14:29:18.001Z</time></trkpt><trkpt lat="42.02153112833722" lon="13.009354269496468"><ele>323.0</ele><time>2026-04-09T14:29:19.001Z</time></trkpt><trkpt lat="42.02156761385777" lon="13.009530065134113"><ele>323.0</ele><time>2026-04-09T14:29:20.001Z</time></trkpt><trkpt lat="42.02165320620778" lon="13.009692116059655"><ele>324.0</ele><time>2026-04-09T14:29:21.001Z</time></trkpt><trkpt lat="42.02176460526797" lon="13.009842174197233"><ele>325.0</ele><time>2026-04-09T14:29:22.001Z</time></trkpt><trkpt lat="42.02188484347128" lon="13.010003492385618"><ele>326.0</ele><time>2026-04-09T14:29:23.001Z</time></trkpt><trkpt lat="42.022016086767444" lon="13.010189120662718"><ele>326.0</ele><time>2026-04-09T14:29:24.001Z</time></trkpt><trkpt lat="42.02215823141443" lon="13.01040077855296"><ele>326.0</ele><time>2026-04-09T14:29:25.001Z</time></trkpt><trkpt lat="42.0222918649413" lon="13.010604684545461"><ele>326.0</ele><time>2026-04-09T14:29:26.001Z</time></trkpt><trkpt lat="42.0224226101877" lon="13.010812765587671"><ele>328.33333333333337</ele><time>2026-04-09T14:29:27.001Z</time></trkpt><trkpt lat="42.022542301244705" lon="13.011031221256017"><ele>330.6666666666667</ele><time>2026-04-09T14:29:28Z</time></trkpt><trkpt lat="42.0226542065017" lon="13.011265894159871"><ele>333.0</ele><time>2026-04-09T14:29:29Z</time></trkpt><trkpt lat="42.022757192487894" lon="13.011517439174023"><ele>332.3333333333333</ele><time>2026-04-09T14:29:30Z</time></trkpt><trkpt lat="42.022866659461634" lon="13.011769571473977"><ele>331.66666666666663</ele><time>2026-04-09T14:29:31Z</time></trkpt><trkpt lat="42.02299631153152" lon="13.012016487345024"><ele>331.0</ele><time>2026-04-09T14:29:32Z</time></trkpt><trkpt lat="42.02313006221984" lon="13.012249298244768"><ele>331.0</ele><time>2026-04-09T14:29:33Z</time></trkpt><trkpt lat="42.02324855766694" lon="13.012454763660145"><ele>331.0</ele><time>2026-04-09T14:29:34Z</time></trkpt><trkpt lat="42.02336223962305" lon="13.012623484115162"><ele>331.0</ele><time>2026-04-09T14:29:35Z</time></trkpt><trkpt lat="42.023490795994036" lon="13.012792391387176"><ele>333.66666666666663</ele><time>2026-04-09T14:29:36Z</time></trkpt><trkpt lat="42.023643404892304" lon="13.012928642331051"><ele>336.3333333333333</ele><time>2026-04-09T14:29:37Z</time></trkpt><trkpt lat="42.02379797955298" lon="13.013038838255184"><ele>339.0</ele><time>2026-04-09T14:29:38Z</time></trkpt><trkpt lat="42.02393900168852" lon="13.013172067501001"><ele>338.6666666666667</ele><time>2026-04-09T14:29:39Z</time></trkpt><trkpt lat="42.02405314919323" lon="13.013360578903907"><ele>338.33333333333337</ele><time>2026-04-09T14:29:40Z</time></trkpt><trkpt lat="42.02414109461327" lon="13.013578099800252"><ele>338.0</ele><time>2026-04-09T14:29:41Z</time></trkpt><trkpt lat="42.02424566522299" lon="13.013784093201046"><ele>341.0</ele><time>2026-04-09T14:29:41.999Z</time></trkpt><trkpt lat="42.02438837110075" lon="13.013949004223111"><ele>344.0</ele><time>2026-04-09T14:29:42.999Z</time></trkpt><trkpt lat="42.02455420201494" lon="13.014075070327358"><ele>347.0</ele><time>2026-04-09T14:29:43.999Z</time></trkpt><trkpt lat="42.024694772743636" lon="13.014198237937155"><ele>347.0</ele><time>2026-04-09T14:29:44.999Z</time></trkpt><trkpt lat="42.024803357493944" lon="13.014327562209386"><ele>347.0</ele><time>2026-04-09T14:29:46Z</time></trkpt><trkpt lat="42.02486493194627" lon="13.014474769105046"><ele>347.0</ele><time>2026-04-09T14:29:47Z</time></trkpt><trkpt lat="42.02489310365124" lon="13.014637716435432"><ele>347.0</ele><time>2026-04-09T14:29:48Z</time></trkpt><trkpt lat="42.024883095466976" lon="13.014822809216904"><ele>347.25</ele><time>2026-04-09T14:29:49Z</time></trkpt><trkpt lat="42.02484834157248" lon="13.015020884712017"><ele>347.5</ele><time>2026-04-09T14:29:50Z</time></trkpt><trkpt lat="42.024794888029234" lon="13.015210553908878"><ele>347.75</ele><time>2026-04-09T14:29:51Z</time></trkpt><trkpt lat="42.02470538877054" lon="13.015350697159258"><ele>348.0</ele><time>2026-04-09T14:29:52Z</time></trkpt><trkpt lat="42.02457660313056" lon="13.015436388442463"><ele>348.0</ele><time>2026-04-09T14:29:53Z</time></trkpt><trkpt lat="42.02444090109697" lon="13.015492087138567"><ele>348.0</ele><time>2026-04-09T14:29:54Z</time></trkpt><trkpt lat="42.024338758240475" lon="13.015557045632086"><ele>348.0</ele><time>2026-04-09T14:29:55Z</time></trkpt><trkpt lat="42.02427990921933" lon="13.015642894945945"><ele>348.0</ele><time>2026-04-09T14:29:56Z</time></trkpt><trkpt lat="42.02428077201349" lon="13.015757374387654"><ele>348.0</ele><time>2026-04-09T14:29:57Z</time></trkpt><trkpt lat="42.02433025038031" lon="13.015862879937048"><ele>349.0</ele><time>2026-04-09T14:29:58Z</time></trkpt><trkpt lat="42.024414324467635" lon="13.015917519152095"><ele>350.0</ele><time>2026-04-09T14:29:59Z</time></trkpt><trkpt lat="42.02451897454779" lon="13.015906986078324"><ele>351.0</ele><time>2026-04-09T14:30:00Z</time></trkpt><trkpt lat="42.02464145263314" lon="13.015861383275885"><ele>352.0</ele><time>2026-04-09T14:30:01Z</time></trkpt><trkpt lat="42.02480325446495" lon="13.015835311079453"><ele>353.66666666666663</ele><time>2026-04-09T14:30:02Z</time></trkpt><trkpt lat="42.024991046182464" lon="13.01581762759683"><ele>355.3333333333333</ele><time>2026-04-09T14:30:03Z</time></trkpt><trkpt lat="42.02515522343022" lon="13.015794587519414"><ele>357.0</ele><time>2026-04-09T14:30:04Z</time></trkpt><trkpt lat="42.02529342235937" lon="13.015767975196717"><ele>357.0</ele><time>2026-04-09T14:30:05Z</time></trkpt><trkpt lat="42.025419042395065" lon="13.01571679528238"><ele>357.0</ele><time>2026-04-09T14:30:06Z</time></trkpt><trkpt lat="42.025543559522525" lon="13.015622685516007"><ele>357.0</ele><time>2026-04-09T14:30:07Z</time></trkpt><trkpt lat="42.02566431570775" lon="13.01548631364461"><ele>357.0</ele><time>2026-04-09T14:30:08Z</time></trkpt><trkpt lat="42.02577437734442" lon="13.015368249135683"><ele>359.75</ele><time>2026-04-09T14:30:09Z</time></trkpt><trkpt lat="42.02589609891516" lon="13.015333688879101"><ele>362.5</ele><time>2026-04-09T14:30:10Z</time></trkpt><trkpt lat="42.02603193267491" lon="13.015397083989226"><ele>365.25</ele><time>2026-04-09T14:30:11Z</time></trkpt><trkpt lat="42.02615310573392" lon="13.015511207424478"><ele>368.0</ele><time>2026-04-09T14:30:12Z</time></trkpt><trkpt lat="42.02627770810933" lon="13.015659710335159"><ele>366.6666666666667</ele><time>2026-04-09T14:30:13Z</time></trkpt><trkpt lat="42.02641642172797" lon="13.015829397525982"><ele>365.3333333333333</ele><time>2026-04-09T14:30:14Z</time></trkpt><trkpt lat="42.02654543147851" lon="13.015980765142306"><ele>364.0</ele><time>2026-04-09T14:30:15Z</time></trkpt><trkpt lat="42.02666346435886" lon="13.016101527751486"><ele>368.0</ele><time>2026-04-09T14:30:16Z</time></trkpt><trkpt lat="42.02679022989219" lon="13.016186187391636"><ele>372.0</ele><time>2026-04-09T14:30:17Z</time></trkpt><trkpt lat="42.026948633138815" lon="13.016223601453984"><ele>376.0</ele><time>2026-04-09T14:30:18Z</time></trkpt><trkpt lat="42.027115937003146" lon="13.016239075240945"><ele>376.0</ele><time>2026-04-09T14:30:19Z</time></trkpt><trkpt lat="42.027267909135645" lon="13.016233780298778"><ele>376.0</ele><time>2026-04-09T14:30:20Z</time></trkpt><trkpt lat="42.02742429736017" lon="13.016171478610268"><ele>376.0</ele><time>2026-04-09T14:30:21Z</time></trkpt><trkpt lat="42.0275886634162" lon="13.016064522180274"><ele>377.66666666666663</ele><time>2026-04-09T14:30:22Z</time></trkpt><trkpt lat="42.0277638177951" lon="13.01595317358179"><ele>379.3333333333333</ele><time>2026-04-09T14:30:23Z</time></trkpt><trkpt lat="42.02792024489151" lon="13.015916899456935"><ele>381.0</ele><time>2026-04-09T14:30:24Z</time></trkpt><trkpt lat="42.028056915575156" lon="13.015934932315528"><ele>381.0</ele><time>2026-04-09T14:30:25Z</time></trkpt><trkpt lat="42.02819288582068" lon="13.015992267115234"><ele>381.0</ele><time>2026-04-09T14:30:26Z</time></trkpt><trkpt lat="42.02834182057563" lon="13.016061572964363"><ele>381.0</ele><time>2026-04-09T14:30:27Z</time></trkpt><trkpt lat="42.028465411537965" lon="13.01616550414071"><ele>381.0</ele><time>2026-04-09T14:30:28Z</time></trkpt><trkpt lat="42.028562334400014" lon="13.016267467508575"><ele>383.25</ele><time>2026-04-09T14:30:29Z</time></trkpt><trkpt lat="42.02865523874979" lon="13.01634375061577"><ele>385.5</ele><time>2026-04-09T14:30:30Z</time></trkpt><trkpt lat="42.02877745890113" lon="13.016371622905435"><ele>387.75</ele><time>2026-04-09T14:30:31Z</time></trkpt><trkpt lat="42.028902596536675" lon="13.016343486723189"><ele>390.0</ele><time>2026-04-09T14:30:32Z</time></trkpt><trkpt lat="42.02902593209017" lon="13.016263207943783"><ele>390.0</ele><time>2026-04-09T14:30:33Z</time></trkpt><trkpt lat="42.02913911784008" lon="13.016136984301385"><ele>390.0</ele><time>2026-04-09T14:30:34Z</time></trkpt><trkpt lat="42.029299711128154" lon="13.015995222736375"><ele>390.0</ele><time>2026-04-09T14:30:35Z</time></trkpt><trkpt lat="42.02946026074437" lon="13.015829576300433"><ele>396.0</ele><time>2026-04-09T14:30:36Z</time></trkpt><trkpt lat="42.029586802773714" lon="13.015674110623651"><ele>402.0</ele><time>2026-04-09T14:30:37Z</time></trkpt><trkpt lat="42.02972777618404" lon="13.015537692633497"><ele>408.0</ele><time>2026-04-09T14:30:38Z</time></trkpt><trkpt lat="42.0298595156273" lon="13.015329114469976"><ele>408.0</ele><time>2026-04-09T14:30:39Z</time></trkpt><trkpt lat="42.02996603071776" lon="13.015137596213611"><ele>408.0</ele><time>2026-04-09T14:30:40Z</time></trkpt><trkpt lat="42.03006848921272" lon="13.01495274202492"><ele>408.0</ele><time>2026-04-09T14:30:41Z</time></trkpt><trkpt lat="42.030190862533686" lon="13.014782255611367"><ele>413.33333333333337</ele><time>2026-04-09T14:30:42Z</time></trkpt><trkpt lat="42.03034793625644" lon="13.014721416397116"><ele>418.6666666666667</ele><time>2026-04-09T14:30:43Z</time></trkpt><trkpt lat="42.030501560569995" lon="13.014693501303139"><ele>424.0</ele><time>2026-04-09T14:30:44Z</time></trkpt><trkpt lat="42.030669145455676" lon="13.014640351126122"><ele>421.6666666666667</ele><time>2026-04-09T14:30:45Z</time></trkpt><trkpt lat="42.030846501235445" lon="13.014575145255572"><ele>419.33333333333337</ele><time>2026-04-09T14:30:46Z</time></trkpt><trkpt lat="42.03101440052419" lon="13.014453750051572"><ele>417.0</ele><time>2026-04-09T14:30:47Z</time></trkpt><trkpt lat="42.031202858586276" lon="13.014279976122946"><ele>429.5</ele><time>2026-04-09T14:30:48Z</time></trkpt><trkpt lat="42.03141777180303" lon="13.014099887601239"><ele>442.0</ele><time>2026-04-09T14:30:49Z</time></trkpt><trkpt lat="42.03162724096886" lon="13.013945726613194"><ele>436.6666666666667</ele><time>2026-04-09T14:30:50Z</time></trkpt><trkpt lat="42.03181558612005" lon="13.013812754434385"><ele>431.33333333333337</ele><time>2026-04-09T14:30:51Z</time></trkpt><trkpt lat="42.031989503603036" lon="13.013692806658554"><ele>426.0</ele><time>2026-04-09T14:30:52Z</time></trkpt><trkpt lat="42.032159487136056" lon="13.013591886953046"><ele>426.0</ele><time>2026-04-09T14:30:53Z</time></trkpt><trkpt lat="42.032343457302076" lon="13.013524192407488"><ele>426.0</ele><time>2026-04-09T14:30:54Z</time></trkpt><trkpt lat="42.032550802227824" lon="13.013479877237351"><ele>426.0</ele><time>2026-04-09T14:30:55Z</time></trkpt><trkpt lat="42.032777663490116" lon="13.013448369966955"><ele>423.66666666666663</ele><time>2026-04-09T14:30:56Z</time></trkpt><trkpt lat="42.03297845157183" lon="13.013435492186774"><ele>421.3333333333333</ele><time>2026-04-09T14:30:57Z</time></trkpt><trkpt lat="42.03315771305114" lon="13.013407037178027"><ele>419.0</ele><time>2026-04-09T14:30:58Z</time></trkpt><trkpt lat="42.03332599898268" lon="13.01335205561367"><ele>424.66666666666663</ele><time>2026-04-09T14:30:59Z</time></trkpt><trkpt lat="42.03348904103209" lon="13.01326562880121"><ele>430.33333333333337</ele><time>2026-04-09T14:31:00Z</time></trkpt><trkpt lat="42.033637713051704" lon="13.013150406630922"><ele>436.0</ele><time>2026-04-09T14:31:01Z</time></trkpt><trkpt lat="42.033773817899984" lon="13.013030511968537"><ele>436.0</ele><time>2026-04-09T14:31:02Z</time></trkpt><trkpt lat="42.03388949044922" lon="13.012933882374899"><ele>436.0</ele><time>2026-04-09T14:31:03Z</time></trkpt><trkpt lat="42.03399686727575" lon="13.012863187677173"><ele>436.0</ele><time>2026-04-09T14:31:04Z</time></trkpt><trkpt lat="42.03409596592943" lon="13.012845195927161"><ele>436.0</ele><time>2026-04-09T14:31:05Z</time></trkpt><trkpt lat="42.034182819047665" lon="13.012920503864125"><ele>436.33333333333337</ele><time>2026-04-09T14:31:06Z</time></trkpt><trkpt lat="42.03428647906402" lon="13.01300312002498"><ele>436.66666666666663</ele><time>2026-04-09T14:31:07Z</time></trkpt><trkpt lat="42.03440639780953" lon="13.013130848830237"><ele>437.0</ele><time>2026-04-09T14:31:08Z</time></trkpt><trkpt lat="42.034555882868794" lon="13.013269932874683"><ele>437.3333333333333</ele><time>2026-04-09T14:31:09Z</time></trkpt><trkpt lat="42.034722037627326" lon="13.01341863726539"><ele>437.66666666666663</ele><time>2026-04-09T14:31:10Z</time></trkpt><trkpt lat="42.03486987172902" lon="13.013564348282783"><ele>438.0</ele><time>2026-04-09T14:31:11Z</time></trkpt><trkpt lat="42.03499334531442" lon="13.013696432211994"><ele>438.0</ele><time>2026-04-09T14:31:12Z</time></trkpt><trkpt lat="42.0351040023242" lon="13.013827155775"><ele>438.0</ele><time>2026-04-09T14:31:13Z</time></trkpt><trkpt lat="42.035192220715686" lon="13.01396707716225"><ele>438.0</ele><time>2026-04-09T14:31:14Z</time></trkpt><trkpt lat="42.035304641225494" lon="13.014088252347953"><ele>438.0</ele><time>2026-04-09T14:31:15Z</time></trkpt><trkpt lat="42.03543034645539" lon="13.014189729003727"><ele>438.0</ele><time>2026-04-09T14:31:16Z</time></trkpt><trkpt lat="42.03559466453752" lon="13.0142632727576"><ele>438.0</ele><time>2026-04-09T14:31:17Z</time></trkpt><trkpt lat="42.03575184447042" lon="13.014308190245018"><ele>438.0</ele><time>2026-04-09T14:31:18Z</time></trkpt><trkpt lat="42.03587061939806" lon="13.014346735157089"><ele>438.0</ele><time>2026-04-09T14:31:19.001Z</time></trkpt><trkpt lat="42.036012248567665" lon="13.014382094597671"><ele>438.0</ele><time>2026-04-09T14:31:20.001Z</time></trkpt><trkpt lat="42.03616003098203" lon="13.014359651052517"><ele>438.0</ele><time>2026-04-09T14:31:21.001Z</time></trkpt><trkpt lat="42.0363178669658" lon="13.014299216378722"><ele>438.0</ele><time>2026-04-09T14:31:22.001Z</time></trkpt><trkpt lat="42.036490224369906" lon="13.014216003089137"><ele>438.0</ele><time>2026-04-09T14:31:23.001Z</time></trkpt><trkpt lat="42.03663454193395" lon="13.014171334881379"><ele>438.0</ele><time>2026-04-09T14:31:24.001Z</time></trkpt><trkpt lat="42.03676248296666" lon="13.014182152372532"><ele>441.0</ele><time>2026-04-09T14:31:25.001Z</time></trkpt><trkpt lat="42.03686462393392" lon="13.014270896324133"><ele>444.0</ele><time>2026-04-09T14:31:26.001Z</time></trkpt><trkpt lat="42.03692111202009" lon="13.014426847099433"><ele>447.0</ele><time>2026-04-09T14:31:27.001Z</time></trkpt><trkpt lat="42.03701214776459" lon="13.014571199438974"><ele>450.0</ele><time>2026-04-09T14:31:28.001Z</time></trkpt><trkpt lat="42.037077000083855" lon="13.014733158398723"><ele>450.0</ele><time>2026-04-09T14:31:29.001Z</time></trkpt><trkpt lat="42.03714900277759" lon="13.014879863298443"><ele>450.0</ele><time>2026-04-09T14:31:30.001Z</time></trkpt><trkpt lat="42.03722305730319" lon="13.015021415206945"><ele>450.0</ele><time>2026-04-09T14:31:31.001Z</time></trkpt><trkpt lat="42.03731068111891" lon="13.015136881365095"><ele>450.0</ele><time>2026-04-09T14:31:32.001Z</time></trkpt><trkpt lat="42.03741863089965" lon="13.015211743784597"><ele>450.5</ele><time>2026-04-09T14:31:33.001Z</time></trkpt><trkpt lat="42.03754375847951" lon="13.015238243593911"><ele>451.0</ele><time>2026-04-09T14:31:34Z</time></trkpt><trkpt lat="42.03768614060573" lon="13.015231185326494"><ele>451.5</ele><time>2026-04-09T14:31:35Z</time></trkpt><trkpt lat="42.03783628947052" lon="13.015228101257433"><ele>452.0</ele><time>2026-04-09T14:31:36Z</time></trkpt><trkpt lat="42.03795330896843" lon="13.015264396656224"><ele>452.0</ele><time>2026-04-09T14:31:37Z</time></trkpt><trkpt lat="42.038032985026575" lon="13.015372257588123"><ele>452.0</ele><time>2026-04-09T14:31:38Z</time></trkpt><trkpt lat="42.03813874138011" lon="13.015474542219376"><ele>452.0</ele><time>2026-04-09T14:31:39Z</time></trkpt><trkpt lat="42.03823556175805" lon="13.015599923416497"><ele>452.0</ele><time>2026-04-09T14:31:40Z</time></trkpt><trkpt lat="42.038318161767414" lon="13.015724651936825"><ele>452.8</ele><time>2026-04-09T14:31:41Z</time></trkpt><trkpt lat="42.03836842173962" lon="13.015878700155248"><ele>453.6</ele><time>2026-04-09T14:31:42Z</time></trkpt><trkpt lat="42.03838691400519" lon="13.016034971834534"><ele>454.40000000000003</ele><time>2026-04-09T14:31:43Z</time></trkpt><trkpt lat="42.038430518974764" lon="13.016155964139733"><ele>455.20000000000005</ele><time>2026-04-09T14:31:44Z</time></trkpt><trkpt lat="42.038475318761876" lon="13.016263175796107"><ele>456.0</ele><time>2026-04-09T14:31:45Z</time></trkpt><trkpt lat="42.03857478002187" lon="13.016331067655857"><ele>456.0</ele><time>2026-04-09T14:31:46Z</time></trkpt><trkpt lat="42.038713024931724" lon="13.016356674735105"><ele>456.0</ele><time>2026-04-09T14:31:47Z</time></trkpt><trkpt lat="42.03885118745986" lon="13.016404702993258"><ele>456.0</ele><time>2026-04-09T14:31:48Z</time></trkpt><trkpt lat="42.03902949425876" lon="13.016470823873751"><ele>463.33333333333337</ele><time>2026-04-09T14:31:49Z</time></trkpt><trkpt lat="42.039178893389504" lon="13.01654479933443"><ele>470.6666666666667</ele><time>2026-04-09T14:31:50Z</time></trkpt><trkpt lat="42.03932049312752" lon="13.016603929258583"><ele>478.0</ele><time>2026-04-09T14:31:51Z</time></trkpt><trkpt lat="42.03946687368536" lon="13.016614742013278"><ele>478.0</ele><time>2026-04-09T14:31:52Z</time></trkpt><trkpt lat="42.03962124597478" lon="13.016577848737167"><ele>478.0</ele><time>2026-04-09T14:31:53Z</time></trkpt><trkpt lat="42.039765379649346" lon="13.016506004969488"><ele>478.0</ele><time>2026-04-09T14:31:54Z</time></trkpt><trkpt lat="42.03992194879688" lon="13.016411917787812"><ele>479.25</ele><time>2026-04-09T14:31:55Z</time></trkpt><trkpt lat="42.040053199788005" lon="13.016321497728727"><ele>480.5</ele><time>2026-04-09T14:31:56Z</time></trkpt><trkpt lat="42.04017703032855" lon="13.01624866278503"><ele>481.75</ele><time>2026-04-09T14:31:57Z</time></trkpt><trkpt lat="42.04030590667705" lon="13.016185907439457"><ele>483.0</ele><time>2026-04-09T14:31:58Z</time></trkpt><trkpt lat="42.04042517534011" lon="13.016176117493389"><ele>483.0</ele><time>2026-04-09T14:31:59Z</time></trkpt><trkpt lat="42.0405498039417" lon="13.016154064083246"><ele>483.0</ele><time>2026-04-09T14:32:00Z</time></trkpt><trkpt lat="42.04068708747194" lon="13.0161261565363"><ele>483.0</ele><time>2026-04-09T14:32:01Z</time></trkpt><trkpt lat="42.040809920254965" lon="13.016093659461594"><ele>483.0</ele><time>2026-04-09T14:32:02Z</time></trkpt><trkpt lat="42.04092416393084" lon="13.016071069372906"><ele>482.4</ele><time>2026-04-09T14:32:03Z</time></trkpt><trkpt lat="42.04102311969877" lon="13.016059035041348"><ele>481.79999999999995</ele><time>2026-04-09T14:32:04Z</time></trkpt><trkpt lat="42.04110310810479" lon="13.016065857545934"><ele>481.2</ele><time>2026-04-09T14:32:05Z</time></trkpt><trkpt lat="42.04117057732591" lon="13.016073261325317"><ele>480.6</ele><time>2026-04-09T14:32:06Z</time></trkpt><trkpt lat="42.04126444907025" lon="13.016057350632433"><ele>480.0</ele><time>2026-04-09T14:32:08Z</time></trkpt><trkpt lat="42.04130677067951" lon="13.01588944241794"><ele>484.5</ele><time>2026-04-09T14:32:10Z</time></trkpt><trkpt lat="42.04125769458011" lon="13.015794376534023"><ele>489.0</ele><time>2026-04-09T14:32:11Z</time></trkpt><trkpt lat="42.04118276955196" lon="13.015731407385696"><ele>493.5</ele><time>2026-04-09T14:32:12Z</time></trkpt><trkpt lat="42.04112381985025" lon="13.015698559151309"><ele>498.0</ele><time>2026-04-09T14:32:13Z</time></trkpt><trkpt lat="42.04104314605079" lon="13.015711868860302"><ele>502.5</ele><time>2026-04-09T14:32:15Z</time></trkpt><trkpt lat="42.04098190777582" lon="13.015754103748806"><ele>507.0</ele><time>2026-04-09T14:34:13Z</time></trkpt><trkpt lat="42.040837907462226" lon="13.015741051151481"><ele>507.6</ele><time>2026-04-09T14:34:15Z</time></trkpt><trkpt lat="42.04073752802446" lon="13.015747354346587"><ele>508.20000000000005</ele><time>2026-04-09T14:34:16Z</time></trkpt><trkpt lat="42.04064916110941" lon="13.015752903235798"><ele>508.8</ele><time>2026-04-09T14:34:17Z</time></trkpt><trkpt lat="42.04055221005396" lon="13.01576087466475"><ele>509.4</ele><time>2026-04-09T14:34:18Z</time></trkpt><trkpt lat="42.040460379218885" lon="13.015768839397401"><ele>510.0</ele><time>2026-04-09T14:34:19Z</time></trkpt><trkpt lat="42.0403570488129" lon="13.015780409635282"><ele>510.0</ele><time>2026-04-09T14:34:20Z</time></trkpt><trkpt lat="42.040274110823695" lon="13.015804421002834"><ele>510.0</ele><time>2026-04-09T14:34:21Z</time></trkpt><trkpt lat="42.040185402286184" lon="13.015861804442116"><ele>510.0</ele><time>2026-04-09T14:34:22Z</time></trkpt><trkpt lat="42.04011037069821" lon="13.015969541033378"><ele>510.0</ele><time>2026-04-09T14:34:23Z</time></trkpt><trkpt lat="42.04002371762586" lon="13.016036366025642"><ele>510.0</ele><time>2026-04-09T14:34:24Z</time></trkpt><trkpt lat="42.03990007628062" lon="13.016038438881788"><ele>503.6</ele><time>2026-04-09T14:34:25Z</time></trkpt><trkpt lat="42.039757170220255" lon="13.01607519645519"><ele>497.2</ele><time>2026-04-09T14:34:26Z</time></trkpt><trkpt lat="42.03963881986588" lon="13.01607710704963"><ele>490.79999999999995</ele><time>2026-04-09T14:34:27Z</time></trkpt><trkpt lat="42.03955360674676" lon="13.01603935451286"><ele>484.4</ele><time>2026-04-09T14:34:28Z</time></trkpt><trkpt lat="42.039482562151164" lon="13.016016131517814"><ele>478.0</ele><time>2026-04-09T14:34:29Z</time></trkpt><trkpt lat="42.0394079841749" lon="13.015931014410679"><ele>475.75</ele><time>2026-04-09T14:34:30Z</time></trkpt><trkpt lat="42.039340534238676" lon="13.015781995625417"><ele>473.5</ele><time>2026-04-09T14:34:31Z</time></trkpt><trkpt lat="42.03925055094089" lon="13.015609847731808"><ele>471.25</ele><time>2026-04-09T14:34:32Z</time></trkpt><trkpt lat="42.03917867407048" lon="13.015448648565018"><ele>469.0</ele><time>2026-04-09T14:34:33Z</time></trkpt><trkpt lat="42.03909961720079" lon="13.015288686308228"><ele>469.0</ele><time>2026-04-09T14:34:34Z</time></trkpt><trkpt lat="42.03902126894449" lon="13.015128746937963"><ele>469.0</ele><time>2026-04-09T14:34:35Z</time></trkpt><trkpt lat="42.038965917883985" lon="13.014994680754304"><ele>469.0</ele><time>2026-04-09T14:34:36Z</time></trkpt><trkpt lat="42.038923086142525" lon="13.014882860151067"><ele>469.0</ele><time>2026-04-09T14:34:37Z</time></trkpt><trkpt lat="42.0389193056079" lon="13.014790015278631"><ele>469.0</ele><time>2026-04-09T14:34:38Z</time></trkpt><trkpt lat="42.03896105768224" lon="13.014718511012367"><ele>472.6666666666667</ele><time>2026-04-09T14:34:39Z</time></trkpt><trkpt lat="42.03902240131174" lon="13.014692472126525"><ele>476.33333333333337</ele><time>2026-04-09T14:34:40Z</time></trkpt><trkpt lat="42.03909228453599" lon="13.01473273219091"><ele>480.0</ele><time>2026-04-09T14:34:41Z</time></trkpt><trkpt lat="42.03914000777192" lon="13.014825603201794"><ele>483.66666666666663</ele><time>2026-04-09T14:34:42Z</time></trkpt><trkpt lat="42.03918777709302" lon="13.01495368682265"><ele>487.3333333333333</ele><time>2026-04-09T14:34:43Z</time></trkpt><trkpt lat="42.03924283143453" lon="13.015072304232081"><ele>491.0</ele><time>2026-04-09T14:34:44Z</time></trkpt><trkpt lat="42.0393010718982" lon="13.015166449811138"><ele>491.20000000000005</ele><time>2026-04-09T14:34:45Z</time></trkpt><trkpt lat="42.039361893636304" lon="13.015263219501383"><ele>491.40000000000003</ele><time>2026-04-09T14:34:46Z</time></trkpt><trkpt lat="42.03942566802803" lon="13.015359381560792"><ele>491.6</ele><time>2026-04-09T14:34:47Z</time></trkpt><trkpt lat="42.03948617289243" lon="13.015441629703693"><ele>491.8</ele><time>2026-04-09T14:34:48Z</time></trkpt><trkpt lat="42.03956284739483" lon="13.015512365692155"><ele>492.0</ele><time>2026-04-09T14:34:49Z</time></trkpt><trkpt lat="42.03965611083481" lon="13.015552541795438"><ele>492.0</ele><time>2026-04-09T14:34:50Z</time></trkpt><trkpt lat="42.03975146041958" lon="13.01556648827832"><ele>492.00000000000006</ele><time>2026-04-09T14:34:51Z</time></trkpt><trkpt lat="42.03984253029563" lon="13.015554571348845"><ele>492.00000000000006</ele><time>2026-04-09T14:34:52Z</time></trkpt><trkpt lat="42.03992844852424" lon="13.015521355400194"><ele>492.0</ele><time>2026-04-09T14:34:53Z</time></trkpt><trkpt lat="42.04002353240847" lon="13.015458101722661"><ele>492.0</ele><time>2026-04-09T14:34:54.001Z</time></trkpt><trkpt lat="42.04013524021953" lon="13.015349291199671"><ele>495.6</ele><time>2026-04-09T14:34:55.001Z</time></trkpt><trkpt lat="42.040232004574335" lon="13.015262510096932"><ele>499.20000000000005</ele><time>2026-04-09T14:34:56.001Z</time></trkpt><trkpt lat="42.04032974069394" lon="13.015200849134857"><ele>502.8</ele><time>2026-04-09T14:34:57.001Z</time></trkpt><trkpt lat="42.04044231700165" lon="13.015163926272049"><ele>506.4</ele><time>2026-04-09T14:34:58.001Z</time></trkpt><trkpt lat="42.04053593309222" lon="13.015107426608397"><ele>510.0</ele><time>2026-04-09T14:34:59.001Z</time></trkpt><trkpt lat="42.04066228973929" lon="13.015068687464462"><ele>510.0</ele><time>2026-04-09T14:35:00.001Z</time></trkpt><trkpt lat="42.0407862566774" lon="13.015031346679987"><ele>510.0</ele><time>2026-04-09T14:35:01.001Z</time></trkpt><trkpt lat="42.04090200848476" lon="13.01496700409652"><ele>510.0</ele><time>2026-04-09T14:35:02.001Z</time></trkpt><trkpt lat="42.04101708207262" lon="13.014854941215189"><ele>510.0</ele><time>2026-04-09T14:35:03.001Z</time></trkpt><trkpt lat="42.041140082516655" lon="13.014689588289214"><ele>515.25</ele><time>2026-04-09T14:35:04.001Z</time></trkpt><trkpt lat="42.04124450898373" lon="13.0145529541253"><ele>520.5</ele><time>2026-04-09T14:35:05.001Z</time></trkpt><trkpt lat="42.041329698417044" lon="13.014443399480356"><ele>525.75</ele><time>2026-04-09T14:35:06.001Z</time></trkpt><trkpt lat="42.04142586241609" lon="13.01437810157639"><ele>531.0</ele><time>2026-04-09T14:35:07.001Z</time></trkpt><trkpt lat="42.0415375956215" lon="13.014334719530666"><ele>528.0</ele><time>2026-04-09T14:35:08.001Z</time></trkpt><trkpt lat="42.041666469306826" lon="13.014301085340518"><ele>525.0</ele><time>2026-04-09T14:35:09.001Z</time></trkpt><trkpt lat="42.04179323320152" lon="13.014273503943862"><ele>522.0</ele><time>2026-04-09T14:35:10.001Z</time></trkpt><trkpt lat="42.04191891680229" lon="13.014233292496755"><ele>519.0</ele><time>2026-04-09T14:35:11.001Z</time></trkpt><trkpt lat="42.04204797391521" lon="13.014218132002156"><ele>519.0</ele><time>2026-04-09T14:35:12.001Z</time></trkpt><trkpt lat="42.04218010512013" lon="13.014246451431577"><ele>519.0</ele><time>2026-04-09T14:35:13.001Z</time></trkpt><trkpt lat="42.042307744133616" lon="13.014305624700715"><ele>519.0</ele><time>2026-04-09T14:35:14.001Z</time></trkpt><trkpt lat="42.042440025395024" lon="13.014358741951034"><ele>519.0</ele><time>2026-04-09T14:35:15.001Z</time></trkpt><trkpt lat="42.04257352049884" lon="13.014383069833421"><ele>519.25</ele><time>2026-04-09T14:35:16.001Z</time></trkpt><trkpt lat="42.04270612486723" lon="13.014378245351207"><ele>519.5</ele><time>2026-04-09T14:35:17.001Z</time></trkpt><trkpt lat="42.0428487776108" lon="13.014330708916027"><ele>519.75</ele><time>2026-04-09T14:35:18.001Z</time></trkpt><trkpt lat="42.042982284687994" lon="13.014290242714676"><ele>520.0</ele><time>2026-04-09T14:35:19.001Z</time></trkpt><trkpt lat="42.04310569578906" lon="13.01426433495465"><ele>520.0</ele><time>2026-04-09T14:35:20.001Z</time></trkpt><trkpt lat="42.04322692508064" lon="13.014313027227386"><ele>520.0</ele><time>2026-04-09T14:35:21.001Z</time></trkpt><trkpt lat="42.043364470544944" lon="13.014347557117668"><ele>520.0</ele><time>2026-04-09T14:35:22.001Z</time></trkpt><trkpt lat="42.04347744742043" lon="13.014364657783878"><ele>520.0</ele><time>2026-04-09T14:35:23.001Z</time></trkpt><trkpt lat="42.04359809309273" lon="13.014406956590806"><ele>521.25</ele><time>2026-04-09T14:35:24.001Z</time></trkpt><trkpt lat="42.0437116359355" lon="13.014518138901467"><ele>522.5</ele><time>2026-04-09T14:35:25.001Z</time></trkpt><trkpt lat="42.043828598284215" lon="13.014622269905578"><ele>523.75</ele><time>2026-04-09T14:35:26.001Z</time></trkpt><trkpt lat="42.04394127130722" lon="13.01470803728426"><ele>525.0</ele><time>2026-04-09T14:35:27.001Z</time></trkpt><trkpt lat="42.04404823020596" lon="13.0148031326003"><ele>526.0</ele><time>2026-04-09T14:35:28.001Z</time></trkpt><trkpt lat="42.04418400058871" lon="13.014849277954319"><ele>527.0</ele><time>2026-04-09T14:35:29.001Z</time></trkpt><trkpt lat="42.0443297903166" lon="13.014835215475909"><ele>528.0</ele><time>2026-04-09T14:35:30.001Z</time></trkpt><trkpt lat="42.04446985506582" lon="13.014794205972802"><ele>529.0</ele><time>2026-04-09T14:35:31.001Z</time></trkpt><trkpt lat="42.04462958221965" lon="13.01477358919165"><ele>529.0</ele><time>2026-04-09T14:35:32.001Z</time></trkpt><trkpt lat="42.04476204922319" lon="13.014763959557854"><ele>529.0</ele><time>2026-04-09T14:35:33.001Z</time></trkpt><trkpt lat="42.044884929546136" lon="13.014773088095328"><ele>529.0</ele><time>2026-04-09T14:35:34.001Z</time></trkpt><trkpt lat="42.045000805863" lon="13.014833794692715"><ele>529.0</ele><time>2026-04-09T14:35:35.001Z</time></trkpt><trkpt lat="42.0451083097919" lon="13.014925907297927"><ele>528.75</ele><time>2026-04-09T14:35:36.001Z</time></trkpt><trkpt lat="42.04521628304258" lon="13.015028552485541"><ele>528.5</ele><time>2026-04-09T14:35:37.001Z</time></trkpt><trkpt lat="42.04532127661427" lon="13.015110066338723"><ele>528.25</ele><time>2026-04-09T14:35:38.001Z</time></trkpt><trkpt lat="42.04546027700657" lon="13.015101320260374"><ele>528.0</ele><time>2026-04-09T14:35:39.001Z</time></trkpt><trkpt lat="42.045598712959084" lon="13.015109132766174"><ele>528.0</ele><time>2026-04-09T14:35:40.001Z</time></trkpt><trkpt lat="42.04570771634981" lon="13.015105306669668"><ele>528.0</ele><time>2026-04-09T14:35:41.001Z</time></trkpt><trkpt lat="42.04579492805365" lon="13.015097604377809"><ele>528.0</ele><time>2026-04-09T14:35:42.001Z</time></trkpt><trkpt lat="42.0458731734371" lon="13.015036146534788"><ele>528.0</ele><time>2026-04-09T14:35:43.001Z</time></trkpt><trkpt lat="42.04592691246697" lon="13.0149244338061"><ele>528.0</ele><time>2026-04-09T14:35:44.001Z</time></trkpt><trkpt lat="42.045951127232335" lon="13.014762739022961"><ele>531.0</ele><time>2026-04-09T14:35:45.001Z</time></trkpt><trkpt lat="42.04596859830174" lon="13.0145770969044"><ele>534.0</ele><time>2026-04-09T14:35:46Z</time></trkpt><trkpt lat="42.045999375570446" lon="13.01441401445887"><ele>537.0</ele><time>2026-04-09T14:35:47Z</time></trkpt><trkpt lat="42.0460307794803" lon="13.014278936229708"><ele>540.0</ele><time>2026-04-09T14:35:48Z</time></trkpt><trkpt lat="42.04608986524134" lon="13.014140992957365"><ele>542.25</ele><time>2026-04-09T14:35:49Z</time></trkpt><trkpt lat="42.046161183813815" lon="13.013973786423827"><ele>544.5</ele><time>2026-04-09T14:35:50Z</time></trkpt><trkpt lat="42.04622097323265" lon="13.013850863151884"><ele>546.75</ele><time>2026-04-09T14:35:51Z</time></trkpt><trkpt lat="42.046276027665314" lon="13.013738263280677"><ele>549.0</ele><time>2026-04-09T14:35:52Z</time></trkpt><trkpt lat="42.046349409855424" lon="13.01364422713377"><ele>549.0</ele><time>2026-04-09T14:35:53Z</time></trkpt><trkpt lat="42.04640190281177" lon="13.013548973881809"><ele>549.0</ele><time>2026-04-09T14:35:54Z</time></trkpt><trkpt lat="42.04650073894288" lon="13.013555348265607"><ele>549.0</ele><time>2026-04-09T14:35:55Z</time></trkpt><trkpt lat="42.04658437016113" lon="13.013536202429671"><ele>549.0</ele><time>2026-04-09T14:35:56Z</time></trkpt><trkpt lat="42.046664841260146" lon="13.013613397123232"><ele>549.0</ele><time>2026-04-09T14:35:57Z</time></trkpt><trkpt lat="42.04674334887647" lon="13.01369877049679"><ele>549.0</ele><time>2026-04-09T14:35:58Z</time></trkpt><trkpt lat="42.046826928561075" lon="13.013792049072634"><ele>549.0</ele><time>2026-04-09T14:35:59Z</time></trkpt><trkpt lat="42.04688058541118" lon="13.0139406243067"><ele>549.0</ele><time>2026-04-09T14:36:00Z</time></trkpt><trkpt lat="42.04695085577226" lon="13.014079010026807"><ele>549.0</ele><time>2026-04-09T14:36:01Z</time></trkpt><trkpt lat="42.04701834067198" lon="13.01418363650665"><ele>548.4</ele><time>2026-04-09T14:36:02Z</time></trkpt><trkpt lat="42.047078036961786" lon="13.014308283703409"><ele>547.8</ele><time>2026-04-09T14:36:03Z</time></trkpt><trkpt lat="42.04714727529655" lon="13.014427208242331"><ele>547.2</ele><time>2026-04-09T14:36:04Z</time></trkpt><trkpt lat="42.04721674238907" lon="13.014507122860067"><ele>546.6</ele><time>2026-04-09T14:36:05Z</time></trkpt><trkpt lat="42.0472846820475" lon="13.014523537264939"><ele>546.0</ele><time>2026-04-09T14:36:06Z</time></trkpt><trkpt lat="42.04736878445609" lon="13.014484536570485"><ele>546.0</ele><time>2026-04-09T14:36:07Z</time></trkpt><trkpt lat="42.04745132147999" lon="13.014389826671051"><ele>546.0</ele><time>2026-04-09T14:36:08Z</time></trkpt><trkpt lat="42.047534173292036" lon="13.014252510517919"><ele>546.0</ele><time>2026-04-09T14:36:09Z</time></trkpt><trkpt lat="42.04764062130298" lon="13.01406221751815"><ele>546.0</ele><time>2026-04-09T14:36:10Z</time></trkpt><trkpt lat="42.0477925665237" lon="13.01387207140111"><ele>549.3333333333334</ele><time>2026-04-09T14:36:11Z</time></trkpt><trkpt lat="42.04793150327513" lon="13.013680853529253"><ele>552.6666666666667</ele><time>2026-04-09T14:36:12Z</time></trkpt><trkpt lat="42.048080547581264" lon="13.013510901344315"><ele>556.0</ele><time>2026-04-09T14:36:13Z</time></trkpt><trkpt lat="42.04821285845717" lon="13.013417800265332"><ele>557.3333333333334</ele><time>2026-04-09T14:36:14Z</time></trkpt><trkpt lat="42.04835827097909" lon="13.013366694551088"><ele>558.6666666666666</ele><time>2026-04-09T14:36:15Z</time></trkpt><trkpt lat="42.04851846134904" lon="13.013307333924118"><ele>560.0</ele><time>2026-04-09T14:36:16Z</time></trkpt><trkpt lat="42.04867159537499" lon="13.013233518573632"><ele>566.0</ele><time>2026-04-09T14:36:17Z</time></trkpt><trkpt lat="42.04879726863421" lon="13.013181914272824"><ele>572.0</ele><time>2026-04-09T14:36:18Z</time></trkpt><trkpt lat="42.048901373524096" lon="13.01313922963688"><ele>578.0</ele><time>2026-04-09T14:36:19Z</time></trkpt><trkpt lat="42.04899835177289" lon="13.013078783923147"><ele>584.0</ele><time>2026-04-09T14:36:20Z</time></trkpt><trkpt lat="42.049093164753614" lon="13.01299274348537"><ele>583.25</ele><time>2026-04-09T14:36:21Z</time></trkpt><trkpt lat="42.049189604662786" lon="13.012902106857826"><ele>582.5</ele><time>2026-04-09T14:36:22Z</time></trkpt><trkpt lat="42.04928508107651" lon="13.01282241002494"><ele>581.75</ele><time>2026-04-09T14:36:23Z</time></trkpt><trkpt lat="42.04938874871928" lon="13.012739819239188"><ele>581.0</ele><time>2026-04-09T14:36:24Z</time></trkpt><trkpt lat="42.04950386361166" lon="13.012664276927358"><ele>581.0</ele><time>2026-04-09T14:36:25Z</time></trkpt><trkpt lat="42.04963357065093" lon="13.012609636835148"><ele>581.0</ele><time>2026-04-09T14:36:26Z</time></trkpt><trkpt lat="42.049763649697425" lon="13.012567179446684"><ele>581.0</ele><time>2026-04-09T14:36:27Z</time></trkpt><trkpt lat="42.04990483899644" lon="13.012591055005936"><ele>581.0</ele><time>2026-04-09T14:36:28Z</time></trkpt><trkpt lat="42.050037929822295" lon="13.012616116880968"><ele>580.75</ele><time>2026-04-09T14:36:29Z</time></trkpt><trkpt lat="42.05017357688064" lon="13.012615710305845"><ele>580.5</ele><time>2026-04-09T14:36:30Z</time></trkpt><trkpt lat="42.050308635605816" lon="13.012638047729855"><ele>580.25</ele><time>2026-04-09T14:36:31Z</time></trkpt><trkpt lat="42.05044395964108" lon="13.012678823736561"><ele>580.0</ele><time>2026-04-09T14:36:32Z</time></trkpt><trkpt lat="42.0505582198508" lon="13.012775788174459"><ele>580.0</ele><time>2026-04-09T14:36:33Z</time></trkpt><trkpt lat="42.05068294911337" lon="13.012838043173211"><ele>580.0</ele><time>2026-04-09T14:36:34Z</time></trkpt><trkpt lat="42.05082594103195" lon="13.012875497578626"><ele>580.0</ele><time>2026-04-09T14:36:35Z</time></trkpt><trkpt lat="42.050964623515895" lon="13.012920042281195"><ele>580.0</ele><time>2026-04-09T14:36:36Z</time></trkpt><trkpt lat="42.051085670383884" lon="13.013011862319527"><ele>581.5</ele><time>2026-04-09T14:36:37Z</time></trkpt><trkpt lat="42.051208276106635" lon="13.013110163156703"><ele>583.0</ele><time>2026-04-09T14:36:38Z</time></trkpt><trkpt lat="42.05135129942305" lon="13.013203612531385"><ele>584.5</ele><time>2026-04-09T14:36:39Z</time></trkpt><trkpt lat="42.05147337201969" lon="13.013308422169723"><ele>586.0</ele><time>2026-04-09T14:36:40Z</time></trkpt><trkpt lat="42.051549369804775" lon="13.013454984744348"><ele>583.0</ele><time>2026-04-09T14:36:41Z</time></trkpt><trkpt lat="42.051633760340515" lon="13.013602748255888"><ele>580.0</ele><time>2026-04-09T14:36:42Z</time></trkpt><trkpt lat="42.05174603382091" lon="13.013740436316287"><ele>577.0</ele><time>2026-04-09T14:36:43Z</time></trkpt><trkpt lat="42.051869394637194" lon="13.013891043880063"><ele>577.0</ele><time>2026-04-09T14:36:44Z</time></trkpt><trkpt lat="42.05202531792131" lon="13.01403498449657"><ele>577.0</ele><time>2026-04-09T14:36:45Z</time></trkpt><trkpt lat="42.05220529702926" lon="13.014137931205038"><ele>577.0</ele><time>2026-04-09T14:36:46Z</time></trkpt><trkpt lat="42.0523925547346" lon="13.014238985015707"><ele>571.5</ele><time>2026-04-09T14:36:47Z</time></trkpt><trkpt lat="42.05262129285602" lon="13.014359293055342"><ele>566.0</ele><time>2026-04-09T14:36:48Z</time></trkpt><trkpt lat="42.052843994794515" lon="13.014477836173514"><ele>566.0</ele><time>2026-04-09T14:36:49Z</time></trkpt><trkpt lat="42.05309350150108" lon="13.014588875115999"><ele>566.0</ele><time>2026-04-09T14:36:50Z</time></trkpt><trkpt lat="42.05334389003952" lon="13.014741193996569"><ele>565.5</ele><time>2026-04-09T14:36:51Z</time></trkpt><trkpt lat="42.05359979814351" lon="13.014892443739933"><ele>565.0</ele><time>2026-04-09T14:36:52.001Z</time></trkpt><trkpt lat="42.05382909925348" lon="13.014999927495646"><ele>565.0</ele><time>2026-04-09T14:36:53.001Z</time></trkpt><trkpt lat="42.05404103389918" lon="13.015115202362528"><ele>565.0</ele><time>2026-04-09T14:36:54.001Z</time></trkpt><trkpt lat="42.05423916692335" lon="13.015225195759502"><ele>565.0</ele><time>2026-04-09T14:36:55.001Z</time></trkpt><trkpt lat="42.05444911022436" lon="13.015332800609007"><ele>568.0</ele><time>2026-04-09T14:36:56.001Z</time></trkpt><trkpt lat="42.05467013700391" lon="13.015424649276833"><ele>571.0</ele><time>2026-04-09T14:36:57.001Z</time></trkpt><trkpt lat="42.05489953681958" lon="13.015495191499474"><ele>570.5</ele><time>2026-04-09T14:36:58.001Z</time></trkpt><trkpt lat="42.05513954231418" lon="13.015543059117913"><ele>570.0</ele><time>2026-04-09T14:36:59.001Z</time></trkpt><trkpt lat="42.055383435882575" lon="13.01557219202003"><ele>570.0</ele><time>2026-04-09T14:37:00.001Z</time></trkpt><trkpt lat="42.05562776431197" lon="13.015573439899876"><ele>570.0</ele><time>2026-04-09T14:37:01.001Z</time></trkpt><trkpt lat="42.05588055793523" lon="13.015560154963985"><ele>570.5</ele><time>2026-04-09T14:37:02.001Z</time></trkpt><trkpt lat="42.056126330343275" lon="13.015532823456779"><ele>571.0</ele><time>2026-04-09T14:37:03.001Z</time></trkpt><trkpt lat="42.05637809793149" lon="13.015501491433188"><ele>573.0</ele><time>2026-04-09T14:37:04.001Z</time></trkpt><trkpt lat="42.05662302245655" lon="13.015479853839672"><ele>575.0</ele><time>2026-04-09T14:37:05.001Z</time></trkpt><trkpt lat="42.05687602037718" lon="13.015452011204507"><ele>575.0</ele><time>2026-04-09T14:37:06.001Z</time></trkpt><trkpt lat="42.05713125322683" lon="13.01542309717082"><ele>575.0</ele><time>2026-04-09T14:37:07.001Z</time></trkpt><trkpt lat="42.05739938903927" lon="13.015395373156371"><ele>578.5</ele><time>2026-04-09T14:37:08.001Z</time></trkpt><trkpt lat="42.05766418533109" lon="13.015377195080994"><ele>582.0</ele><time>2026-04-09T14:37:09.001Z</time></trkpt><trkpt lat="42.057921645931174" lon="13.015354180022193"><ele>582.0</ele><time>2026-04-09T14:37:10.001Z</time></trkpt><trkpt lat="42.05816549309074" lon="13.015328003625001"><ele>582.0</ele><time>2026-04-09T14:37:11.001Z</time></trkpt><trkpt lat="42.05839151969004" lon="13.015302178982216"><ele>585.6666666666666</ele><time>2026-04-09T14:37:12.001Z</time></trkpt><trkpt lat="42.05859323735698" lon="13.015284447420655"><ele>589.3333333333333</ele><time>2026-04-09T14:37:13.001Z</time></trkpt><trkpt lat="42.05879265149445" lon="13.015268420909111"><ele>593.0</ele><time>2026-04-09T14:37:14.001Z</time></trkpt><trkpt lat="42.05898079680984" lon="13.015286189202225"><ele>594.0</ele><time>2026-04-09T14:37:15.001Z</time></trkpt><trkpt lat="42.0591756709187" lon="13.015360122358095"><ele>595.0</ele><time>2026-04-09T14:37:16.001Z</time></trkpt><trkpt lat="42.059343120910846" lon="13.01546698486297"><ele>596.0</ele><time>2026-04-09T14:37:17.001Z</time></trkpt><trkpt lat="42.05948894891254" lon="13.015596674681092"><ele>596.0</ele><time>2026-04-09T14:37:18.001Z</time></trkpt><trkpt lat="42.0596162538371" lon="13.015771177645885"><ele>596.0</ele><time>2026-04-09T14:37:19.001Z</time></trkpt><trkpt lat="42.05971833592748" lon="13.015977008131463"><ele>596.0</ele><time>2026-04-09T14:37:20.001Z</time></trkpt><trkpt lat="42.059807588364926" lon="13.016202104297523"><ele>600.0</ele><time>2026-04-09T14:37:21.001Z</time></trkpt><trkpt lat="42.059876264397005" lon="13.016448226029464"><ele>604.0</ele><time>2026-04-09T14:37:22.001Z</time></trkpt><trkpt lat="42.05989274862311" lon="13.016692904131139"><ele>608.0</ele><time>2026-04-09T14:37:23.001Z</time></trkpt><trkpt lat="42.05989189002501" lon="13.016942916617412"><ele>613.0</ele><time>2026-04-09T14:37:24.001Z</time></trkpt><trkpt lat="42.05988732260422" lon="13.017185381710958"><ele>618.0</ele><time>2026-04-09T14:37:25.001Z</time></trkpt><trkpt lat="42.059855572278764" lon="13.017409510611806"><ele>623.0</ele><time>2026-04-09T14:37:26.001Z</time></trkpt><trkpt lat="42.05983058666125" lon="13.017628181547071"><ele>623.0</ele><time>2026-04-09T14:37:27.001Z</time></trkpt><trkpt lat="42.05980728994189" lon="13.017869970316898"><ele>623.0</ele><time>2026-04-09T14:37:28.001Z</time></trkpt><trkpt lat="42.05978692333649" lon="13.01808985707785"><ele>623.0</ele><time>2026-04-09T14:37:29.001Z</time></trkpt><trkpt lat="42.05976970218783" lon="13.018290654111357"><ele>618.6666666666666</ele><time>2026-04-09T14:37:30.001Z</time></trkpt><trkpt lat="42.05975284984005" lon="13.01849139942722"><ele>614.3333333333334</ele><time>2026-04-09T14:37:31.001Z</time></trkpt><trkpt lat="42.05973368516343" lon="13.018719161394504"><ele>610.0</ele><time>2026-04-09T14:37:32.001Z</time></trkpt><trkpt lat="42.0597140528059" lon="13.018976754287365"><ele>609.3333333333334</ele><time>2026-04-09T14:37:33.001Z</time></trkpt><trkpt lat="42.059669692206775" lon="13.019242524888535"><ele>608.6666666666666</ele><time>2026-04-09T14:37:34.001Z</time></trkpt><trkpt lat="42.05964493041158" lon="13.019465517891097"><ele>608.0</ele><time>2026-04-09T14:37:35.001Z</time></trkpt><trkpt lat="42.059620975761476" lon="13.019691993914739"><ele>608.0</ele><time>2026-04-09T14:37:36.001Z</time></trkpt><trkpt lat="42.059597381293834" lon="13.019926148629569"><ele>608.0</ele><time>2026-04-09T14:37:37.001Z</time></trkpt><trkpt lat="42.05957467573091" lon="13.02019606190358"><ele>608.0</ele><time>2026-04-09T14:37:38.001Z</time></trkpt><trkpt lat="42.059556484510004" lon="13.020461121199165"><ele>607.3333333333333</ele><time>2026-04-09T14:37:39.001Z</time></trkpt><trkpt lat="42.05955529164915" lon="13.020696922666072"><ele>606.6666666666666</ele><time>2026-04-09T14:37:40.001Z</time></trkpt><trkpt lat="42.05955691369887" lon="13.020904637428712"><ele>606.0</ele><time>2026-04-09T14:37:41.001Z</time></trkpt><trkpt lat="42.059560174499026" lon="13.021106254034725"><ele>606.0</ele><time>2026-04-09T14:37:42.001Z</time></trkpt><trkpt lat="42.05956480633837" lon="13.021338283736286"><ele>606.0</ele><time>2026-04-09T14:37:43.001Z</time></trkpt><trkpt lat="42.05957170775193" lon="13.021619720612982"><ele>606.0</ele><time>2026-04-09T14:37:44.001Z</time></trkpt><trkpt lat="42.05958132346299" lon="13.021924976700136"><ele>605.6666666666666</ele><time>2026-04-09T14:37:45.001Z</time></trkpt><trkpt lat="42.05960455005507" lon="13.022209434807491"><ele>605.3333333333333</ele><time>2026-04-09T14:37:46.001Z</time></trkpt><trkpt lat="42.059596796527366" lon="13.022455039155767"><ele>605.0</ele><time>2026-04-09T14:37:47.001Z</time></trkpt><trkpt lat="42.059621175684335" lon="13.022691696419898"><ele>606.0</ele><time>2026-04-09T14:37:48.001Z</time></trkpt><trkpt lat="42.05963504617708" lon="13.022924687472067"><ele>607.0</ele><time>2026-04-09T14:37:49.001Z</time></trkpt><trkpt lat="42.059671680125696" lon="13.023163442320076"><ele>608.0</ele><time>2026-04-09T14:37:50.001Z</time></trkpt><trkpt lat="42.059720620861434" lon="13.023359982007173"><ele>610.3333333333333</ele><time>2026-04-09T14:37:51.001Z</time></trkpt><trkpt lat="42.0597655202456" lon="13.023542266613282"><ele>612.6666666666666</ele><time>2026-04-09T14:37:52Z</time></trkpt><trkpt lat="42.05979821492002" lon="13.02376032466384"><ele>615.0</ele><time>2026-04-09T14:37:53Z</time></trkpt><trkpt lat="42.05986068554287" lon="13.024035415593472"><ele>615.5</ele><time>2026-04-09T14:37:54Z</time></trkpt><trkpt lat="42.059931740649546" lon="13.024346908374824"><ele>616.0</ele><time>2026-04-09T14:37:55Z</time></trkpt><trkpt lat="42.06000577066623" lon="13.024671442737754"><ele>614.5</ele><time>2026-04-09T14:37:56Z</time></trkpt><trkpt lat="42.06008702752532" lon="13.024986278760776"><ele>613.0</ele><time>2026-04-09T14:37:57Z</time></trkpt><trkpt lat="42.06014984963912" lon="13.025299060565771"><ele>613.0</ele><time>2026-04-09T14:37:58Z</time></trkpt><trkpt lat="42.06022148418722" lon="13.025611348448203"><ele>613.0</ele><time>2026-04-09T14:37:59Z</time></trkpt><trkpt lat="42.06029484690632" lon="13.025927209922173"><ele>613.5</ele><time>2026-04-09T14:38:00Z</time></trkpt><trkpt lat="42.06036432003255" lon="13.02624992503527"><ele>614.0</ele><time>2026-04-09T14:38:01Z</time></trkpt><trkpt lat="42.0604359977703" lon="13.026574398619298"><ele>617.5</ele><time>2026-04-09T14:38:02Z</time></trkpt><trkpt lat="42.06052288064995" lon="13.026928866237476"><ele>621.0</ele><time>2026-04-09T14:38:03Z</time></trkpt><trkpt lat="42.06060411795317" lon="13.027268647068162"><ele>626.0</ele><time>2026-04-09T14:38:04Z</time></trkpt><trkpt lat="42.06067480656257" lon="13.027589359165974"><ele>631.0</ele><time>2026-04-09T14:38:05Z</time></trkpt><trkpt lat="42.06074446664962" lon="13.027911374243432"><ele>621.5</ele><time>2026-04-09T14:38:06Z</time></trkpt><trkpt lat="42.060814794075434" lon="13.028224898522943"><ele>612.0</ele><time>2026-04-09T14:38:07Z</time></trkpt><trkpt lat="42.06088137447725" lon="13.028524293167012"><ele>612.0</ele><time>2026-04-09T14:38:08Z</time></trkpt><trkpt lat="42.06093593245178" lon="13.028849539596937"><ele>612.0</ele><time>2026-04-09T14:38:09Z</time></trkpt><trkpt lat="42.060946273808426" lon="13.029181131890002"><ele>614.0</ele><time>2026-04-09T14:38:10Z</time></trkpt><trkpt lat="42.0609566089365" lon="13.029507181421382"><ele>616.0</ele><time>2026-04-09T14:38:11Z</time></trkpt><trkpt lat="42.06093000787877" lon="13.029833459013881"><ele>615.5</ele><time>2026-04-09T14:38:12Z</time></trkpt><trkpt lat="42.060893470239016" lon="13.030162261934288"><ele>615.0</ele><time>2026-04-09T14:38:13Z</time></trkpt><trkpt lat="42.060863313883296" lon="13.030516430722903"><ele>613.0</ele><time>2026-04-09T14:38:14Z</time></trkpt><trkpt lat="42.06082863776564" lon="13.030874331997895"><ele>611.0</ele><time>2026-04-09T14:38:15Z</time></trkpt><trkpt lat="42.06080055197403" lon="13.03119789476177"><ele>620.5</ele><time>2026-04-09T14:38:16Z</time></trkpt><trkpt lat="42.06077728266381" lon="13.031506858218352"><ele>630.0</ele><time>2026-04-09T14:38:17Z</time></trkpt><trkpt lat="42.060752574084226" lon="13.031805008864714"><ele>630.0</ele><time>2026-04-09T14:38:18Z</time></trkpt><trkpt lat="42.06072756891435" lon="13.032098650157547"><ele>630.0</ele><time>2026-04-09T14:38:19Z</time></trkpt><trkpt lat="42.06070758811663" lon="13.032379672869281"><ele>630.0</ele><time>2026-04-09T14:38:20Z</time></trkpt><trkpt lat="42.06071021226581" lon="13.032675377137995"><ele>628.0</ele><time>2026-04-09T14:38:21Z</time></trkpt><trkpt lat="42.06073835600008" lon="13.032981772239957"><ele>626.0</ele><time>2026-04-09T14:38:22Z</time></trkpt><trkpt lat="42.06078324994944" lon="13.033303374397528"><ele>619.5</ele><time>2026-04-09T14:38:23Z</time></trkpt><trkpt lat="42.06083489050528" lon="13.03362476408467"><ele>613.0</ele><time>2026-04-09T14:38:24Z</time></trkpt><trkpt lat="42.06089457554769" lon="13.033945455713605"><ele>612.5</ele><time>2026-04-09T14:38:25Z</time></trkpt><trkpt lat="42.06096571945261" lon="13.034286826896322"><ele>612.0</ele><time>2026-04-09T14:38:26Z</time></trkpt><trkpt lat="42.06103298217686" lon="13.0346163645894"><ele>612.0</ele><time>2026-04-09T14:38:27Z</time></trkpt><trkpt lat="42.06109265105033" lon="13.034935260025959"><ele>612.0</ele><time>2026-04-09T14:38:28Z</time></trkpt><trkpt lat="42.06114982536266" lon="13.035265037323665"><ele>611.0</ele><time>2026-04-09T14:38:29Z</time></trkpt><trkpt lat="42.061204346691554" lon="13.035598570355608"><ele>610.0</ele><time>2026-04-09T14:38:30Z</time></trkpt><trkpt lat="42.061249741937225" lon="13.035932623874373"><ele>610.0</ele><time>2026-04-09T14:38:31Z</time></trkpt><trkpt lat="42.061269944896885" lon="13.036277224658166"><ele>610.0</ele><time>2026-04-09T14:38:32Z</time></trkpt><trkpt lat="42.06127677372851" lon="13.036627645900005"><ele>610.0</ele><time>2026-04-09T14:38:33Z</time></trkpt><trkpt lat="42.06128544113403" lon="13.036981913466358"><ele>610.0</ele><time>2026-04-09T14:38:34Z</time></trkpt><trkpt lat="42.06129464405102" lon="13.037331853838905"><ele>610.5</ele><time>2026-04-09T14:38:35Z</time></trkpt><trkpt lat="42.06130822996132" lon="13.037693220305341"><ele>611.0</ele><time>2026-04-09T14:38:36Z</time></trkpt><trkpt lat="42.06132628653815" lon="13.038033390447767"><ele>611.5</ele><time>2026-04-09T14:38:37Z</time></trkpt><trkpt lat="42.06134446889315" lon="13.038347253609373"><ele>612.0</ele><time>2026-04-09T14:38:38Z</time></trkpt><trkpt lat="42.061366958656784" lon="13.038665990968017"><ele>612.0</ele><time>2026-04-09T14:38:39Z</time></trkpt><trkpt lat="42.061413968951236" lon="13.03897876328461"><ele>612.0</ele><time>2026-04-09T14:38:40Z</time></trkpt><trkpt lat="42.06149071888632" lon="13.039290260817817"><ele>613.0</ele><time>2026-04-09T14:38:41Z</time></trkpt><trkpt lat="42.06158253700518" lon="13.03959486981886"><ele>614.0</ele><time>2026-04-09T14:38:42Z</time></trkpt><trkpt lat="42.06168232642779" lon="13.039869460790289"><ele>617.0</ele><time>2026-04-09T14:38:43Z</time></trkpt><trkpt lat="42.06179556131708" lon="13.04012526129052"><ele>620.0</ele><time>2026-04-09T14:38:44Z</time></trkpt><trkpt lat="42.06188397769973" lon="13.040391742933597"><ele>623.0</ele><time>2026-04-09T14:38:45Z</time></trkpt><trkpt lat="42.061984443602704" lon="13.04064631903927"><ele>623.0</ele><time>2026-04-09T14:38:46Z</time></trkpt><trkpt lat="42.06218156835287" lon="13.040796660826128"><ele>623.0</ele><time>2026-04-09T14:38:47Z</time></trkpt><trkpt lat="42.06231191876476" lon="13.040976900517958"><ele>623.0</ele><time>2026-04-09T14:38:48Z</time></trkpt><trkpt lat="42.062461886225556" lon="13.041148309765576"><ele>624.0</ele><time>2026-04-09T14:38:49Z</time></trkpt><trkpt lat="42.062628325412824" lon="13.04129261145734"><ele>625.0</ele><time>2026-04-09T14:38:50Z</time></trkpt><trkpt lat="42.06281067179317" lon="13.041448726740315"><ele>626.0</ele><time>2026-04-09T14:38:51Z</time></trkpt><trkpt lat="42.06297704472895" lon="13.041589513275186"><ele>626.0</ele><time>2026-04-09T14:38:52Z</time></trkpt><trkpt lat="42.06312520057945" lon="13.041723336368932"><ele>626.0</ele><time>2026-04-09T14:38:53Z</time></trkpt><trkpt lat="42.06326964923898" lon="13.04185691302983"><ele>626.0</ele><time>2026-04-09T14:38:54.001Z</time></trkpt><trkpt lat="42.06340994081742" lon="13.041979416849921"><ele>626.0</ele><time>2026-04-09T14:38:55.001Z</time></trkpt><trkpt lat="42.06354358563573" lon="13.042097316570091"><ele>626.0</ele><time>2026-04-09T14:38:56.001Z</time></trkpt><trkpt lat="42.063667700176644" lon="13.042209984100635"><ele>626.0</ele><time>2026-04-09T14:38:57.001Z</time></trkpt><trkpt lat="42.063782901713545" lon="13.04231558787894"><ele>626.0</ele><time>2026-04-09T14:38:58.001Z</time></trkpt><trkpt lat="42.063892608039815" lon="13.042415828596784"><ele>625.5</ele><time>2026-04-09T14:38:59.001Z</time></trkpt><trkpt lat="42.06399839103302" lon="13.042510629850433"><ele>625.0</ele><time>2026-04-09T14:39:00.001Z</time></trkpt><trkpt lat="42.06409771056111" lon="13.04260640494763"><ele>624.5</ele><time>2026-04-09T14:39:01.001Z</time></trkpt><trkpt lat="42.064201688502" lon="13.042705226065731"><ele>624.0</ele><time>2026-04-09T14:39:02.001Z</time></trkpt><trkpt lat="42.06428781719562" lon="13.042818702025327"><ele>623.75</ele><time>2026-04-09T14:39:03.001Z</time></trkpt><trkpt lat="42.06433950537742" lon="13.042960494385094"><ele>623.5</ele><time>2026-04-09T14:39:04.001Z</time></trkpt><trkpt lat="42.064369089941955" lon="13.043104567479363"><ele>623.25</ele><time>2026-04-09T14:39:05.001Z</time></trkpt><trkpt lat="42.06442740643241" lon="13.043227077283985"><ele>623.0</ele><time>2026-04-09T14:39:06.001Z</time></trkpt><trkpt lat="42.06454682396107" lon="13.043298096505808"><ele>622.5</ele><time>2026-04-09T14:39:07.001Z</time></trkpt><trkpt lat="42.06466038999558" lon="13.043361232127689"><ele>622.0</ele><time>2026-04-09T14:39:08.001Z</time></trkpt><trkpt lat="42.06476765422231" lon="13.043487073919"><ele>621.5</ele><time>2026-04-09T14:39:09.001Z</time></trkpt><trkpt lat="42.06484492019452" lon="13.043648894425939"><ele>621.0</ele><time>2026-04-09T14:39:10.001Z</time></trkpt><trkpt lat="42.06492683431298" lon="13.043845010995163"><ele>621.3333333333334</ele><time>2026-04-09T14:39:11.001Z</time></trkpt><trkpt lat="42.06502562583508" lon="13.044047224819224"><ele>621.6666666666667</ele><time>2026-04-09T14:39:12.001Z</time></trkpt><trkpt lat="42.065119321032554" lon="13.044285746632085"><ele>622.0</ele><time>2026-04-09T14:39:13.001Z</time></trkpt><trkpt lat="42.065208606221184" lon="13.044489669858168"><ele>622.0</ele><time>2026-04-09T14:39:14.001Z</time></trkpt><trkpt lat="42.065288021938954" lon="13.044676330425206"><ele>622.0</ele><time>2026-04-09T14:39:15.001Z</time></trkpt><trkpt lat="42.065382275974194" lon="13.044858390255948"><ele>622.0</ele><time>2026-04-09T14:39:16.001Z</time></trkpt><trkpt lat="42.06550405419032" lon="13.0450215796067"><ele>621.0</ele><time>2026-04-09T14:39:17.001Z</time></trkpt><trkpt lat="42.065647620621526" lon="13.04516539947501"><ele>620.0</ele><time>2026-04-09T14:39:18.001Z</time></trkpt><trkpt lat="42.06581616210373" lon="13.045292416140098"><ele>619.0</ele><time>2026-04-09T14:39:19.001Z</time></trkpt><trkpt lat="42.06602144754783" lon="13.045426827448708"><ele>619.0</ele><time>2026-04-09T14:39:20.001Z</time></trkpt><trkpt lat="42.06621822982326" lon="13.045551098930334"><ele>619.0</ele><time>2026-04-09T14:39:21.001Z</time></trkpt><trkpt lat="42.066405125031885" lon="13.04566330079968"><ele>619.0</ele><time>2026-04-09T14:39:22.001Z</time></trkpt><trkpt lat="42.06659368437144" lon="13.045777445606914"><ele>617.6666666666667</ele><time>2026-04-09T14:39:23.001Z</time></trkpt><trkpt lat="42.06677980568288" lon="13.045885553438112"><ele>616.3333333333334</ele><time>2026-04-09T14:39:24.001Z</time></trkpt><trkpt lat="42.06694886495428" lon="13.045989626170352"><ele>615.0</ele><time>2026-04-09T14:39:25.001Z</time></trkpt><trkpt lat="42.067119895676825" lon="13.046100869258332"><ele>615.0</ele><time>2026-04-09T14:39:26.001Z</time></trkpt><trkpt lat="42.06729498757088" lon="13.046216329009907"><ele>615.0</ele><time>2026-04-09T14:39:27.001Z</time></trkpt><trkpt lat="42.067472108023196" lon="13.046346932551792"><ele>615.0</ele><time>2026-04-09T14:39:28.001Z</time></trkpt><trkpt lat="42.067646674317366" lon="13.046491189752327"><ele>613.3333333333334</ele><time>2026-04-09T14:39:29.001Z</time></trkpt><trkpt lat="42.067823721019124" lon="13.046644857867046"><ele>611.6666666666667</ele><time>2026-04-09T14:39:30.001Z</time></trkpt><trkpt lat="42.06799653798252" lon="13.046808932472226"><ele>610.0</ele><time>2026-04-09T14:39:31.001Z</time></trkpt><trkpt lat="42.068166803137935" lon="13.046988475872226"><ele>610.0</ele><time>2026-04-09T14:39:32.001Z</time></trkpt><trkpt lat="42.068343633939506" lon="13.047161102507694"><ele>610.0</ele><time>2026-04-09T14:39:33.001Z</time></trkpt><trkpt lat="42.06852334264163" lon="13.047330840208664"><ele>610.0</ele><time>2026-04-09T14:39:34.001Z</time></trkpt><trkpt lat="42.068707485420354" lon="13.047501964854417"><ele>610.0</ele><time>2026-04-09T14:39:35.001Z</time></trkpt><trkpt lat="42.06888554558699" lon="13.047682975878"><ele>610.0</ele><time>2026-04-09T14:39:36.001Z</time></trkpt><trkpt lat="42.06907021129763" lon="13.04785493312585"><ele>610.0</ele><time>2026-04-09T14:39:37.001Z</time></trkpt><trkpt lat="42.06925067112616" lon="13.048020447386737"><ele>610.0</ele><time>2026-04-09T14:39:38.001Z</time></trkpt><trkpt lat="42.069431324598284" lon="13.048187856275678"><ele>610.0</ele><time>2026-04-09T14:39:39.001Z</time></trkpt><trkpt lat="42.069610556376276" lon="13.048350515771304"><ele>610.0</ele><time>2026-04-09T14:39:40.001Z</time></trkpt><trkpt lat="42.06977132186802" lon="13.0485043855554"><ele>610.0</ele><time>2026-04-09T14:39:41.001Z</time></trkpt><trkpt lat="42.06992421173164" lon="13.048648741593398"><ele>610.0</ele><time>2026-04-09T14:39:42.001Z</time></trkpt><trkpt lat="42.07006609573417" lon="13.048791778253051"><ele>610.0</ele><time>2026-04-09T14:39:43.001Z</time></trkpt><trkpt lat="42.07019957724781" lon="13.048928047528882"><ele>609.5</ele><time>2026-04-09T14:39:44.001Z</time></trkpt><trkpt lat="42.070313773994265" lon="13.049038633673213"><ele>609.0</ele><time>2026-04-09T14:39:45.001Z</time></trkpt><trkpt lat="42.07042401650597" lon="13.049139200089876"><ele>608.5</ele><time>2026-04-09T14:39:46.001Z</time></trkpt><trkpt lat="42.070522299630085" lon="13.049240110148926"><ele>608.0</ele><time>2026-04-09T14:39:47.001Z</time></trkpt><trkpt lat="42.070614636888415" lon="13.049341688532335"><ele>608.0</ele><time>2026-04-09T14:39:48.001Z</time></trkpt><trkpt lat="42.07068730334845" lon="13.049454883487206"><ele>608.0</ele><time>2026-04-09T14:39:49.001Z</time></trkpt><trkpt lat="42.07073648138711" lon="13.049584303326727"><ele>608.0</ele><time>2026-04-09T14:39:50.001Z</time></trkpt><trkpt lat="42.070779230502694" lon="13.049694160946114"><ele>608.0</ele><time>2026-04-09T14:39:51.001Z</time></trkpt><trkpt lat="42.07085493958945" lon="13.04975614250297"><ele>608.0</ele><time>2026-04-09T14:39:52.001Z</time></trkpt><trkpt lat="42.070949236766246" lon="13.04975272146607"><ele>608.25</ele><time>2026-04-09T14:39:53.001Z</time></trkpt><trkpt lat="42.07108896571507" lon="13.049759071582006"><ele>608.5</ele><time>2026-04-09T14:39:54.001Z</time></trkpt><trkpt lat="42.07119360692775" lon="13.049870669262308"><ele>608.75</ele><time>2026-04-09T14:39:55.001Z</time></trkpt><trkpt lat="42.071314091309375" lon="13.049964811137304"><ele>609.0</ele><time>2026-04-09T14:39:56.001Z</time></trkpt><trkpt lat="42.0714777154181" lon="13.050136132014915"><ele>608.6666666666666</ele><time>2026-04-09T14:39:57.001Z</time></trkpt><trkpt lat="42.071637964837585" lon="13.050290010387073"><ele>608.3333333333333</ele><time>2026-04-09T14:39:58Z</time></trkpt><trkpt lat="42.071803843299875" lon="13.05044163890576"><ele>608.0</ele><time>2026-04-09T14:39:59Z</time></trkpt><trkpt lat="42.07199221967628" lon="13.050618040161783"><ele>608.0</ele><time>2026-04-09T14:40:00Z</time></trkpt><trkpt lat="42.072164224244425" lon="13.050789201175792"><ele>608.0</ele><time>2026-04-09T14:40:01Z</time></trkpt><trkpt lat="42.072328315869285" lon="13.050943135994839"><ele>608.0</ele><time>2026-04-09T14:40:02Z</time></trkpt><trkpt lat="42.07250476657256" lon="13.051101976631964"><ele>607.3333333333333</ele><time>2026-04-09T14:40:03Z</time></trkpt><trkpt lat="42.07267071200427" lon="13.051261558476082"><ele>606.6666666666666</ele><time>2026-04-09T14:40:04Z</time></trkpt><trkpt lat="42.07284417791544" lon="13.051435024909592"><ele>606.0</ele><time>2026-04-09T14:40:05Z</time></trkpt><trkpt lat="42.07302017424468" lon="13.051616309361382"><ele>606.3333333333334</ele><time>2026-04-09T14:40:06Z</time></trkpt><trkpt lat="42.07320513624199" lon="13.05178701303862"><ele>606.6666666666667</ele><time>2026-04-09T14:40:07Z</time></trkpt><trkpt lat="42.073387894129546" lon="13.051954559607132"><ele>607.0</ele><time>2026-04-09T14:40:08Z</time></trkpt><trkpt lat="42.07358409293069" lon="13.052129151988456"><ele>607.0</ele><time>2026-04-09T14:40:09Z</time></trkpt><trkpt lat="42.07379653754558" lon="13.052331199528373"><ele>607.0</ele><time>2026-04-09T14:40:10Z</time></trkpt><trkpt lat="42.07401738044496" lon="13.05254041257523"><ele>606.0</ele><time>2026-04-09T14:40:11Z</time></trkpt><trkpt lat="42.07420188635092" lon="13.052716282944601"><ele>605.0</ele><time>2026-04-09T14:40:12Z</time></trkpt><trkpt lat="42.074386516456165" lon="13.052894315883595"><ele>605.0</ele><time>2026-04-09T14:40:13Z</time></trkpt><trkpt lat="42.07457749209875" lon="13.053073675134764"><ele>605.0</ele><time>2026-04-09T14:40:14Z</time></trkpt><trkpt lat="42.074771611236415" lon="13.053252714647659"><ele>604.6666666666666</ele><time>2026-04-09T14:40:15Z</time></trkpt><trkpt lat="42.07494777202646" lon="13.05342250148298"><ele>604.3333333333334</ele><time>2026-04-09T14:40:16Z</time></trkpt><trkpt lat="42.075117458222955" lon="13.053594572307345"><ele>604.0</ele><time>2026-04-09T14:40:17Z</time></trkpt><trkpt lat="42.075301144366804" lon="13.053774338255135"><ele>604.0</ele><time>2026-04-09T14:40:18Z</time></trkpt><trkpt lat="42.07548424504658" lon="13.053941607186124"><ele>604.0</ele><time>2026-04-09T14:40:19Z</time></trkpt><trkpt lat="42.07567614286912" lon="13.054114807645256"><ele>604.0</ele><time>2026-04-09T14:40:20Z</time></trkpt><trkpt lat="42.07586208470633" lon="13.054300047543109"><ele>604.0</ele><time>2026-04-09T14:40:21Z</time></trkpt><trkpt lat="42.076046370487106" lon="13.054489704613967"><ele>604.0</ele><time>2026-04-09T14:40:22Z</time></trkpt><trkpt lat="42.076241285509205" lon="13.054677949173596"><ele>604.0</ele><time>2026-04-09T14:40:23Z</time></trkpt><trkpt lat="42.07645739582506" lon="13.054874085534244"><ele>601.5</ele><time>2026-04-09T14:40:24Z</time></trkpt><trkpt lat="42.07666839652991" lon="13.05507087946971"><ele>599.0</ele><time>2026-04-09T14:40:25Z</time></trkpt><trkpt lat="42.07686221647937" lon="13.055262982497261"><ele>599.0</ele><time>2026-04-09T14:40:26Z</time></trkpt><trkpt lat="42.07705855152671" lon="13.055449611270461"><ele>599.0</ele><time>2026-04-09T14:40:27Z</time></trkpt><trkpt lat="42.07724442662136" lon="13.055619343961954"><ele>599.0</ele><time>2026-04-09T14:40:28Z</time></trkpt><trkpt lat="42.07741601933725" lon="13.055777242869247"><ele>599.0</ele><time>2026-04-09T14:40:29Z</time></trkpt><trkpt lat="42.077577135529594" lon="13.055927086044598"><ele>599.0</ele><time>2026-04-09T14:40:30Z</time></trkpt><trkpt lat="42.077731390851135" lon="13.056071980824207"><ele>599.3333333333333</ele><time>2026-04-09T14:40:31Z</time></trkpt><trkpt lat="42.077873943546294" lon="13.056206902051558"><ele>599.6666666666666</ele><time>2026-04-09T14:40:32Z</time></trkpt><trkpt lat="42.07801775956387" lon="13.056340207991786"><ele>600.0</ele><time>2026-04-09T14:40:33Z</time></trkpt><trkpt lat="42.078151135920955" lon="13.056467183858894"><ele>599.3333333333334</ele><time>2026-04-09T14:40:34Z</time></trkpt><trkpt lat="42.078293688151525" lon="13.056608424778734"><ele>598.6666666666667</ele><time>2026-04-09T14:40:35Z</time></trkpt><trkpt lat="42.078439041789004" lon="13.056755518392455"><ele>598.0</ele><time>2026-04-09T14:40:36Z</time></trkpt><trkpt lat="42.07858462427415" lon="13.05687428905504"><ele>598.0</ele><time>2026-04-09T14:40:37Z</time></trkpt><trkpt lat="42.078723535668615" lon="13.056950132928485"><ele>598.0</ele><time>2026-04-09T14:40:38Z</time></trkpt><trkpt lat="42.07887228853888" lon="13.056996935771142"><ele>598.0</ele><time>2026-04-09T14:40:39Z</time></trkpt><trkpt lat="42.07901878008792" lon="13.057000016209743"><ele>598.0</ele><time>2026-04-09T14:40:40Z</time></trkpt><trkpt lat="42.07915807609737" lon="13.057004667830425"><ele>598.0</ele><time>2026-04-09T14:40:41Z</time></trkpt><trkpt lat="42.079298836492534" lon="13.057044636150994"><ele>598.0</ele><time>2026-04-09T14:40:42Z</time></trkpt><trkpt lat="42.07942998415502" lon="13.057118054020645"><ele>598.0</ele><time>2026-04-09T14:40:43Z</time></trkpt><trkpt lat="42.07953308273753" lon="13.057204760565025"><ele>598.0</ele><time>2026-04-09T14:40:44Z</time></trkpt><trkpt lat="42.079600513148485" lon="13.057305307656781"><ele>598.0</ele><time>2026-04-09T14:40:45Z</time></trkpt><trkpt lat="42.07964093923717" lon="13.057405169085383"><ele>598.0</ele><time>2026-04-09T14:40:46Z</time></trkpt><trkpt lat="42.0796518436871" lon="13.057528301339108"><ele>598.0</ele><time>2026-04-09T14:40:47Z</time></trkpt><trkpt lat="42.079653472960224" lon="13.057659859369164"><ele>598.0</ele><time>2026-04-09T14:40:48Z</time></trkpt><trkpt lat="42.0796857279353" lon="13.057803189534546"><ele>598.0</ele><time>2026-04-09T14:40:49Z</time></trkpt><trkpt lat="42.07977625882377" lon="13.057961419608212"><ele>598.25</ele><time>2026-04-09T14:40:50Z</time></trkpt><trkpt lat="42.07988547875857" lon="13.058088565325365"><ele>598.5</ele><time>2026-04-09T14:40:51Z</time></trkpt><trkpt lat="42.07999925942406" lon="13.058190846154668"><ele>598.75</ele><time>2026-04-09T14:40:52Z</time></trkpt><trkpt lat="42.08012297781022" lon="13.058294391341766"><ele>599.0</ele><time>2026-04-09T14:40:53Z</time></trkpt><trkpt lat="42.08023863974299" lon="13.05838699995336"><ele>598.5</ele><time>2026-04-09T14:40:54Z</time></trkpt><trkpt lat="42.0803495363871" lon="13.058481221438658"><ele>598.0</ele><time>2026-04-09T14:40:55Z</time></trkpt><trkpt lat="42.08047666130701" lon="13.058597521568915"><ele>597.5</ele><time>2026-04-09T14:40:56Z</time></trkpt><trkpt lat="42.08059378627726" lon="13.058714496948802"><ele>597.0</ele><time>2026-04-09T14:40:57Z</time></trkpt><trkpt lat="42.08070704384114" lon="13.058814372055183"><ele>597.0</ele><time>2026-04-09T14:40:58Z</time></trkpt><trkpt lat="42.080824784652556" lon="13.058908175088531"><ele>597.0</ele><time>2026-04-09T14:40:59Z</time></trkpt><trkpt lat="42.08095933731574" lon="13.059019064341898"><ele>597.0</ele><time>2026-04-09T14:41:00Z</time></trkpt><trkpt lat="42.08110549286301" lon="13.059214099652795"><ele>597.0</ele><time>2026-04-09T14:41:01Z</time></trkpt><trkpt lat="42.081286081499776" lon="13.059299858334768"><ele>597.0</ele><time>2026-04-09T14:41:02Z</time></trkpt><trkpt lat="42.08147142869627" lon="13.059482852259471"><ele>597.0</ele><time>2026-04-09T14:41:03Z</time></trkpt><trkpt lat="42.08165385722646" lon="13.059682441377912"><ele>597.0</ele><time>2026-04-09T14:41:04.001Z</time></trkpt><trkpt lat="42.081849498317794" lon="13.059881376699886"><ele>597.0</ele><time>2026-04-09T14:41:05.001Z</time></trkpt><trkpt lat="42.08204520329938" lon="13.060060732976085"><ele>597.0</ele><time>2026-04-09T14:41:06.001Z</time></trkpt><trkpt lat="42.08222728317263" lon="13.060227857582946"><ele>597.0</ele><time>2026-04-09T14:41:07.001Z</time></trkpt><trkpt lat="42.08239404547076" lon="13.060387631158658"><ele>597.0</ele><time>2026-04-09T14:41:08.001Z</time></trkpt><trkpt lat="42.08255212064175" lon="13.060542532524332"><ele>597.3333333333334</ele><time>2026-04-09T14:41:09.001Z</time></trkpt><trkpt lat="42.082700938876066" lon="13.060685555581387"><ele>597.6666666666667</ele><time>2026-04-09T14:41:10.001Z</time></trkpt><trkpt lat="42.08284021233538" lon="13.060814628055873"><ele>598.0</ele><time>2026-04-09T14:41:11.001Z</time></trkpt><trkpt lat="42.08296581072642" lon="13.060927946375168"><ele>598.0</ele><time>2026-04-09T14:41:12.001Z</time></trkpt><trkpt lat="42.0830731012641" lon="13.06101711445625"><ele>598.0</ele><time>2026-04-09T14:41:13.001Z</time></trkpt><trkpt lat="42.0831614236699" lon="13.061094884939093"><ele>598.0</ele><time>2026-04-09T14:41:14.001Z</time></trkpt><trkpt lat="42.083243343257486" lon="13.06117042719709"><ele>598.0</ele><time>2026-04-09T14:41:15.001Z</time></trkpt><trkpt lat="42.08332585331895" lon="13.061240682153747"><ele>598.0</ele><time>2026-04-09T14:41:16.001Z</time></trkpt><trkpt lat="42.083400209991744" lon="13.061308486256156"><ele>596.8</ele><time>2026-04-09T14:41:17.001Z</time></trkpt><trkpt lat="42.08348253063084" lon="13.061392337634453"><ele>595.5999999999999</ele><time>2026-04-09T14:41:18.001Z</time></trkpt><trkpt lat="42.0835668400993" lon="13.061482740000084"><ele>594.4000000000001</ele><time>2026-04-09T14:41:19.001Z</time></trkpt><trkpt lat="42.0836547448427" lon="13.061571888231898"><ele>593.2</ele><time>2026-04-09T14:41:20.001Z</time></trkpt><trkpt lat="42.08374767006948" lon="13.06165952805465"><ele>592.0</ele><time>2026-04-09T14:41:21.001Z</time></trkpt><trkpt lat="42.08384696536005" lon="13.061747715974713"><ele>592.0</ele><time>2026-04-09T14:41:22.001Z</time></trkpt><trkpt lat="42.083945997484" lon="13.061837715775908"><ele>592.0</ele><time>2026-04-09T14:41:23.001Z</time></trkpt><trkpt lat="42.08404570590776" lon="13.061928659862348"><ele>592.0</ele><time>2026-04-09T14:41:24.001Z</time></trkpt><trkpt lat="42.08414622404458" lon="13.062019987666432"><ele>592.0</ele><time>2026-04-09T14:41:25.001Z</time></trkpt><trkpt lat="42.08424541790864" lon="13.062116820105553"><ele>591.8000000000001</ele><time>2026-04-09T14:41:26.001Z</time></trkpt><trkpt lat="42.08434116761936" lon="13.06221081235731"><ele>591.6</ele><time>2026-04-09T14:41:27.001Z</time></trkpt><trkpt lat="42.0844320521062" lon="13.062300474167053"><ele>591.4000000000001</ele><time>2026-04-09T14:41:28.001Z</time></trkpt><trkpt lat="42.08451681645386" lon="13.062385470013652"><ele>591.2</ele><time>2026-04-09T14:41:29.001Z</time></trkpt><trkpt lat="42.08460220530834" lon="13.062459398232306"><ele>591.0</ele><time>2026-04-09T14:41:30.001Z</time></trkpt><trkpt lat="42.0846811204372" lon="13.062526363516373"><ele>591.0</ele><time>2026-04-09T14:41:31.001Z</time></trkpt><trkpt lat="42.08475444448683" lon="13.062597112179636"><ele>591.0</ele><time>2026-04-09T14:41:32.001Z</time></trkpt><trkpt lat="42.084823266412" lon="13.062665259781141"><ele>591.0</ele><time>2026-04-09T14:41:33.001Z</time></trkpt><trkpt lat="42.08489461906344" lon="13.062735313501056"><ele>591.0</ele><time>2026-04-09T14:41:34.001Z</time></trkpt><trkpt lat="42.084965778374254" lon="13.062799823863516"><ele>591.0</ele><time>2026-04-09T14:41:35.001Z</time></trkpt><trkpt lat="42.0850519242909" lon="13.062869652017161"><ele>591.0</ele><time>2026-04-09T14:41:36.001Z</time></trkpt><trkpt lat="42.085125474042336" lon="13.062937283645644"><ele>591.0</ele><time>2026-04-09T14:41:37.001Z</time></trkpt><trkpt lat="42.085195575022624" lon="13.063001162223042"><ele>591.0</ele><time>2026-04-09T14:41:38.001Z</time></trkpt><trkpt lat="42.08526947050392" lon="13.063075893156173"><ele>591.0</ele><time>2026-04-09T14:41:39.001Z</time></trkpt><trkpt lat="42.085346811485785" lon="13.063149616074032"><ele>591.0</ele><time>2026-04-09T14:41:40.001Z</time></trkpt><trkpt lat="42.085430250332585" lon="13.063230299101953"><ele>591.0</ele><time>2026-04-09T14:41:41.001Z</time></trkpt><trkpt lat="42.08551908355221" lon="13.06331210140168"><ele>591.0</ele><time>2026-04-09T14:41:42.001Z</time></trkpt><trkpt lat="42.08561466996795" lon="13.063397703706018"><ele>591.0</ele><time>2026-04-09T14:41:43.001Z</time></trkpt><trkpt lat="42.08570393452479" lon="13.063470273957458"><ele>591.0</ele><time>2026-04-09T14:41:44.001Z</time></trkpt><trkpt lat="42.08578650191769" lon="13.063556116862799"><ele>591.0</ele><time>2026-04-09T14:41:45.001Z</time></trkpt><trkpt lat="42.08587335569565" lon="13.063642820840677"><ele>591.0</ele><time>2026-04-09T14:41:46.001Z</time></trkpt><trkpt lat="42.08596157118223" lon="13.063722023669166"><ele>591.0</ele><time>2026-04-09T14:41:47.001Z</time></trkpt><trkpt lat="42.08605207714735" lon="13.06380945817162"><ele>591.0</ele><time>2026-04-09T14:41:48.001Z</time></trkpt><trkpt lat="42.08614267029632" lon="13.063896879521746"><ele>591.0</ele><time>2026-04-09T14:41:49.001Z</time></trkpt><trkpt lat="42.08622723608595" lon="13.063982477500728"><ele>591.0</ele><time>2026-04-09T14:41:50.001Z</time></trkpt><trkpt lat="42.086311174095" lon="13.064057470557582"><ele>591.0</ele><time>2026-04-09T14:41:51.001Z</time></trkpt><trkpt lat="42.08637732041938" lon="13.064115958115178"><ele>591.0</ele><time>2026-04-09T14:41:52.001Z</time></trkpt><trkpt lat="42.08643413409214" lon="13.064168400697506"><ele>591.0</ele><time>2026-04-09T14:41:53.001Z</time></trkpt><trkpt lat="42.08649967467571" lon="13.064226023079959"><ele>591.0</ele><time>2026-04-09T14:41:55.001Z</time></trkpt><trkpt lat="42.086570136471614" lon="13.064297011427284"><ele>591.0</ele><time>2026-04-09T14:41:59.001Z</time></trkpt><trkpt lat="42.08662664346119" lon="13.0643483578088"><ele>591.0</ele><time>2026-04-09T14:42:00.001Z</time></trkpt><trkpt lat="42.0867147377213" lon="13.064426913740142"><ele>590.8</ele><time>2026-04-09T14:42:01.001Z</time></trkpt><trkpt lat="42.08679284335508" lon="13.06450349274698"><ele>590.6</ele><time>2026-04-09T14:42:02.001Z</time></trkpt><trkpt lat="42.08686105908519" lon="13.064567179718582"><ele>590.4</ele><time>2026-04-09T14:42:03.001Z</time></trkpt><trkpt lat="42.08694243666192" lon="13.06464233277573"><ele>590.2</ele><time>2026-04-09T14:42:04Z</time></trkpt><trkpt lat="42.08702807584816" lon="13.064720847952968"><ele>590.0</ele><time>2026-04-09T14:42:05Z</time></trkpt><trkpt lat="42.087119190880806" lon="13.064803452874074"><ele>590.0</ele><time>2026-04-09T14:42:06Z</time></trkpt><trkpt lat="42.08721121644687" lon="13.064885838935687"><ele>590.0</ele><time>2026-04-09T14:42:07Z</time></trkpt><trkpt lat="42.08730356246632" lon="13.064968252392438"><ele>590.0</ele><time>2026-04-09T14:42:08Z</time></trkpt><trkpt lat="42.087403657020765" lon="13.065049109448193"><ele>590.0</ele><time>2026-04-09T14:42:09Z</time></trkpt><trkpt lat="42.08750906334486" lon="13.06513438734444"><ele>589.5</ele><time>2026-04-09T14:42:10Z</time></trkpt><trkpt lat="42.087597940277384" lon="13.065212346943929"><ele>589.0</ele><time>2026-04-09T14:42:11Z</time></trkpt><trkpt lat="42.08770478629865" lon="13.065283961735503"><ele>588.5</ele><time>2026-04-09T14:42:12Z</time></trkpt><trkpt lat="42.08780824618196" lon="13.065365399631233"><ele>588.0</ele><time>2026-04-09T14:42:13Z</time></trkpt><trkpt lat="42.08791626440529" lon="13.06544131903725"><ele>588.0</ele><time>2026-04-09T14:42:14Z</time></trkpt><trkpt lat="42.08801103916745" lon="13.065508571880349"><ele>588.0</ele><time>2026-04-09T14:42:15Z</time></trkpt><trkpt lat="42.08811144915655" lon="13.065572488213341"><ele>588.0</ele><time>2026-04-09T14:42:16Z</time></trkpt><trkpt lat="42.08821862649579" lon="13.06563197815425"><ele>588.0</ele><time>2026-04-09T14:42:17Z</time></trkpt><trkpt lat="42.088325383133224" lon="13.0656972807776"><ele>587.5</ele><time>2026-04-09T14:42:18Z</time></trkpt><trkpt lat="42.08843164457735" lon="13.065765152001537"><ele>587.0</ele><time>2026-04-09T14:42:19Z</time></trkpt><trkpt lat="42.088536801634355" lon="13.065838311631522"><ele>586.5</ele><time>2026-04-09T14:42:20Z</time></trkpt><trkpt lat="42.088638602058275" lon="13.065914988253835"><ele>586.0</ele><time>2026-04-09T14:42:21Z</time></trkpt><trkpt lat="42.08873970970559" lon="13.065990211149783"><ele>585.75</ele><time>2026-04-09T14:42:22Z</time></trkpt><trkpt lat="42.08885373119691" lon="13.066057125265553"><ele>585.5</ele><time>2026-04-09T14:42:23Z</time></trkpt><trkpt lat="42.08897100887175" lon="13.066131541348597"><ele>585.25</ele><time>2026-04-09T14:42:24Z</time></trkpt><trkpt lat="42.08907898701619" lon="13.066204974410674"><ele>585.0</ele><time>2026-04-09T14:42:25Z</time></trkpt><trkpt lat="42.08919027098664" lon="13.066279138678205"><ele>584.5</ele><time>2026-04-09T14:42:26Z</time></trkpt><trkpt lat="42.089306370883946" lon="13.06635707272491"><ele>584.0</ele><time>2026-04-09T14:42:27Z</time></trkpt><trkpt lat="42.08942439523518" lon="13.066434341751354"><ele>583.5</ele><time>2026-04-09T14:42:28Z</time></trkpt><trkpt lat="42.08954266234824" lon="13.066526562009978"><ele>583.0</ele><time>2026-04-09T14:42:29Z</time></trkpt><trkpt lat="42.08966266569694" lon="13.066604620984577"><ele>583.5</ele><time>2026-04-09T14:42:30Z</time></trkpt><trkpt lat="42.08979029801218" lon="13.066677495420246"><ele>584.0</ele><time>2026-04-09T14:42:31Z</time></trkpt><trkpt lat="42.08991352731607" lon="13.066762258272622"><ele>584.5</ele><time>2026-04-09T14:42:32Z</time></trkpt><trkpt lat="42.090042920453286" lon="13.066850342762736"><ele>585.0</ele><time>2026-04-09T14:42:33Z</time></trkpt><trkpt lat="42.09017373862585" lon="13.066943214394193"><ele>585.0</ele><time>2026-04-09T14:42:34Z</time></trkpt><trkpt lat="42.09030154132056" lon="13.067046915562631"><ele>585.0</ele><time>2026-04-09T14:42:35Z</time></trkpt><trkpt lat="42.09043468076547" lon="13.067147637207537"><ele>585.0</ele><time>2026-04-09T14:42:36Z</time></trkpt><trkpt lat="42.09061055640293" lon="13.06727446448164"><ele>585.3333333333334</ele><time>2026-04-09T14:42:37Z</time></trkpt><trkpt lat="42.090776551641646" lon="13.067421151747173"><ele>585.6666666666667</ele><time>2026-04-09T14:42:38Z</time></trkpt><trkpt lat="42.09090963488888" lon="13.067599763948916"><ele>586.0</ele><time>2026-04-09T14:42:39Z</time></trkpt><trkpt lat="42.0910498921012" lon="13.067826284629932"><ele>586.3333333333334</ele><time>2026-04-09T14:42:40Z</time></trkpt><trkpt lat="42.091190348766546" lon="13.068076500284866"><ele>586.6666666666666</ele><time>2026-04-09T14:42:41Z</time></trkpt><trkpt lat="42.09129351814237" lon="13.068282610942141"><ele>587.0</ele><time>2026-04-09T14:42:42Z</time></trkpt><trkpt lat="42.09138779881408" lon="13.068470257627125"><ele>587.0</ele><time>2026-04-09T14:42:43Z</time></trkpt><trkpt lat="42.09148035638956" lon="13.068653265725024"><ele>587.0</ele><time>2026-04-09T14:42:44Z</time></trkpt><trkpt lat="42.091580795873654" lon="13.068839965410636"><ele>587.0</ele><time>2026-04-09T14:42:45Z</time></trkpt><trkpt lat="42.09166891026004" lon="13.069002715432797"><ele>587.5</ele><time>2026-04-09T14:42:46Z</time></trkpt><trkpt lat="42.091750528470776" lon="13.06916433181722"><ele>588.0</ele><time>2026-04-09T14:42:47Z</time></trkpt><trkpt lat="42.091833030549076" lon="13.069334942079108"><ele>588.5</ele><time>2026-04-09T14:42:48Z</time></trkpt><trkpt lat="42.091911310624425" lon="13.069495329735592"><ele>589.0</ele><time>2026-04-09T14:42:49Z</time></trkpt><trkpt lat="42.09196779600156" lon="13.069643773684744"><ele>589.0</ele><time>2026-04-09T14:42:50Z</time></trkpt><trkpt lat="42.092018576495505" lon="13.06979013307514"><ele>589.0</ele><time>2026-04-09T14:42:51Z</time></trkpt><trkpt lat="42.092066110914395" lon="13.06992359539277"><ele>589.0</ele><time>2026-04-09T14:42:52Z</time></trkpt><trkpt lat="42.09209873419012" lon="13.070027081318234"><ele>589.0</ele><time>2026-04-09T14:42:53Z</time></trkpt><trkpt lat="42.0921176876229" lon="13.070168179218282"><ele>589.0</ele><time>2026-04-09T14:42:55Z</time></trkpt><trkpt lat="42.09212699018838" lon="13.070296261597708"><ele>588.75</ele><time>2026-04-09T14:42:57Z</time></trkpt><trkpt lat="42.09212912085245" lon="13.070474723450868"><ele>588.5</ele><time>2026-04-09T14:42:59Z</time></trkpt><trkpt lat="42.0921458687483" lon="13.070615965624993"><ele>588.25</ele><time>2026-04-09T14:43:00Z</time></trkpt><trkpt lat="42.09217404837062" lon="13.070775538579024"><ele>588.0</ele><time>2026-04-09T14:43:01Z</time></trkpt><trkpt lat="42.09222393365646" lon="13.070972180240881"><ele>589.0</ele><time>2026-04-09T14:43:02Z</time></trkpt><trkpt lat="42.0922682321682" lon="13.071180708878734"><ele>590.0</ele><time>2026-04-09T14:43:03Z</time></trkpt><trkpt lat="42.09230885295596" lon="13.071371868059705"><ele>591.0</ele><time>2026-04-09T14:43:04Z</time></trkpt><trkpt lat="42.092349319006715" lon="13.071574399011505"><ele>590.6666666666666</ele><time>2026-04-09T14:43:05Z</time></trkpt><trkpt lat="42.09239864395714" lon="13.071813635348517"><ele>590.3333333333333</ele><time>2026-04-09T14:43:06.001Z</time></trkpt><trkpt lat="42.09244263467175" lon="13.072042999572604"><ele>590.0</ele><time>2026-04-09T14:43:07.001Z</time></trkpt><trkpt lat="42.09248669052529" lon="13.072253001724361"><ele>591.0</ele><time>2026-04-09T14:43:08.001Z</time></trkpt><trkpt lat="42.092532105527724" lon="13.072458518173725"><ele>592.0</ele><time>2026-04-09T14:43:09.001Z</time></trkpt><trkpt lat="42.09257481924198" lon="13.072722141477218"><ele>593.0</ele><time>2026-04-09T14:43:10.001Z</time></trkpt><trkpt lat="42.09263719301088" lon="13.073046280096698"><ele>593.0</ele><time>2026-04-09T14:43:11.001Z</time></trkpt><trkpt lat="42.09269162176118" lon="13.073363883604724"><ele>593.0</ele><time>2026-04-09T14:43:12.001Z</time></trkpt><trkpt lat="42.09274870039403" lon="13.073703925072348"><ele>593.0</ele><time>2026-04-09T14:43:13.001Z</time></trkpt><trkpt lat="42.092776668305646" lon="13.074027240903478"><ele>593.0</ele><time>2026-04-09T14:43:14.001Z</time></trkpt><trkpt lat="42.09279959699353" lon="13.074329907829442"><ele>592.6666666666666</ele><time>2026-04-09T14:43:15.001Z</time></trkpt><trkpt lat="42.09282405117492" lon="13.074621607973176"><ele>592.3333333333334</ele><time>2026-04-09T14:43:16.001Z</time></trkpt><trkpt lat="42.092849180030534" lon="13.074921041573008"><ele>592.0</ele><time>2026-04-09T14:43:17.001Z</time></trkpt><trkpt lat="42.092877045539936" lon="13.075251238188544"><ele>592.0</ele><time>2026-04-09T14:43:18.001Z</time></trkpt><trkpt lat="42.09290873445883" lon="13.075582084507774"><ele>592.0</ele><time>2026-04-09T14:43:19.001Z</time></trkpt><trkpt lat="42.092936792701956" lon="13.075861810848565"><ele>592.0</ele><time>2026-04-09T14:43:20.001Z</time></trkpt><trkpt lat="42.092963168254556" lon="13.076134467531238"><ele>592.0</ele><time>2026-04-09T14:43:21.001Z</time></trkpt><trkpt lat="42.092988469725825" lon="13.07640551682031"><ele>592.0</ele><time>2026-04-09T14:43:22.001Z</time></trkpt><trkpt lat="42.093012859309916" lon="13.076677801855267"><ele>592.3333333333334</ele><time>2026-04-09T14:43:23.001Z</time></trkpt><trkpt lat="42.09303880357436" lon="13.076952716127805"><ele>592.6666666666666</ele><time>2026-04-09T14:43:24.001Z</time></trkpt><trkpt lat="42.09306203059084" lon="13.077224956121597"><ele>593.0</ele><time>2026-04-09T14:43:25.001Z</time></trkpt><trkpt lat="42.09308520306612" lon="13.077474048562912"><ele>593.3333333333333</ele><time>2026-04-09T14:43:26.001Z</time></trkpt><trkpt lat="42.0931075844909" lon="13.077708731534344"><ele>593.6666666666666</ele><time>2026-04-09T14:43:27.001Z</time></trkpt><trkpt lat="42.09313278327782" lon="13.07793425361051"><ele>594.0</ele><time>2026-04-09T14:43:28.001Z</time></trkpt><trkpt lat="42.093173873606936" lon="13.0781725338372"><ele>594.3333333333334</ele><time>2026-04-09T14:43:29.001Z</time></trkpt><trkpt lat="42.093242433238245" lon="13.07840547995137"><ele>594.6666666666667</ele><time>2026-04-09T14:43:30.001Z</time></trkpt><trkpt lat="42.0933212006212" lon="13.078603094439387"><ele>595.0</ele><time>2026-04-09T14:43:31.001Z</time></trkpt><trkpt lat="42.09342762446446" lon="13.078796571961846"><ele>596.3333333333334</ele><time>2026-04-09T14:43:32.001Z</time></trkpt><trkpt lat="42.09355408192834" lon="13.078978243893282"><ele>597.6666666666666</ele><time>2026-04-09T14:43:33.001Z</time></trkpt><trkpt lat="42.09370847562434" lon="13.079153458751202"><ele>599.0</ele><time>2026-04-09T14:43:34.001Z</time></trkpt><trkpt lat="42.093884432792045" lon="13.079360726791819"><ele>599.0</ele><time>2026-04-09T14:43:35.001Z</time></trkpt><trkpt lat="42.09405106198822" lon="13.079568688586233"><ele>599.0</ele><time>2026-04-09T14:43:36.001Z</time></trkpt><trkpt lat="42.09419520852213" lon="13.079755770179249"><ele>599.0</ele><time>2026-04-09T14:43:37.001Z</time></trkpt><trkpt lat="42.094324424506006" lon="13.079932312908348"><ele>599.0</ele><time>2026-04-09T14:43:38.001Z</time></trkpt><trkpt lat="42.094447487204555" lon="13.080094392848917"><ele>599.0</ele><time>2026-04-09T14:43:39.001Z</time></trkpt><trkpt lat="42.094565262974484" lon="13.080259642265174"><ele>599.0</ele><time>2026-04-09T14:43:40.001Z</time></trkpt><trkpt lat="42.09468122358558" lon="13.080410550075593"><ele>599.0</ele><time>2026-04-09T14:43:41.001Z</time></trkpt><trkpt lat="42.09478831785403" lon="13.08054203121324"><ele>599.0</ele><time>2026-04-09T14:43:42.001Z</time></trkpt><trkpt lat="42.09487203029384" lon="13.080651385846418"><ele>599.0</ele><time>2026-04-09T14:43:43.001Z</time></trkpt><trkpt lat="42.09493491122209" lon="13.0807347745318"><ele>599.0</ele><time>2026-04-09T14:43:44.001Z</time></trkpt><trkpt lat="42.09499127335326" lon="13.080804202076042"><ele>599.0</ele><time>2026-04-09T14:43:45.001Z</time></trkpt><trkpt lat="42.0950395883644" lon="13.080858818746933"><ele>599.4</ele><time>2026-04-09T14:43:46.001Z</time></trkpt><trkpt lat="42.095119210475694" lon="13.080957450120009"><ele>599.8</ele><time>2026-04-09T14:43:48.001Z</time></trkpt><trkpt lat="42.09518312278716" lon="13.081041431331396"><ele>600.2</ele><time>2026-04-09T14:43:50.001Z</time></trkpt><trkpt lat="42.09526574502098" lon="13.08115230718629"><ele>600.6</ele><time>2026-04-09T14:43:52.001Z</time></trkpt><trkpt lat="42.09531859142504" lon="13.081220452659974"><ele>601.0</ele><time>2026-04-09T14:43:53.001Z</time></trkpt><trkpt lat="42.09535855898934" lon="13.081306128217737"><ele>601.0</ele><time>2026-04-09T14:43:54.001Z</time></trkpt><trkpt lat="42.09541163586648" lon="13.081378628670121"><ele>601.0</ele><time>2026-04-09T14:43:55.001Z</time></trkpt><trkpt lat="42.09546376913263" lon="13.081449442660874"><ele>601.0</ele><time>2026-04-09T14:43:56.001Z</time></trkpt><trkpt lat="42.095518328265534" lon="13.081523380410989"><ele>601.0</ele><time>2026-04-09T14:43:57.001Z</time></trkpt><trkpt lat="42.095574652243926" lon="13.081599709837159"><ele>601.0</ele><time>2026-04-09T14:43:58.001Z</time></trkpt><trkpt lat="42.09562154866453" lon="13.081663263112214"><ele>601.0</ele><time>2026-04-09T14:43:59.001Z</time></trkpt><trkpt lat="42.09567377631244" lon="13.081732323930336"><ele>601.0</ele><time>2026-04-09T14:44:00.001Z</time></trkpt><trkpt lat="42.09573932653373" lon="13.081787904300032"><ele>601.2</ele><time>2026-04-09T14:44:01.001Z</time></trkpt><trkpt lat="42.09579241908394" lon="13.081867955155705"><ele>601.4000000000001</ele><time>2026-04-09T14:44:02.001Z</time></trkpt><trkpt lat="42.09586461235441" lon="13.081955035098856"><ele>601.6</ele><time>2026-04-09T14:44:03.001Z</time></trkpt><trkpt lat="42.09593684675611" lon="13.082085163386461"><ele>601.8000000000001</ele><time>2026-04-09T14:44:04.001Z</time></trkpt><trkpt lat="42.09602184557496" lon="13.082202875819606"><ele>602.0</ele><time>2026-04-09T14:44:05.001Z</time></trkpt><trkpt lat="42.0961268007586" lon="13.082347831071527"><ele>602.0</ele><time>2026-04-09T14:44:06.001Z</time></trkpt><trkpt lat="42.09624643638173" lon="13.082481838077193"><ele>602.0</ele><time>2026-04-09T14:44:07.001Z</time></trkpt><trkpt lat="42.09632990835376" lon="13.082603760299927"><ele>602.0</ele><time>2026-04-09T14:44:08.001Z</time></trkpt><trkpt lat="42.09641763916549" lon="13.082722061945445"><ele>602.0</ele><time>2026-04-09T14:44:09.001Z</time></trkpt><trkpt lat="42.09650399035913" lon="13.0828385010582"><ele>602.0</ele><time>2026-04-09T14:44:10Z</time></trkpt><trkpt lat="42.09658383523415" lon="13.082949007556065"><ele>602.0</ele><time>2026-04-09T14:44:11Z</time></trkpt><trkpt lat="42.09665639363771" lon="13.083047909930638"><ele>602.0</ele><time>2026-04-09T14:44:12Z</time></trkpt><trkpt lat="42.09671688770876" lon="13.083131640947615"><ele>602.0</ele><time>2026-04-09T14:44:13Z</time></trkpt><trkpt lat="42.09677472169145" lon="13.083207114368854"><ele>602.0</ele><time>2026-04-09T14:44:14Z</time></trkpt><trkpt lat="42.09682130219475" lon="13.083281879735031"><ele>602.2</ele><time>2026-04-09T14:44:15Z</time></trkpt><trkpt lat="42.09690016732481" lon="13.083384998595783"><ele>602.4000000000001</ele><time>2026-04-09T14:44:17Z</time></trkpt><trkpt lat="42.096984985170096" lon="13.083508506807096"><ele>602.5999999999999</ele><time>2026-04-09T14:44:19Z</time></trkpt><trkpt lat="42.09703329776683" lon="13.083590385331114"><ele>602.8</ele><time>2026-04-09T14:44:20Z</time></trkpt><trkpt lat="42.09709292328102" lon="13.083650589171063"><ele>603.0</ele><time>2026-04-09T14:44:21Z</time></trkpt><trkpt lat="42.09715993466971" lon="13.083735922577802"><ele>603.0</ele><time>2026-04-09T14:44:22Z</time></trkpt><trkpt lat="42.09725338854386" lon="13.083838608054045"><ele>603.0</ele><time>2026-04-09T14:44:23Z</time></trkpt><trkpt lat="42.09732662473518" lon="13.083936615296889"><ele>603.0</ele><time>2026-04-09T14:44:24Z</time></trkpt><trkpt lat="42.097387304157756" lon="13.084021487062795"><ele>603.0</ele><time>2026-04-09T14:44:25Z</time></trkpt><trkpt lat="42.0974420122567" lon="13.084109345932811"><ele>603.0</ele><time>2026-04-09T14:44:26Z</time></trkpt><trkpt lat="42.09748588199592" lon="13.084205661215703"><ele>603.1666666666666</ele><time>2026-04-09T14:44:27Z</time></trkpt><trkpt lat="42.09749726289705" lon="13.084306194341332"><ele>603.3333333333334</ele><time>2026-04-09T14:44:28Z</time></trkpt><trkpt lat="42.09750683846231" lon="13.084400291962012"><ele>603.5</ele><time>2026-04-09T14:44:29Z</time></trkpt><trkpt lat="42.09757236710169" lon="13.084501319684906"><ele>603.6666666666667</ele><time>2026-04-09T14:44:31Z</time></trkpt><trkpt lat="42.09765675236166" lon="13.084538737622914"><ele>603.8333333333334</ele><time>2026-04-09T14:44:33Z</time></trkpt><trkpt lat="42.09775738051745" lon="13.084576649451993"><ele>604.0</ele><time>2026-04-09T14:44:35Z</time></trkpt><trkpt lat="42.09782281771518" lon="13.084609271416744"><ele>604.0</ele><time>2026-04-09T14:44:36Z</time></trkpt><trkpt lat="42.097888573568824" lon="13.08465802108598"><ele>604.0</ele><time>2026-04-09T14:44:37Z</time></trkpt><trkpt lat="42.09793623342884" lon="13.084719606244118"><ele>604.0</ele><time>2026-04-09T14:44:38Z</time></trkpt><trkpt lat="42.09803493554285" lon="13.084815351176958"><ele>604.0</ele><time>2026-04-09T14:44:40Z</time></trkpt><trkpt lat="42.09805941855881" lon="13.084552538983178"><ele>604.0</ele><time>2026-04-09T14:44:51Z</time></trkpt><trkpt lat="42.09802738250291" lon="13.084456585984285"><ele>604.0</ele><time>2026-04-09T14:44:52Z</time></trkpt><trkpt lat="42.097996781048664" lon="13.084324134864413"><ele>604.0</ele><time>2026-04-09T14:44:53Z</time></trkpt><trkpt lat="42.09795089541272" lon="13.084226851257824"><ele>604.0</ele><time>2026-04-09T14:44:54Z</time></trkpt><trkpt lat="42.09791616230959" lon="13.084147283516383"><ele>604.0</ele><time>2026-04-09T14:44:55Z</time></trkpt><trkpt lat="42.09787682863637" lon="13.084044383213332"><ele>604.0</ele><time>2026-04-09T14:44:57Z</time></trkpt><trkpt lat="42.09796184828425" lon="13.083979883742762"><ele>604.0</ele><time>2026-04-09T14:44:59Z</time></trkpt><trkpt lat="42.098035105962644" lon="13.08396939667065"><ele>604.0</ele><time>2026-04-09T14:45:03Z</time></trkpt><trkpt lat="42.098114972554406" lon="13.083936326660632"><ele>604.0</ele><time>2026-04-09T14:45:05Z</time></trkpt><trkpt lat="42.098212175553385" lon="13.083870951598634"><ele>604.0</ele><time>2026-04-09T14:45:07Z</time></trkpt><trkpt lat="42.09828937176609" lon="13.08380091423504"><ele>604.0</ele><time>2026-04-09T14:45:08Z</time></trkpt><trkpt lat="42.098398609843485" lon="13.083762901417126"><ele>604.25</ele><time>2026-04-09T14:45:09Z</time></trkpt><trkpt lat="42.09849338841015" lon="13.083713812232824"><ele>604.5</ele><time>2026-04-09T14:45:10Z</time></trkpt><trkpt lat="42.0985995271143" lon="13.083658839227859"><ele>604.75</ele><time>2026-04-09T14:45:11Z</time></trkpt><trkpt lat="42.098729610980904" lon="13.083577442590157"><ele>605.0</ele><time>2026-04-09T14:45:12Z</time></trkpt><trkpt lat="42.098845171231964" lon="13.083517897341919"><ele>605.0</ele><time>2026-04-09T14:45:13Z</time></trkpt><trkpt lat="42.09892950998662" lon="13.083478506329914"><ele>605.0</ele><time>2026-04-09T14:45:14Z</time></trkpt><trkpt lat="42.09900108607969" lon="13.08344063863408"><ele>605.0</ele><time>2026-04-09T14:45:15Z</time></trkpt><trkpt lat="42.09908954727157" lon="13.083406415559109"><ele>605.0</ele><time>2026-04-09T14:45:17Z</time></trkpt><trkpt lat="42.099153234212494" lon="13.083361940465933"><ele>605.0</ele><time>2026-04-09T14:45:20Z</time></trkpt><trkpt lat="42.099267258350054" lon="13.083515992312423"><ele>606.0</ele><time>2026-04-09T14:45:21Z</time></trkpt><trkpt lat="42.09936609453733" lon="13.083602305332425"><ele>607.0</ele><time>2026-04-09T14:45:22Z</time></trkpt><trkpt lat="42.09944770400727" lon="13.083679606229758"><ele>608.0</ele><time>2026-04-09T14:45:23Z</time></trkpt><trkpt lat="42.0995470708418" lon="13.083763108058001"><ele>609.0</ele><time>2026-04-09T14:45:24Z</time></trkpt><trkpt lat="42.09966970917041" lon="13.08384295858319"><ele>609.0</ele><time>2026-04-09T14:45:25Z</time></trkpt><trkpt lat="42.099797514043686" lon="13.083918420792717"><ele>609.0</ele><time>2026-04-09T14:45:26Z</time></trkpt><trkpt lat="42.09992586541503" lon="13.083979676970573"><ele>609.0</ele><time>2026-04-09T14:45:27Z</time></trkpt><trkpt lat="42.10005887109514" lon="13.084025825492805"><ele>609.0</ele><time>2026-04-09T14:45:28Z</time></trkpt><trkpt lat="42.10023089361551" lon="13.084044065911572"><ele>612.0</ele><time>2026-04-09T14:45:29.001Z</time></trkpt><trkpt lat="42.100390463992966" lon="13.084061725541835"><ele>615.0</ele><time>2026-04-09T14:45:30.001Z</time></trkpt><trkpt lat="42.10055658409549" lon="13.084055373981753"><ele>618.0</ele><time>2026-04-09T14:45:31.001Z</time></trkpt><trkpt lat="42.10071636249691" lon="13.084043435616291"><ele>618.5</ele><time>2026-04-09T14:45:32.001Z</time></trkpt><trkpt lat="42.10086556343043" lon="13.084037635030882"><ele>619.0</ele><time>2026-04-09T14:45:33.001Z</time></trkpt><trkpt lat="42.101006168650954" lon="13.084031183731819"><ele>619.5</ele><time>2026-04-09T14:45:34.001Z</time></trkpt><trkpt lat="42.10115284469986" lon="13.084021518039481"><ele>620.0</ele><time>2026-04-09T14:45:35.001Z</time></trkpt><trkpt lat="42.10128763397092" lon="13.084016442417273"><ele>620.0</ele><time>2026-04-09T14:45:36.001Z</time></trkpt><trkpt lat="42.101399685303456" lon="13.08403089153282"><ele>620.0</ele><time>2026-04-09T14:45:37.001Z</time></trkpt><trkpt lat="42.10150138086057" lon="13.084044216027275"><ele>620.0</ele><time>2026-04-09T14:45:38.001Z</time></trkpt><trkpt lat="42.10159896903713" lon="13.084056247456918"><ele>620.0</ele><time>2026-04-09T14:45:39.001Z</time></trkpt><trkpt lat="42.101678239851594" lon="13.084088000255475"><ele>620.0</ele><time>2026-04-09T14:45:40.001Z</time></trkpt><trkpt lat="42.10175972658587" lon="13.084113849942819"><ele>618.0</ele><time>2026-04-09T14:45:41.001Z</time></trkpt><trkpt lat="42.10184140211189" lon="13.084162300251954"><ele>616.0</ele><time>2026-04-09T14:45:42.001Z</time></trkpt><trkpt lat="42.10193198377802" lon="13.084177204746483"><ele>614.0</ele><time>2026-04-09T14:45:43.001Z</time></trkpt><trkpt lat="42.10201554725926" lon="13.084223790879335"><ele>612.0</ele><time>2026-04-09T14:45:44.001Z</time></trkpt><trkpt lat="42.10210799687884" lon="13.084269473932387"><ele>610.0</ele><time>2026-04-09T14:45:45.001Z</time></trkpt><trkpt lat="42.102199247867915" lon="13.084319490713842"><ele>610.0</ele><time>2026-04-09T14:45:46.001Z</time></trkpt><trkpt lat="42.10230008230599" lon="13.084380573145655"><ele>610.0</ele><time>2026-04-09T14:45:47.001Z</time></trkpt><trkpt lat="42.102413618094644" lon="13.084436501511025"><ele>610.0</ele><time>2026-04-09T14:45:48.001Z</time></trkpt><trkpt lat="42.10252723500093" lon="13.08450883031915"><ele>610.0</ele><time>2026-04-09T14:45:49.001Z</time></trkpt><trkpt lat="42.10264873164691" lon="13.084580845692944"><ele>613.0</ele><time>2026-04-09T14:45:50.001Z</time></trkpt><trkpt lat="42.10279670006611" lon="13.084631409623231"><ele>616.0</ele><time>2026-04-09T14:45:51.001Z</time></trkpt><trkpt lat="42.1029959687413" lon="13.08467851601037"><ele>619.0</ele><time>2026-04-09T14:45:52.001Z</time></trkpt><trkpt lat="42.10321213550751" lon="13.084714699490924"><ele>621.0</ele><time>2026-04-09T14:45:53.001Z</time></trkpt><trkpt lat="42.1033964258521" lon="13.084723509633669"><ele>623.0</ele><time>2026-04-09T14:45:54.001Z</time></trkpt><trkpt lat="42.103560435757785" lon="13.084715313834291"><ele>625.0</ele><time>2026-04-09T14:45:55.001Z</time></trkpt><trkpt lat="42.10371488691144" lon="13.084679163100745"><ele>625.0</ele><time>2026-04-09T14:45:56.001Z</time></trkpt><trkpt lat="42.103877145909586" lon="13.084641777179169"><ele>625.0</ele><time>2026-04-09T14:45:57.001Z</time></trkpt><trkpt lat="42.10403890233613" lon="13.084589213885302"><ele>625.0</ele><time>2026-04-09T14:45:58.001Z</time></trkpt><trkpt lat="42.10418790719392" lon="13.084537244015326"><ele>624.6666666666667</ele><time>2026-04-09T14:45:59.001Z</time></trkpt><trkpt lat="42.10433459837747" lon="13.084473554573188"><ele>624.3333333333334</ele><time>2026-04-09T14:46:00.001Z</time></trkpt><trkpt lat="42.10447042468045" lon="13.084401161096997"><ele>624.0</ele><time>2026-04-09T14:46:01.001Z</time></trkpt><trkpt lat="42.10461672396477" lon="13.084298700939357"><ele>624.0</ele><time>2026-04-09T14:46:02.001Z</time></trkpt><trkpt lat="42.10475775796367" lon="13.084193215673473"><ele>624.0</ele><time>2026-04-09T14:46:03.001Z</time></trkpt><trkpt lat="42.10489419465653" lon="13.08408953154175"><ele>624.0</ele><time>2026-04-09T14:46:04.001Z</time></trkpt><trkpt lat="42.10503805857635" lon="13.083980600217245"><ele>627.3333333333334</ele><time>2026-04-09T14:46:05.001Z</time></trkpt><trkpt lat="42.10520484865524" lon="13.08385445067713"><ele>630.6666666666667</ele><time>2026-04-09T14:46:06.001Z</time></trkpt><trkpt lat="42.10534187263694" lon="13.083760558279318"><ele>634.0</ele><time>2026-04-09T14:46:07.001Z</time></trkpt><trkpt lat="42.10549400916543" lon="13.083669477152277"><ele>634.0</ele><time>2026-04-09T14:46:08.001Z</time></trkpt><trkpt lat="42.10566096694665" lon="13.0835874908719"><ele>634.0</ele><time>2026-04-09T14:46:09.001Z</time></trkpt><trkpt lat="42.10583733086922" lon="13.083512259951988"><ele>634.0</ele><time>2026-04-09T14:46:10.001Z</time></trkpt><trkpt lat="42.10601903932338" lon="13.083458348100283"><ele>630.0</ele><time>2026-04-09T14:46:11.001Z</time></trkpt><trkpt lat="42.10621403046965" lon="13.08341636051681"><ele>626.0</ele><time>2026-04-09T14:46:12.001Z</time></trkpt><trkpt lat="42.10641925005092" lon="13.08338799273218"><ele>622.0</ele><time>2026-04-09T14:46:13.001Z</time></trkpt><trkpt lat="42.10664514954885" lon="13.083367143305416"><ele>621.0</ele><time>2026-04-09T14:46:14.001Z</time></trkpt><trkpt lat="42.10687233999695" lon="13.083340716318336"><ele>620.0</ele><time>2026-04-09T14:46:15.001Z</time></trkpt><trkpt lat="42.10706269926932" lon="13.083330756743878"><ele>619.0</ele><time>2026-04-09T14:46:16Z</time></trkpt><trkpt lat="42.1072737953356" lon="13.08333710177793"><ele>620.0</ele><time>2026-04-09T14:46:17Z</time></trkpt><trkpt lat="42.107518028597624" lon="13.083375503489188"><ele>621.0</ele><time>2026-04-09T14:46:18Z</time></trkpt><trkpt lat="42.1077510130268" lon="13.083435083602819"><ele>621.0</ele><time>2026-04-09T14:46:19Z</time></trkpt><trkpt lat="42.107965761386176" lon="13.083490222933468"><ele>621.0</ele><time>2026-04-09T14:46:20Z</time></trkpt><trkpt lat="42.10816575544438" lon="13.083536648547861"><ele>621.0</ele><time>2026-04-09T14:46:21Z</time></trkpt><trkpt lat="42.10837638045735" lon="13.083568011158489"><ele>621.5</ele><time>2026-04-09T14:46:22Z</time></trkpt><trkpt lat="42.108603880941715" lon="13.083568842499142"><ele>622.0</ele><time>2026-04-09T14:46:23Z</time></trkpt><trkpt lat="42.10885533885977" lon="13.083541253591331"><ele>621.0</ele><time>2026-04-09T14:46:24Z</time></trkpt><trkpt lat="42.10912525327689" lon="13.08350323997614"><ele>620.0</ele><time>2026-04-09T14:46:25Z</time></trkpt><trkpt lat="42.10940279125941" lon="13.083466676146738"><ele>620.0</ele><time>2026-04-09T14:46:26Z</time></trkpt><trkpt lat="42.1096843578015" lon="13.083432850843721"><ele>620.0</ele><time>2026-04-09T14:46:27Z</time></trkpt><trkpt lat="42.10998442444074" lon="13.083394790277632"><ele>623.0</ele><time>2026-04-09T14:46:28Z</time></trkpt><trkpt lat="42.11029425063549" lon="13.083362646690503"><ele>626.0</ele><time>2026-04-09T14:46:29Z</time></trkpt><trkpt lat="42.1106022444863" lon="13.083353311717833"><ele>626.0</ele><time>2026-04-09T14:46:30Z</time></trkpt><trkpt lat="42.11089759219182" lon="13.083354191437776"><ele>626.0</ele><time>2026-04-09T14:46:31Z</time></trkpt><trkpt lat="42.111167154123834" lon="13.083362238731185"><ele>626.0</ele><time>2026-04-09T14:46:32Z</time></trkpt><trkpt lat="42.11141999923279" lon="13.083364405741074"><ele>626.0</ele><time>2026-04-09T14:46:33Z</time></trkpt><trkpt lat="42.11165536159176" lon="13.08335721142399"><ele>625.0</ele><time>2026-04-09T14:46:34Z</time></trkpt><trkpt lat="42.11187900996128" lon="13.083342095508504"><ele>624.0</ele><time>2026-04-09T14:46:35Z</time></trkpt><trkpt lat="42.11209420469303" lon="13.083322359907891"><ele>623.0</ele><time>2026-04-09T14:46:36Z</time></trkpt><trkpt lat="42.112298025186405" lon="13.083304058603426"><ele>622.6666666666666</ele><time>2026-04-09T14:46:37Z</time></trkpt><trkpt lat="42.11249004315212" lon="13.083290952167324"><ele>622.3333333333334</ele><time>2026-04-09T14:46:38Z</time></trkpt><trkpt lat="42.11268373177957" lon="13.083282619885788"><ele>622.0</ele><time>2026-04-09T14:46:39Z</time></trkpt><trkpt lat="42.112881293262305" lon="13.083274798166155"><ele>622.0</ele><time>2026-04-09T14:46:40Z</time></trkpt><trkpt lat="42.11310283343265" lon="13.083274361406419"><ele>622.0</ele><time>2026-04-09T14:46:41Z</time></trkpt><trkpt lat="42.11332791714473" lon="13.083299707271804"><ele>622.0</ele><time>2026-04-09T14:46:42Z</time></trkpt><trkpt lat="42.11354790119304" lon="13.083346081213326"><ele>621.3333333333334</ele><time>2026-04-09T14:46:43Z</time></trkpt><trkpt lat="42.11374514803309" lon="13.083414428714363"><ele>620.6666666666666</ele><time>2026-04-09T14:46:44Z</time></trkpt><trkpt lat="42.11394210553878" lon="13.083494662482078"><ele>620.0</ele><time>2026-04-09T14:46:45Z</time></trkpt><trkpt lat="42.11413597446382" lon="13.083597195953605"><ele>620.0</ele><time>2026-04-09T14:46:46Z</time></trkpt><trkpt lat="42.114337025104454" lon="13.083737981945161"><ele>620.0</ele><time>2026-04-09T14:46:47Z</time></trkpt><trkpt lat="42.11452305257066" lon="13.083871692151424"><ele>620.0</ele><time>2026-04-09T14:46:48Z</time></trkpt><trkpt lat="42.11468760350172" lon="13.08399129904612"><ele>619.6666666666666</ele><time>2026-04-09T14:46:49Z</time></trkpt><trkpt lat="42.11484811883993" lon="13.084107318554812"><ele>619.3333333333334</ele><time>2026-04-09T14:46:50Z</time></trkpt><trkpt lat="42.11501626665469" lon="13.084227277022517"><ele>619.0</ele><time>2026-04-09T14:46:51Z</time></trkpt><trkpt lat="42.115170036518194" lon="13.08434711067119"><ele>620.0</ele><time>2026-04-09T14:46:52Z</time></trkpt><trkpt lat="42.11531024145825" lon="13.08446920537627"><ele>621.0</ele><time>2026-04-09T14:46:53Z</time></trkpt><trkpt lat="42.11544144804837" lon="13.08460949441869"><ele>622.0</ele><time>2026-04-09T14:46:54Z</time></trkpt><trkpt lat="42.11558520019892" lon="13.08479071139501"><ele>621.0</ele><time>2026-04-09T14:46:55Z</time></trkpt><trkpt lat="42.11572470485689" lon="13.084999810054299"><ele>620.0</ele><time>2026-04-09T14:46:56Z</time></trkpt><trkpt lat="42.11584811751986" lon="13.085199969382991"><ele>619.0</ele><time>2026-04-09T14:46:57Z</time></trkpt><trkpt lat="42.11595579672552" lon="13.085401080289799"><ele>620.5</ele><time>2026-04-09T14:46:58Z</time></trkpt><trkpt lat="42.11606763907683" lon="13.085640737613753"><ele>622.0</ele><time>2026-04-09T14:46:59Z</time></trkpt><trkpt lat="42.116184048244314" lon="13.085932020733052"><ele>622.0</ele><time>2026-04-09T14:47:00Z</time></trkpt><trkpt lat="42.116311115588886" lon="13.086263545309853"><ele>622.0</ele><time>2026-04-09T14:47:01Z</time></trkpt><trkpt lat="42.11644857307579" lon="13.086626061208396"><ele>625.5</ele><time>2026-04-09T14:47:02Z</time></trkpt><trkpt lat="42.116602068579034" lon="13.086988389177835"><ele>629.0</ele><time>2026-04-09T14:47:03Z</time></trkpt><trkpt lat="42.11671702200796" lon="13.087345784941483"><ele>625.0</ele><time>2026-04-09T14:47:04Z</time></trkpt><trkpt lat="42.116853718814" lon="13.087719781529175"><ele>621.0</ele><time>2026-04-09T14:47:05Z</time></trkpt><trkpt lat="42.11699910619683" lon="13.088091598845743"><ele>620.5</ele><time>2026-04-09T14:47:06Z</time></trkpt><trkpt lat="42.11714371858578" lon="13.088469589551803"><ele>620.0</ele><time>2026-04-09T14:47:07Z</time></trkpt><trkpt lat="42.11729025394585" lon="13.08885701905707"><ele>622.5</ele><time>2026-04-09T14:47:08Z</time></trkpt><trkpt lat="42.11744290864167" lon="13.089256835916423"><ele>625.0</ele><time>2026-04-09T14:47:09Z</time></trkpt><trkpt lat="42.117572878347254" lon="13.08959353954671"><ele>625.0</ele><time>2026-04-09T14:47:10Z</time></trkpt><trkpt lat="42.117699011679235" lon="13.089913451989299"><ele>625.0</ele><time>2026-04-09T14:47:11Z</time></trkpt><trkpt lat="42.117811425016654" lon="13.090207938304607"><ele>623.0</ele><time>2026-04-09T14:47:12Z</time></trkpt><trkpt lat="42.11791397976448" lon="13.090502805013164"><ele>621.0</ele><time>2026-04-09T14:47:13Z</time></trkpt><trkpt lat="42.118002755413784" lon="13.090822676389585"><ele>621.0</ele><time>2026-04-09T14:47:14Z</time></trkpt><trkpt lat="42.11806320042019" lon="13.09116643208036"><ele>621.0</ele><time>2026-04-09T14:47:15Z</time></trkpt><trkpt lat="42.118124511356434" lon="13.091526357871178"><ele>621.0</ele><time>2026-04-09T14:47:16Z</time></trkpt><trkpt lat="42.11819702865107" lon="13.091913425934765"><ele>621.0</ele><time>2026-04-09T14:47:17Z</time></trkpt><trkpt lat="42.118268517173945" lon="13.092293747617225"><ele>626.5</ele><time>2026-04-09T14:47:18Z</time></trkpt><trkpt lat="42.118333918395706" lon="13.092651562823319"><ele>632.0</ele><time>2026-04-09T14:47:19Z</time></trkpt><trkpt lat="42.118407074357435" lon="13.093030408610852"><ele>631.5</ele><time>2026-04-09T14:47:20Z</time></trkpt><trkpt lat="42.11847802960135" lon="13.09338009082571"><ele>631.0</ele><time>2026-04-09T14:47:21Z</time></trkpt><trkpt lat="42.11854835979555" lon="13.093741022705471"><ele>629.5</ele><time>2026-04-09T14:47:22Z</time></trkpt><trkpt lat="42.11861462629036" lon="13.094093097798622"><ele>628.0</ele><time>2026-04-09T14:47:23Z</time></trkpt><trkpt lat="42.11867244060592" lon="13.094414189066013"><ele>628.0</ele><time>2026-04-09T14:47:24Z</time></trkpt><trkpt lat="42.118728746368774" lon="13.09471832594965"><ele>628.0</ele><time>2026-04-09T14:47:25Z</time></trkpt><trkpt lat="42.118782157224274" lon="13.095008733493636"><ele>626.5</ele><time>2026-04-09T14:47:26Z</time></trkpt><trkpt lat="42.11883448356947" lon="13.095320509939496"><ele>625.0</ele><time>2026-04-09T14:47:27Z</time></trkpt><trkpt lat="42.11884829066118" lon="13.095642021248574"><ele>624.5</ele><time>2026-04-09T14:47:28Z</time></trkpt><trkpt lat="42.11884878017526" lon="13.095995004610739"><ele>624.0</ele><time>2026-04-09T14:47:29.001Z</time></trkpt><trkpt lat="42.11884185795176" lon="13.096324893513524"><ele>623.5</ele><time>2026-04-09T14:47:30.001Z</time></trkpt><trkpt lat="42.11882324605293" lon="13.096651848429525"><ele>623.0</ele><time>2026-04-09T14:47:31.001Z</time></trkpt><trkpt lat="42.118805636531704" lon="13.096985573995788"><ele>623.0</ele><time>2026-04-09T14:47:32.001Z</time></trkpt><trkpt lat="42.11878780961802" lon="13.097291198264763"><ele>623.0</ele><time>2026-04-09T14:47:33.001Z</time></trkpt><trkpt lat="42.11876826930875" lon="13.097584666216518"><ele>623.0</ele><time>2026-04-09T14:47:34.001Z</time></trkpt><trkpt lat="42.11872581060523" lon="13.09788888490822"><ele>623.5</ele><time>2026-04-09T14:47:35.001Z</time></trkpt><trkpt lat="42.1186463506238" lon="13.098212872744687"><ele>624.0</ele><time>2026-04-09T14:47:36.001Z</time></trkpt><trkpt lat="42.11854418789698" lon="13.098550588233996"><ele>624.5</ele><time>2026-04-09T14:47:37.001Z</time></trkpt><trkpt lat="42.11842356208928" lon="13.098865645661036"><ele>625.0</ele><time>2026-04-09T14:47:38.001Z</time></trkpt><trkpt lat="42.11827879774091" lon="13.099146285199485"><ele>626.0</ele><time>2026-04-09T14:47:39.001Z</time></trkpt><trkpt lat="42.11813835662091" lon="13.09938720479968"><ele>627.0</ele><time>2026-04-09T14:47:40.001Z</time></trkpt><trkpt lat="42.11800439964423" lon="13.099611944094033"><ele>628.0</ele><time>2026-04-09T14:47:41.001Z</time></trkpt><trkpt lat="42.11787476785315" lon="13.09983563162414"><ele>628.6666666666667</ele><time>2026-04-09T14:47:42.001Z</time></trkpt><trkpt lat="42.11775469042967" lon="13.100063719350597"><ele>629.3333333333334</ele><time>2026-04-09T14:47:43.001Z</time></trkpt><trkpt lat="42.11765557659823" lon="13.100297621002069"><ele>630.0</ele><time>2026-04-09T14:47:44.001Z</time></trkpt><trkpt lat="42.11757689779086" lon="13.1005425735427"><ele>630.6666666666666</ele><time>2026-04-09T14:47:45.001Z</time></trkpt><trkpt lat="42.117514771703696" lon="13.10080908183938"><ele>631.3333333333333</ele><time>2026-04-09T14:47:46.001Z</time></trkpt><trkpt lat="42.11747168206332" lon="13.101066523573579"><ele>632.0</ele><time>2026-04-09T14:47:47.001Z</time></trkpt><trkpt lat="42.11744454619128" lon="13.101307019020862"><ele>632.0</ele><time>2026-04-09T14:47:48.001Z</time></trkpt><trkpt lat="42.117431264543406" lon="13.1015683091812"><ele>632.0</ele><time>2026-04-09T14:47:49.001Z</time></trkpt><trkpt lat="42.117440893170446" lon="13.101824154054874"><ele>632.0</ele><time>2026-04-09T14:47:50.001Z</time></trkpt><trkpt lat="42.11745372812621" lon="13.102097798005898"><ele>633.5</ele><time>2026-04-09T14:47:51.001Z</time></trkpt><trkpt lat="42.11746220856594" lon="13.102398674756596"><ele>635.0</ele><time>2026-04-09T14:47:52.001Z</time></trkpt><trkpt lat="42.117471399430215" lon="13.102708343773713"><ele>635.0</ele><time>2026-04-09T14:47:53.001Z</time></trkpt><trkpt lat="42.117478860262324" lon="13.10298424980941"><ele>635.0</ele><time>2026-04-09T14:47:54.001Z</time></trkpt><trkpt lat="42.1174833532637" lon="13.103268762451409"><ele>635.0</ele><time>2026-04-09T14:47:55.001Z</time></trkpt><trkpt lat="42.11748696031865" lon="13.10352994443027"><ele>635.0</ele><time>2026-04-09T14:47:56.001Z</time></trkpt><trkpt lat="42.1174889173143" lon="13.103812723289932"><ele>635.0</ele><time>2026-04-09T14:47:57.001Z</time></trkpt><trkpt lat="42.11746686848303" lon="13.104125951007108"><ele>635.0</ele><time>2026-04-09T14:47:58.001Z</time></trkpt><trkpt lat="42.11741753335093" lon="13.104444106878134"><ele>636.0</ele><time>2026-04-09T14:47:59.001Z</time></trkpt><trkpt lat="42.11735342847121" lon="13.104782471156767"><ele>637.0</ele><time>2026-04-09T14:48:00.001Z</time></trkpt><trkpt lat="42.117294426069634" lon="13.105119781281472"><ele>637.0</ele><time>2026-04-09T14:48:01.001Z</time></trkpt><trkpt lat="42.11724380375606" lon="13.105448343197857"><ele>637.0</ele><time>2026-04-09T14:48:02.001Z</time></trkpt><trkpt lat="42.117193219957485" lon="13.1057867177038"><ele>637.0</ele><time>2026-04-09T14:48:03.001Z</time></trkpt><trkpt lat="42.11714094501091" lon="13.106132240450894"><ele>637.0</ele><time>2026-04-09T14:48:04.001Z</time></trkpt><trkpt lat="42.117109834805554" lon="13.106493080807267"><ele>637.5</ele><time>2026-04-09T14:48:05.001Z</time></trkpt><trkpt lat="42.117103202929954" lon="13.106863852935126"><ele>638.0</ele><time>2026-04-09T14:48:06.001Z</time></trkpt><trkpt lat="42.11710464361767" lon="13.10723454874188"><ele>638.5</ele><time>2026-04-09T14:48:07.001Z</time></trkpt><trkpt lat="42.11711073810182" lon="13.10756739216408"><ele>639.0</ele><time>2026-04-09T14:48:08.001Z</time></trkpt><trkpt lat="42.11712022659325" lon="13.10787028179044"><ele>639.0</ele><time>2026-04-09T14:48:09.001Z</time></trkpt><trkpt lat="42.11714963294212" lon="13.108183622554689"><ele>639.0</ele><time>2026-04-09T14:48:10.001Z</time></trkpt><trkpt lat="42.117224119898246" lon="13.108507160011147"><ele>639.5</ele><time>2026-04-09T14:48:11.001Z</time></trkpt><trkpt lat="42.11733434594771" lon="13.108832782346644"><ele>640.0</ele><time>2026-04-09T14:48:12.001Z</time></trkpt><trkpt lat="42.11745544434657" lon="13.109157217931488"><ele>650.0</ele><time>2026-04-09T14:48:13.001Z</time></trkpt><trkpt lat="42.11756322053766" lon="13.10949202426595"><ele>660.0</ele><time>2026-04-09T14:48:14.001Z</time></trkpt><trkpt lat="42.11765597296584" lon="13.109817372682594"><ele>657.0</ele><time>2026-04-09T14:48:15.001Z</time></trkpt><trkpt lat="42.11774275746198" lon="13.110117925077324"><ele>654.0</ele><time>2026-04-09T14:48:16.001Z</time></trkpt><trkpt lat="42.11783388784647" lon="13.110419332523227"><ele>654.0</ele><time>2026-04-09T14:48:17.001Z</time></trkpt><trkpt lat="42.11793642004982" lon="13.110697585994902"><ele>654.0</ele><time>2026-04-09T14:48:18.001Z</time></trkpt><trkpt lat="42.11805117571093" lon="13.11094981481708"><ele>653.0</ele><time>2026-04-09T14:48:19.001Z</time></trkpt><trkpt lat="42.118180041420416" lon="13.111165895432196"><ele>652.0</ele><time>2026-04-09T14:48:20.001Z</time></trkpt><trkpt lat="42.118321239483656" lon="13.111355855817148"><ele>651.0</ele><time>2026-04-09T14:48:21.001Z</time></trkpt><trkpt lat="42.118487270092615" lon="13.111509636861129"><ele>654.5</ele><time>2026-04-09T14:48:22Z</time></trkpt><trkpt lat="42.11869444179461" lon="13.111632082005551"><ele>658.0</ele><time>2026-04-09T14:48:23Z</time></trkpt><trkpt lat="42.118919008547444" lon="13.111723142964458"><ele>665.5</ele><time>2026-04-09T14:48:24Z</time></trkpt><trkpt lat="42.119143963170714" lon="13.111802644448995"><ele>673.0</ele><time>2026-04-09T14:48:25Z</time></trkpt><trkpt lat="42.11937515482057" lon="13.111907773715746"><ele>673.0</ele><time>2026-04-09T14:48:26Z</time></trkpt><trkpt lat="42.119605855796486" lon="13.11201528220603"><ele>673.0</ele><time>2026-04-09T14:48:27Z</time></trkpt><trkpt lat="42.11982124582892" lon="13.112088465586302"><ele>680.5</ele><time>2026-04-09T14:48:28Z</time></trkpt><trkpt lat="42.120041233131666" lon="13.112128024802066"><ele>688.0</ele><time>2026-04-09T14:48:29Z</time></trkpt><trkpt lat="42.120272183026486" lon="13.11211336900291"><ele>688.0</ele><time>2026-04-09T14:48:30Z</time></trkpt><trkpt lat="42.12052680860375" lon="13.112074726682327"><ele>688.0</ele><time>2026-04-09T14:48:31Z</time></trkpt><trkpt lat="42.12079968253922" lon="13.112065588227326"><ele>691.0</ele><time>2026-04-09T14:48:32Z</time></trkpt><trkpt lat="42.121044735451676" lon="13.11202086378944"><ele>694.0</ele><time>2026-04-09T14:48:33Z</time></trkpt><trkpt lat="42.12126572439045" lon="13.112000996955379"><ele>694.0</ele><time>2026-04-09T14:48:34Z</time></trkpt><trkpt lat="42.121496237526436" lon="13.11195014802152"><ele>694.0</ele><time>2026-04-09T14:48:35Z</time></trkpt><trkpt lat="42.12171339606385" lon="13.111835518233114"><ele>692.5</ele><time>2026-04-09T14:48:36Z</time></trkpt><trkpt lat="42.121931645127894" lon="13.111663501744935"><ele>691.0</ele><time>2026-04-09T14:48:37Z</time></trkpt><trkpt lat="42.12216216265636" lon="13.111480798132472"><ele>695.5</ele><time>2026-04-09T14:48:38Z</time></trkpt><trkpt lat="42.122418584912914" lon="13.11130974687244"><ele>700.0</ele><time>2026-04-09T14:48:39Z</time></trkpt><trkpt lat="42.12266713912509" lon="13.111207250863746"><ele>700.0</ele><time>2026-04-09T14:48:40Z</time></trkpt><trkpt lat="42.122882612742856" lon="13.111111360286023"><ele>700.0</ele><time>2026-04-09T14:48:41Z</time></trkpt><trkpt lat="42.12310840227346" lon="13.111060010568652"><ele>697.0</ele><time>2026-04-09T14:48:42Z</time></trkpt><trkpt lat="42.12335858626778" lon="13.111036221588355"><ele>694.0</ele><time>2026-04-09T14:48:43Z</time></trkpt><trkpt lat="42.12364592452716" lon="13.111037453369883"><ele>694.0</ele><time>2026-04-09T14:48:44Z</time></trkpt><trkpt lat="42.12394339141536" lon="13.111038183864478"><ele>694.0</ele><time>2026-04-09T14:48:45Z</time></trkpt><trkpt lat="42.124249774956006" lon="13.111034266868009"><ele>695.0</ele><time>2026-04-09T14:48:46Z</time></trkpt><trkpt lat="42.12456987622992" lon="13.111026477863861"><ele>696.0</ele><time>2026-04-09T14:48:47Z</time></trkpt><trkpt lat="42.12489342090258" lon="13.11101711523649"><ele>702.0</ele><time>2026-04-09T14:48:48Z</time></trkpt><trkpt lat="42.125213879244356" lon="13.111031072595276"><ele>708.0</ele><time>2026-04-09T14:48:49Z</time></trkpt><trkpt lat="42.125527421268025" lon="13.111045340156881"><ele>707.5</ele><time>2026-04-09T14:48:50Z</time></trkpt><trkpt lat="42.12582168700988" lon="13.111047763938021"><ele>707.0</ele><time>2026-04-09T14:48:51Z</time></trkpt><trkpt lat="42.126093896784084" lon="13.111042610297732"><ele>707.0</ele><time>2026-04-09T14:48:52Z</time></trkpt><trkpt lat="42.12635720689116" lon="13.111044323298712"><ele>707.0</ele><time>2026-04-09T14:48:53Z</time></trkpt><trkpt lat="42.1266231754799" lon="13.111044377179342"><ele>706.5</ele><time>2026-04-09T14:48:54Z</time></trkpt><trkpt lat="42.12689547127351" lon="13.111039007151437"><ele>706.0</ele><time>2026-04-09T14:48:55Z</time></trkpt><trkpt lat="42.127177583817875" lon="13.111033841183666"><ele>708.5</ele><time>2026-04-09T14:48:56Z</time></trkpt><trkpt lat="42.12746323149258" lon="13.111030629581062"><ele>711.0</ele><time>2026-04-09T14:48:57Z</time></trkpt><trkpt lat="42.127739597871475" lon="13.111026693967911"><ele>711.0</ele><time>2026-04-09T14:48:58Z</time></trkpt><trkpt lat="42.12801946301224" lon="13.111016996380393"><ele>711.0</ele><time>2026-04-09T14:48:59Z</time></trkpt><trkpt lat="42.12828438407131" lon="13.111003125032862"><ele>713.0</ele><time>2026-04-09T14:49:00Z</time></trkpt><trkpt lat="42.128532486882214" lon="13.110976590921641"><ele>715.0</ele><time>2026-04-09T14:49:01Z</time></trkpt><trkpt lat="42.128769738285236" lon="13.110931876971794"><ele>715.0</ele><time>2026-04-09T14:49:02Z</time></trkpt><trkpt lat="42.129017783029504" lon="13.110878623714497"><ele>715.0</ele><time>2026-04-09T14:49:03Z</time></trkpt><trkpt lat="42.12924481324573" lon="13.110823673106326"><ele>714.6666666666667</ele><time>2026-04-09T14:49:04Z</time></trkpt><trkpt lat="42.129464000010906" lon="13.11076697501737"><ele>714.3333333333334</ele><time>2026-04-09T14:49:05Z</time></trkpt><trkpt lat="42.129668189893806" lon="13.11072876868114"><ele>714.0</ele><time>2026-04-09T14:49:06Z</time></trkpt><trkpt lat="42.129847253225265" lon="13.11073158039408"><ele>716.0</ele><time>2026-04-09T14:49:07Z</time></trkpt><trkpt lat="42.13000221341377" lon="13.110800354434442"><ele>718.0</ele><time>2026-04-09T14:49:08Z</time></trkpt><trkpt lat="42.13014408256966" lon="13.110916347253472"><ele>720.0</ele><time>2026-04-09T14:49:09Z</time></trkpt><trkpt lat="42.13025545365413" lon="13.111061188641246"><ele>720.0</ele><time>2026-04-09T14:49:10Z</time></trkpt><trkpt lat="42.130338744225995" lon="13.11122373172218"><ele>720.0</ele><time>2026-04-09T14:49:11Z</time></trkpt><trkpt lat="42.13039822052927" lon="13.111418452542521"><ele>720.0</ele><time>2026-04-09T14:49:12Z</time></trkpt><trkpt lat="42.130425047511935" lon="13.111645615199128"><ele>718.0</ele><time>2026-04-09T14:49:13Z</time></trkpt><trkpt lat="42.130419455270264" lon="13.11189342697306"><ele>716.0</ele><time>2026-04-09T14:49:14Z</time></trkpt><trkpt lat="42.13039373083215" lon="13.112145619562309"><ele>714.0</ele><time>2026-04-09T14:49:15.001Z</time></trkpt><trkpt lat="42.130397464396744" lon="13.112360742234921"><ele>714.0</ele><time>2026-04-09T14:49:16.001Z</time></trkpt><trkpt lat="42.130441294027065" lon="13.112581969278455"><ele>714.0</ele><time>2026-04-09T14:49:17.001Z</time></trkpt><trkpt lat="42.13054125349155" lon="13.112786148401202"><ele>714.0</ele><time>2026-04-09T14:49:18.001Z</time></trkpt><trkpt lat="42.13067348573796" lon="13.112975390226495"><ele>718.6666666666666</ele><time>2026-04-09T14:49:19.001Z</time></trkpt><trkpt lat="42.13081732005914" lon="13.113124375560878"><ele>723.3333333333333</ele><time>2026-04-09T14:49:20.001Z</time></trkpt><trkpt lat="42.130958455602354" lon="13.11325057482761"><ele>728.0</ele><time>2026-04-09T14:49:21.001Z</time></trkpt><trkpt lat="42.131089370305055" lon="13.11338827683602"><ele>728.0</ele><time>2026-04-09T14:49:22.001Z</time></trkpt><trkpt lat="42.13121336040283" lon="13.113519284667985"><ele>728.0</ele><time>2026-04-09T14:49:23.001Z</time></trkpt><trkpt lat="42.13132305369827" lon="13.113672081614967"><ele>728.0</ele><time>2026-04-09T14:49:24.001Z</time></trkpt><trkpt lat="42.131404499856274" lon="13.113867980732316"><ele>724.3333333333333</ele><time>2026-04-09T14:49:25.001Z</time></trkpt><trkpt lat="42.13147108293474" lon="13.114115673076551"><ele>720.6666666666666</ele><time>2026-04-09T14:49:26.001Z</time></trkpt><trkpt lat="42.13151114250574" lon="13.114410938304731"><ele>717.0</ele><time>2026-04-09T14:49:27.001Z</time></trkpt><trkpt lat="42.13152336791595" lon="13.114696984765631"><ele>715.6666666666666</ele><time>2026-04-09T14:49:28.001Z</time></trkpt><trkpt lat="42.13152639194479" lon="13.114967136299963"><ele>714.3333333333333</ele><time>2026-04-09T14:49:29.001Z</time></trkpt><trkpt lat="42.13156194927798" lon="13.115251288607107"><ele>713.0</ele><time>2026-04-09T14:49:30.001Z</time></trkpt><trkpt lat="42.131634848186124" lon="13.115585148443529"><ele>730.5</ele><time>2026-04-09T14:49:31.001Z</time></trkpt><trkpt lat="42.13173203571463" lon="13.115952888394775"><ele>748.0</ele><time>2026-04-09T14:49:32.001Z</time></trkpt><trkpt lat="42.13181966870262" lon="13.116272005262928"><ele>748.0</ele><time>2026-04-09T14:49:33.001Z</time></trkpt><trkpt lat="42.13189651789557" lon="13.116549088023122"><ele>748.0</ele><time>2026-04-09T14:49:34.001Z</time></trkpt><trkpt lat="42.13193695000791" lon="13.116839348613182"><ele>748.0</ele><time>2026-04-09T14:49:35.001Z</time></trkpt><trkpt lat="42.13192636224159" lon="13.117162388023173"><ele>744.5</ele><time>2026-04-09T14:49:36.001Z</time></trkpt><trkpt lat="42.13189289697305" lon="13.117493794979046"><ele>741.0</ele><time>2026-04-09T14:49:37.001Z</time></trkpt><trkpt lat="42.13186746756906" lon="13.117819379637398"><ele>741.0</ele><time>2026-04-09T14:49:38.001Z</time></trkpt><trkpt lat="42.131855119826845" lon="13.11813911454836"><ele>741.0</ele><time>2026-04-09T14:49:39.001Z</time></trkpt><trkpt lat="42.13188648170615" lon="13.118450744080421"><ele>741.5</ele><time>2026-04-09T14:49:40.001Z</time></trkpt><trkpt lat="42.1319500413421" lon="13.118775416611856"><ele>742.0</ele><time>2026-04-09T14:49:41.001Z</time></trkpt><trkpt lat="42.13202563291207" lon="13.119136814734524"><ele>739.0</ele><time>2026-04-09T14:49:42.001Z</time></trkpt><trkpt lat="42.1320882634586" lon="13.11952417717848"><ele>736.0</ele><time>2026-04-09T14:49:43.001Z</time></trkpt><trkpt lat="42.1321440509771" lon="13.119926054360315"><ele>736.0</ele><time>2026-04-09T14:49:44.001Z</time></trkpt><trkpt lat="42.13219832205037" lon="13.120271928494049"><ele>736.0</ele><time>2026-04-09T14:49:45.001Z</time></trkpt><trkpt lat="42.13224568094723" lon="13.12058723108292"><ele>735.0</ele><time>2026-04-09T14:49:46.001Z</time></trkpt><trkpt lat="42.132289318805064" lon="13.120871900861841"><ele>734.0</ele><time>2026-04-09T14:49:47.001Z</time></trkpt><trkpt lat="42.132349615547" lon="13.121123720552387"><ele>733.0</ele><time>2026-04-09T14:49:48.001Z</time></trkpt><trkpt lat="42.13244268013494" lon="13.121344305690982"><ele>741.6666666666667</ele><time>2026-04-09T14:49:49.001Z</time></trkpt><trkpt lat="42.132565216994294" lon="13.12155343773294"><ele>750.3333333333334</ele><time>2026-04-09T14:49:50.001Z</time></trkpt><trkpt lat="42.1327112230409" lon="13.121741012134105"><ele>759.0</ele><time>2026-04-09T14:49:51.001Z</time></trkpt><trkpt lat="42.1328582088649" lon="13.121909272958055"><ele>759.0</ele><time>2026-04-09T14:49:52.001Z</time></trkpt><trkpt lat="42.13294849737578" lon="13.122134245532086"><ele>759.0</ele><time>2026-04-09T14:49:53.001Z</time></trkpt><trkpt lat="42.133009970915296" lon="13.12235480853876"><ele>759.0</ele><time>2026-04-09T14:49:54.001Z</time></trkpt><trkpt lat="42.13303224414382" lon="13.122584053063667"><ele>761.6666666666666</ele><time>2026-04-09T14:49:55.001Z</time></trkpt><trkpt lat="42.133030287386866" lon="13.122823531371099"><ele>764.3333333333333</ele><time>2026-04-09T14:49:56.001Z</time></trkpt><trkpt lat="42.132985344541815" lon="13.123050825818384"><ele>767.0</ele><time>2026-04-09T14:49:57.001Z</time></trkpt><trkpt lat="42.132904371491755" lon="13.123265087311669"><ele>767.0</ele><time>2026-04-09T14:49:58.001Z</time></trkpt><trkpt lat="42.13281684771499" lon="13.123514837814465"><ele>767.0</ele><time>2026-04-09T14:49:59.001Z</time></trkpt><trkpt lat="42.13270759277228" lon="13.12373734862023"><ele>767.0</ele><time>2026-04-09T14:50:00.001Z</time></trkpt><trkpt lat="42.13261431292664" lon="13.12395172788298"><ele>765.3333333333333</ele><time>2026-04-09T14:50:01.001Z</time></trkpt><trkpt lat="42.132519998019475" lon="13.124162258437584"><ele>763.6666666666666</ele><time>2026-04-09T14:50:02.001Z</time></trkpt><trkpt lat="42.13239881132008" lon="13.124356926047668"><ele>762.0</ele><time>2026-04-09T14:50:03.001Z</time></trkpt><trkpt lat="42.132234839756656" lon="13.124512867574948"><ele>762.0</ele><time>2026-04-09T14:50:04.001Z</time></trkpt><trkpt lat="42.13205808377017" lon="13.124691259034735"><ele>762.0</ele><time>2026-04-09T14:50:05.001Z</time></trkpt><trkpt lat="42.13186795648453" lon="13.124808187601545"><ele>762.0</ele><time>2026-04-09T14:50:06.001Z</time></trkpt><trkpt lat="42.13166543045217" lon="13.12490183871046"><ele>770.6666666666667</ele><time>2026-04-09T14:50:07.001Z</time></trkpt><trkpt lat="42.13145899087351" lon="13.124950238402699"><ele>779.3333333333334</ele><time>2026-04-09T14:50:08.001Z</time></trkpt><trkpt lat="42.131250511763696" lon="13.124930614956979"><ele>788.0</ele><time>2026-04-09T14:50:09.001Z</time></trkpt><trkpt lat="42.131046863936405" lon="13.124931428072506"><ele>789.0</ele><time>2026-04-09T14:50:10.001Z</time></trkpt><trkpt lat="42.13084583668396" lon="13.124854613498025"><ele>790.0</ele><time>2026-04-09T14:50:11.001Z</time></trkpt><trkpt lat="42.13063696639366" lon="13.124748701646729"><ele>791.0</ele><time>2026-04-09T14:50:12.001Z</time></trkpt><trkpt lat="42.13039372374588" lon="13.124616034408762"><ele>791.0</ele><time>2026-04-09T14:50:13.001Z</time></trkpt><trkpt lat="42.13012981196117" lon="13.124489692852565"><ele>791.0</ele><time>2026-04-09T14:50:14.001Z</time></trkpt><trkpt lat="42.12987677862855" lon="13.124387278298451"><ele>794.0</ele><time>2026-04-09T14:50:15.001Z</time></trkpt><trkpt lat="42.129609926721834" lon="13.124279822760688"><ele>797.0</ele><time>2026-04-09T14:50:16.001Z</time></trkpt><trkpt lat="42.12932669052394" lon="13.124159928343369"><ele>791.5</ele><time>2026-04-09T14:50:17.001Z</time></trkpt><trkpt lat="42.129062070480046" lon="13.124047533399274"><ele>786.0</ele><time>2026-04-09T14:50:18.001Z</time></trkpt><trkpt lat="42.12880217933965" lon="13.123939338303042"><ele>786.0</ele><time>2026-04-09T14:50:19.001Z</time></trkpt><trkpt lat="42.12856208218192" lon="13.123834590492622"><ele>786.0</ele><time>2026-04-09T14:50:20.001Z</time></trkpt><trkpt lat="42.1283525530012" lon="13.123738382609218"><ele>793.0</ele><time>2026-04-09T14:50:21.001Z</time></trkpt><trkpt lat="42.12816701486576" lon="13.123641021947238"><ele>800.0</ele><time>2026-04-09T14:50:22.001Z</time></trkpt><trkpt lat="42.128018267803455" lon="13.123490514545752"><ele>807.0</ele><time>2026-04-09T14:50:23.001Z</time></trkpt><trkpt lat="42.127856027706876" lon="13.123323442994698"><ele>803.0</ele><time>2026-04-09T14:50:24.001Z</time></trkpt><trkpt lat="42.1277071033517" lon="13.123106807831899"><ele>799.0</ele><time>2026-04-09T14:50:25.001Z</time></trkpt><trkpt lat="42.12755098629307" lon="13.122855203465035"><ele>802.0</ele><time>2026-04-09T14:50:26.001Z</time></trkpt><trkpt lat="42.12737467863861" lon="13.122584115759658"><ele>805.0</ele><time>2026-04-09T14:50:27.001Z</time></trkpt><trkpt lat="42.127185331338055" lon="13.122309442987698"><ele>805.0</ele><time>2026-04-09T14:50:28Z</time></trkpt><trkpt lat="42.12701756241902" lon="13.122060239603504"><ele>805.0</ele><time>2026-04-09T14:50:29Z</time></trkpt><trkpt lat="42.126867077194454" lon="13.121833808701671"><ele>805.0</ele><time>2026-04-09T14:50:30Z</time></trkpt><trkpt lat="42.12673151378545" lon="13.121630382585124"><ele>805.0</ele><time>2026-04-09T14:50:31Z</time></trkpt><trkpt lat="42.126601268584594" lon="13.12145341534842"><ele>805.0</ele><time>2026-04-09T14:50:32Z</time></trkpt><trkpt lat="42.12644893078137" lon="13.121328366978407"><ele>803.3333333333333</ele><time>2026-04-09T14:50:33Z</time></trkpt><trkpt lat="42.126277656301234" lon="13.121264313403055"><ele>801.6666666666667</ele><time>2026-04-09T14:50:34Z</time></trkpt><trkpt lat="42.12610287512034" lon="13.121292162848944"><ele>800.0</ele><time>2026-04-09T14:50:35Z</time></trkpt><trkpt lat="42.12593299314219" lon="13.121358958220792"><ele>800.0</ele><time>2026-04-09T14:50:36Z</time></trkpt><trkpt lat="42.1257905298424" lon="13.121472439777005"><ele>800.0</ele><time>2026-04-09T14:50:37Z</time></trkpt><trkpt lat="42.12567175792747" lon="13.121645955766873"><ele>800.0</ele><time>2026-04-09T14:50:38Z</time></trkpt><trkpt lat="42.12559070844679" lon="13.121852374182236"><ele>811.0</ele><time>2026-04-09T14:50:39Z</time></trkpt><trkpt lat="42.125549386561936" lon="13.122091796364327"><ele>822.0</ele><time>2026-04-09T14:50:40Z</time></trkpt><trkpt lat="42.125539018463165" lon="13.122335735814227"><ele>833.0</ele><time>2026-04-09T14:50:41Z</time></trkpt><trkpt lat="42.125586789670756" lon="13.122581882646152"><ele>833.0</ele><time>2026-04-09T14:50:42Z</time></trkpt><trkpt lat="42.12568683236702" lon="13.122809789222593"><ele>833.0</ele><time>2026-04-09T14:50:43Z</time></trkpt><trkpt lat="42.12580878081072" lon="13.1230263251925"><ele>833.0</ele><time>2026-04-09T14:50:44Z</time></trkpt><trkpt lat="42.12594397623884" lon="13.12329440718817"><ele>833.0</ele><time>2026-04-09T14:50:45Z</time></trkpt><trkpt lat="42.12608339192808" lon="13.123590217861064"><ele>833.0</ele><time>2026-04-09T14:50:46Z</time></trkpt><trkpt lat="42.12623239539694" lon="13.123882128650546"><ele>837.0</ele><time>2026-04-09T14:50:47Z</time></trkpt><trkpt lat="42.12636403587876" lon="13.124170919888734"><ele>841.0</ele><time>2026-04-09T14:50:48Z</time></trkpt><trkpt lat="42.1265049676196" lon="13.124468612924796"><ele>839.5</ele><time>2026-04-09T14:50:49Z</time></trkpt><trkpt lat="42.12663320453083" lon="13.124742617923951"><ele>838.0</ele><time>2026-04-09T14:50:50Z</time></trkpt><trkpt lat="42.12676452948298" lon="13.125016254059172"><ele>838.0</ele><time>2026-04-09T14:50:51Z</time></trkpt><trkpt lat="42.12691308024106" lon="13.125324644881351"><ele>838.0</ele><time>2026-04-09T14:50:52Z</time></trkpt><trkpt lat="42.12706070380593" lon="13.125639014232789"><ele>844.5</ele><time>2026-04-09T14:50:53Z</time></trkpt><trkpt lat="42.12719291783041" lon="13.125921148195681"><ele>851.0</ele><time>2026-04-09T14:50:54Z</time></trkpt><trkpt lat="42.12731463575039" lon="13.126180447212919"><ele>846.0</ele><time>2026-04-09T14:50:55Z</time></trkpt><trkpt lat="42.127428243181775" lon="13.126419118244334"><ele>841.0</ele><time>2026-04-09T14:50:56Z</time></trkpt><trkpt lat="42.12753435579072" lon="13.126649652641424"><ele>836.0</ele><time>2026-04-09T14:50:57Z</time></trkpt><trkpt lat="42.127628410173976" lon="13.126865855814842"><ele>836.0</ele><time>2026-04-09T14:50:58Z</time></trkpt><trkpt lat="42.12772503224247" lon="13.127081201792844"><ele>836.0</ele><time>2026-04-09T14:50:59Z</time></trkpt><trkpt lat="42.12784348493324" lon="13.127285329390746"><ele>836.0</ele><time>2026-04-09T14:51:00Z</time></trkpt><trkpt lat="42.12799705138112" lon="13.127466396729755"><ele>835.3333333333334</ele><time>2026-04-09T14:51:01Z</time></trkpt><trkpt lat="42.12815358781406" lon="13.127618482957152"><ele>834.6666666666667</ele><time>2026-04-09T14:51:02Z</time></trkpt><trkpt lat="42.128321389113076" lon="13.127754345359001"><ele>834.0</ele><time>2026-04-09T14:51:03Z</time></trkpt><trkpt lat="42.12851650965569" lon="13.127879655846668"><ele>834.0</ele><time>2026-04-09T14:51:04Z</time></trkpt><trkpt lat="42.12871489916051" lon="13.12797448440255"><ele>834.0</ele><time>2026-04-09T14:51:05Z</time></trkpt><trkpt lat="42.128906118201854" lon="13.12803673121118"><ele>834.0</ele><time>2026-04-09T14:51:06Z</time></trkpt><trkpt lat="42.129087644718055" lon="13.128088572356408"><ele>835.3333333333333</ele><time>2026-04-09T14:51:07Z</time></trkpt><trkpt lat="42.12926860243375" lon="13.128173026300614"><ele>836.6666666666666</ele><time>2026-04-09T14:51:08Z</time></trkpt><trkpt lat="42.12946204655268" lon="13.12822037599293"><ele>838.0</ele><time>2026-04-09T14:51:09Z</time></trkpt><trkpt lat="42.129656587135365" lon="13.128313963380338"><ele>845.0</ele><time>2026-04-09T14:51:10Z</time></trkpt><trkpt lat="42.1299073417195" lon="13.128403013393386"><ele>852.0</ele><time>2026-04-09T14:51:11Z</time></trkpt><trkpt lat="42.130180291510726" lon="13.12850051045572"><ele>852.0</ele><time>2026-04-09T14:51:12.001Z</time></trkpt><trkpt lat="42.13045192349458" lon="13.12859753681054"><ele>852.0</ele><time>2026-04-09T14:51:13.001Z</time></trkpt><trkpt lat="42.13070603271209" lon="13.128690950333793"><ele>848.5</ele><time>2026-04-09T14:51:14.001Z</time></trkpt><trkpt lat="42.130933860837594" lon="13.128763260289453"><ele>845.0</ele><time>2026-04-09T14:51:15.001Z</time></trkpt><trkpt lat="42.13114540979922" lon="13.128872784888788"><ele>845.0</ele><time>2026-04-09T14:51:16.001Z</time></trkpt><trkpt lat="42.13133576332069" lon="13.129039192066498"><ele>845.0</ele><time>2026-04-09T14:51:17.001Z</time></trkpt><trkpt lat="42.13153344255316" lon="13.129193711037619"><ele>848.0</ele><time>2026-04-09T14:51:18.001Z</time></trkpt><trkpt lat="42.13170883125061" lon="13.129397269023238"><ele>851.0</ele><time>2026-04-09T14:51:19.001Z</time></trkpt><trkpt lat="42.13186479288021" lon="13.129599153713603"><ele>854.0</ele><time>2026-04-09T14:51:20.001Z</time></trkpt><trkpt lat="42.13202425778014" lon="13.129795035373224"><ele>857.6666666666667</ele><time>2026-04-09T14:51:21.001Z</time></trkpt><trkpt lat="42.13218866786835" lon="13.130002241645974"><ele>861.3333333333333</ele><time>2026-04-09T14:51:22.001Z</time></trkpt><trkpt lat="42.13233595696664" lon="13.130187607144778"><ele>865.0</ele><time>2026-04-09T14:51:23.001Z</time></trkpt><trkpt lat="42.132476807462375" lon="13.130360342263412"><ele>865.0</ele><time>2026-04-09T14:51:24.001Z</time></trkpt><trkpt lat="42.13262651116213" lon="13.130535135196888"><ele>865.0</ele><time>2026-04-09T14:51:25.001Z</time></trkpt><trkpt lat="42.132770665848064" lon="13.130711002192594"><ele>865.0</ele><time>2026-04-09T14:51:26.001Z</time></trkpt><trkpt lat="42.132893300220445" lon="13.130865421452535"><ele>863.3333333333333</ele><time>2026-04-09T14:51:27.001Z</time></trkpt><trkpt lat="42.13300962419007" lon="13.131008606136401"><ele>861.6666666666667</ele><time>2026-04-09T14:51:28.001Z</time></trkpt><trkpt lat="42.13313603035996" lon="13.131162856648965"><ele>860.0</ele><time>2026-04-09T14:51:29.001Z</time></trkpt><trkpt lat="42.13322872106125" lon="13.131310047789006"><ele>860.0</ele><time>2026-04-09T14:51:30.001Z</time></trkpt><trkpt lat="42.133313356811726" lon="13.131421085339756"><ele>860.0</ele><time>2026-04-09T14:51:31.001Z</time></trkpt><trkpt lat="42.133377485068095" lon="13.131527834163425"><ele>860.0</ele><time>2026-04-09T14:51:32.001Z</time></trkpt><trkpt lat="42.133439153605494" lon="13.131608754875913"><ele>860.0</ele><time>2026-04-09T14:51:33.001Z</time></trkpt><trkpt lat="42.1334707914725" lon="13.131706428088929"><ele>860.0</ele><time>2026-04-09T14:51:34.001Z</time></trkpt><trkpt lat="42.133618829844785" lon="13.131692196015141"><ele>860.0</ele><time>2026-04-09T14:51:36.001Z</time></trkpt><trkpt lat="42.13367793780365" lon="13.131641258934462"><ele>860.0</ele><time>2026-04-09T14:51:37.001Z</time></trkpt><trkpt lat="42.13373167640186" lon="13.131579486846563"><ele>860.0</ele><time>2026-04-09T14:51:38.001Z</time></trkpt><trkpt lat="42.13379745555209" lon="13.131528809088689"><ele>860.0</ele><time>2026-04-09T14:51:39.001Z</time></trkpt><trkpt lat="42.13385763790545" lon="13.131474327863614"><ele>860.0</ele><time>2026-04-09T14:51:40.001Z</time></trkpt><trkpt lat="42.13391864274732" lon="13.131429106039052"><ele>860.0</ele><time>2026-04-09T14:51:41.001Z</time></trkpt><trkpt lat="42.13398365589622" lon="13.131385239723691"><ele>860.0</ele><time>2026-04-09T14:51:42.001Z</time></trkpt><trkpt lat="42.13404385962106" lon="13.131341805560119"><ele>860.1666666666667</ele><time>2026-04-09T14:51:43.001Z</time></trkpt><trkpt lat="42.13410597139999" lon="13.131300947413699"><ele>860.3333333333334</ele><time>2026-04-09T14:51:44.001Z</time></trkpt><trkpt lat="42.13417451015217" lon="13.13125327602108"><ele>860.5</ele><time>2026-04-09T14:51:45.001Z</time></trkpt><trkpt lat="42.13424223342602" lon="13.131193652759901"><ele>860.6666666666667</ele><time>2026-04-09T14:51:46.001Z</time></trkpt><trkpt lat="42.13430923705541" lon="13.131134040469933"><ele>860.8333333333334</ele><time>2026-04-09T14:51:47.001Z</time></trkpt><trkpt lat="42.1343719076247" lon="13.131073844170427"><ele>861.0</ele><time>2026-04-09T14:51:48.001Z</time></trkpt><trkpt lat="42.1344278134573" lon="13.131010806140592"><ele>861.0</ele><time>2026-04-09T14:51:49.001Z</time></trkpt><trkpt lat="42.13447579277047" lon="13.13094084412858"><ele>861.0</ele><time>2026-04-09T14:51:50.001Z</time></trkpt><trkpt lat="42.13451567173385" lon="13.130861541180625"><ele>861.0</ele><time>2026-04-09T14:51:51.001Z</time></trkpt><trkpt lat="42.13454650882723" lon="13.130776911796373"><ele>861.0</ele><time>2026-04-09T14:51:52.001Z</time></trkpt><trkpt lat="42.13456885286468" lon="13.130692031312066"><ele>861.0</ele><time>2026-04-09T14:51:53.001Z</time></trkpt><trkpt lat="42.13458245092179" lon="13.130604582307338"><ele>861.0</ele><time>2026-04-09T14:51:54.001Z</time></trkpt><trkpt lat="42.13459593161898" lon="13.13051629866357"><ele>861.0</ele><time>2026-04-09T14:51:55.001Z</time></trkpt><trkpt lat="42.134613267569144" lon="13.13042623925572"><ele>860.5714285714286</ele><time>2026-04-09T14:51:56.001Z</time></trkpt><trkpt lat="42.13463432611839" lon="13.13033327830011"><ele>860.1428571428571</ele><time>2026-04-09T14:51:57.001Z</time></trkpt><trkpt lat="42.13465386837187" lon="13.130240250489443"><ele>859.7142857142858</ele><time>2026-04-09T14:51:58.001Z</time></trkpt><trkpt lat="42.13467111167026" lon="13.130142136094872"><ele>859.2857142857142</ele><time>2026-04-09T14:51:59.001Z</time></trkpt><trkpt lat="42.134691576220725" lon="13.130045095298996"><ele>858.8571428571429</ele><time>2026-04-09T14:52:00.001Z</time></trkpt><trkpt lat="42.13471306242818" lon="13.1299509688724"><ele>858.4285714285714</ele><time>2026-04-09T14:52:01.001Z</time></trkpt><trkpt lat="42.134730077035414" lon="13.129856076139996"><ele>858.0</ele><time>2026-04-09T14:52:02.001Z</time></trkpt><trkpt lat="42.13474702208668" lon="13.129764175944405"><ele>858.0</ele><time>2026-04-09T14:52:03.001Z</time></trkpt><trkpt lat="42.134785640470874" lon="13.129682333100705"><ele>858.0</ele><time>2026-04-09T14:52:04.001Z</time></trkpt><trkpt lat="42.134813546707335" lon="13.129594327884163"><ele>858.0</ele><time>2026-04-09T14:52:05.001Z</time></trkpt><trkpt lat="42.13483279646473" lon="13.129504507097794"><ele>858.0</ele><time>2026-04-09T14:52:06.001Z</time></trkpt><trkpt lat="42.13487579137024" lon="13.129429698257754"><ele>858.0</ele><time>2026-04-09T14:52:07.001Z</time></trkpt><trkpt lat="42.13496892005554" lon="13.129289083965942"><ele>858.0</ele><time>2026-04-09T14:52:09.001Z</time></trkpt><trkpt lat="42.1350193866894" lon="13.129217508879838"><ele>861.0</ele><time>2026-04-09T14:52:10.001Z</time></trkpt><trkpt lat="42.13507361058451" lon="13.129145463912113"><ele>864.0</ele><time>2026-04-09T14:52:11.001Z</time></trkpt><trkpt lat="42.13512446632056" lon="13.129082427222551"><ele>867.0</ele><time>2026-04-09T14:52:12.001Z</time></trkpt><trkpt lat="42.13518221281037" lon="13.129011615355582"><ele>870.0</ele><time>2026-04-09T14:52:13.001Z</time></trkpt><trkpt lat="42.1352351044803" lon="13.128948408500065"><ele>873.0</ele><time>2026-04-09T14:52:14.001Z</time></trkpt><trkpt lat="42.13533117284055" lon="13.128847957326279"><ele>876.0</ele><time>2026-04-09T14:52:16.001Z</time></trkpt><trkpt lat="42.13544186927826" lon="13.128784565507704"><ele>875.8</ele><time>2026-04-09T14:52:18.001Z</time></trkpt><trkpt lat="42.13553205159769" lon="13.128771891711912"><ele>875.5999999999999</ele><time>2026-04-09T14:52:20.001Z</time></trkpt><trkpt lat="42.13561294836653" lon="13.128753981921356"><ele>875.4</ele><time>2026-04-09T14:52:24.001Z</time></trkpt><trkpt lat="42.13574566704006" lon="13.128685282800504"><ele>875.2</ele><time>2026-04-09T14:52:34Z</time></trkpt><trkpt lat="42.13586201267407" lon="13.128646213290779"><ele>875.0</ele><time>2026-04-09T14:52:35Z</time></trkpt><trkpt lat="42.13596056824601" lon="13.128615380847208"><ele>875.0</ele><time>2026-04-09T14:52:36Z</time></trkpt><trkpt lat="42.13604685374475" lon="13.128603827748066"><ele>875.0</ele><time>2026-04-09T14:52:37Z</time></trkpt><trkpt lat="42.13614810113334" lon="13.128608683875129"><ele>875.0</ele><time>2026-04-09T14:52:38Z</time></trkpt><trkpt lat="42.13629664313673" lon="13.12862076723669"><ele>875.0</ele><time>2026-04-09T14:52:39Z</time></trkpt><trkpt lat="42.136412812860485" lon="13.128624618697913"><ele>875.0000000000001</ele><time>2026-04-09T14:52:40Z</time></trkpt><trkpt lat="42.13651893417037" lon="13.128625472686274"><ele>875.0</ele><time>2026-04-09T14:52:41Z</time></trkpt><trkpt lat="42.13660599140145" lon="13.128624542626573"><ele>875.0</ele><time>2026-04-09T14:52:42Z</time></trkpt><trkpt lat="42.13668355494695" lon="13.12862145244719"><ele>875.0</ele><time>2026-04-09T14:52:43Z</time></trkpt><trkpt lat="42.13675783275342" lon="13.128595296720214"><ele>875.0000000000001</ele><time>2026-04-09T14:52:44Z</time></trkpt><trkpt lat="42.13682456589303" lon="13.128600874613557"><ele>875.0</ele><time>2026-04-09T14:52:45Z</time></trkpt><trkpt lat="42.136926948228144" lon="13.128627764408455"><ele>866.0</ele><time>2026-04-09T14:52:47Z</time></trkpt><trkpt lat="42.136996680017624" lon="13.128564469404841"><ele>866.0</ele><time>2026-04-09T14:52:50Z</time></trkpt><trkpt lat="42.137035947570766" lon="13.128496003017185"><ele>866.0</ele><time>2026-04-09T14:52:52Z</time></trkpt><trkpt lat="42.13709744686892" lon="13.128387898005847"><ele>866.0</ele><time>2026-04-09T14:52:54Z</time></trkpt></trkseg></trk></gpx>